Wetterdaten: Freitag, 06.09.2019
Datum Zeit Temp. A. Feuchte A. Luftdruck Regen Wind Richtung Richtung Sonnenschein ET UV Solar Taupunkt Windchill Windböen
06.09.2019 00:00 7,7 °C 95 % 1022,4 hPa 0,0 mm 0,0 km/h (0 Bft) N 349 ° 0 min 0,000 mm 0,0 UV-I 0 W/m² 7,0 °C 7,7 °C 0,0 km/h (0 Bft)
06.09.2019 00:01 7,7 °C 95 % 1022,4 hPa 0,0 mm 0,0 km/h (0 Bft) N 349 ° 0 min 0,000 mm 0,0 UV-I 0 W/m² 7,0 °C 7,7 °C 0,0 km/h (0 Bft)
06.09.2019 00:02 7,7 °C 95 % 1022,5 hPa 0,0 mm 0,5 km/h (0 Bft) N 349 ° 0 min 0,000 mm 0,0 UV-I 0 W/m² 7,0 °C 7,7 °C 3,2 km/h (1 Bft)
06.09.2019 00:03 7,7 °C 95 % 1022,5 hPa 0,0 mm 0,2 km/h (0 Bft) N 349 ° 0 min 0,000 mm 0,0 UV-I 0 W/m² 7,0 °C 7,7 °C 1,6 km/h (1 Bft)
06.09.2019 00:04 7,7 °C 95 % 1022,5 hPa 0,0 mm 0,0 km/h (0 Bft) N 349 ° 0 min 0,000 mm 0,0 UV-I 0 W/m² 7,0 °C 7,7 °C 0,0 km/h (0 Bft)
06.09.2019 00:05 7,7 °C 95 % 1022,5 hPa 0,0 mm 0,0 km/h (0 Bft) N 349 ° 0 min 0,000 mm 0,0 UV-I 0 W/m² 7,0 °C 7,7 °C 0,0 km/h (0 Bft)
06.09.2019 00:06 7,7 °C 95 % 1022,4 hPa 0,0 mm 0,0 km/h (0 Bft) N 349 ° 0 min 0,000 mm 0,0 UV-I 0 W/m² 7,0 °C 7,7 °C 0,0 km/h (0 Bft)
06.09.2019 00:07 7,7 °C 95 % 1022,4 hPa 0,0 mm 0,0 km/h (0 Bft) N 349 ° 0 min 0,000 mm 0,0 UV-I 0 W/m² 7,0 °C 7,7 °C 0,0 km/h (0 Bft)
06.09.2019 00:08 7,7 °C 95 % 1022,4 hPa 0,0 mm 0,0 km/h (0 Bft) N 349 ° 0 min 0,000 mm 0,0 UV-I 0 W/m² 7,0 °C 7,7 °C 0,0 km/h (0 Bft)
06.09.2019 00:09 7,7 °C 95 % 1022,4 hPa 0,0 mm 0,0 km/h (0 Bft) N 349 ° 0 min 0,000 mm 0,0 UV-I 0 W/m² 7,0 °C 7,7 °C 0,0 km/h (0 Bft)
06.09.2019 00:10 7,7 °C 95 % 1022,4 hPa 0,0 mm 0,0 km/h (0 Bft) N 349 ° 0 min 0,000 mm 0,0 UV-I 0 W/m² 7,0 °C 7,7 °C 0,0 km/h (0 Bft)
06.09.2019 00:11 7,7 °C 95 % 1022,4 hPa 0,0 mm 0,0 km/h (0 Bft) N 349 ° 0 min 0,000 mm 0,0 UV-I 0 W/m² 7,0 °C 7,7 °C 0,0 km/h (0 Bft)
06.09.2019 00:12 7,7 °C 95 % 1022,4 hPa 0,0 mm 0,0 km/h (0 Bft) N 349 ° 0 min 0,000 mm 0,0 UV-I 0 W/m² 7,0 °C 7,7 °C 0,0 km/h (0 Bft)
06.09.2019 00:13 7,7 °C 95 % 1022,4 hPa 0,0 mm 0,0 km/h (0 Bft) N 349 ° 0 min 0,000 mm 0,0 UV-I 0 W/m² 7,0 °C 7,7 °C 0,0 km/h (0 Bft)
06.09.2019 00:14 7,7 °C 95 % 1022,4 hPa 0,2 mm 0,0 km/h (0 Bft) N 349 ° 0 min 0,000 mm 0,0 UV-I 0 W/m² 7,0 °C 7,7 °C 0,0 km/h (0 Bft)
06.09.2019 00:15 7,7 °C 95 % 1022,4 hPa 0,0 mm 0,0 km/h (0 Bft) N 349 ° 0 min 0,000 mm 0,0 UV-I 0 W/m² 7,0 °C 7,7 °C 0,0 km/h (0 Bft)
06.09.2019 00:16 7,7 °C 95 % 1022,4 hPa 0,0 mm 0,0 km/h (0 Bft) N 349 ° 0 min 0,000 mm 0,0 UV-I 0 W/m² 7,0 °C 7,7 °C 0,0 km/h (0 Bft)
06.09.2019 00:17 7,7 °C 95 % 1022,4 hPa 0,0 mm 0,0 km/h (0 Bft) N-NW 348 ° 0 min 0,000 mm 0,0 UV-I 0 W/m² 7,0 °C 7,7 °C 0,0 km/h (0 Bft)
06.09.2019 00:18 7,7 °C 95 % 1022,5 hPa 0,0 mm 0,0 km/h (0 Bft) N 355 ° 0 min 0,000 mm 0,0 UV-I 0 W/m² 7,0 °C 7,7 °C 0,0 km/h (0 Bft)
06.09.2019 00:19 7,7 °C 95 % 1022,4 hPa 0,0 mm 0,0 km/h (0 Bft) N 355 ° 0 min 0,000 mm 0,0 UV-I 0 W/m² 7,0 °C 7,7 °C 0,0 km/h (0 Bft)
06.09.2019 00:20 7,7 °C 95 % 1022,4 hPa 0,0 mm 0,0 km/h (0 Bft) N 355 ° 0 min 0,000 mm 0,0 UV-I 0 W/m² 7,0 °C 7,7 °C 0,0 km/h (0 Bft)
06.09.2019 00:21 7,6 °C 95 % 1022,5 hPa 0,0 mm 0,0 km/h (0 Bft) N 355 ° 0 min 0,000 mm 0,0 UV-I 0 W/m² 6,9 °C 7,6 °C 0,0 km/h (0 Bft)
06.09.2019 00:22 7,7 °C 95 % 1022,5 hPa 0,0 mm 0,0 km/h (0 Bft) N 355 ° 0 min 0,000 mm 0,0 UV-I 0 W/m² 7,0 °C 7,7 °C 0,0 km/h (0 Bft)
06.09.2019 00:23 7,7 °C 95 % 1022,5 hPa 0,0 mm 0,0 km/h (0 Bft) N 355 ° 0 min 0,000 mm 0,0 UV-I 0 W/m² 7,0 °C 7,7 °C 0,0 km/h (0 Bft)
06.09.2019 00:24 7,7 °C 95 % 1022,5 hPa 0,0 mm 0,0 km/h (0 Bft) N 355 ° 0 min 0,000 mm 0,0 UV-I 0 W/m² 7,0 °C 7,7 °C 0,0 km/h (0 Bft)
06.09.2019 00:25 7,6 °C 95 % 1022,5 hPa 0,0 mm 0,0 km/h (0 Bft) N 355 ° 0 min 0,000 mm 0,0 UV-I 0 W/m² 6,9 °C 7,6 °C 0,0 km/h (0 Bft)
06.09.2019 00:26 7,7 °C 95 % 1022,4 hPa 0,0 mm 0,0 km/h (0 Bft) N 355 ° 0 min 0,000 mm 0,0 UV-I 0 W/m² 7,0 °C 7,7 °C 0,0 km/h (0 Bft)
06.09.2019 00:27 7,6 °C 95 % 1022,5 hPa 0,0 mm 0,0 km/h (0 Bft) O-NO 76 ° 0 min 0,000 mm 0,0 UV-I 0 W/m² 6,9 °C 7,6 °C 0,0 km/h (0 Bft)
06.09.2019 00:28 7,6 °C 95 % 1022,5 hPa 0,0 mm 0,0 km/h (0 Bft) O-NO 76 ° 0 min 0,000 mm 0,0 UV-I 0 W/m² 6,9 °C 7,6 °C 0,0 km/h (0 Bft)
06.09.2019 00:29 7,6 °C 95 % 1022,5 hPa 0,0 mm 0,0 km/h (0 Bft) O-NO 76 ° 0 min 0,000 mm 0,0 UV-I 0 W/m² 6,9 °C 7,6 °C 0,0 km/h (0 Bft)
06.09.2019 00:30 7,6 °C 95 % 1022,5 hPa 0,0 mm 0,0 km/h (0 Bft) O-NO 76 ° 0 min 0,000 mm 0,0 UV-I 0 W/m² 6,9 °C 7,6 °C 0,0 km/h (0 Bft)
06.09.2019 00:31 7,6 °C 95 % 1022,4 hPa 0,2 mm 0,0 km/h (0 Bft) O-NO 76 ° 0 min 0,000 mm 0,0 UV-I 0 W/m² 6,9 °C 7,6 °C 0,0 km/h (0 Bft)
06.09.2019 00:32 7,6 °C 95 % 1022,4 hPa 0,0 mm 0,0 km/h (0 Bft) SO 144 ° 0 min 0,000 mm 0,0 UV-I 0 W/m² 6,9 °C 7,6 °C 0,0 km/h (0 Bft)
06.09.2019 00:33 7,6 °C 95 % 1022,4 hPa 0,0 mm 0,0 km/h (0 Bft) SO 144 ° 0 min 0,000 mm 0,0 UV-I 0 W/m² 6,9 °C 7,6 °C 0,0 km/h (0 Bft)
06.09.2019 00:34 7,7 °C 95 % 1022,4 hPa 0,0 mm 0,0 km/h (0 Bft) SO 144 ° 0 min 0,000 mm 0,0 UV-I 0 W/m² 7,0 °C 7,7 °C 0,0 km/h (0 Bft)
06.09.2019 00:35 7,7 °C 95 % 1022,4 hPa 0,0 mm 0,0 km/h (0 Bft) SO 144 ° 0 min 0,000 mm 0,0 UV-I 0 W/m² 7,0 °C 7,7 °C 0,0 km/h (0 Bft)
06.09.2019 00:36 7,6 °C 95 % 1022,4 hPa 0,0 mm 0,0 km/h (0 Bft) SO 144 ° 0 min 0,000 mm 0,0 UV-I 0 W/m² 6,9 °C 7,6 °C 0,0 km/h (0 Bft)
06.09.2019 00:37 7,6 °C 95 % 1022,4 hPa 0,0 mm 0,0 km/h (0 Bft) SO 144 ° 0 min 0,000 mm 0,0 UV-I 0 W/m² 6,9 °C 7,6 °C 0,0 km/h (0 Bft)
06.09.2019 00:38 7,7 °C 95 % 1022,4 hPa 0,0 mm 0,0 km/h (0 Bft) SO 144 ° 0 min 0,000 mm 0,0 UV-I 0 W/m² 7,0 °C 7,7 °C 0,0 km/h (0 Bft)
06.09.2019 00:39 7,7 °C 95 % 1022,4 hPa 0,0 mm 0,0 km/h (0 Bft) SO 144 ° 0 min 0,000 mm 0,0 UV-I 0 W/m² 7,0 °C 7,7 °C 0,0 km/h (0 Bft)
06.09.2019 00:40 7,7 °C 95 % 1022,4 hPa 0,0 mm 0,0 km/h (0 Bft) SO 144 ° 0 min 0,000 mm 0,0 UV-I 0 W/m² 7,0 °C 7,7 °C 0,0 km/h (0 Bft)
06.09.2019 00:41 7,7 °C 95 % 1022,4 hPa 0,0 mm 0,0 km/h (0 Bft) SO 144 ° 0 min 0,000 mm 0,0 UV-I 0 W/m² 7,0 °C 7,7 °C 0,0 km/h (0 Bft)
06.09.2019 00:42 7,7 °C 95 % 1022,4 hPa 0,0 mm 0,0 km/h (0 Bft) SO 144 ° 0 min 0,000 mm 0,0 UV-I 0 W/m² 7,0 °C 7,7 °C 0,0 km/h (0 Bft)
06.09.2019 00:43 7,6 °C 95 % 1022,4 hPa 0,0 mm 0,0 km/h (0 Bft) SO 144 ° 0 min 0,000 mm 0,0 UV-I 0 W/m² 6,9 °C 7,6 °C 0,0 km/h (0 Bft)
06.09.2019 00:44 7,6 °C 95 % 1022,3 hPa 0,0 mm 0,0 km/h (0 Bft) SO 144 ° 0 min 0,000 mm 0,0 UV-I 0 W/m² 6,9 °C 7,6 °C 0,0 km/h (0 Bft)
06.09.2019 00:45 7,7 °C 95 % 1022,4 hPa 0,2 mm 0,0 km/h (0 Bft) SO 144 ° 0 min 0,000 mm 0,0 UV-I 0 W/m² 7,0 °C 7,7 °C 0,0 km/h (0 Bft)
06.09.2019 00:46 7,7 °C 95 % 1022,4 hPa 0,0 mm 0,0 km/h (0 Bft) SO 144 ° 0 min 0,000 mm 0,0 UV-I 0 W/m² 7,0 °C 7,7 °C 0,0 km/h (0 Bft)
06.09.2019 00:47 7,7 °C 95 % 1022,4 hPa 0,0 mm 0,0 km/h (0 Bft) SO 144 ° 0 min 0,000 mm 0,0 UV-I 0 W/m² 7,0 °C 7,7 °C 0,0 km/h (0 Bft)
06.09.2019 00:48 7,6 °C 95 % 1022,4 hPa 0,0 mm 0,0 km/h (0 Bft) SO 144 ° 0 min 0,000 mm 0,0 UV-I 0 W/m² 6,9 °C 7,6 °C 0,0 km/h (0 Bft)
06.09.2019 00:49 7,7 °C 95 % 1022,5 hPa 0,0 mm 0,0 km/h (0 Bft) O-SO 102 ° 0 min 0,000 mm 0,0 UV-I 0 W/m² 7,0 °C 7,7 °C 0,0 km/h (0 Bft)
06.09.2019 00:50 7,6 °C 95 % 1022,5 hPa 0,0 mm 0,0 km/h (0 Bft) O-SO 103 ° 0 min 0,000 mm 0,0 UV-I 0 W/m² 6,9 °C 7,6 °C 0,0 km/h (0 Bft)
06.09.2019 00:51 7,7 °C 95 % 1022,5 hPa 0,0 mm 0,0 km/h (0 Bft) O-SO 103 ° 0 min 0,000 mm 0,0 UV-I 0 W/m² 7,0 °C 7,7 °C 0,0 km/h (0 Bft)
06.09.2019 00:52 7,7 °C 95 % 1022,5 hPa 0,0 mm 0,0 km/h (0 Bft) O-SO 103 ° 0 min 0,000 mm 0,0 UV-I 0 W/m² 7,0 °C 7,7 °C 0,0 km/h (0 Bft)
06.09.2019 00:53 7,7 °C 95 % 1022,5 hPa 0,0 mm 0,0 km/h (0 Bft) O-SO 103 ° 0 min 0,000 mm 0,0 UV-I 0 W/m² 7,0 °C 7,7 °C 0,0 km/h (0 Bft)
06.09.2019 00:54 7,7 °C 95 % 1022,5 hPa 0,0 mm 0,0 km/h (0 Bft) O-SO 103 ° 0 min 0,000 mm 0,0 UV-I 0 W/m² 7,0 °C 7,7 °C 0,0 km/h (0 Bft)
06.09.2019 00:55 7,7 °C 95 % 1022,5 hPa 0,0 mm 0,0 km/h (0 Bft) O-SO 103 ° 0 min 0,000 mm 0,0 UV-I 0 W/m² 7,0 °C 7,7 °C 0,0 km/h (0 Bft)
06.09.2019 00:56 7,7 °C 95 % 1022,5 hPa 0,0 mm 0,1 km/h (0 Bft) O-SO 107 ° 0 min 0,000 mm 0,0 UV-I 0 W/m² 7,0 °C 7,7 °C 1,6 km/h (1 Bft)
06.09.2019 00:57 7,7 °C 95 % 1022,4 hPa 0,0 mm 0,5 km/h (0 Bft) O-SO 107 ° 0 min 0,000 mm 0,0 UV-I 0 W/m² 7,0 °C 7,7 °C 1,6 km/h (1 Bft)
06.09.2019 00:58 7,7 °C 95 % 1022,3 hPa 0,0 mm 1,3 km/h (1 Bft) O-SO 119 ° 0 min 0,000 mm 0,0 UV-I 0 W/m² 7,0 °C 7,7 °C 3,2 km/h (1 Bft)
06.09.2019 00:59 7,7 °C 95 % 1022,3 hPa 0,0 mm 0,1 km/h (0 Bft) O-SO 119 ° 0 min 0,000 mm 0,0 UV-I 0 W/m² 7,0 °C 7,7 °C 1,6 km/h (1 Bft)
06.09.2019 01:00 7,7 °C 95 % 1022,3 hPa 0,0 mm 0,0 km/h (0 Bft) O-SO 119 ° 0 min 0,000 mm 0,0 UV-I 0 W/m² 7,0 °C 7,7 °C 0,0 km/h (0 Bft)
06.09.2019 01:01 7,7 °C 95 % 1022,3 hPa 0,0 mm 0,0 km/h (0 Bft) O-SO 119 ° 0 min 0,000 mm 0,0 UV-I 0 W/m² 7,0 °C 7,7 °C 0,0 km/h (0 Bft)
06.09.2019 01:02 7,7 °C 95 % 1022,3 hPa 0,2 mm 0,0 km/h (0 Bft) O-SO 119 ° 0 min 0,000 mm 0,0 UV-I 0 W/m² 7,0 °C 7,7 °C 0,0 km/h (0 Bft)
06.09.2019 01:03 7,7 °C 95 % 1022,3 hPa 0,0 mm 0,0 km/h (0 Bft) O-SO 119 ° 0 min 0,000 mm 0,0 UV-I 0 W/m² 7,0 °C 7,7 °C 0,0 km/h (0 Bft)
06.09.2019 01:04 7,7 °C 95 % 1022,2 hPa 0,0 mm 0,0 km/h (0 Bft) O-SO 119 ° 0 min 0,000 mm 0,0 UV-I 0 W/m² 7,0 °C 7,7 °C 0,0 km/h (0 Bft)
06.09.2019 01:05 7,8 °C 95 % 1022,2 hPa 0,0 mm 0,0 km/h (0 Bft) NO 43 ° 0 min 0,000 mm 0,0 UV-I 0 W/m² 7,0 °C 7,8 °C 0,0 km/h (0 Bft)
06.09.2019 01:06 7,8 °C 95 % 1022,3 hPa 0,0 mm 0,0 km/h (0 Bft) NO 55 ° 0 min 0,000 mm 0,0 UV-I 0 W/m² 7,0 °C 7,8 °C 0,0 km/h (0 Bft)
06.09.2019 01:07 7,7 °C 95 % 1022,3 hPa 0,0 mm 0,7 km/h (0 Bft) S-SW 213 ° 0 min 0,000 mm 0,0 UV-I 0 W/m² 7,0 °C 7,7 °C 1,6 km/h (1 Bft)
06.09.2019 01:08 7,8 °C 95 % 1022,2 hPa 0,0 mm 0,0 km/h (0 Bft) SW 215 ° 0 min 0,000 mm 0,0 UV-I 0 W/m² 7,0 °C 7,8 °C 0,0 km/h (0 Bft)
06.09.2019 01:09 7,8 °C 95 % 1022,2 hPa 0,0 mm 0,0 km/h (0 Bft) SW 215 ° 0 min 0,000 mm 0,0 UV-I 0 W/m² 7,0 °C 7,8 °C 0,0 km/h (0 Bft)
06.09.2019 01:10 7,8 °C 95 % 1022,2 hPa 0,0 mm 0,0 km/h (0 Bft) SW 215 ° 0 min 0,000 mm 0,0 UV-I 0 W/m² 7,0 °C 7,8 °C 0,0 km/h (0 Bft)
06.09.2019 01:11 7,8 °C 95 % 1022,2 hPa 0,0 mm 0,0 km/h (0 Bft) SW 215 ° 0 min 0,000 mm 0,0 UV-I 0 W/m² 7,0 °C 7,8 °C 0,0 km/h (0 Bft)
06.09.2019 01:12 7,8 °C 95 % 1022,2 hPa 0,0 mm 0,0 km/h (0 Bft) SW 216 ° 0 min 0,000 mm 0,0 UV-I 0 W/m² 7,0 °C 7,8 °C 0,0 km/h (0 Bft)
06.09.2019 01:13 7,7 °C 95 % 1022,2 hPa 0,0 mm 0,0 km/h (0 Bft) SW 216 ° 0 min 0,000 mm 0,0 UV-I 0 W/m² 7,0 °C 7,7 °C 0,0 km/h (0 Bft)
06.09.2019 01:14 7,7 °C 95 % 1022,1 hPa 0,0 mm 0,0 km/h (0 Bft) SW 216 ° 0 min 0,000 mm 0,0 UV-I 0 W/m² 7,0 °C 7,7 °C 0,0 km/h (0 Bft)
06.09.2019 01:15 7,7 °C 95 % 1022,1 hPa 0,0 mm 0,0 km/h (0 Bft) SW 216 ° 0 min 0,000 mm 0,0 UV-I 0 W/m² 7,0 °C 7,7 °C 0,0 km/h (0 Bft)
06.09.2019 01:16 7,7 °C 95 % 1022,2 hPa 0,2 mm 0,0 km/h (0 Bft) SW 216 ° 0 min 0,000 mm 0,0 UV-I 0 W/m² 7,0 °C 7,7 °C 0,0 km/h (0 Bft)
06.09.2019 01:17 7,7 °C 95 % 1022,2 hPa 0,0 mm 0,0 km/h (0 Bft) SW 216 ° 0 min 0,000 mm 0,0 UV-I 0 W/m² 7,0 °C 7,7 °C 0,0 km/h (0 Bft)
06.09.2019 01:18 7,7 °C 95 % 1022,2 hPa 0,0 mm 0,0 km/h (0 Bft) S-SW 199 ° 0 min 0,000 mm 0,0 UV-I 0 W/m² 7,0 °C 7,7 °C 0,0 km/h (0 Bft)
06.09.2019 01:19 7,7 °C 95 % 1022,1 hPa 0,0 mm 0,0 km/h (0 Bft) S-SW 199 ° 0 min 0,000 mm 0,0 UV-I 0 W/m² 7,0 °C 7,7 °C 0,0 km/h (0 Bft)
06.09.2019 01:20 7,7 °C 95 % 1022,1 hPa 0,0 mm 0,0 km/h (0 Bft) S-SW 199 ° 0 min 0,000 mm 0,0 UV-I 0 W/m² 7,0 °C 7,7 °C 0,0 km/h (0 Bft)
06.09.2019 01:21 7,7 °C 95 % 1022,1 hPa 0,0 mm 0,0 km/h (0 Bft) S-SW 199 ° 0 min 0,000 mm 0,0 UV-I 0 W/m² 7,0 °C 7,7 °C 0,0 km/h (0 Bft)
06.09.2019 01:22 7,7 °C 95 % 1022,1 hPa 0,0 mm 0,0 km/h (0 Bft) S-SW 199 ° 0 min 0,000 mm 0,0 UV-I 0 W/m² 7,0 °C 7,7 °C 0,0 km/h (0 Bft)
06.09.2019 01:23 7,7 °C 95 % 1022,1 hPa 0,0 mm 0,0 km/h (0 Bft) S-SW 199 ° 0 min 0,000 mm 0,0 UV-I 0 W/m² 7,0 °C 7,7 °C 0,0 km/h (0 Bft)
06.09.2019 01:24 7,7 °C 95 % 1022,1 hPa 0,0 mm 0,0 km/h (0 Bft) S-SW 199 ° 0 min 0,000 mm 0,0 UV-I 0 W/m² 7,0 °C 7,7 °C 0,0 km/h (0 Bft)
06.09.2019 01:25 7,7 °C 95 % 1022,2 hPa 0,0 mm 0,0 km/h (0 Bft) S-SW 199 ° 0 min 0,000 mm 0,0 UV-I 0 W/m² 7,0 °C 7,7 °C 0,0 km/h (0 Bft)
06.09.2019 01:26 7,7 °C 95 % 1022,1 hPa 0,0 mm 0,0 km/h (0 Bft) S-SW 199 ° 0 min 0,000 mm 0,0 UV-I 0 W/m² 7,0 °C 7,7 °C 0,0 km/h (0 Bft)
06.09.2019 01:27 7,7 °C 95 % 1022,2 hPa 0,0 mm 0,4 km/h (0 Bft) S-SW 199 ° 0 min 0,000 mm 0,0 UV-I 0 W/m² 7,0 °C 7,7 °C 1,6 km/h (1 Bft)
06.09.2019 01:28 7,7 °C 95 % 1022,2 hPa 0,0 mm 0,5 km/h (0 Bft) S-SW 200 ° 0 min 0,000 mm 0,0 UV-I 0 W/m² 7,0 °C 7,7 °C 1,6 km/h (1 Bft)
06.09.2019 01:29 7,7 °C 95 % 1022,2 hPa 0,0 mm 0,2 km/h (0 Bft) S-SW 200 ° 0 min 0,000 mm 0,0 UV-I 0 W/m² 7,0 °C 7,7 °C 1,6 km/h (1 Bft)
06.09.2019 01:30 7,7 °C 95 % 1022,2 hPa 0,0 mm 0,0 km/h (0 Bft) S-SW 200 ° 0 min 0,000 mm 0,0 UV-I 0 W/m² 7,0 °C 7,7 °C 0,0 km/h (0 Bft)
06.09.2019 01:31 7,7 °C 95 % 1022,2 hPa 0,0 mm 0,6 km/h (0 Bft) NW 319 ° 0 min 0,000 mm 0,0 UV-I 0 W/m² 7,0 °C 7,7 °C 3,2 km/h (1 Bft)
06.09.2019 01:32 7,7 °C 95 % 1022,2 hPa 0,0 mm 0,0 km/h (0 Bft) NW 319 ° 0 min 0,000 mm 0,0 UV-I 0 W/m² 7,0 °C 7,7 °C 0,0 km/h (0 Bft)
06.09.2019 01:33 7,6 °C 95 % 1022,2 hPa 0,0 mm 0,0 km/h (0 Bft) NW 319 ° 0 min 0,000 mm 0,0 UV-I 0 W/m² 6,9 °C 7,6 °C 0,0 km/h (0 Bft)
06.09.2019 01:34 7,6 °C 95 % 1022,1 hPa 0,0 mm 0,0 km/h (0 Bft) NW 319 ° 0 min 0,000 mm 0,0 UV-I 0 W/m² 6,9 °C 7,6 °C 0,0 km/h (0 Bft)
06.09.2019 01:35 7,7 °C 95 % 1022,1 hPa 0,2 mm 0,1 km/h (0 Bft) NW 319 ° 0 min 0,000 mm 0,0 UV-I 0 W/m² 7,0 °C 7,7 °C 1,6 km/h (1 Bft)
06.09.2019 01:36 7,6 °C 95 % 1022,1 hPa 0,0 mm 0,0 km/h (0 Bft) NW 319 ° 0 min 0,000 mm 0,0 UV-I 0 W/m² 6,9 °C 7,6 °C 0,0 km/h (0 Bft)
06.09.2019 01:37 7,6 °C 95 % 1022,1 hPa 0,0 mm 0,0 km/h (0 Bft) NW 319 ° 0 min 0,000 mm 0,0 UV-I 0 W/m² 6,9 °C 7,6 °C 0,0 km/h (0 Bft)
06.09.2019 01:38 7,6 °C 95 % 1022,1 hPa 0,0 mm 0,0 km/h (0 Bft) NW 319 ° 0 min 0,000 mm 0,0 UV-I 0 W/m² 6,9 °C 7,6 °C 0,0 km/h (0 Bft)
06.09.2019 01:39 7,6 °C 95 % 1022,1 hPa 0,0 mm 0,0 km/h (0 Bft) NW 319 ° 0 min 0,000 mm 0,0 UV-I 0 W/m² 6,9 °C 7,6 °C 0,0 km/h (0 Bft)
06.09.2019 01:40 7,7 °C 95 % 1022,1 hPa 0,0 mm 0,0 km/h (0 Bft) NW 319 ° 0 min 0,000 mm 0,0 UV-I 0 W/m² 7,0 °C 7,7 °C 0,0 km/h (0 Bft)
06.09.2019 01:41 7,6 °C 95 % 1022,1 hPa 0,0 mm 0,0 km/h (0 Bft) NW 319 ° 0 min 0,000 mm 0,0 UV-I 0 W/m² 6,9 °C 7,6 °C 0,0 km/h (0 Bft)
06.09.2019 01:42 7,7 °C 95 % 1022,1 hPa 0,0 mm 0,0 km/h (0 Bft) NW 319 ° 0 min 0,000 mm 0,0 UV-I 0 W/m² 7,0 °C 7,7 °C 0,0 km/h (0 Bft)
06.09.2019 01:43 7,7 °C 95 % 1022,0 hPa 0,0 mm 0,0 km/h (0 Bft) NW 319 ° 0 min 0,000 mm 0,0 UV-I 0 W/m² 7,0 °C 7,7 °C 0,0 km/h (0 Bft)
06.09.2019 01:44 7,7 °C 95 % 1022,0 hPa 0,0 mm 0,0 km/h (0 Bft) NW 319 ° 0 min 0,000 mm 0,0 UV-I 0 W/m² 7,0 °C 7,7 °C 0,0 km/h (0 Bft)
06.09.2019 01:45 7,6 °C 95 % 1022,0 hPa 0,0 mm 0,0 km/h (0 Bft) NW 319 ° 0 min 0,000 mm 0,0 UV-I 0 W/m² 6,9 °C 7,6 °C 0,0 km/h (0 Bft)
06.09.2019 01:46 7,6 °C 95 % 1022,0 hPa 0,0 mm 0,0 km/h (0 Bft) NW 319 ° 0 min 0,000 mm 0,0 UV-I 0 W/m² 6,9 °C 7,6 °C 0,0 km/h (0 Bft)
06.09.2019 01:47 7,6 °C 95 % 1022,0 hPa 0,0 mm 0,0 km/h (0 Bft) NW 319 ° 0 min 0,000 mm 0,0 UV-I 0 W/m² 6,9 °C 7,6 °C 0,0 km/h (0 Bft)
06.09.2019 01:48 7,6 °C 95 % 1022,0 hPa 0,0 mm 0,0 km/h (0 Bft) NW 319 ° 0 min 0,000 mm 0,0 UV-I 0 W/m² 6,9 °C 7,6 °C 0,0 km/h (0 Bft)
06.09.2019 01:49 7,6 °C 95 % 1022,0 hPa 0,0 mm 0,0 km/h (0 Bft) NW 319 ° 0 min 0,000 mm 0,0 UV-I 0 W/m² 6,9 °C 7,6 °C 0,0 km/h (0 Bft)
06.09.2019 01:50 7,6 °C 95 % 1022,0 hPa 0,0 mm 0,0 km/h (0 Bft) NW 319 ° 0 min 0,000 mm 0,0 UV-I 0 W/m² 6,9 °C 7,6 °C 0,0 km/h (0 Bft)
06.09.2019 01:51 7,6 °C 95 % 1022,0 hPa 0,2 mm 0,0 km/h (0 Bft) NW 319 ° 0 min 0,000 mm 0,0 UV-I 0 W/m² 6,9 °C 7,6 °C 0,0 km/h (0 Bft)
06.09.2019 01:52 7,7 °C 95 % 1022,0 hPa 0,0 mm 0,0 km/h (0 Bft) NW 319 ° 0 min 0,000 mm 0,0 UV-I 0 W/m² 7,0 °C 7,7 °C 0,0 km/h (0 Bft)
06.09.2019 01:53 7,6 °C 95 % 1022,0 hPa 0,0 mm 0,0 km/h (0 Bft) NW 319 ° 0 min 0,000 mm 0,0 UV-I 0 W/m² 6,9 °C 7,6 °C 0,0 km/h (0 Bft)
06.09.2019 01:54 7,6 °C 95 % 1022,0 hPa 0,0 mm 0,0 km/h (0 Bft) NW 319 ° 0 min 0,000 mm 0,0 UV-I 0 W/m² 6,9 °C 7,6 °C 0,0 km/h (0 Bft)
06.09.2019 01:55 7,6 °C 95 % 1022,0 hPa 0,0 mm 0,0 km/h (0 Bft) NW 319 ° 0 min 0,000 mm 0,0 UV-I 0 W/m² 6,9 °C 7,6 °C 0,0 km/h (0 Bft)
06.09.2019 01:56 7,6 °C 95 % 1022,0 hPa 0,0 mm 0,0 km/h (0 Bft) NW 319 ° 0 min 0,000 mm 0,0 UV-I 0 W/m² 6,9 °C 7,6 °C 0,0 km/h (0 Bft)
06.09.2019 01:57 7,6 °C 95 % 1022,0 hPa 0,0 mm 0,0 km/h (0 Bft) NW 319 ° 0 min 0,000 mm 0,0 UV-I 0 W/m² 6,9 °C 7,6 °C 0,0 km/h (0 Bft)
06.09.2019 01:58 7,6 °C 95 % 1022,0 hPa 0,0 mm 0,3 km/h (0 Bft) NW 319 ° 0 min 0,000 mm 0,0 UV-I 0 W/m² 6,9 °C 7,6 °C 1,6 km/h (1 Bft)
06.09.2019 01:59 7,6 °C 95 % 1022,0 hPa 0,0 mm 0,0 km/h (0 Bft) NW 319 ° 0 min 0,000 mm 0,0 UV-I 0 W/m² 6,9 °C 7,6 °C 0,0 km/h (0 Bft)
06.09.2019 02:00 7,6 °C 95 % 1022,1 hPa 0,0 mm 0,1 km/h (0 Bft) NW 319 ° 0 min 0,000 mm 0,0 UV-I 0 W/m² 6,9 °C 7,6 °C 1,6 km/h (1 Bft)
06.09.2019 02:01 7,7 °C 95 % 1022,0 hPa 0,0 mm 0,0 km/h (0 Bft) NW 319 ° 0 min 0,000 mm 0,0 UV-I 0 W/m² 7,0 °C 7,7 °C 0,0 km/h (0 Bft)
06.09.2019 02:02 7,7 °C 95 % 1022,0 hPa 0,0 mm 0,0 km/h (0 Bft) NW 319 ° 0 min 0,000 mm 0,0 UV-I 0 W/m² 7,0 °C 7,7 °C 0,0 km/h (0 Bft)
06.09.2019 02:03 7,7 °C 95 % 1022,0 hPa 0,0 mm 0,0 km/h (0 Bft) NW 319 ° 0 min 0,000 mm 0,0 UV-I 0 W/m² 7,0 °C 7,7 °C 0,0 km/h (0 Bft)
06.09.2019 02:04 7,7 °C 95 % 1022,0 hPa 0,0 mm 0,0 km/h (0 Bft) NW 319 ° 0 min 0,000 mm 0,0 UV-I 0 W/m² 7,0 °C 7,7 °C 0,0 km/h (0 Bft)
06.09.2019 02:05 7,6 °C 95 % 1022,0 hPa 0,0 mm 0,0 km/h (0 Bft) NW 319 ° 0 min 0,000 mm 0,0 UV-I 0 W/m² 6,9 °C 7,6 °C 0,0 km/h (0 Bft)
06.09.2019 02:06 7,7 °C 95 % 1022,0 hPa 0,0 mm 0,0 km/h (0 Bft) NW 319 ° 0 min 0,000 mm 0,0 UV-I 0 W/m² 7,0 °C 7,7 °C 0,0 km/h (0 Bft)
06.09.2019 02:07 7,6 °C 95 % 1022,0 hPa 0,0 mm 0,0 km/h (0 Bft) NW 319 ° 0 min 0,000 mm 0,0 UV-I 0 W/m² 6,9 °C 7,6 °C 0,0 km/h (0 Bft)
06.09.2019 02:08 7,7 °C 95 % 1022,0 hPa 0,0 mm 0,5 km/h (0 Bft) W-SW 256 ° 0 min 0,000 mm 0,0 UV-I 0 W/m² 7,0 °C 7,7 °C 3,2 km/h (1 Bft)
06.09.2019 02:09 7,6 °C 95 % 1022,0 hPa 0,0 mm 0,5 km/h (0 Bft) W-SW 255 ° 0 min 0,000 mm 0,0 UV-I 0 W/m² 6,9 °C 7,6 °C 1,6 km/h (1 Bft)
06.09.2019 02:10 7,7 °C 95 % 1022,0 hPa 0,0 mm 0,0 km/h (0 Bft) W-SW 255 ° 0 min 0,000 mm 0,0 UV-I 0 W/m² 7,0 °C 7,7 °C 0,0 km/h (0 Bft)
06.09.2019 02:11 7,6 °C 95 % 1021,9 hPa 0,2 mm 0,0 km/h (0 Bft) W 261 ° 0 min 0,000 mm 0,0 UV-I 0 W/m² 6,9 °C 7,6 °C 0,0 km/h (0 Bft)
06.09.2019 02:12 7,6 °C 95 % 1021,9 hPa 0,0 mm 0,0 km/h (0 Bft) W 279 ° 0 min 0,000 mm 0,0 UV-I 0 W/m² 6,9 °C 7,6 °C 0,0 km/h (0 Bft)
06.09.2019 02:13 7,6 °C 95 % 1021,9 hPa 0,0 mm 0,0 km/h (0 Bft) W 279 ° 0 min 0,000 mm 0,0 UV-I 0 W/m² 6,9 °C 7,6 °C 0,0 km/h (0 Bft)
06.09.2019 02:14 7,7 °C 95 % 1021,9 hPa 0,0 mm 0,0 km/h (0 Bft) W 279 ° 0 min 0,000 mm 0,0 UV-I 0 W/m² 7,0 °C 7,7 °C 0,0 km/h (0 Bft)
06.09.2019 02:15 7,7 °C 95 % 1021,9 hPa 0,0 mm 0,0 km/h (0 Bft) W 279 ° 0 min 0,000 mm 0,0 UV-I 0 W/m² 7,0 °C 7,7 °C 0,0 km/h (0 Bft)
06.09.2019 02:16 7,7 °C 95 % 1021,9 hPa 0,0 mm 0,0 km/h (0 Bft) W 279 ° 0 min 0,000 mm 0,0 UV-I 0 W/m² 7,0 °C 7,7 °C 0,0 km/h (0 Bft)
06.09.2019 02:17 7,7 °C 95 % 1021,9 hPa 0,0 mm 0,0 km/h (0 Bft) W 279 ° 0 min 0,000 mm 0,0 UV-I 0 W/m² 7,0 °C 7,7 °C 0,0 km/h (0 Bft)
06.09.2019 02:18 7,6 °C 95 % 1021,9 hPa 0,0 mm 0,0 km/h (0 Bft) W 279 ° 0 min 0,000 mm 0,0 UV-I 0 W/m² 6,9 °C 7,6 °C 0,0 km/h (0 Bft)
06.09.2019 02:19 7,7 °C 95 % 1021,9 hPa 0,0 mm 0,0 km/h (0 Bft) W 279 ° 0 min 0,000 mm 0,0 UV-I 0 W/m² 7,0 °C 7,7 °C 0,0 km/h (0 Bft)
06.09.2019 02:20 7,7 °C 95 % 1021,9 hPa 0,0 mm 0,0 km/h (0 Bft) W 279 ° 0 min 0,000 mm 0,0 UV-I 0 W/m² 7,0 °C 7,7 °C 0,0 km/h (0 Bft)
06.09.2019 02:21 7,7 °C 95 % 1021,9 hPa 0,0 mm 0,0 km/h (0 Bft) W 279 ° 0 min 0,000 mm 0,0 UV-I 0 W/m² 7,0 °C 7,7 °C 0,0 km/h (0 Bft)
06.09.2019 02:22 7,7 °C 95 % 1021,8 hPa 0,0 mm 0,0 km/h (0 Bft) W 279 ° 0 min 0,000 mm 0,0 UV-I 0 W/m² 7,0 °C 7,7 °C 0,0 km/h (0 Bft)
06.09.2019 02:23 7,7 °C 95 % 1021,8 hPa 0,0 mm 0,0 km/h (0 Bft) W 279 ° 0 min 0,000 mm 0,0 UV-I 0 W/m² 7,0 °C 7,7 °C 0,0 km/h (0 Bft)
06.09.2019 02:24 7,7 °C 95 % 1021,9 hPa 0,0 mm 0,0 km/h (0 Bft) W 279 ° 0 min 0,000 mm 0,0 UV-I 0 W/m² 7,0 °C 7,7 °C 0,0 km/h (0 Bft)
06.09.2019 02:25 7,7 °C 95 % 1021,8 hPa 0,0 mm 0,0 km/h (0 Bft) W 279 ° 0 min 0,000 mm 0,0 UV-I 0 W/m² 7,0 °C 7,7 °C 0,0 km/h (0 Bft)
06.09.2019 02:26 7,7 °C 95 % 1021,8 hPa 0,0 mm 0,0 km/h (0 Bft) W 279 ° 0 min 0,000 mm 0,0 UV-I 0 W/m² 7,0 °C 7,7 °C 0,0 km/h (0 Bft)
06.09.2019 02:27 7,7 °C 95 % 1021,8 hPa 0,0 mm 0,0 km/h (0 Bft) W 279 ° 0 min 0,000 mm 0,0 UV-I 0 W/m² 7,0 °C 7,7 °C 0,0 km/h (0 Bft)
06.09.2019 02:28 7,7 °C 95 % 1021,8 hPa 0,2 mm 0,0 km/h (0 Bft) W 279 ° 0 min 0,000 mm 0,0 UV-I 0 W/m² 7,0 °C 7,7 °C 0,0 km/h (0 Bft)
06.09.2019 02:29 7,7 °C 95 % 1021,8 hPa 0,0 mm 0,0 km/h (0 Bft) W 279 ° 0 min 0,000 mm 0,0 UV-I 0 W/m² 7,0 °C 7,7 °C 0,0 km/h (0 Bft)
06.09.2019 02:30 7,7 °C 95 % 1021,8 hPa 0,0 mm 0,0 km/h (0 Bft) W 279 ° 0 min 0,000 mm 0,0 UV-I 0 W/m² 7,0 °C 7,7 °C 0,0 km/h (0 Bft)
06.09.2019 02:31 7,7 °C 95 % 1021,8 hPa 0,0 mm 0,0 km/h (0 Bft) W 279 ° 0 min 0,000 mm 0,0 UV-I 0 W/m² 7,0 °C 7,7 °C 0,0 km/h (0 Bft)
06.09.2019 02:32 7,8 °C 95 % 1021,8 hPa 0,0 mm 0,0 km/h (0 Bft) W 279 ° 0 min 0,000 mm 0,0 UV-I 0 W/m² 7,0 °C 7,8 °C 0,0 km/h (0 Bft)
06.09.2019 02:33 7,8 °C 95 % 1021,8 hPa 0,0 mm 0,0 km/h (0 Bft) W 279 ° 0 min 0,000 mm 0,0 UV-I 0 W/m² 7,0 °C 7,8 °C 0,0 km/h (0 Bft)
06.09.2019 02:34 7,8 °C 95 % 1021,8 hPa 0,0 mm 0,0 km/h (0 Bft) W 279 ° 0 min 0,000 mm 0,0 UV-I 0 W/m² 7,0 °C 7,8 °C 0,0 km/h (0 Bft)
06.09.2019 02:35 7,8 °C 95 % 1021,8 hPa 0,0 mm 0,0 km/h (0 Bft) W 279 ° 0 min 0,000 mm 0,0 UV-I 0 W/m² 7,0 °C 7,8 °C 0,0 km/h (0 Bft)
06.09.2019 02:36 7,8 °C 95 % 1021,8 hPa 0,0 mm 0,0 km/h (0 Bft) W 279 ° 0 min 0,000 mm 0,0 UV-I 0 W/m² 7,0 °C 7,8 °C 0,0 km/h (0 Bft)
06.09.2019 02:37 7,7 °C 95 % 1021,8 hPa 0,0 mm 0,0 km/h (0 Bft) W 279 ° 0 min 0,000 mm 0,0 UV-I 0 W/m² 7,0 °C 7,7 °C 0,0 km/h (0 Bft)
06.09.2019 02:38 7,7 °C 95 % 1021,8 hPa 0,0 mm 0,0 km/h (0 Bft) W 279 ° 0 min 0,000 mm 0,0 UV-I 0 W/m² 7,0 °C 7,7 °C 0,0 km/h (0 Bft)
06.09.2019 02:39 7,8 °C 95 % 1021,8 hPa 0,0 mm 0,0 km/h (0 Bft) W 279 ° 0 min 0,000 mm 0,0 UV-I 0 W/m² 7,0 °C 7,8 °C 0,0 km/h (0 Bft)
06.09.2019 02:40 7,7 °C 95 % 1021,8 hPa 0,0 mm 0,0 km/h (0 Bft) W 279 ° 0 min 0,000 mm 0,0 UV-I 0 W/m² 7,0 °C 7,7 °C 0,0 km/h (0 Bft)
06.09.2019 02:41 7,8 °C 95 % 1021,8 hPa 0,0 mm 0,0 km/h (0 Bft) W 279 ° 0 min 0,000 mm 0,0 UV-I 0 W/m² 7,0 °C 7,8 °C 0,0 km/h (0 Bft)
06.09.2019 02:42 7,7 °C 95 % 1021,8 hPa 0,0 mm 0,0 km/h (0 Bft) W 279 ° 0 min 0,000 mm 0,0 UV-I 0 W/m² 7,0 °C 7,7 °C 0,0 km/h (0 Bft)
06.09.2019 02:43 7,7 °C 95 % 1021,9 hPa 0,0 mm 0,0 km/h (0 Bft) W 279 ° 0 min 0,000 mm 0,0 UV-I 0 W/m² 7,0 °C 7,7 °C 0,0 km/h (0 Bft)
06.09.2019 02:44 7,7 °C 95 % 1021,9 hPa 0,0 mm 0,0 km/h (0 Bft) W 279 ° 0 min 0,000 mm 0,0 UV-I 0 W/m² 7,0 °C 7,7 °C 0,0 km/h (0 Bft)
06.09.2019 02:45 7,7 °C 95 % 1021,9 hPa 0,0 mm 0,0 km/h (0 Bft) W 279 ° 0 min 0,000 mm 0,0 UV-I 0 W/m² 7,0 °C 7,7 °C 0,0 km/h (0 Bft)
06.09.2019 02:46 7,7 °C 95 % 1021,9 hPa 0,0 mm 0,0 km/h (0 Bft) W 279 ° 0 min 0,000 mm 0,0 UV-I 0 W/m² 7,0 °C 7,7 °C 0,0 km/h (0 Bft)
06.09.2019 02:47 7,7 °C 95 % 1021,9 hPa 0,0 mm 0,0 km/h (0 Bft) W 279 ° 0 min 0,000 mm 0,0 UV-I 0 W/m² 7,0 °C 7,7 °C 0,0 km/h (0 Bft)
06.09.2019 02:48 7,7 °C 95 % 1021,9 hPa 0,0 mm 0,0 km/h (0 Bft) W 279 ° 0 min 0,000 mm 0,0 UV-I 0 W/m² 7,0 °C 7,7 °C 0,0 km/h (0 Bft)
06.09.2019 02:49 7,8 °C 95 % 1021,8 hPa 0,2 mm 0,0 km/h (0 Bft) W 279 ° 0 min 0,000 mm 0,0 UV-I 0 W/m² 7,0 °C 7,8 °C 0,0 km/h (0 Bft)
06.09.2019 02:50 7,8 °C 95 % 1021,8 hPa 0,0 mm 0,0 km/h (0 Bft) W 279 ° 0 min 0,000 mm 0,0 UV-I 0 W/m² 7,0 °C 7,8 °C 0,0 km/h (0 Bft)
06.09.2019 02:51 7,8 °C 95 % 1021,9 hPa 0,0 mm 0,0 km/h (0 Bft) NO 49 ° 0 min 0,000 mm 0,0 UV-I 0 W/m² 7,0 °C 7,8 °C 0,0 km/h (0 Bft)
06.09.2019 02:52 7,8 °C 95 % 1021,9 hPa 0,0 mm 0,0 km/h (0 Bft) NO 49 ° 0 min 0,000 mm 0,0 UV-I 0 W/m² 7,0 °C 7,8 °C 0,0 km/h (0 Bft)
06.09.2019 02:53 7,8 °C 95 % 1021,9 hPa 0,0 mm 0,0 km/h (0 Bft) NO 49 ° 0 min 0,000 mm 0,0 UV-I 0 W/m² 7,0 °C 7,8 °C 0,0 km/h (0 Bft)
06.09.2019 02:54 7,8 °C 95 % 1021,9 hPa 0,0 mm 0,0 km/h (0 Bft) NO 49 ° 0 min 0,000 mm 0,0 UV-I 0 W/m² 7,0 °C 7,8 °C 0,0 km/h (0 Bft)
06.09.2019 02:55 7,8 °C 95 % 1021,8 hPa 0,0 mm 0,0 km/h (0 Bft) NO 49 ° 0 min 0,000 mm 0,0 UV-I 0 W/m² 7,0 °C 7,8 °C 0,0 km/h (0 Bft)
06.09.2019 02:56 7,8 °C 95 % 1021,9 hPa 0,0 mm 0,0 km/h (0 Bft) NO 49 ° 0 min 0,000 mm 0,0 UV-I 0 W/m² 7,0 °C 7,8 °C 0,0 km/h (0 Bft)
06.09.2019 02:57 7,8 °C 95 % 1021,8 hPa 0,0 mm 0,0 km/h (0 Bft) NO 49 ° 0 min 0,000 mm 0,0 UV-I 0 W/m² 7,0 °C 7,8 °C 0,0 km/h (0 Bft)
06.09.2019 02:58 7,8 °C 95 % 1021,8 hPa 0,0 mm 0,3 km/h (0 Bft) O-SO 117 ° 0 min 0,000 mm 0,0 UV-I 0 W/m² 7,0 °C 7,8 °C 1,6 km/h (1 Bft)
06.09.2019 02:59 7,8 °C 95 % 1021,8 hPa 0,0 mm 0,0 km/h (0 Bft) O-SO 117 ° 0 min 0,000 mm 0,0 UV-I 0 W/m² 7,0 °C 7,8 °C 0,0 km/h (0 Bft)
06.09.2019 03:00 7,8 °C 95 % 1021,7 hPa 0,0 mm 0,0 km/h (0 Bft) O-SO 117 ° 0 min 0,000 mm 0,0 UV-I 0 W/m² 7,0 °C 7,8 °C 0,0 km/h (0 Bft)
06.09.2019 03:01 7,8 °C 95 % 1021,7 hPa 0,0 mm 0,0 km/h (0 Bft) O-SO 117 ° 0 min 0,000 mm 0,0 UV-I 0 W/m² 7,0 °C 7,8 °C 0,0 km/h (0 Bft)
06.09.2019 03:02 7,8 °C 95 % 1021,7 hPa 0,0 mm 0,0 km/h (0 Bft) O-SO 117 ° 0 min 0,000 mm 0,0 UV-I 0 W/m² 7,0 °C 7,8 °C 0,0 km/h (0 Bft)
06.09.2019 03:03 7,8 °C 95 % 1021,7 hPa 0,0 mm 0,0 km/h (0 Bft) O-SO 117 ° 0 min 0,000 mm 0,0 UV-I 0 W/m² 7,0 °C 7,8 °C 0,0 km/h (0 Bft)
06.09.2019 03:04 7,8 °C 95 % 1021,7 hPa 0,0 mm 0,0 km/h (0 Bft) O-SO 117 ° 0 min 0,000 mm 0,0 UV-I 0 W/m² 7,0 °C 7,8 °C 0,0 km/h (0 Bft)
06.09.2019 03:05 7,8 °C 95 % 1021,8 hPa 0,0 mm 0,2 km/h (0 Bft) O-SO 117 ° 0 min 0,000 mm 0,0 UV-I 0 W/m² 7,0 °C 7,8 °C 1,6 km/h (1 Bft)
06.09.2019 03:06 7,8 °C 95 % 1021,8 hPa 0,2 mm 0,0 km/h (0 Bft) O-SO 117 ° 0 min 0,000 mm 0,0 UV-I 0 W/m² 7,0 °C 7,8 °C 0,0 km/h (0 Bft)
06.09.2019 03:07 7,8 °C 95 % 1021,8 hPa 0,0 mm 0,0 km/h (0 Bft) O-SO 117 ° 0 min 0,000 mm 0,0 UV-I 0 W/m² 7,0 °C 7,8 °C 0,0 km/h (0 Bft)
06.09.2019 03:08 7,8 °C 95 % 1021,8 hPa 0,0 mm 0,0 km/h (0 Bft) O-SO 117 ° 0 min 0,000 mm 0,0 UV-I 0 W/m² 7,0 °C 7,8 °C 0,0 km/h (0 Bft)
06.09.2019 03:09 7,8 °C 95 % 1021,8 hPa 0,0 mm 0,0 km/h (0 Bft) O-SO 117 ° 0 min 0,000 mm 0,0 UV-I 0 W/m² 7,0 °C 7,8 °C 0,0 km/h (0 Bft)
06.09.2019 03:10 7,8 °C 95 % 1021,8 hPa 0,0 mm 0,0 km/h (0 Bft) O-SO 117 ° 0 min 0,000 mm 0,0 UV-I 0 W/m² 7,0 °C 7,8 °C 0,0 km/h (0 Bft)
06.09.2019 03:11 7,8 °C 95 % 1021,8 hPa 0,0 mm 0,0 km/h (0 Bft) O-SO 117 ° 0 min 0,000 mm 0,0 UV-I 0 W/m² 7,0 °C 7,8 °C 0,0 km/h (0 Bft)
06.09.2019 03:12 7,8 °C 95 % 1021,7 hPa 0,0 mm 0,0 km/h (0 Bft) O-SO 117 ° 0 min 0,000 mm 0,0 UV-I 0 W/m² 7,0 °C 7,8 °C 0,0 km/h (0 Bft)
06.09.2019 03:13 7,8 °C 95 % 1021,7 hPa 0,0 mm 0,0 km/h (0 Bft) O-SO 117 ° 0 min 0,000 mm 0,0 UV-I 0 W/m² 7,0 °C 7,8 °C 0,0 km/h (0 Bft)
06.09.2019 03:14 7,8 °C 95 % 1021,7 hPa 0,0 mm 0,0 km/h (0 Bft) O-SO 117 ° 0 min 0,000 mm 0,0 UV-I 0 W/m² 7,0 °C 7,8 °C 0,0 km/h (0 Bft)
06.09.2019 03:15 7,8 °C 95 % 1021,7 hPa 0,0 mm 0,0 km/h (0 Bft) O-SO 117 ° 0 min 0,000 mm 0,0 UV-I 0 W/m² 7,0 °C 7,8 °C 0,0 km/h (0 Bft)
06.09.2019 03:16 7,7 °C 95 % 1021,7 hPa 0,0 mm 0,0 km/h (0 Bft) O-SO 117 ° 0 min 0,000 mm 0,0 UV-I 0 W/m² 7,0 °C 7,7 °C 0,0 km/h (0 Bft)
06.09.2019 03:17 7,8 °C 95 % 1021,6 hPa 0,0 mm 0,0 km/h (0 Bft) O-SO 117 ° 0 min 0,000 mm 0,0 UV-I 0 W/m² 7,0 °C 7,8 °C 0,0 km/h (0 Bft)
06.09.2019 03:18 7,8 °C 95 % 1021,6 hPa 0,0 mm 0,0 km/h (0 Bft) O-SO 117 ° 0 min 0,000 mm 0,0 UV-I 0 W/m² 7,0 °C 7,8 °C 0,0 km/h (0 Bft)
06.09.2019 03:19 7,8 °C 95 % 1021,6 hPa 0,0 mm 0,0 km/h (0 Bft) O-SO 117 ° 0 min 0,000 mm 0,0 UV-I 0 W/m² 7,0 °C 7,8 °C 0,0 km/h (0 Bft)
06.09.2019 03:20 7,8 °C 95 % 1021,6 hPa 0,0 mm 0,0 km/h (0 Bft) O-SO 117 ° 0 min 0,000 mm 0,0 UV-I 0 W/m² 7,0 °C 7,8 °C 0,0 km/h (0 Bft)
06.09.2019 03:21 7,8 °C 95 % 1021,6 hPa 0,0 mm 0,0 km/h (0 Bft) O-SO 117 ° 0 min 0,000 mm 0,0 UV-I 0 W/m² 7,0 °C 7,8 °C 0,0 km/h (0 Bft)
06.09.2019 03:22 7,8 °C 95 % 1021,6 hPa 0,0 mm 0,0 km/h (0 Bft) O-SO 117 ° 0 min 0,000 mm 0,0 UV-I 0 W/m² 7,0 °C 7,8 °C 0,0 km/h (0 Bft)
06.09.2019 03:23 7,7 °C 95 % 1021,6 hPa 0,0 mm 0,0 km/h (0 Bft) O-SO 117 ° 0 min 0,000 mm 0,0 UV-I 0 W/m² 7,0 °C 7,7 °C 0,0 km/h (0 Bft)
06.09.2019 03:24 7,8 °C 95 % 1021,6 hPa 0,0 mm 0,0 km/h (0 Bft) O-SO 117 ° 0 min 0,000 mm 0,0 UV-I 0 W/m² 7,0 °C 7,8 °C 0,0 km/h (0 Bft)
06.09.2019 03:25 7,8 °C 95 % 1021,6 hPa 0,2 mm 0,0 km/h (0 Bft) O-SO 117 ° 0 min 0,000 mm 0,0 UV-I 0 W/m² 7,0 °C 7,8 °C 0,0 km/h (0 Bft)
06.09.2019 03:26 7,8 °C 95 % 1021,5 hPa 0,0 mm 0,0 km/h (0 Bft) O-SO 117 ° 0 min 0,000 mm 0,0 UV-I 0 W/m² 7,0 °C 7,8 °C 0,0 km/h (0 Bft)
06.09.2019 03:27 7,8 °C 95 % 1021,5 hPa 0,0 mm 0,0 km/h (0 Bft) O-SO 117 ° 0 min 0,000 mm 0,0 UV-I 0 W/m² 7,0 °C 7,8 °C 0,0 km/h (0 Bft)
06.09.2019 03:28 7,8 °C 95 % 1021,5 hPa 0,0 mm 0,0 km/h (0 Bft) O-SO 117 ° 0 min 0,000 mm 0,0 UV-I 0 W/m² 7,0 °C 7,8 °C 0,0 km/h (0 Bft)
06.09.2019 03:29 7,8 °C 95 % 1021,5 hPa 0,0 mm 0,0 km/h (0 Bft) O-SO 117 ° 0 min 0,000 mm 0,0 UV-I 0 W/m² 7,0 °C 7,8 °C 0,0 km/h (0 Bft)
06.09.2019 03:30 7,8 °C 95 % 1021,5 hPa 0,0 mm 0,0 km/h (0 Bft) O-SO 117 ° 0 min 0,000 mm 0,0 UV-I 0 W/m² 7,0 °C 7,8 °C 0,0 km/h (0 Bft)
06.09.2019 03:31 7,8 °C 95 % 1021,5 hPa 0,0 mm 0,0 km/h (0 Bft) O-SO 117 ° 0 min 0,000 mm 0,0 UV-I 0 W/m² 7,0 °C 7,8 °C 0,0 km/h (0 Bft)
06.09.2019 03:32 7,8 °C 95 % 1021,5 hPa 0,0 mm 0,0 km/h (0 Bft) O-SO 117 ° 0 min 0,000 mm 0,0 UV-I 0 W/m² 7,0 °C 7,8 °C 0,0 km/h (0 Bft)
06.09.2019 03:33 7,8 °C 95 % 1021,6 hPa 0,0 mm 0,0 km/h (0 Bft) O-SO 117 ° 0 min 0,000 mm 0,0 UV-I 0 W/m² 7,0 °C 7,8 °C 0,0 km/h (0 Bft)
06.09.2019 03:34 7,8 °C 95 % 1021,5 hPa 0,0 mm 0,0 km/h (0 Bft) O-SO 117 ° 0 min 0,000 mm 0,0 UV-I 0 W/m² 7,0 °C 7,8 °C 0,0 km/h (0 Bft)
06.09.2019 03:35 7,8 °C 95 % 1021,5 hPa 0,0 mm 0,0 km/h (0 Bft) O-SO 117 ° 0 min 0,000 mm 0,0 UV-I 0 W/m² 7,0 °C 7,8 °C 0,0 km/h (0 Bft)
06.09.2019 03:36 7,8 °C 95 % 1021,5 hPa 0,0 mm 0,0 km/h (0 Bft) O-SO 117 ° 0 min 0,000 mm 0,0 UV-I 0 W/m² 7,0 °C 7,8 °C 0,0 km/h (0 Bft)
06.09.2019 03:37 7,8 °C 95 % 1021,5 hPa 0,0 mm 0,0 km/h (0 Bft) O-SO 117 ° 0 min 0,000 mm 0,0 UV-I 0 W/m² 7,0 °C 7,8 °C 0,0 km/h (0 Bft)
06.09.2019 03:38 7,9 °C 95 % 1021,5 hPa 0,0 mm 0,0 km/h (0 Bft) O-SO 117 ° 0 min 0,000 mm 0,0 UV-I 0 W/m² 7,1 °C 7,9 °C 0,0 km/h (0 Bft)
06.09.2019 03:39 7,9 °C 95 % 1021,5 hPa 0,0 mm 0,0 km/h (0 Bft) O-SO 117 ° 0 min 0,000 mm 0,0 UV-I 0 W/m² 7,1 °C 7,9 °C 0,0 km/h (0 Bft)
06.09.2019 03:40 7,9 °C 95 % 1021,5 hPa 0,0 mm 0,0 km/h (0 Bft) O-SO 117 ° 0 min 0,000 mm 0,0 UV-I 0 W/m² 7,1 °C 7,9 °C 0,0 km/h (0 Bft)
06.09.2019 03:41 7,9 °C 95 % 1021,5 hPa 0,0 mm 0,0 km/h (0 Bft) O-SO 117 ° 0 min 0,000 mm 0,0 UV-I 0 W/m² 7,1 °C 7,9 °C 0,0 km/h (0 Bft)
06.09.2019 03:42 7,9 °C 95 % 1021,5 hPa 0,0 mm 0,0 km/h (0 Bft) O-SO 117 ° 0 min 0,000 mm 0,0 UV-I 0 W/m² 7,1 °C 7,9 °C 0,0 km/h (0 Bft)
06.09.2019 03:43 7,9 °C 95 % 1021,5 hPa 0,2 mm 0,0 km/h (0 Bft) O-SO 117 ° 0 min 0,000 mm 0,0 UV-I 0 W/m² 7,1 °C 7,9 °C 0,0 km/h (0 Bft)
06.09.2019 03:44 7,8 °C 95 % 1021,5 hPa 0,0 mm 0,0 km/h (0 Bft) O-SO 117 ° 0 min 0,000 mm 0,0 UV-I 0 W/m² 7,0 °C 7,8 °C 0,0 km/h (0 Bft)
06.09.2019 03:45 7,8 °C 95 % 1021,5 hPa 0,0 mm 0,0 km/h (0 Bft) O-SO 117 ° 0 min 0,000 mm 0,0 UV-I 0 W/m² 7,0 °C 7,8 °C 0,0 km/h (0 Bft)
06.09.2019 03:46 7,9 °C 95 % 1021,3 hPa 0,0 mm 0,0 km/h (0 Bft) O-SO 117 ° 0 min 0,000 mm 0,0 UV-I 0 W/m² 7,1 °C 7,9 °C 0,0 km/h (0 Bft)
06.09.2019 03:47 7,8 °C 95 % 1021,3 hPa 0,0 mm 0,0 km/h (0 Bft) O-SO 117 ° 0 min 0,000 mm 0,0 UV-I 0 W/m² 7,0 °C 7,8 °C 0,0 km/h (0 Bft)
06.09.2019 03:48 7,9 °C 95 % 1021,3 hPa 0,0 mm 0,0 km/h (0 Bft) O-SO 117 ° 0 min 0,000 mm 0,0 UV-I 0 W/m² 7,1 °C 7,9 °C 0,0 km/h (0 Bft)
06.09.2019 03:49 7,9 °C 95 % 1021,3 hPa 0,0 mm 0,0 km/h (0 Bft) O-SO 117 ° 0 min 0,000 mm 0,0 UV-I 0 W/m² 7,1 °C 7,9 °C 0,0 km/h (0 Bft)
06.09.2019 03:50 7,9 °C 95 % 1021,3 hPa 0,0 mm 0,0 km/h (0 Bft) O-SO 117 ° 0 min 0,000 mm 0,0 UV-I 0 W/m² 7,1 °C 7,9 °C 0,0 km/h (0 Bft)
06.09.2019 03:51 7,9 °C 95 % 1021,3 hPa 0,0 mm 0,0 km/h (0 Bft) O-SO 117 ° 0 min 0,000 mm 0,0 UV-I 0 W/m² 7,1 °C 7,9 °C 0,0 km/h (0 Bft)
06.09.2019 03:52 7,9 °C 95 % 1021,2 hPa 0,0 mm 0,0 km/h (0 Bft) O-SO 117 ° 0 min 0,000 mm 0,0 UV-I 0 W/m² 7,1 °C 7,9 °C 0,0 km/h (0 Bft)
06.09.2019 03:53 7,9 °C 95 % 1021,2 hPa 0,0 mm 0,0 km/h (0 Bft) O-SO 117 ° 0 min 0,000 mm 0,0 UV-I 0 W/m² 7,1 °C 7,9 °C 0,0 km/h (0 Bft)
06.09.2019 03:54 7,8 °C 95 % 1021,2 hPa 0,0 mm 0,0 km/h (0 Bft) O-SO 117 ° 0 min 0,000 mm 0,0 UV-I 0 W/m² 7,0 °C 7,8 °C 0,0 km/h (0 Bft)
06.09.2019 03:55 7,8 °C 95 % 1021,2 hPa 0,0 mm 0,0 km/h (0 Bft) O-SO 117 ° 0 min 0,000 mm 0,0 UV-I 0 W/m² 7,0 °C 7,8 °C 0,0 km/h (0 Bft)
06.09.2019 03:56 7,8 °C 95 % 1021,2 hPa 0,0 mm 0,0 km/h (0 Bft) O-SO 117 ° 0 min 0,000 mm 0,0 UV-I 0 W/m² 7,0 °C 7,8 °C 0,0 km/h (0 Bft)
06.09.2019 03:57 7,8 °C 95 % 1021,2 hPa 0,0 mm 0,0 km/h (0 Bft) O-SO 117 ° 0 min 0,000 mm 0,0 UV-I 0 W/m² 7,0 °C 7,8 °C 0,0 km/h (0 Bft)
06.09.2019 03:58 7,9 °C 95 % 1021,2 hPa 0,0 mm 0,0 km/h (0 Bft) O-SO 117 ° 0 min 0,000 mm 0,0 UV-I 0 W/m² 7,1 °C 7,9 °C 0,0 km/h (0 Bft)
06.09.2019 03:59 7,9 °C 95 % 1021,3 hPa 0,0 mm 0,0 km/h (0 Bft) O-SO 117 ° 0 min 0,000 mm 0,0 UV-I 0 W/m² 7,1 °C 7,9 °C 0,0 km/h (0 Bft)
06.09.2019 04:00 7,9 °C 95 % 1021,3 hPa 0,0 mm 0,0 km/h (0 Bft) O-SO 117 ° 0 min 0,000 mm 0,0 UV-I 0 W/m² 7,1 °C 7,9 °C 0,0 km/h (0 Bft)
06.09.2019 04:01 7,9 °C 95 % 1021,3 hPa 0,0 mm 0,0 km/h (0 Bft) O-SO 117 ° 0 min 0,000 mm 0,0 UV-I 0 W/m² 7,1 °C 7,9 °C 0,0 km/h (0 Bft)
06.09.2019 04:02 7,9 °C 95 % 1021,3 hPa 0,0 mm 0,0 km/h (0 Bft) O-SO 117 ° 0 min 0,000 mm 0,0 UV-I 0 W/m² 7,1 °C 7,9 °C 0,0 km/h (0 Bft)
06.09.2019 04:03 7,9 °C 95 % 1021,3 hPa 0,0 mm 0,0 km/h (0 Bft) O-SO 117 ° 0 min 0,000 mm 0,0 UV-I 0 W/m² 7,1 °C 7,9 °C 0,0 km/h (0 Bft)
06.09.2019 04:04 7,9 °C 95 % 1021,3 hPa 0,0 mm 0,0 km/h (0 Bft) O-SO 117 ° 0 min 0,000 mm 0,0 UV-I 0 W/m² 7,1 °C 7,9 °C 0,0 km/h (0 Bft)
06.09.2019 04:05 7,9 °C 95 % 1021,3 hPa 0,2 mm 0,0 km/h (0 Bft) O-SO 117 ° 0 min 0,000 mm 0,0 UV-I 0 W/m² 7,1 °C 7,9 °C 0,0 km/h (0 Bft)
06.09.2019 04:06 7,9 °C 95 % 1021,4 hPa 0,0 mm 0,0 km/h (0 Bft) O-SO 117 ° 0 min 0,000 mm 0,0 UV-I 0 W/m² 7,1 °C 7,9 °C 0,0 km/h (0 Bft)
06.09.2019 04:07 7,9 °C 95 % 1021,3 hPa 0,0 mm 0,0 km/h (0 Bft) O-SO 117 ° 0 min 0,000 mm 0,0 UV-I 0 W/m² 7,1 °C 7,9 °C 0,0 km/h (0 Bft)
06.09.2019 04:08 8,0 °C 95 % 1021,4 hPa 0,0 mm 0,0 km/h (0 Bft) O-SO 117 ° 0 min 0,000 mm 0,0 UV-I 0 W/m² 7,2 °C 8,0 °C 0,0 km/h (0 Bft)
06.09.2019 04:09 8,0 °C 95 % 1021,4 hPa 0,0 mm 0,0 km/h (0 Bft) O-SO 117 ° 0 min 0,000 mm 0,0 UV-I 0 W/m² 7,2 °C 8,0 °C 0,0 km/h (0 Bft)
06.09.2019 04:10 8,0 °C 95 % 1021,3 hPa 0,0 mm 0,0 km/h (0 Bft) O-SO 117 ° 0 min 0,000 mm 0,0 UV-I 0 W/m² 7,2 °C 8,0 °C 0,0 km/h (0 Bft)
06.09.2019 04:11 8,0 °C 95 % 1021,3 hPa 0,0 mm 0,0 km/h (0 Bft) O-SO 117 ° 0 min 0,000 mm 0,0 UV-I 0 W/m² 7,2 °C 8,0 °C 0,0 km/h (0 Bft)
06.09.2019 04:12 8,0 °C 95 % 1021,4 hPa 0,0 mm 0,0 km/h (0 Bft) O-SO 117 ° 0 min 0,000 mm 0,0 UV-I 0 W/m² 7,2 °C 8,0 °C 0,0 km/h (0 Bft)
06.09.2019 04:13 8,0 °C 95 % 1021,4 hPa 0,0 mm 0,0 km/h (0 Bft) O-SO 117 ° 0 min 0,000 mm 0,0 UV-I 0 W/m² 7,2 °C 8,0 °C 0,0 km/h (0 Bft)
06.09.2019 04:14 8,0 °C 95 % 1021,3 hPa 0,0 mm 0,0 km/h (0 Bft) O-SO 117 ° 0 min 0,000 mm 0,0 UV-I 0 W/m² 7,2 °C 8,0 °C 0,0 km/h (0 Bft)
06.09.2019 04:15 8,1 °C 95 % 1021,4 hPa 0,0 mm 0,0 km/h (0 Bft) O-SO 117 ° 0 min 0,000 mm 0,0 UV-I 0 W/m² 7,3 °C 8,1 °C 0,0 km/h (0 Bft)
06.09.2019 04:16 8,0 °C 95 % 1021,4 hPa 0,0 mm 0,0 km/h (0 Bft) O-SO 117 ° 0 min 0,000 mm 0,0 UV-I 0 W/m² 7,2 °C 8,0 °C 0,0 km/h (0 Bft)
06.09.2019 04:17 8,0 °C 95 % 1021,4 hPa 0,0 mm 0,0 km/h (0 Bft) O-SO 117 ° 0 min 0,000 mm 0,0 UV-I 0 W/m² 7,2 °C 8,0 °C 0,0 km/h (0 Bft)
06.09.2019 04:18 8,0 °C 95 % 1021,4 hPa 0,0 mm 0,0 km/h (0 Bft) O-SO 117 ° 0 min 0,000 mm 0,0 UV-I 0 W/m² 7,2 °C 8,0 °C 0,0 km/h (0 Bft)
06.09.2019 04:19 8,0 °C 95 % 1021,3 hPa 0,0 mm 0,0 km/h (0 Bft) O-SO 117 ° 0 min 0,000 mm 0,0 UV-I 0 W/m² 7,2 °C 8,0 °C 0,0 km/h (0 Bft)
06.09.2019 04:20 8,0 °C 95 % 1021,3 hPa 0,0 mm 0,0 km/h (0 Bft) O-SO 117 ° 0 min 0,000 mm 0,0 UV-I 0 W/m² 7,2 °C 8,0 °C 0,0 km/h (0 Bft)
06.09.2019 04:21 8,0 °C 95 % 1021,3 hPa 0,0 mm 0,0 km/h (0 Bft) O-SO 117 ° 0 min 0,000 mm 0,0 UV-I 0 W/m² 7,2 °C 8,0 °C 0,0 km/h (0 Bft)
06.09.2019 04:22 8,0 °C 95 % 1021,4 hPa 0,0 mm 0,0 km/h (0 Bft) O-SO 117 ° 0 min 0,000 mm 0,0 UV-I 0 W/m² 7,2 °C 8,0 °C 0,0 km/h (0 Bft)
06.09.2019 04:23 7,9 °C 95 % 1021,3 hPa 0,0 mm 0,0 km/h (0 Bft) O-SO 117 ° 0 min 0,000 mm 0,0 UV-I 0 W/m² 7,1 °C 7,9 °C 0,0 km/h (0 Bft)
06.09.2019 04:24 7,9 °C 95 % 1021,3 hPa 0,0 mm 0,0 km/h (0 Bft) O-SO 117 ° 0 min 0,000 mm 0,0 UV-I 0 W/m² 7,1 °C 7,9 °C 0,0 km/h (0 Bft)
06.09.2019 04:25 7,9 °C 95 % 1021,3 hPa 0,2 mm 0,0 km/h (0 Bft) O-SO 117 ° 0 min 0,000 mm 0,0 UV-I 0 W/m² 7,1 °C 7,9 °C 0,0 km/h (0 Bft)
06.09.2019 04:26 7,9 °C 95 % 1021,3 hPa 0,0 mm 0,0 km/h (0 Bft) O-SO 117 ° 0 min 0,000 mm 0,0 UV-I 0 W/m² 7,1 °C 7,9 °C 0,0 km/h (0 Bft)
06.09.2019 04:27 7,9 °C 95 % 1021,3 hPa 0,0 mm 0,0 km/h (0 Bft) O-SO 117 ° 0 min 0,000 mm 0,0 UV-I 0 W/m² 7,1 °C 7,9 °C 0,0 km/h (0 Bft)
06.09.2019 04:28 8,0 °C 95 % 1021,3 hPa 0,0 mm 0,0 km/h (0 Bft) O-SO 117 ° 0 min 0,000 mm 0,0 UV-I 0 W/m² 7,2 °C 8,0 °C 0,0 km/h (0 Bft)
06.09.2019 04:29 7,9 °C 95 % 1021,2 hPa 0,0 mm 0,0 km/h (0 Bft) O-SO 117 ° 0 min 0,000 mm 0,0 UV-I 0 W/m² 7,1 °C 7,9 °C 0,0 km/h (0 Bft)
06.09.2019 04:30 7,9 °C 95 % 1021,2 hPa 0,0 mm 0,0 km/h (0 Bft) O-SO 117 ° 0 min 0,000 mm 0,0 UV-I 0 W/m² 7,1 °C 7,9 °C 0,0 km/h (0 Bft)
06.09.2019 04:31 7,9 °C 95 % 1021,2 hPa 0,0 mm 0,0 km/h (0 Bft) O-SO 117 ° 0 min 0,000 mm 0,0 UV-I 0 W/m² 7,1 °C 7,9 °C 0,0 km/h (0 Bft)
06.09.2019 04:32 7,9 °C 95 % 1021,2 hPa 0,0 mm 0,0 km/h (0 Bft) O-SO 117 ° 0 min 0,000 mm 0,0 UV-I 0 W/m² 7,1 °C 7,9 °C 0,0 km/h (0 Bft)
06.09.2019 04:33 8,0 °C 95 % 1021,2 hPa 0,0 mm 0,0 km/h (0 Bft) O-SO 117 ° 0 min 0,000 mm 0,0 UV-I 0 W/m² 7,2 °C 8,0 °C 0,0 km/h (0 Bft)
06.09.2019 04:34 8,0 °C 95 % 1021,3 hPa 0,0 mm 0,0 km/h (0 Bft) O-SO 117 ° 0 min 0,000 mm 0,0 UV-I 0 W/m² 7,2 °C 8,0 °C 0,0 km/h (0 Bft)
06.09.2019 04:35 8,0 °C 95 % 1021,3 hPa 0,0 mm 0,0 km/h (0 Bft) O-SO 117 ° 0 min 0,000 mm 0,0 UV-I 0 W/m² 7,2 °C 8,0 °C 0,0 km/h (0 Bft)
06.09.2019 04:36 8,0 °C 95 % 1021,3 hPa 0,0 mm 0,0 km/h (0 Bft) O-SO 117 ° 0 min 0,000 mm 0,0 UV-I 0 W/m² 7,2 °C 8,0 °C 0,0 km/h (0 Bft)
06.09.2019 04:37 8,0 °C 95 % 1021,2 hPa 0,0 mm 0,0 km/h (0 Bft) O-SO 117 ° 0 min 0,000 mm 0,0 UV-I 0 W/m² 7,2 °C 8,0 °C 0,0 km/h (0 Bft)
06.09.2019 04:38 8,0 °C 95 % 1021,2 hPa 0,0 mm 0,0 km/h (0 Bft) O-SO 117 ° 0 min 0,000 mm 0,0 UV-I 0 W/m² 7,2 °C 8,0 °C 0,0 km/h (0 Bft)
06.09.2019 04:39 8,0 °C 95 % 1021,2 hPa 0,0 mm 0,0 km/h (0 Bft) O-SO 117 ° 0 min 0,000 mm 0,0 UV-I 0 W/m² 7,2 °C 8,0 °C 0,0 km/h (0 Bft)
06.09.2019 04:40 8,0 °C 95 % 1021,2 hPa 0,0 mm 0,0 km/h (0 Bft) O-SO 117 ° 0 min 0,000 mm 0,0 UV-I 0 W/m² 7,2 °C 8,0 °C 0,0 km/h (0 Bft)
06.09.2019 04:41 8,0 °C 95 % 1021,2 hPa 0,0 mm 0,0 km/h (0 Bft) O-SO 117 ° 0 min 0,000 mm 0,0 UV-I 0 W/m² 7,2 °C 8,0 °C 0,0 km/h (0 Bft)
06.09.2019 04:42 7,9 °C 95 % 1021,2 hPa 0,0 mm 0,0 km/h (0 Bft) O-SO 117 ° 0 min 0,000 mm 0,0 UV-I 0 W/m² 7,1 °C 7,9 °C 0,0 km/h (0 Bft)
06.09.2019 04:43 7,9 °C 95 % 1021,2 hPa 0,0 mm 0,0 km/h (0 Bft) O-SO 117 ° 0 min 0,000 mm 0,0 UV-I 0 W/m² 7,1 °C 7,9 °C 0,0 km/h (0 Bft)
06.09.2019 04:44 7,9 °C 95 % 1021,2 hPa 0,0 mm 0,0 km/h (0 Bft) O-SO 117 ° 0 min 0,000 mm 0,0 UV-I 0 W/m² 7,1 °C 7,9 °C 0,0 km/h (0 Bft)
06.09.2019 04:45 7,9 °C 95 % 1021,2 hPa 0,0 mm 0,0 km/h (0 Bft) O-SO 117 ° 0 min 0,000 mm 0,0 UV-I 0 W/m² 7,1 °C 7,9 °C 0,0 km/h (0 Bft)
06.09.2019 04:46 7,9 °C 95 % 1021,2 hPa 0,0 mm 0,0 km/h (0 Bft) O-SO 117 ° 0 min 0,000 mm 0,0 UV-I 0 W/m² 7,1 °C 7,9 °C 0,0 km/h (0 Bft)
06.09.2019 04:47 7,9 °C 95 % 1021,3 hPa 0,0 mm 0,0 km/h (0 Bft) O-SO 117 ° 0 min 0,000 mm 0,0 UV-I 0 W/m² 7,1 °C 7,9 °C 0,0 km/h (0 Bft)
06.09.2019 04:48 7,9 °C 95 % 1021,3 hPa 0,0 mm 0,0 km/h (0 Bft) O-SO 117 ° 0 min 0,000 mm 0,0 UV-I 0 W/m² 7,1 °C 7,9 °C 0,0 km/h (0 Bft)
06.09.2019 04:49 7,9 °C 95 % 1021,2 hPa 0,2 mm 0,0 km/h (0 Bft) O-SO 117 ° 0 min 0,000 mm 0,0 UV-I 0 W/m² 7,1 °C 7,9 °C 0,0 km/h (0 Bft)
06.09.2019 04:50 8,0 °C 95 % 1021,2 hPa 0,0 mm 0,0 km/h (0 Bft) O-SO 117 ° 0 min 0,000 mm 0,0 UV-I 0 W/m² 7,2 °C 8,0 °C 0,0 km/h (0 Bft)
06.09.2019 04:51 7,9 °C 95 % 1021,2 hPa 0,0 mm 0,0 km/h (0 Bft) O-SO 117 ° 0 min 0,000 mm 0,0 UV-I 0 W/m² 7,1 °C 7,9 °C 0,0 km/h (0 Bft)
06.09.2019 04:52 7,9 °C 95 % 1021,2 hPa 0,0 mm 0,0 km/h (0 Bft) O-SO 117 ° 0 min 0,000 mm 0,0 UV-I 0 W/m² 7,1 °C 7,9 °C 0,0 km/h (0 Bft)
06.09.2019 04:53 7,9 °C 95 % 1021,2 hPa 0,0 mm 0,0 km/h (0 Bft) O-SO 117 ° 0 min 0,000 mm 0,0 UV-I 0 W/m² 7,1 °C 7,9 °C 0,0 km/h (0 Bft)
06.09.2019 04:54 8,0 °C 95 % 1021,1 hPa 0,0 mm 0,0 km/h (0 Bft) O-SO 117 ° 0 min 0,000 mm 0,0 UV-I 0 W/m² 7,2 °C 8,0 °C 0,0 km/h (0 Bft)
06.09.2019 04:55 8,0 °C 95 % 1021,1 hPa 0,0 mm 0,0 km/h (0 Bft) O-SO 117 ° 0 min 0,000 mm 0,0 UV-I 0 W/m² 7,2 °C 8,0 °C 0,0 km/h (0 Bft)
06.09.2019 04:56 8,0 °C 95 % 1021,1 hPa 0,0 mm 0,0 km/h (0 Bft) O-SO 117 ° 0 min 0,000 mm 0,0 UV-I 0 W/m² 7,2 °C 8,0 °C 0,0 km/h (0 Bft)
06.09.2019 04:57 8,0 °C 95 % 1021,0 hPa 0,0 mm 0,0 km/h (0 Bft) O-SO 117 ° 0 min 0,000 mm 0,0 UV-I 0 W/m² 7,2 °C 8,0 °C 0,0 km/h (0 Bft)
06.09.2019 04:58 8,0 °C 95 % 1021,1 hPa 0,0 mm 0,0 km/h (0 Bft) O-SO 117 ° 0 min 0,000 mm 0,0 UV-I 0 W/m² 7,2 °C 8,0 °C 0,0 km/h (0 Bft)
06.09.2019 04:59 8,0 °C 95 % 1021,0 hPa 0,0 mm 0,0 km/h (0 Bft) O-SO 117 ° 0 min 0,000 mm 0,0 UV-I 0 W/m² 7,2 °C 8,0 °C 0,0 km/h (0 Bft)
06.09.2019 05:00 8,0 °C 95 % 1021,0 hPa 0,0 mm 0,0 km/h (0 Bft) O-SO 117 ° 0 min 0,000 mm 0,0 UV-I 0 W/m² 7,2 °C 8,0 °C 0,0 km/h (0 Bft)
06.09.2019 05:01 8,0 °C 95 % 1021,1 hPa 0,0 mm 0,0 km/h (0 Bft) O-SO 117 ° 0 min 0,000 mm 0,0 UV-I 0 W/m² 7,2 °C 8,0 °C 0,0 km/h (0 Bft)
06.09.2019 05:02 8,0 °C 95 % 1021,1 hPa 0,0 mm 0,0 km/h (0 Bft) O-SO 117 ° 0 min 0,000 mm 0,0 UV-I 0 W/m² 7,2 °C 8,0 °C 0,0 km/h (0 Bft)
06.09.2019 05:03 8,0 °C 95 % 1021,1 hPa 0,0 mm 0,0 km/h (0 Bft) O-SO 117 ° 0 min 0,000 mm 0,0 UV-I 0 W/m² 7,2 °C 8,0 °C 0,0 km/h (0 Bft)
06.09.2019 05:04 8,0 °C 95 % 1021,1 hPa 0,0 mm 0,0 km/h (0 Bft) O-SO 117 ° 0 min 0,000 mm 0,0 UV-I 0 W/m² 7,2 °C 8,0 °C 0,0 km/h (0 Bft)
06.09.2019 05:05 8,0 °C 95 % 1021,1 hPa 0,0 mm 0,0 km/h (0 Bft) O-SO 117 ° 0 min 0,000 mm 0,0 UV-I 0 W/m² 7,2 °C 8,0 °C 0,0 km/h (0 Bft)
06.09.2019 05:06 8,0 °C 95 % 1021,1 hPa 0,0 mm 0,0 km/h (0 Bft) O-SO 117 ° 0 min 0,000 mm 0,0 UV-I 0 W/m² 7,2 °C 8,0 °C 0,0 km/h (0 Bft)
06.09.2019 05:07 8,0 °C 95 % 1021,1 hPa 0,0 mm 0,0 km/h (0 Bft) O-SO 117 ° 0 min 0,000 mm 0,0 UV-I 0 W/m² 7,2 °C 8,0 °C 0,0 km/h (0 Bft)
06.09.2019 05:08 8,0 °C 95 % 1021,1 hPa 0,0 mm 0,0 km/h (0 Bft) O-SO 117 ° 0 min 0,000 mm 0,0 UV-I 0 W/m² 7,2 °C 8,0 °C 0,0 km/h (0 Bft)
06.09.2019 05:09 8,0 °C 95 % 1021,1 hPa 0,0 mm 0,0 km/h (0 Bft) O-SO 117 ° 0 min 0,000 mm 0,0 UV-I 0 W/m² 7,2 °C 8,0 °C 0,0 km/h (0 Bft)
06.09.2019 05:10 8,0 °C 95 % 1021,2 hPa 0,0 mm 0,0 km/h (0 Bft) O-SO 117 ° 0 min 0,000 mm 0,0 UV-I 0 W/m² 7,2 °C 8,0 °C 0,0 km/h (0 Bft)
06.09.2019 05:11 7,9 °C 95 % 1021,2 hPa 0,2 mm 0,0 km/h (0 Bft) O-SO 117 ° 0 min 0,000 mm 0,0 UV-I 0 W/m² 7,1 °C 7,9 °C 0,0 km/h (0 Bft)
06.09.2019 05:12 8,0 °C 95 % 1021,2 hPa 0,0 mm 0,0 km/h (0 Bft) O-SO 117 ° 0 min 0,000 mm 0,0 UV-I 0 W/m² 7,2 °C 8,0 °C 0,0 km/h (0 Bft)
06.09.2019 05:13 8,0 °C 95 % 1021,2 hPa 0,0 mm 0,0 km/h (0 Bft) O-SO 117 ° 0 min 0,000 mm 0,0 UV-I 0 W/m² 7,2 °C 8,0 °C 0,0 km/h (0 Bft)
06.09.2019 05:14 8,0 °C 95 % 1021,2 hPa 0,0 mm 0,0 km/h (0 Bft) O-SO 117 ° 0 min 0,000 mm 0,0 UV-I 0 W/m² 7,2 °C 8,0 °C 0,0 km/h (0 Bft)
06.09.2019 05:15 8,0 °C 95 % 1021,2 hPa 0,0 mm 0,0 km/h (0 Bft) O-SO 117 ° 0 min 0,000 mm 0,0 UV-I 0 W/m² 7,2 °C 8,0 °C 0,0 km/h (0 Bft)
06.09.2019 05:16 8,0 °C 95 % 1021,2 hPa 0,0 mm 0,0 km/h (0 Bft) O-SO 117 ° 0 min 0,000 mm 0,0 UV-I 0 W/m² 7,2 °C 8,0 °C 0,0 km/h (0 Bft)
06.09.2019 05:17 8,0 °C 95 % 1021,2 hPa 0,0 mm 0,0 km/h (0 Bft) O-SO 117 ° 0 min 0,000 mm 0,0 UV-I 0 W/m² 7,2 °C 8,0 °C 0,0 km/h (0 Bft)
06.09.2019 05:18 7,9 °C 95 % 1021,2 hPa 0,0 mm 0,0 km/h (0 Bft) O-SO 117 ° 0 min 0,000 mm 0,0 UV-I 0 W/m² 7,1 °C 7,9 °C 0,0 km/h (0 Bft)
06.09.2019 05:19 8,0 °C 95 % 1021,2 hPa 0,0 mm 0,0 km/h (0 Bft) O-SO 117 ° 0 min 0,000 mm 0,0 UV-I 0 W/m² 7,2 °C 8,0 °C 0,0 km/h (0 Bft)
06.09.2019 05:20 8,0 °C 95 % 1021,2 hPa 0,0 mm 0,0 km/h (0 Bft) O-SO 117 ° 0 min 0,000 mm 0,0 UV-I 0 W/m² 7,2 °C 8,0 °C 0,0 km/h (0 Bft)
06.09.2019 05:21 8,0 °C 95 % 1021,2 hPa 0,0 mm 0,0 km/h (0 Bft) O-SO 117 ° 0 min 0,000 mm 0,0 UV-I 0 W/m² 7,2 °C 8,0 °C 0,0 km/h (0 Bft)
06.09.2019 05:22 8,0 °C 95 % 1021,3 hPa 0,0 mm 0,0 km/h (0 Bft) O-SO 117 ° 0 min 0,000 mm 0,0 UV-I 0 W/m² 7,2 °C 8,0 °C 0,0 km/h (0 Bft)
06.09.2019 05:23 8,0 °C 95 % 1021,2 hPa 0,0 mm 0,0 km/h (0 Bft) O-SO 117 ° 0 min 0,000 mm 0,0 UV-I 0 W/m² 7,2 °C 8,0 °C 0,0 km/h (0 Bft)
06.09.2019 05:24 8,1 °C 95 % 1021,2 hPa 0,0 mm 0,0 km/h (0 Bft) O-SO 117 ° 0 min 0,000 mm 0,0 UV-I 0 W/m² 7,3 °C 8,1 °C 0,0 km/h (0 Bft)
06.09.2019 05:25 8,1 °C 95 % 1021,2 hPa 0,0 mm 0,3 km/h (0 Bft) O-SO 117 ° 0 min 0,000 mm 0,0 UV-I 0 W/m² 7,3 °C 8,1 °C 1,6 km/h (1 Bft)
06.09.2019 05:26 8,1 °C 95 % 1021,2 hPa 0,0 mm 0,0 km/h (0 Bft) O-SO 117 ° 0 min 0,000 mm 0,0 UV-I 0 W/m² 7,3 °C 8,1 °C 0,0 km/h (0 Bft)
06.09.2019 05:27 8,0 °C 95 % 1021,2 hPa 0,0 mm 0,0 km/h (0 Bft) O-SO 117 ° 0 min 0,000 mm 0,0 UV-I 0 W/m² 7,2 °C 8,0 °C 0,0 km/h (0 Bft)
06.09.2019 05:28 8,1 °C 95 % 1021,2 hPa 0,0 mm 0,0 km/h (0 Bft) O-SO 117 ° 0 min 0,000 mm 0,0 UV-I 0 W/m² 7,3 °C 8,1 °C 0,0 km/h (0 Bft)
06.09.2019 05:29 8,1 °C 95 % 1021,2 hPa 0,0 mm 0,0 km/h (0 Bft) O-SO 117 ° 0 min 0,000 mm 0,0 UV-I 0 W/m² 7,3 °C 8,1 °C 0,0 km/h (0 Bft)
06.09.2019 05:30 8,1 °C 95 % 1021,1 hPa 0,0 mm 0,0 km/h (0 Bft) O-SO 117 ° 0 min 0,000 mm 0,0 UV-I 0 W/m² 7,3 °C 8,1 °C 0,0 km/h (0 Bft)
06.09.2019 05:31 8,1 °C 95 % 1021,2 hPa 0,0 mm 0,0 km/h (0 Bft) O-SO 117 ° 0 min 0,000 mm 0,0 UV-I 0 W/m² 7,3 °C 8,1 °C 0,0 km/h (0 Bft)
06.09.2019 05:32 8,1 °C 95 % 1021,2 hPa 0,0 mm 0,0 km/h (0 Bft) O-SO 117 ° 0 min 0,000 mm 0,0 UV-I 0 W/m² 7,3 °C 8,1 °C 0,0 km/h (0 Bft)
06.09.2019 05:33 8,2 °C 95 % 1021,2 hPa 0,0 mm 0,0 km/h (0 Bft) O-SO 117 ° 0 min 0,000 mm 0,0 UV-I 0 W/m² 7,4 °C 8,2 °C 0,0 km/h (0 Bft)
06.09.2019 05:34 8,2 °C 95 % 1021,2 hPa 0,0 mm 0,0 km/h (0 Bft) O-SO 117 ° 0 min 0,000 mm 0,0 UV-I 0 W/m² 7,4 °C 8,2 °C 0,0 km/h (0 Bft)
06.09.2019 05:35 8,2 °C 95 % 1021,2 hPa 0,0 mm 0,0 km/h (0 Bft) O-SO 117 ° 0 min 0,000 mm 0,0 UV-I 0 W/m² 7,4 °C 8,2 °C 0,0 km/h (0 Bft)
06.09.2019 05:36 8,2 °C 95 % 1021,2 hPa 0,0 mm 0,0 km/h (0 Bft) O-SO 117 ° 0 min 0,000 mm 0,0 UV-I 0 W/m² 7,4 °C 8,2 °C 0,0 km/h (0 Bft)
06.09.2019 05:37 8,2 °C 95 % 1021,1 hPa 0,0 mm 0,0 km/h (0 Bft) O-SO 117 ° 0 min 0,000 mm 0,0 UV-I 0 W/m² 7,4 °C 8,2 °C 0,0 km/h (0 Bft)
06.09.2019 05:38 8,2 °C 95 % 1021,2 hPa 0,0 mm 0,0 km/h (0 Bft) O-SO 117 ° 0 min 0,000 mm 0,0 UV-I 0 W/m² 7,4 °C 8,2 °C 0,0 km/h (0 Bft)
06.09.2019 05:39 8,2 °C 95 % 1021,2 hPa 0,2 mm 0,0 km/h (0 Bft) O-SO 117 ° 0 min 0,000 mm 0,0 UV-I 0 W/m² 7,4 °C 8,2 °C 0,0 km/h (0 Bft)
06.09.2019 05:40 8,2 °C 95 % 1021,1 hPa 0,0 mm 0,0 km/h (0 Bft) O-SO 117 ° 0 min 0,000 mm 0,0 UV-I 0 W/m² 7,4 °C 8,2 °C 0,0 km/h (0 Bft)
06.09.2019 05:41 8,2 °C 95 % 1021,1 hPa 0,0 mm 0,0 km/h (0 Bft) O-SO 117 ° 0 min 0,000 mm 0,0 UV-I 0 W/m² 7,4 °C 8,2 °C 0,0 km/h (0 Bft)
06.09.2019 05:42 8,2 °C 95 % 1021,1 hPa 0,0 mm 0,0 km/h (0 Bft) O-SO 117 ° 0 min 0,000 mm 0,0 UV-I 0 W/m² 7,4 °C 8,2 °C 0,0 km/h (0 Bft)
06.09.2019 05:43 8,2 °C 95 % 1021,1 hPa 0,0 mm 0,0 km/h (0 Bft) O-SO 117 ° 0 min 0,000 mm 0,0 UV-I 0 W/m² 7,4 °C 8,2 °C 0,0 km/h (0 Bft)
06.09.2019 05:44 8,3 °C 95 % 1021,1 hPa 0,0 mm 0,0 km/h (0 Bft) O-SO 117 ° 0 min 0,000 mm 0,0 UV-I 0 W/m² 7,5 °C 8,3 °C 0,0 km/h (0 Bft)
06.09.2019 05:45 8,3 °C 95 % 1021,1 hPa 0,0 mm 0,0 km/h (0 Bft) O-SO 117 ° 0 min 0,000 mm 0,0 UV-I 0 W/m² 7,5 °C 8,3 °C 0,0 km/h (0 Bft)
06.09.2019 05:46 8,3 °C 95 % 1021,1 hPa 0,0 mm 0,0 km/h (0 Bft) O-SO 117 ° 0 min 0,000 mm 0,0 UV-I 0 W/m² 7,5 °C 8,3 °C 0,0 km/h (0 Bft)
06.09.2019 05:47 8,3 °C 95 % 1021,1 hPa 0,0 mm 0,0 km/h (0 Bft) O-SO 117 ° 0 min 0,000 mm 0,0 UV-I 0 W/m² 7,5 °C 8,3 °C 0,0 km/h (0 Bft)
06.09.2019 05:48 8,3 °C 95 % 1021,1 hPa 0,0 mm 0,0 km/h (0 Bft) O-SO 117 ° 0 min 0,000 mm 0,0 UV-I 0 W/m² 7,5 °C 8,3 °C 0,0 km/h (0 Bft)
06.09.2019 05:49 8,3 °C 95 % 1021,1 hPa 0,0 mm 0,0 km/h (0 Bft) O-SO 117 ° 0 min 0,000 mm 0,0 UV-I 0 W/m² 7,5 °C 8,3 °C 0,0 km/h (0 Bft)
06.09.2019 05:50 8,3 °C 95 % 1021,1 hPa 0,0 mm 0,0 km/h (0 Bft) O-SO 117 ° 0 min 0,000 mm 0,0 UV-I 0 W/m² 7,5 °C 8,3 °C 0,0 km/h (0 Bft)
06.09.2019 05:51 8,3 °C 95 % 1021,1 hPa 0,0 mm 0,0 km/h (0 Bft) O-SO 117 ° 0 min 0,000 mm 0,0 UV-I 0 W/m² 7,5 °C 8,3 °C 0,0 km/h (0 Bft)
06.09.2019 05:52 8,3 °C 95 % 1021,2 hPa 0,0 mm 0,0 km/h (0 Bft) O-SO 117 ° 0 min 0,000 mm 0,0 UV-I 0 W/m² 7,5 °C 8,3 °C 0,0 km/h (0 Bft)
06.09.2019 05:53 8,2 °C 95 % 1021,2 hPa 0,0 mm 0,0 km/h (0 Bft) O-SO 117 ° 0 min 0,000 mm 0,0 UV-I 0 W/m² 7,4 °C 8,2 °C 0,0 km/h (0 Bft)
06.09.2019 05:54 8,3 °C 95 % 1021,2 hPa 0,0 mm 0,0 km/h (0 Bft) O-SO 117 ° 0 min 0,000 mm 0,0 UV-I 0 W/m² 7,5 °C 8,3 °C 0,0 km/h (0 Bft)
06.09.2019 05:55 8,2 °C 95 % 1021,2 hPa 0,0 mm 0,0 km/h (0 Bft) O-SO 117 ° 0 min 0,000 mm 0,0 UV-I 0 W/m² 7,4 °C 8,2 °C 0,0 km/h (0 Bft)
06.09.2019 05:56 8,2 °C 95 % 1021,2 hPa 0,0 mm 0,0 km/h (0 Bft) O-SO 117 ° 0 min 0,000 mm 0,0 UV-I 0 W/m² 7,4 °C 8,2 °C 0,0 km/h (0 Bft)
06.09.2019 05:57 8,2 °C 95 % 1021,2 hPa 0,0 mm 0,0 km/h (0 Bft) O-SO 117 ° 0 min 0,000 mm 0,0 UV-I 0 W/m² 7,4 °C 8,2 °C 0,0 km/h (0 Bft)
06.09.2019 05:58 8,2 °C 95 % 1021,2 hPa 0,0 mm 0,0 km/h (0 Bft) O-SO 117 ° 0 min 0,000 mm 0,0 UV-I 0 W/m² 7,4 °C 8,2 °C 0,0 km/h (0 Bft)
06.09.2019 05:59 8,2 °C 95 % 1021,2 hPa 0,0 mm 0,0 km/h (0 Bft) O-SO 117 ° 0 min 0,000 mm 0,0 UV-I 0 W/m² 7,4 °C 8,2 °C 0,0 km/h (0 Bft)
06.09.2019 06:00 8,2 °C 95 % 1021,1 hPa 0,0 mm 0,0 km/h (0 Bft) O-SO 117 ° 0 min 0,000 mm 0,0 UV-I 0 W/m² 7,4 °C 8,2 °C 0,0 km/h (0 Bft)
06.09.2019 06:01 8,2 °C 95 % 1021,1 hPa 0,0 mm 0,0 km/h (0 Bft) O-SO 117 ° 0 min 0,000 mm 0,0 UV-I 0 W/m² 7,4 °C 8,2 °C 0,0 km/h (0 Bft)
06.09.2019 06:02 8,2 °C 95 % 1021,1 hPa 0,0 mm 0,0 km/h (0 Bft) O-SO 117 ° 0 min 0,000 mm 0,0 UV-I 0 W/m² 7,4 °C 8,2 °C 0,0 km/h (0 Bft)
06.09.2019 06:03 8,2 °C 95 % 1021,0 hPa 0,2 mm 0,0 km/h (0 Bft) O-SO 117 ° 0 min 0,000 mm 0,0 UV-I 0 W/m² 7,4 °C 8,2 °C 0,0 km/h (0 Bft)
06.09.2019 06:04 8,2 °C 95 % 1021,0 hPa 0,0 mm 0,0 km/h (0 Bft) O-SO 117 ° 0 min 0,000 mm 0,0 UV-I 0 W/m² 7,4 °C 8,2 °C 0,0 km/h (0 Bft)
06.09.2019 06:05 8,2 °C 95 % 1021,0 hPa 0,0 mm 0,0 km/h (0 Bft) O-SO 117 ° 0 min 0,000 mm 0,0 UV-I 0 W/m² 7,4 °C 8,2 °C 0,0 km/h (0 Bft)
06.09.2019 06:06 8,3 °C 95 % 1021,0 hPa 0,0 mm 0,0 km/h (0 Bft) O-SO 117 ° 0 min 0,000 mm 0,0 UV-I 0 W/m² 7,5 °C 8,3 °C 0,0 km/h (0 Bft)
06.09.2019 06:07 8,2 °C 95 % 1021,1 hPa 0,0 mm 0,0 km/h (0 Bft) O-SO 117 ° 0 min 0,000 mm 0,0 UV-I 0 W/m² 7,4 °C 8,2 °C 0,0 km/h (0 Bft)
06.09.2019 06:08 8,3 °C 95 % 1021,0 hPa 0,0 mm 0,0 km/h (0 Bft) O-SO 117 ° 0 min 0,000 mm 0,0 UV-I 0 W/m² 7,5 °C 8,3 °C 0,0 km/h (0 Bft)
06.09.2019 06:09 8,2 °C 95 % 1021,0 hPa 0,0 mm 0,0 km/h (0 Bft) O-SO 117 ° 0 min 0,000 mm 0,0 UV-I 0 W/m² 7,4 °C 8,2 °C 0,0 km/h (0 Bft)
06.09.2019 06:10 8,2 °C 95 % 1021,0 hPa 0,0 mm 0,0 km/h (0 Bft) O-SO 117 ° 0 min 0,000 mm 0,0 UV-I 0 W/m² 7,4 °C 8,2 °C 0,0 km/h (0 Bft)
06.09.2019 06:11 8,3 °C 95 % 1020,9 hPa 0,0 mm 0,0 km/h (0 Bft) O-SO 117 ° 0 min 0,000 mm 0,0 UV-I 0 W/m² 7,5 °C 8,3 °C 0,0 km/h (0 Bft)
06.09.2019 06:12 8,2 °C 95 % 1020,9 hPa 0,0 mm 0,0 km/h (0 Bft) O-SO 117 ° 0 min 0,000 mm 0,0 UV-I 0 W/m² 7,4 °C 8,2 °C 0,0 km/h (0 Bft)
06.09.2019 06:13 8,2 °C 95 % 1021,0 hPa 0,0 mm 0,0 km/h (0 Bft) O-SO 117 ° 0 min 0,000 mm 0,0 UV-I 0 W/m² 7,4 °C 8,2 °C 0,0 km/h (0 Bft)
06.09.2019 06:14 8,2 °C 95 % 1020,9 hPa 0,0 mm 0,0 km/h (0 Bft) O-SO 117 ° 0 min 0,000 mm 0,0 UV-I 0 W/m² 7,4 °C 8,2 °C 0,0 km/h (0 Bft)
06.09.2019 06:15 8,2 °C 95 % 1021,0 hPa 0,0 mm 0,0 km/h (0 Bft) O-SO 117 ° 0 min 0,000 mm 0,0 UV-I 0 W/m² 7,4 °C 8,2 °C 0,0 km/h (0 Bft)
06.09.2019 06:16 8,2 °C 95 % 1021,0 hPa 0,0 mm 0,0 km/h (0 Bft) O-SO 117 ° 0 min 0,000 mm 0,0 UV-I 0 W/m² 7,4 °C 8,2 °C 0,0 km/h (0 Bft)
06.09.2019 06:17 8,2 °C 95 % 1021,0 hPa 0,0 mm 0,0 km/h (0 Bft) O-SO 117 ° 0 min 0,000 mm 0,0 UV-I 0 W/m² 7,4 °C 8,2 °C 0,0 km/h (0 Bft)
06.09.2019 06:18 8,3 °C 95 % 1021,0 hPa 0,0 mm 0,0 km/h (0 Bft) O-SO 117 ° 0 min 0,000 mm 0,0 UV-I 0 W/m² 7,5 °C 8,3 °C 0,0 km/h (0 Bft)
06.09.2019 06:19 8,3 °C 95 % 1021,0 hPa 0,0 mm 0,0 km/h (0 Bft) O-SO 117 ° 0 min 0,000 mm 0,0 UV-I 0 W/m² 7,5 °C 8,3 °C 0,0 km/h (0 Bft)
06.09.2019 06:20 8,3 °C 95 % 1021,0 hPa 0,0 mm 0,0 km/h (0 Bft) O-SO 117 ° 0 min 0,000 mm 0,0 UV-I 0 W/m² 7,5 °C 8,3 °C 0,0 km/h (0 Bft)
06.09.2019 06:21 8,3 °C 95 % 1021,1 hPa 0,0 mm 0,0 km/h (0 Bft) O-SO 117 ° 0 min 0,000 mm 0,0 UV-I 0 W/m² 7,5 °C 8,3 °C 0,0 km/h (0 Bft)
06.09.2019 06:22 8,3 °C 95 % 1021,0 hPa 0,0 mm 0,0 km/h (0 Bft) O-SO 117 ° 0 min 0,000 mm 0,0 UV-I 0 W/m² 7,5 °C 8,3 °C 0,0 km/h (0 Bft)
06.09.2019 06:23 8,3 °C 95 % 1021,0 hPa 0,0 mm 0,0 km/h (0 Bft) O-SO 117 ° 0 min 0,000 mm 0,0 UV-I 0 W/m² 7,5 °C 8,3 °C 0,0 km/h (0 Bft)
06.09.2019 06:24 8,3 °C 95 % 1021,0 hPa 0,0 mm 0,0 km/h (0 Bft) O-SO 117 ° 0 min 0,000 mm 0,0 UV-I 0 W/m² 7,5 °C 8,3 °C 0,0 km/h (0 Bft)
06.09.2019 06:25 8,3 °C 95 % 1021,0 hPa 0,0 mm 0,0 km/h (0 Bft) O-SO 117 ° 0 min 0,000 mm 0,0 UV-I 0 W/m² 7,5 °C 8,3 °C 0,0 km/h (0 Bft)
06.09.2019 06:26 8,3 °C 95 % 1021,0 hPa 0,0 mm 0,0 km/h (0 Bft) O-SO 117 ° 0 min 0,000 mm 0,0 UV-I 0 W/m² 7,5 °C 8,3 °C 0,0 km/h (0 Bft)
06.09.2019 06:27 8,3 °C 95 % 1021,0 hPa 0,0 mm 0,0 km/h (0 Bft) O-SO 117 ° 0 min 0,000 mm 0,0 UV-I 0 W/m² 7,5 °C 8,3 °C 0,0 km/h (0 Bft)
06.09.2019 06:28 8,3 °C 95 % 1021,0 hPa 0,0 mm 0,0 km/h (0 Bft) O-SO 117 ° 0 min 0,000 mm 0,0 UV-I 0 W/m² 7,5 °C 8,3 °C 0,0 km/h (0 Bft)
06.09.2019 06:29 8,3 °C 95 % 1021,0 hPa 0,0 mm 0,0 km/h (0 Bft) O-SO 117 ° 0 min 0,000 mm 0,0 UV-I 0 W/m² 7,5 °C 8,3 °C 0,0 km/h (0 Bft)
06.09.2019 06:30 8,3 °C 95 % 1021,0 hPa 0,0 mm 0,0 km/h (0 Bft) O-SO 117 ° 0 min 0,000 mm 0,0 UV-I 0 W/m² 7,5 °C 8,3 °C 0,0 km/h (0 Bft)
06.09.2019 06:31 8,3 °C 95 % 1021,0 hPa 0,0 mm 0,0 km/h (0 Bft) O-SO 117 ° 0 min 0,000 mm 0,0 UV-I 0 W/m² 7,5 °C 8,3 °C 0,0 km/h (0 Bft)
06.09.2019 06:32 8,3 °C 95 % 1021,0 hPa 0,2 mm 0,0 km/h (0 Bft) O-SO 117 ° 0 min 0,000 mm 0,0 UV-I 0 W/m² 7,5 °C 8,3 °C 0,0 km/h (0 Bft)
06.09.2019 06:33 8,3 °C 95 % 1021,0 hPa 0,0 mm 0,0 km/h (0 Bft) O-SO 117 ° 0 min 0,000 mm 0,0 UV-I 0 W/m² 7,5 °C 8,3 °C 0,0 km/h (0 Bft)
06.09.2019 06:34 8,3 °C 95 % 1021,1 hPa 0,0 mm 0,0 km/h (0 Bft) O-SO 117 ° 0 min 0,000 mm 0,0 UV-I 0 W/m² 7,5 °C 8,3 °C 0,0 km/h (0 Bft)
06.09.2019 06:35 8,3 °C 95 % 1021,1 hPa 0,0 mm 0,0 km/h (0 Bft) O-SO 117 ° 0 min 0,000 mm 0,0 UV-I 0 W/m² 7,5 °C 8,3 °C 0,0 km/h (0 Bft)
06.09.2019 06:36 8,3 °C 95 % 1021,1 hPa 0,0 mm 0,0 km/h (0 Bft) O-SO 117 ° 0 min 0,000 mm 0,0 UV-I 0 W/m² 7,5 °C 8,3 °C 0,0 km/h (0 Bft)
06.09.2019 06:37 8,3 °C 95 % 1021,0 hPa 0,0 mm 0,0 km/h (0 Bft) O-SO 117 ° 0 min 0,000 mm 0,0 UV-I 0 W/m² 7,5 °C 8,3 °C 0,0 km/h (0 Bft)
06.09.2019 06:38 8,3 °C 95 % 1021,0 hPa 0,0 mm 0,0 km/h (0 Bft) O-SO 117 ° 0 min 0,000 mm 0,0 UV-I 0 W/m² 7,5 °C 8,3 °C 0,0 km/h (0 Bft)
06.09.2019 06:39 8,3 °C 95 % 1021,2 hPa 0,0 mm 0,0 km/h (0 Bft) O-SO 117 ° 0 min 0,000 mm 0,0 UV-I 0 W/m² 7,5 °C 8,3 °C 0,0 km/h (0 Bft)
06.09.2019 06:40 8,3 °C 95 % 1021,1 hPa 0,0 mm 0,0 km/h (0 Bft) O-SO 117 ° 0 min 0,000 mm 0,0 UV-I 0 W/m² 7,5 °C 8,3 °C 0,0 km/h (0 Bft)
06.09.2019 06:41 8,3 °C 95 % 1021,1 hPa 0,0 mm 0,0 km/h (0 Bft) O-SO 117 ° 0 min 0,000 mm 0,0 UV-I 0 W/m² 7,5 °C 8,3 °C 0,0 km/h (0 Bft)
06.09.2019 06:42 8,3 °C 95 % 1021,2 hPa 0,0 mm 0,0 km/h (0 Bft) O-SO 117 ° 0 min 0,000 mm 0,0 UV-I 0 W/m² 7,5 °C 8,3 °C 0,0 km/h (0 Bft)
06.09.2019 06:43 8,3 °C 95 % 1021,1 hPa 0,0 mm 0,0 km/h (0 Bft) O-SO 117 ° 0 min 0,000 mm 0,0 UV-I 0 W/m² 7,5 °C 8,3 °C 0,0 km/h (0 Bft)
06.09.2019 06:44 8,4 °C 95 % 1021,1 hPa 0,0 mm 0,0 km/h (0 Bft) O-SO 117 ° 0 min 0,000 mm 0,0 UV-I 0 W/m² 7,6 °C 8,4 °C 0,0 km/h (0 Bft)
06.09.2019 06:45 8,4 °C 95 % 1021,1 hPa 0,0 mm 0,0 km/h (0 Bft) O-SO 117 ° 0 min 0,000 mm 0,0 UV-I 0 W/m² 7,6 °C 8,4 °C 0,0 km/h (0 Bft)
06.09.2019 06:46 8,4 °C 95 % 1021,2 hPa 0,0 mm 0,0 km/h (0 Bft) O-SO 117 ° 0 min 0,000 mm 0,0 UV-I 0 W/m² 7,6 °C 8,4 °C 0,0 km/h (0 Bft)
06.09.2019 06:47 8,4 °C 95 % 1021,2 hPa 0,0 mm 0,3 km/h (0 Bft) O-SO 117 ° 0 min 0,000 mm 0,0 UV-I 0 W/m² 7,6 °C 8,4 °C 1,6 km/h (1 Bft)
06.09.2019 06:48 8,4 °C 95 % 1021,2 hPa 0,0 mm 0,0 km/h (0 Bft) O-SO 117 ° 0 min 0,000 mm 0,0 UV-I 0 W/m² 7,6 °C 8,4 °C 0,0 km/h (0 Bft)
06.09.2019 06:49 8,4 °C 95 % 1021,1 hPa 0,0 mm 0,3 km/h (0 Bft) O-SO 117 ° 0 min 0,000 mm 0,0 UV-I 0 W/m² 7,6 °C 8,4 °C 1,6 km/h (1 Bft)
06.09.2019 06:50 8,4 °C 95 % 1021,1 hPa 0,0 mm 0,0 km/h (0 Bft) O-SO 117 ° 0 min 0,000 mm 0,0 UV-I 0 W/m² 7,6 °C 8,4 °C 0,0 km/h (0 Bft)
06.09.2019 06:51 8,4 °C 95 % 1021,1 hPa 0,0 mm 0,0 km/h (0 Bft) O-SO 117 ° 0 min 0,000 mm 0,0 UV-I 0 W/m² 7,6 °C 8,4 °C 0,0 km/h (0 Bft)
06.09.2019 06:52 8,4 °C 95 % 1021,1 hPa 0,0 mm 0,0 km/h (0 Bft) O-SO 117 ° 0 min 0,000 mm 0,0 UV-I 0 W/m² 7,6 °C 8,4 °C 0,0 km/h (0 Bft)
06.09.2019 06:53 8,4 °C 95 % 1021,1 hPa 0,0 mm 0,0 km/h (0 Bft) O-SO 117 ° 0 min 0,000 mm 0,0 UV-I 0 W/m² 7,6 °C 8,4 °C 0,0 km/h (0 Bft)
06.09.2019 06:54 8,4 °C 95 % 1021,2 hPa 0,0 mm 0,0 km/h (0 Bft) O-SO 117 ° 0 min 0,000 mm 0,0 UV-I 0 W/m² 7,6 °C 8,4 °C 0,0 km/h (0 Bft)
06.09.2019 06:55 8,4 °C 95 % 1021,1 hPa 0,0 mm 0,0 km/h (0 Bft) O-SO 117 ° 0 min 0,000 mm 0,0 UV-I 0 W/m² 7,6 °C 8,4 °C 0,0 km/h (0 Bft)
06.09.2019 06:56 8,3 °C 95 % 1021,2 hPa 0,0 mm 0,0 km/h (0 Bft) O-SO 117 ° 0 min 0,000 mm 0,0 UV-I 0 W/m² 7,5 °C 8,3 °C 0,0 km/h (0 Bft)
06.09.2019 06:57 8,3 °C 95 % 1021,2 hPa 0,2 mm 0,0 km/h (0 Bft) O-SO 117 ° 0 min 0,000 mm 0,0 UV-I 0 W/m² 7,5 °C 8,3 °C 0,0 km/h (0 Bft)
06.09.2019 06:58 8,3 °C 95 % 1021,1 hPa 0,0 mm 0,0 km/h (0 Bft) O-SO 117 ° 0 min 0,000 mm 0,0 UV-I 0 W/m² 7,5 °C 8,3 °C 0,0 km/h (0 Bft)
06.09.2019 06:59 8,4 °C 95 % 1021,1 hPa 0,0 mm 0,0 km/h (0 Bft) O-SO 117 ° 0 min 0,000 mm 0,0 UV-I 0 W/m² 7,6 °C 8,4 °C 0,0 km/h (0 Bft)
06.09.2019 07:00 8,3 °C 95 % 1021,1 hPa 0,0 mm 0,0 km/h (0 Bft) O-SO 117 ° 0 min 0,000 mm 0,0 UV-I 0 W/m² 7,5 °C 8,3 °C 0,0 km/h (0 Bft)
06.09.2019 07:01 8,3 °C 95 % 1021,1 hPa 0,0 mm 0,0 km/h (0 Bft) O-SO 117 ° 0 min 0,000 mm 0,0 UV-I 0 W/m² 7,5 °C 8,3 °C 0,0 km/h (0 Bft)
06.09.2019 07:02 8,3 °C 95 % 1021,1 hPa 0,0 mm 0,0 km/h (0 Bft) O-SO 117 ° 0 min 0,000 mm 0,0 UV-I 0 W/m² 7,5 °C 8,3 °C 0,0 km/h (0 Bft)
06.09.2019 07:03 8,4 °C 95 % 1021,1 hPa 0,0 mm 0,0 km/h (0 Bft) O-SO 117 ° 0 min 0,000 mm 0,0 UV-I 0 W/m² 7,6 °C 8,4 °C 0,0 km/h (0 Bft)
06.09.2019 07:04 8,4 °C 95 % 1021,1 hPa 0,0 mm 0,0 km/h (0 Bft) O-SO 117 ° 0 min 0,000 mm 0,0 UV-I 0 W/m² 7,6 °C 8,4 °C 0,0 km/h (0 Bft)
06.09.2019 07:05 8,3 °C 95 % 1021,1 hPa 0,0 mm 0,0 km/h (0 Bft) O-SO 117 ° 0 min 0,000 mm 0,0 UV-I 0 W/m² 7,5 °C 8,3 °C 0,0 km/h (0 Bft)
06.09.2019 07:06 8,4 °C 95 % 1021,1 hPa 0,0 mm 0,0 km/h (0 Bft) O-SO 117 ° 0 min 0,000 mm 0,0 UV-I 0 W/m² 7,6 °C 8,4 °C 0,0 km/h (0 Bft)
06.09.2019 07:07 8,3 °C 95 % 1021,1 hPa 0,0 mm 0,0 km/h (0 Bft) O-SO 117 ° 0 min 0,000 mm 0,0 UV-I 0 W/m² 7,5 °C 8,3 °C 0,0 km/h (0 Bft)
06.09.2019 07:08 8,4 °C 95 % 1021,1 hPa 0,0 mm 0,0 km/h (0 Bft) O-SO 117 ° 0 min 0,000 mm 0,0 UV-I 0 W/m² 7,6 °C 8,4 °C 0,0 km/h (0 Bft)
06.09.2019 07:09 8,4 °C 95 % 1021,1 hPa 0,0 mm 0,0 km/h (0 Bft) O-SO 117 ° 0 min 0,000 mm 0,0 UV-I 0 W/m² 7,6 °C 8,4 °C 0,0 km/h (0 Bft)
06.09.2019 07:10 8,4 °C 95 % 1021,1 hPa 0,0 mm 0,1 km/h (0 Bft) O-SO 117 ° 0 min 0,000 mm 0,0 UV-I 0 W/m² 7,6 °C 8,4 °C 1,6 km/h (1 Bft)
06.09.2019 07:11 8,4 °C 95 % 1021,1 hPa 0,0 mm 0,5 km/h (0 Bft) O-SO 117 ° 0 min 0,000 mm 0,0 UV-I 0 W/m² 7,6 °C 8,4 °C 1,6 km/h (1 Bft)
06.09.2019 07:12 8,4 °C 95 % 1021,1 hPa 0,0 mm 0,3 km/h (0 Bft) O-SO 117 ° 0 min 0,000 mm 0,0 UV-I 0 W/m² 7,6 °C 8,4 °C 1,6 km/h (1 Bft)
06.09.2019 07:13 8,4 °C 95 % 1021,1 hPa 0,0 mm 0,0 km/h (0 Bft) O-SO 117 ° 0 min 0,000 mm 0,0 UV-I 0 W/m² 7,6 °C 8,4 °C 0,0 km/h (0 Bft)
06.09.2019 07:14 8,4 °C 95 % 1021,0 hPa 0,0 mm 0,0 km/h (0 Bft) O-SO 117 ° 0 min 0,000 mm 0,0 UV-I 0 W/m² 7,6 °C 8,4 °C 0,0 km/h (0 Bft)
06.09.2019 07:15 8,3 °C 95 % 1021,0 hPa 0,0 mm 0,0 km/h (0 Bft) O-SO 117 ° 0 min 0,000 mm 0,0 UV-I 5 W/m² 7,5 °C 8,3 °C 0,0 km/h (0 Bft)
06.09.2019 07:16 8,3 °C 95 % 1021,1 hPa 0,0 mm 0,0 km/h (0 Bft) O-SO 117 ° 0 min 0,000 mm 0,0 UV-I 5 W/m² 7,5 °C 8,3 °C 0,0 km/h (0 Bft)
06.09.2019 07:17 8,3 °C 95 % 1021,1 hPa 0,0 mm 0,0 km/h (0 Bft) O-SO 117 ° 0 min 0,000 mm 0,0 UV-I 5 W/m² 7,5 °C 8,3 °C 0,0 km/h (0 Bft)
06.09.2019 07:18 8,4 °C 95 % 1021,1 hPa 0,0 mm 0,0 km/h (0 Bft) O-SO 117 ° 0 min 0,000 mm 0,0 UV-I 7 W/m² 7,6 °C 8,4 °C 0,0 km/h (0 Bft)
06.09.2019 07:19 8,4 °C 95 % 1021,1 hPa 0,0 mm 0,0 km/h (0 Bft) O-SO 117 ° 0 min 0,000 mm 0,0 UV-I 7 W/m² 7,6 °C 8,4 °C 0,0 km/h (0 Bft)
06.09.2019 07:20 8,3 °C 95 % 1021,0 hPa 0,0 mm 0,0 km/h (0 Bft) O-SO 117 ° 0 min 0,000 mm 0,0 UV-I 9 W/m² 7,5 °C 8,3 °C 0,0 km/h (0 Bft)
06.09.2019 07:21 8,4 °C 95 % 1021,1 hPa 0,0 mm 0,0 km/h (0 Bft) O-SO 117 ° 0 min 0,000 mm 0,0 UV-I 9 W/m² 7,6 °C 8,4 °C 0,0 km/h (0 Bft)
06.09.2019 07:22 8,4 °C 95 % 1021,0 hPa 0,0 mm 0,0 km/h (0 Bft) O-SO 117 ° 0 min 0,000 mm 0,0 UV-I 11 W/m² 7,6 °C 8,4 °C 0,0 km/h (0 Bft)
06.09.2019 07:23 8,4 °C 95 % 1021,0 hPa 0,0 mm 0,0 km/h (0 Bft) O-SO 117 ° 0 min 0,000 mm 0,0 UV-I 11 W/m² 7,6 °C 8,4 °C 0,0 km/h (0 Bft)
06.09.2019 07:24 8,4 °C 95 % 1021,0 hPa 0,0 mm 0,0 km/h (0 Bft) O-SO 117 ° 0 min 0,000 mm 0,0 UV-I 12 W/m² 7,6 °C 8,4 °C 0,0 km/h (0 Bft)
06.09.2019 07:25 8,4 °C 95 % 1021,0 hPa 0,0 mm 0,0 km/h (0 Bft) O-SO 117 ° 0 min 0,000 mm 0,0 UV-I 14 W/m² 7,6 °C 8,4 °C 0,0 km/h (0 Bft)
06.09.2019 07:26 8,4 °C 95 % 1021,0 hPa 0,0 mm 0,0 km/h (0 Bft) O-SO 117 ° 0 min 0,000 mm 0,0 UV-I 14 W/m² 7,6 °C 8,4 °C 0,0 km/h (0 Bft)
06.09.2019 07:27 8,4 °C 95 % 1021,0 hPa 0,0 mm 0,0 km/h (0 Bft) O-SO 117 ° 0 min 0,000 mm 0,0 UV-I 18 W/m² 7,6 °C 8,4 °C 0,0 km/h (0 Bft)
06.09.2019 07:28 8,4 °C 95 % 1021,0 hPa 0,0 mm 0,0 km/h (0 Bft) O-SO 117 ° 0 min 0,000 mm 0,0 UV-I 19 W/m² 7,6 °C 8,4 °C 0,0 km/h (0 Bft)
06.09.2019 07:29 8,4 °C 95 % 1021,0 hPa 0,2 mm 0,0 km/h (0 Bft) O-SO 117 ° 0 min 0,000 mm 0,0 UV-I 19 W/m² 7,6 °C 8,4 °C 0,0 km/h (0 Bft)
06.09.2019 07:30 8,4 °C 95 % 1021,0 hPa 0,0 mm 0,0 km/h (0 Bft) O-SO 117 ° 0 min 0,000 mm 0,0 UV-I 18 W/m² 7,6 °C 8,4 °C 0,0 km/h (0 Bft)
06.09.2019 07:31 8,4 °C 95 % 1021,0 hPa 0,0 mm 0,0 km/h (0 Bft) O-SO 117 ° 0 min 0,000 mm 0,0 UV-I 16 W/m² 7,6 °C 8,4 °C 0,0 km/h (0 Bft)
06.09.2019 07:32 8,4 °C 95 % 1021,0 hPa 0,0 mm 0,0 km/h (0 Bft) O-SO 117 ° 0 min 0,000 mm 0,0 UV-I 16 W/m² 7,6 °C 8,4 °C 0,0 km/h (0 Bft)
06.09.2019 07:33 8,5 °C 95 % 1021,0 hPa 0,0 mm 0,0 km/h (0 Bft) O-SO 117 ° 0 min 0,000 mm 0,0 UV-I 14 W/m² 7,7 °C 8,5 °C 0,0 km/h (0 Bft)
06.09.2019 07:34 8,5 °C 95 % 1021,0 hPa 0,0 mm 0,0 km/h (0 Bft) O-SO 117 ° 0 min 0,000 mm 0,0 UV-I 14 W/m² 7,7 °C 8,5 °C 0,0 km/h (0 Bft)
06.09.2019 07:35 8,5 °C 95 % 1021,0 hPa 0,0 mm 0,0 km/h (0 Bft) O-SO 117 ° 0 min 0,000 mm 0,0 UV-I 14 W/m² 7,7 °C 8,5 °C 0,0 km/h (0 Bft)
06.09.2019 07:36 8,5 °C 95 % 1021,0 hPa 0,0 mm 0,0 km/h (0 Bft) O-SO 117 ° 0 min 0,000 mm 0,0 UV-I 14 W/m² 7,7 °C 8,5 °C 0,0 km/h (0 Bft)
06.09.2019 07:37 8,6 °C 95 % 1021,0 hPa 0,0 mm 0,0 km/h (0 Bft) O-SO 117 ° 0 min 0,000 mm 0,0 UV-I 14 W/m² 7,8 °C 8,6 °C 0,0 km/h (0 Bft)
06.09.2019 07:38 8,6 °C 95 % 1021,0 hPa 0,0 mm 0,0 km/h (0 Bft) O-SO 117 ° 0 min 0,000 mm 0,0 UV-I 14 W/m² 7,8 °C 8,6 °C 0,0 km/h (0 Bft)
06.09.2019 07:39 8,6 °C 95 % 1021,0 hPa 0,0 mm 0,0 km/h (0 Bft) O-SO 117 ° 0 min 0,000 mm 0,0 UV-I 14 W/m² 7,8 °C 8,6 °C 0,0 km/h (0 Bft)
06.09.2019 07:40 8,6 °C 95 % 1021,0 hPa 0,0 mm 0,0 km/h (0 Bft) O-SO 117 ° 0 min 0,000 mm 0,0 UV-I 14 W/m² 7,8 °C 8,6 °C 0,0 km/h (0 Bft)
06.09.2019 07:41 8,6 °C 95 % 1021,0 hPa 0,0 mm 0,0 km/h (0 Bft) O-SO 117 ° 0 min 0,000 mm 0,0 UV-I 14 W/m² 7,8 °C 8,6 °C 0,0 km/h (0 Bft)
06.09.2019 07:42 8,6 °C 95 % 1021,0 hPa 0,0 mm 0,0 km/h (0 Bft) O-SO 117 ° 0 min 0,000 mm 0,0 UV-I 14 W/m² 7,8 °C 8,6 °C 0,0 km/h (0 Bft)
06.09.2019 07:43 8,6 °C 95 % 1021,0 hPa 0,0 mm 0,0 km/h (0 Bft) O-SO 117 ° 0 min 0,000 mm 0,0 UV-I 16 W/m² 7,8 °C 8,6 °C 0,0 km/h (0 Bft)
06.09.2019 07:44 8,6 °C 95 % 1021,0 hPa 0,0 mm 0,0 km/h (0 Bft) O-SO 117 ° 0 min 0,000 mm 0,0 UV-I 16 W/m² 7,8 °C 8,6 °C 0,0 km/h (0 Bft)
06.09.2019 07:45 8,6 °C 95 % 1021,0 hPa 0,0 mm 0,0 km/h (0 Bft) O-SO 117 ° 0 min 0,000 mm 0,0 UV-I 18 W/m² 7,8 °C 8,6 °C 0,0 km/h (0 Bft)
06.09.2019 07:46 8,7 °C 95 % 1021,0 hPa 0,0 mm 0,0 km/h (0 Bft) O-SO 117 ° 0 min 0,000 mm 0,0 UV-I 18 W/m² 7,9 °C 8,7 °C 0,0 km/h (0 Bft)
06.09.2019 07:47 8,6 °C 95 % 1021,0 hPa 0,0 mm 0,0 km/h (0 Bft) O-SO 117 ° 0 min 0,000 mm 0,0 UV-I 19 W/m² 7,8 °C 8,6 °C 0,0 km/h (0 Bft)
06.09.2019 07:48 8,7 °C 95 % 1020,9 hPa 0,0 mm 0,0 km/h (0 Bft) O-SO 117 ° 0 min 0,000 mm 0,0 UV-I 19 W/m² 7,9 °C 8,7 °C 0,0 km/h (0 Bft)
06.09.2019 07:49 8,7 °C 95 % 1020,9 hPa 0,0 mm 0,0 km/h (0 Bft) O-SO 117 ° 0 min 0,000 mm 0,0 UV-I 19 W/m² 7,9 °C 8,7 °C 0,0 km/h (0 Bft)
06.09.2019 07:50 8,7 °C 95 % 1021,0 hPa 0,0 mm 0,0 km/h (0 Bft) O-SO 117 ° 0 min 0,000 mm 0,0 UV-I 19 W/m² 7,9 °C 8,7 °C 0,0 km/h (0 Bft)
06.09.2019 07:51 8,7 °C 95 % 1021,0 hPa 0,0 mm 0,0 km/h (0 Bft) O-SO 117 ° 0 min 0,000 mm 0,0 UV-I 19 W/m² 7,9 °C 8,7 °C 0,0 km/h (0 Bft)
06.09.2019 07:52 8,7 °C 95 % 1020,9 hPa 0,0 mm 0,0 km/h (0 Bft) O-SO 117 ° 0 min 0,000 mm 0,0 UV-I 19 W/m² 7,9 °C 8,7 °C 0,0 km/h (0 Bft)
06.09.2019 07:53 8,7 °C 95 % 1021,0 hPa 0,0 mm 0,0 km/h (0 Bft) O-SO 117 ° 0 min 0,000 mm 0,0 UV-I 21 W/m² 7,9 °C 8,7 °C 0,0 km/h (0 Bft)
06.09.2019 07:54 8,7 °C 96 % 1021,0 hPa 0,0 mm 0,0 km/h (0 Bft) O-SO 117 ° 0 min 0,000 mm 0,0 UV-I 21 W/m² 8,1 °C 8,7 °C 0,0 km/h (0 Bft)
06.09.2019 07:55 8,8 °C 96 % 1020,9 hPa 0,0 mm 0,0 km/h (0 Bft) O-SO 117 ° 0 min 0,000 mm 0,0 UV-I 23 W/m² 8,2 °C 8,8 °C 0,0 km/h (0 Bft)
06.09.2019 07:56 8,7 °C 96 % 1020,9 hPa 0,0 mm 0,0 km/h (0 Bft) O-SO 117 ° 0 min 0,000 mm 0,0 UV-I 25 W/m² 8,1 °C 8,7 °C 0,0 km/h (0 Bft)
06.09.2019 07:57 8,8 °C 96 % 1020,9 hPa 0,2 mm 0,0 km/h (0 Bft) O-SO 117 ° 0 min 0,000 mm 0,0 UV-I 25 W/m² 8,2 °C 8,8 °C 0,0 km/h (0 Bft)
06.09.2019 07:58 8,7 °C 95 % 1020,9 hPa 0,0 mm 0,0 km/h (0 Bft) O-SO 117 ° 0 min 0,000 mm 0,0 UV-I 23 W/m² 7,9 °C 8,7 °C 0,0 km/h (0 Bft)
06.09.2019 07:59 8,7 °C 95 % 1020,9 hPa 0,0 mm 0,0 km/h (0 Bft) O-SO 117 ° 0 min 0,000 mm 0,0 UV-I 23 W/m² 7,9 °C 8,7 °C 0,0 km/h (0 Bft)
06.09.2019 08:00 8,8 °C 95 % 1020,9 hPa 0,0 mm 0,0 km/h (0 Bft) O-SO 117 ° 0 min 0,000 mm 0,0 UV-I 23 W/m² 8,0 °C 8,8 °C 0,0 km/h (0 Bft)
06.09.2019 08:01 8,8 °C 96 % 1020,9 hPa 0,0 mm 0,0 km/h (0 Bft) O-SO 117 ° 0 min 0,000 mm 0,0 UV-I 23 W/m² 8,2 °C 8,8 °C 0,0 km/h (0 Bft)
06.09.2019 08:02 8,8 °C 96 % 1020,9 hPa 0,0 mm 0,0 km/h (0 Bft) O-SO 117 ° 0 min 0,000 mm 0,0 UV-I 23 W/m² 8,2 °C 8,8 °C 0,0 km/h (0 Bft)
06.09.2019 08:03 8,8 °C 95 % 1020,9 hPa 0,0 mm 0,0 km/h (0 Bft) O-SO 117 ° 0 min 0,000 mm 0,0 UV-I 21 W/m² 8,0 °C 8,8 °C 0,0 km/h (0 Bft)
06.09.2019 08:04 8,7 °C 95 % 1021,0 hPa 0,0 mm 0,0 km/h (0 Bft) O-SO 117 ° 0 min 0,000 mm 0,0 UV-I 21 W/m² 7,9 °C 8,7 °C 0,0 km/h (0 Bft)
06.09.2019 08:05 8,7 °C 95 % 1021,0 hPa 0,0 mm 0,0 km/h (0 Bft) O-SO 117 ° 0 min 0,000 mm 0,0 UV-I 21 W/m² 7,9 °C 8,7 °C 0,0 km/h (0 Bft)
06.09.2019 08:06 8,7 °C 95 % 1021,0 hPa 0,0 mm 0,0 km/h (0 Bft) O-SO 117 ° 0 min 0,000 mm 0,0 UV-I 23 W/m² 7,9 °C 8,7 °C 0,0 km/h (0 Bft)
06.09.2019 08:07 8,7 °C 95 % 1020,9 hPa 0,0 mm 0,0 km/h (0 Bft) O-SO 117 ° 0 min 0,000 mm 0,0 UV-I 25 W/m² 7,9 °C 8,7 °C 0,0 km/h (0 Bft)
06.09.2019 08:08 8,7 °C 95 % 1020,9 hPa 0,0 mm 0,0 km/h (0 Bft) O-SO 117 ° 0 min 0,000 mm 0,0 UV-I 26 W/m² 7,9 °C 8,7 °C 0,0 km/h (0 Bft)
06.09.2019 08:09 8,7 °C 95 % 1020,9 hPa 0,0 mm 0,0 km/h (0 Bft) O-SO 117 ° 0 min 0,000 mm 0,0 UV-I 26 W/m² 7,9 °C 8,7 °C 0,0 km/h (0 Bft)
06.09.2019 08:10 8,7 °C 95 % 1021,0 hPa 0,0 mm 0,0 km/h (0 Bft) O-SO 117 ° 0 min 0,000 mm 0,0 UV-I 28 W/m² 7,9 °C 8,7 °C 0,0 km/h (0 Bft)
06.09.2019 08:11 8,7 °C 95 % 1021,0 hPa 0,0 mm 0,0 km/h (0 Bft) O-SO 117 ° 0 min 0,000 mm 0,0 UV-I 28 W/m² 7,9 °C 8,7 °C 0,0 km/h (0 Bft)
06.09.2019 08:12 8,7 °C 95 % 1021,0 hPa 0,0 mm 0,0 km/h (0 Bft) O-SO 117 ° 0 min 0,000 mm 0,0 UV-I 28 W/m² 7,9 °C 8,7 °C 0,0 km/h (0 Bft)
06.09.2019 08:13 8,7 °C 95 % 1021,0 hPa 0,0 mm 0,0 km/h (0 Bft) O-SO 117 ° 0 min 0,000 mm 0,0 UV-I 28 W/m² 7,9 °C 8,7 °C 0,0 km/h (0 Bft)
06.09.2019 08:14 8,7 °C 95 % 1021,0 hPa 0,0 mm 0,1 km/h (0 Bft) O-SO 117 ° 0 min 0,000 mm 0,0 UV-I 28 W/m² 7,9 °C 8,7 °C 1,6 km/h (1 Bft)
06.09.2019 08:15 8,7 °C 95 % 1021,0 hPa 0,0 mm 0,9 km/h (0 Bft) O-SO 117 ° 0 min 0,000 mm 0,0 UV-I 28 W/m² 7,9 °C 8,7 °C 3,2 km/h (1 Bft)
06.09.2019 08:16 8,7 °C 95 % 1021,0 hPa 0,0 mm 0,3 km/h (0 Bft) O-SO 117 ° 0 min 0,000 mm 0,0 UV-I 28 W/m² 7,9 °C 8,7 °C 1,6 km/h (1 Bft)
06.09.2019 08:17 8,7 °C 95 % 1021,1 hPa 0,0 mm 0,0 km/h (0 Bft) O-SO 117 ° 0 min 0,000 mm 0,0 UV-I 28 W/m² 7,9 °C 8,7 °C 0,0 km/h (0 Bft)
06.09.2019 08:18 8,7 °C 95 % 1021,1 hPa 0,0 mm 0,0 km/h (0 Bft) O-SO 117 ° 0 min 0,000 mm 0,0 UV-I 30 W/m² 7,9 °C 8,7 °C 0,0 km/h (0 Bft)
06.09.2019 08:19 8,7 °C 95 % 1021,1 hPa 0,0 mm 0,1 km/h (0 Bft) O-SO 117 ° 0 min 0,000 mm 0,0 UV-I 30 W/m² 7,9 °C 8,7 °C 1,6 km/h (1 Bft)
06.09.2019 08:20 8,7 °C 95 % 1021,1 hPa 0,0 mm 0,0 km/h (0 Bft) O-SO 117 ° 0 min 0,000 mm 0,0 UV-I 28 W/m² 7,9 °C 8,7 °C 0,0 km/h (0 Bft)
06.09.2019 08:21 8,7 °C 95 % 1021,2 hPa 0,0 mm 0,0 km/h (0 Bft) O-SO 117 ° 0 min 0,000 mm 0,0 UV-I 28 W/m² 7,9 °C 8,7 °C 0,0 km/h (0 Bft)
06.09.2019 08:22 8,7 °C 95 % 1021,2 hPa 0,0 mm 0,0 km/h (0 Bft) O-SO 117 ° 0 min 0,000 mm 0,0 UV-I 28 W/m² 7,9 °C 8,7 °C 0,0 km/h (0 Bft)
06.09.2019 08:23 8,7 °C 95 % 1021,2 hPa 0,0 mm 0,0 km/h (0 Bft) O-SO 117 ° 0 min 0,000 mm 0,0 UV-I 28 W/m² 7,9 °C 8,7 °C 0,0 km/h (0 Bft)
06.09.2019 08:24 8,7 °C 95 % 1021,2 hPa 0,0 mm 0,0 km/h (0 Bft) O-SO 117 ° 0 min 0,000 mm 0,0 UV-I 28 W/m² 7,9 °C 8,7 °C 0,0 km/h (0 Bft)
06.09.2019 08:25 8,6 °C 95 % 1021,2 hPa 0,0 mm 0,0 km/h (0 Bft) O-SO 117 ° 0 min 0,000 mm 0,0 UV-I 28 W/m² 7,8 °C 8,6 °C 0,0 km/h (0 Bft)
06.09.2019 08:26 8,6 °C 95 % 1021,2 hPa 0,0 mm 0,0 km/h (0 Bft) O-SO 117 ° 0 min 0,000 mm 0,0 UV-I 30 W/m² 7,8 °C 8,6 °C 0,0 km/h (0 Bft)
06.09.2019 08:27 8,6 °C 95 % 1021,2 hPa 0,0 mm 0,0 km/h (0 Bft) O-SO 117 ° 0 min 0,000 mm 0,0 UV-I 30 W/m² 7,8 °C 8,6 °C 0,0 km/h (0 Bft)
06.09.2019 08:28 8,6 °C 95 % 1021,2 hPa 0,0 mm 0,0 km/h (0 Bft) O-SO 117 ° 0 min 0,000 mm 0,0 UV-I 30 W/m² 7,8 °C 8,6 °C 0,0 km/h (0 Bft)
06.09.2019 08:29 8,6 °C 95 % 1021,2 hPa 0,0 mm 0,0 km/h (0 Bft) O-SO 117 ° 0 min 0,000 mm 0,0 UV-I 32 W/m² 7,8 °C 8,6 °C 0,0 km/h (0 Bft)
06.09.2019 08:30 8,6 °C 95 % 1021,2 hPa 0,0 mm 0,0 km/h (0 Bft) O-SO 117 ° 0 min 0,000 mm 0,0 UV-I 33 W/m² 7,8 °C 8,6 °C 0,0 km/h (0 Bft)
06.09.2019 08:31 8,6 °C 95 % 1021,2 hPa 0,0 mm 0,0 km/h (0 Bft) O-SO 117 ° 0 min 0,000 mm 0,0 UV-I 35 W/m² 7,8 °C 8,6 °C 0,0 km/h (0 Bft)
06.09.2019 08:32 8,7 °C 95 % 1021,2 hPa 0,0 mm 0,0 km/h (0 Bft) O-SO 117 ° 0 min 0,000 mm 0,0 UV-I 37 W/m² 7,9 °C 8,7 °C 0,0 km/h (0 Bft)
06.09.2019 08:33 8,7 °C 95 % 1021,2 hPa 0,0 mm 0,0 km/h (0 Bft) O-SO 117 ° 0 min 0,000 mm 0,0 UV-I 37 W/m² 7,9 °C 8,7 °C 0,0 km/h (0 Bft)
06.09.2019 08:34 8,7 °C 95 % 1021,2 hPa 0,0 mm 0,0 km/h (0 Bft) O-SO 117 ° 0 min 0,000 mm 0,0 UV-I 39 W/m² 7,9 °C 8,7 °C 0,0 km/h (0 Bft)
06.09.2019 08:35 8,7 °C 95 % 1021,2 hPa 0,0 mm 0,0 km/h (0 Bft) O-SO 117 ° 0 min 0,000 mm 0,0 UV-I 42 W/m² 7,9 °C 8,7 °C 0,0 km/h (0 Bft)
06.09.2019 08:36 8,7 °C 95 % 1021,2 hPa 0,0 mm 0,0 km/h (0 Bft) O-SO 117 ° 0 min 0,000 mm 0,0 UV-I 44 W/m² 7,9 °C 8,7 °C 0,0 km/h (0 Bft)
06.09.2019 08:37 8,7 °C 95 % 1021,2 hPa 0,2 mm 0,0 km/h (0 Bft) O-SO 117 ° 0 min 0,000 mm 0,0 UV-I 49 W/m² 7,9 °C 8,7 °C 0,0 km/h (0 Bft)
06.09.2019 08:38 8,7 °C 95 % 1021,2 hPa 0,0 mm 0,0 km/h (0 Bft) O-SO 117 ° 0 min 0,000 mm 0,0 UV-I 53 W/m² 7,9 °C 8,7 °C 0,0 km/h (0 Bft)
06.09.2019 08:39 8,7 °C 95 % 1021,2 hPa 0,0 mm 0,3 km/h (0 Bft) O-SO 117 ° 0 min 0,000 mm 0,0 UV-I 56 W/m² 7,9 °C 8,7 °C 1,6 km/h (1 Bft)
06.09.2019 08:40 8,7 °C 95 % 1021,2 hPa 0,0 mm 0,0 km/h (0 Bft) O-SO 117 ° 0 min 0,000 mm 0,0 UV-I 58 W/m² 7,9 °C 8,7 °C 0,0 km/h (0 Bft)
06.09.2019 08:41 8,7 °C 95 % 1021,2 hPa 0,0 mm 0,0 km/h (0 Bft) O-SO 117 ° 0 min 0,000 mm 0,0 UV-I 58 W/m² 7,9 °C 8,7 °C 0,0 km/h (0 Bft)
06.09.2019 08:42 8,7 °C 95 % 1021,2 hPa 0,0 mm 0,0 km/h (0 Bft) O-SO 117 ° 0 min 0,000 mm 0,0 UV-I 60 W/m² 7,9 °C 8,7 °C 0,0 km/h (0 Bft)
06.09.2019 08:43 8,7 °C 95 % 1021,2 hPa 0,0 mm 0,0 km/h (0 Bft) O-SO 117 ° 0 min 0,000 mm 0,0 UV-I 67 W/m² 7,9 °C 8,7 °C 0,0 km/h (0 Bft)
06.09.2019 08:44 8,7 °C 95 % 1021,1 hPa 0,0 mm 0,0 km/h (0 Bft) O-SO 117 ° 0 min 0,000 mm 0,0 UV-I 70 W/m² 7,9 °C 8,7 °C 0,0 km/h (0 Bft)
06.09.2019 08:45 8,8 °C 95 % 1021,1 hPa 0,0 mm 0,2 km/h (0 Bft) O-SO 117 ° 0 min 0,000 mm 0,0 UV-I 72 W/m² 8,0 °C 8,8 °C 1,6 km/h (1 Bft)
06.09.2019 08:46 8,8 °C 95 % 1021,1 hPa 0,0 mm 0,3 km/h (0 Bft) O-SO 117 ° 0 min 0,000 mm 0,5 UV-I 74 W/m² 8,0 °C 8,8 °C 1,6 km/h (1 Bft)
06.09.2019 08:47 8,8 °C 95 % 1021,1 hPa 0,0 mm 0,0 km/h (0 Bft) O-SO 117 ° 0 min 0,000 mm 0,5 UV-I 74 W/m² 8,0 °C 8,8 °C 0,0 km/h (0 Bft)
06.09.2019 08:48 8,9 °C 95 % 1021,1 hPa 0,0 mm 0,0 km/h (0 Bft) O-SO 117 ° 0 min 0,000 mm 0,5 UV-I 76 W/m² 8,1 °C 8,9 °C 0,0 km/h (0 Bft)
06.09.2019 08:49 8,9 °C 95 % 1021,1 hPa 0,0 mm 0,0 km/h (0 Bft) O-SO 117 ° 0 min 0,000 mm 0,5 UV-I 81 W/m² 8,1 °C 8,9 °C 0,0 km/h (0 Bft)
06.09.2019 08:50 8,9 °C 95 % 1021,1 hPa 0,0 mm 0,0 km/h (0 Bft) O-SO 117 ° 0 min 0,000 mm 0,5 UV-I 83 W/m² 8,1 °C 8,9 °C 0,0 km/h (0 Bft)
06.09.2019 08:51 8,9 °C 95 % 1021,0 hPa 0,0 mm 0,0 km/h (0 Bft) O-SO 117 ° 0 min 0,000 mm 0,6 UV-I 86 W/m² 8,1 °C 8,9 °C 0,0 km/h (0 Bft)
06.09.2019 08:52 8,9 °C 95 % 1021,0 hPa 0,0 mm 0,0 km/h (0 Bft) O-SO 117 ° 0 min 0,000 mm 0,6 UV-I 90 W/m² 8,1 °C 8,9 °C 0,0 km/h (0 Bft)
06.09.2019 08:53 9,0 °C 95 % 1021,0 hPa 0,0 mm 0,1 km/h (0 Bft) O-SO 117 ° 0 min 0,000 mm 0,6 UV-I 91 W/m² 8,2 °C 9,0 °C 1,6 km/h (1 Bft)
06.09.2019 08:54 9,0 °C 95 % 1021,0 hPa 0,0 mm 0,9 km/h (0 Bft) O-SO 117 ° 0 min 0,000 mm 0,6 UV-I 93 W/m² 8,2 °C 9,0 °C 3,2 km/h (1 Bft)
06.09.2019 08:55 9,0 °C 95 % 1021,0 hPa 0,0 mm 1,3 km/h (1 Bft) O-SO 117 ° 0 min 0,000 mm 0,6 UV-I 97 W/m² 8,2 °C 9,0 °C 3,2 km/h (1 Bft)
06.09.2019 08:56 9,1 °C 95 % 1021,1 hPa 0,0 mm 0,5 km/h (0 Bft) O-SO 117 ° 0 min 0,000 mm 0,6 UV-I 97 W/m² 8,3 °C 9,1 °C 1,6 km/h (1 Bft)
06.09.2019 08:57 9,1 °C 95 % 1021,0 hPa 0,0 mm 1,1 km/h (1 Bft) O-SO 115 ° 0 min 0,000 mm 0,6 UV-I 95 W/m² 8,3 °C 9,1 °C 3,2 km/h (1 Bft)
06.09.2019 08:58 9,1 °C 95 % 1021,0 hPa 0,0 mm 1,6 km/h (1 Bft) O-SO 115 ° 0 min 0,000 mm 0,6 UV-I 93 W/m² 8,3 °C 9,1 °C 4,8 km/h (1 Bft)
06.09.2019 08:59 9,1 °C 95 % 1021,1 hPa 0,0 mm 0,4 km/h (0 Bft) O-SO 115 ° 0 min 0,000 mm 0,6 UV-I 93 W/m² 8,3 °C 9,1 °C 1,6 km/h (1 Bft)
06.09.2019 09:00 9,1 °C 95 % 1021,0 hPa 0,0 mm 1,7 km/h (1 Bft) O-SO 115 ° 0 min 0,025 mm 0,6 UV-I 95 W/m² 8,3 °C 9,1 °C 3,2 km/h (1 Bft)
06.09.2019 09:01 9,1 °C 95 % 1021,1 hPa 0,0 mm 0,5 km/h (0 Bft) O-SO 115 ° 0 min 0,000 mm 0,6 UV-I 95 W/m² 8,3 °C 9,1 °C 1,6 km/h (1 Bft)
06.09.2019 09:02 9,2 °C 95 % 1021,1 hPa 0,0 mm 0,7 km/h (0 Bft) O-SO 114 ° 0 min 0,000 mm 0,6 UV-I 95 W/m² 8,4 °C 9,2 °C 1,6 km/h (1 Bft)
06.09.2019 09:03 9,2 °C 95 % 1021,1 hPa 0,0 mm 1,1 km/h (1 Bft) O-SO 114 ° 0 min 0,000 mm 0,7 UV-I 97 W/m² 8,4 °C 9,2 °C 3,2 km/h (1 Bft)
06.09.2019 09:04 9,3 °C 95 % 1021,1 hPa 0,0 mm 0,5 km/h (0 Bft) O-SO 114 ° 0 min 0,000 mm 0,7 UV-I 98 W/m² 8,5 °C 9,3 °C 3,2 km/h (1 Bft)
06.09.2019 09:05 9,3 °C 95 % 1021,1 hPa 0,0 mm 0,0 km/h (0 Bft) O-SO 114 ° 0 min 0,000 mm 0,7 UV-I 104 W/m² 8,5 °C 9,3 °C 0,0 km/h (0 Bft)
06.09.2019 09:06 9,3 °C 95 % 1021,1 hPa 0,0 mm 0,0 km/h (0 Bft) O-SO 114 ° 0 min 0,000 mm 0,7 UV-I 105 W/m² 8,5 °C 9,3 °C 0,0 km/h (0 Bft)
06.09.2019 09:07 9,3 °C 95 % 1021,1 hPa 0,0 mm 0,2 km/h (0 Bft) O-SO 114 ° 0 min 0,000 mm 0,7 UV-I 102 W/m² 8,5 °C 9,3 °C 1,6 km/h (1 Bft)
06.09.2019 09:08 9,3 °C 95 % 1021,2 hPa 0,0 mm 0,5 km/h (0 Bft) O-SO 114 ° 0 min 0,000 mm 0,7 UV-I 100 W/m² 8,5 °C 9,3 °C 3,2 km/h (1 Bft)
06.09.2019 09:09 9,3 °C 95 % 1021,2 hPa 0,0 mm 3,6 km/h (1 Bft) O-NO 76 ° 0 min 0,000 mm 0,7 UV-I 102 W/m² 8,5 °C 9,3 °C 4,8 km/h (1 Bft)
06.09.2019 09:10 9,3 °C 94 % 1021,1 hPa 0,0 mm 2,6 km/h (1 Bft) O-NO 64 ° 0 min 0,000 mm 0,7 UV-I 104 W/m² 8,4 °C 9,3 °C 6,4 km/h (2 Bft)
06.09.2019 09:11 9,3 °C 94 % 1021,1 hPa 0,0 mm 2,1 km/h (1 Bft) O-NO 64 ° 0 min 0,000 mm 0,7 UV-I 105 W/m² 8,4 °C 9,3 °C 4,8 km/h (1 Bft)
06.09.2019 09:12 9,3 °C 94 % 1021,1 hPa 0,0 mm 0,0 km/h (0 Bft) O-NO 64 ° 0 min 0,000 mm 0,7 UV-I 107 W/m² 8,4 °C 9,3 °C 0,0 km/h (0 Bft)
06.09.2019 09:13 9,3 °C 95 % 1021,1 hPa 0,0 mm 0,1 km/h (0 Bft) O-NO 64 ° 0 min 0,000 mm 0,7 UV-I 109 W/m² 8,5 °C 9,3 °C 1,6 km/h (1 Bft)
06.09.2019 09:14 9,4 °C 95 % 1021,1 hPa 0,0 mm 0,0 km/h (0 Bft) O-NO 64 ° 0 min 0,000 mm 0,8 UV-I 109 W/m² 8,6 °C 9,4 °C 0,0 km/h (0 Bft)
06.09.2019 09:15 9,4 °C 94 % 1021,1 hPa 0,0 mm 0,4 km/h (0 Bft) O-NO 64 ° 0 min 0,000 mm 0,8 UV-I 113 W/m² 8,5 °C 9,4 °C 3,2 km/h (1 Bft)
06.09.2019 09:16 9,4 °C 94 % 1021,1 hPa 0,0 mm 2,7 km/h (1 Bft) O-NO 64 ° 0 min 0,000 mm 0,8 UV-I 114 W/m² 8,5 °C 9,4 °C 4,8 km/h (1 Bft)
06.09.2019 09:17 9,4 °C 94 % 1021,1 hPa 0,0 mm 1,1 km/h (1 Bft) O-NO 64 ° 0 min 0,000 mm 0,8 UV-I 113 W/m² 8,5 °C 9,4 °C 3,2 km/h (1 Bft)
06.09.2019 09:18 9,4 °C 94 % 1021,1 hPa 0,0 mm 0,0 km/h (0 Bft) O-NO 64 ° 0 min 0,000 mm 0,8 UV-I 114 W/m² 8,5 °C 9,4 °C 0,0 km/h (0 Bft)
06.09.2019 09:19 9,4 °C 94 % 1021,1 hPa 0,0 mm 0,0 km/h (0 Bft) O-NO 64 ° 0 min 0,000 mm 0,8 UV-I 116 W/m² 8,5 °C 9,4 °C 0,0 km/h (0 Bft)
06.09.2019 09:20 9,4 °C 94 % 1021,2 hPa 0,0 mm 2,1 km/h (1 Bft) O 92 ° 0 min 0,000 mm 0,8 UV-I 114 W/m² 8,5 °C 9,4 °C 4,8 km/h (1 Bft)
06.09.2019 09:21 9,4 °C 94 % 1021,2 hPa 0,2 mm 0,7 km/h (0 Bft) O 92 ° 0 min 0,000 mm 0,8 UV-I 113 W/m² 8,5 °C 9,4 °C 3,2 km/h (1 Bft)
06.09.2019 09:22 9,4 °C 94 % 1021,2 hPa 0,0 mm 0,0 km/h (0 Bft) O 92 ° 0 min 0,000 mm 0,8 UV-I 113 W/m² 8,5 °C 9,4 °C 0,0 km/h (0 Bft)
06.09.2019 09:23 9,4 °C 94 % 1021,3 hPa 0,0 mm 0,0 km/h (0 Bft) O 92 ° 0 min 0,000 mm 0,8 UV-I 113 W/m² 8,5 °C 9,4 °C 0,0 km/h (0 Bft)
06.09.2019 09:24 9,4 °C 94 % 1021,3 hPa 0,0 mm 0,0 km/h (0 Bft) O 92 ° 0 min 0,000 mm 0,8 UV-I 118 W/m² 8,5 °C 9,4 °C 0,0 km/h (0 Bft)
06.09.2019 09:25 9,4 °C 94 % 1021,2 hPa 0,0 mm 0,3 km/h (0 Bft) O 92 ° 0 min 0,000 mm 0,9 UV-I 121 W/m² 8,5 °C 9,4 °C 1,6 km/h (1 Bft)
06.09.2019 09:26 9,4 °C 94 % 1021,2 hPa 0,0 mm 1,8 km/h (1 Bft) O 92 ° 0 min 0,000 mm 0,9 UV-I 125 W/m² 8,5 °C 9,4 °C 3,2 km/h (1 Bft)
06.09.2019 09:27 9,4 °C 94 % 1021,2 hPa 0,0 mm 1,2 km/h (1 Bft) O 92 ° 0 min 0,000 mm 0,9 UV-I 127 W/m² 8,5 °C 9,4 °C 3,2 km/h (1 Bft)
06.09.2019 09:28 9,4 °C 94 % 1021,2 hPa 0,0 mm 2,3 km/h (1 Bft) O-NO 71 ° 0 min 0,000 mm 1,0 UV-I 127 W/m² 8,5 °C 9,4 °C 4,8 km/h (1 Bft)
06.09.2019 09:29 9,4 °C 94 % 1021,2 hPa 0,0 mm 3,0 km/h (1 Bft) O-NO 70 ° 0 min 0,000 mm 1,0 UV-I 128 W/m² 8,5 °C 9,4 °C 4,8 km/h (1 Bft)
06.09.2019 09:30 9,4 °C 94 % 1021,2 hPa 0,0 mm 1,6 km/h (1 Bft) O-NO 70 ° 0 min 0,000 mm 1,0 UV-I 130 W/m² 8,5 °C 9,4 °C 3,2 km/h (1 Bft)
06.09.2019 09:31 9,4 °C 94 % 1021,1 hPa 0,0 mm 3,4 km/h (1 Bft) O-SO 117 ° 0 min 0,000 mm 1,0 UV-I 127 W/m² 8,5 °C 9,4 °C 4,8 km/h (1 Bft)
06.09.2019 09:32 9,4 °C 94 % 1021,2 hPa 0,0 mm 3,5 km/h (1 Bft) O 97 ° 0 min 0,000 mm 1,0 UV-I 128 W/m² 8,5 °C 9,4 °C 4,8 km/h (1 Bft)
06.09.2019 09:33 9,4 °C 94 % 1021,2 hPa 0,0 mm 0,7 km/h (0 Bft) O 97 ° 0 min 0,000 mm 1,0 UV-I 134 W/m² 8,5 °C 9,4 °C 3,2 km/h (1 Bft)
06.09.2019 09:34 9,4 °C 94 % 1021,2 hPa 0,0 mm 1,5 km/h (1 Bft) O 97 ° 0 min 0,000 mm 1,1 UV-I 135 W/m² 8,5 °C 9,4 °C 4,8 km/h (1 Bft)
06.09.2019 09:35 9,4 °C 94 % 1021,3 hPa 0,0 mm 0,1 km/h (0 Bft) O 97 ° 0 min 0,000 mm 1,1 UV-I 135 W/m² 8,5 °C 9,4 °C 1,6 km/h (1 Bft)
06.09.2019 09:36 9,5 °C 94 % 1021,2 hPa 0,0 mm 0,1 km/h (0 Bft) O 97 ° 0 min 0,000 mm 1,1 UV-I 139 W/m² 8,6 °C 9,5 °C 1,6 km/h (1 Bft)
06.09.2019 09:37 9,6 °C 94 % 1021,2 hPa 0,0 mm 1,2 km/h (1 Bft) O-NO 62 ° 0 min 0,000 mm 1,1 UV-I 142 W/m² 8,7 °C 9,6 °C 4,8 km/h (1 Bft)
06.09.2019 09:38 9,6 °C 94 % 1021,2 hPa 0,0 mm 1,8 km/h (1 Bft) O-NO 62 ° 0 min 0,000 mm 1,1 UV-I 146 W/m² 8,7 °C 9,6 °C 3,2 km/h (1 Bft)
06.09.2019 09:39 9,6 °C 94 % 1021,2 hPa 0,0 mm 1,7 km/h (1 Bft) NO 53 ° 0 min 0,000 mm 1,2 UV-I 148 W/m² 8,7 °C 9,6 °C 4,8 km/h (1 Bft)
06.09.2019 09:40 9,6 °C 93 % 1021,2 hPa 0,0 mm 1,1 km/h (1 Bft) NO 53 ° 0 min 0,000 mm 1,2 UV-I 148 W/m² 8,5 °C 9,6 °C 3,2 km/h (1 Bft)
06.09.2019 09:41 9,6 °C 94 % 1021,2 hPa 0,0 mm 0,2 km/h (0 Bft) NO 53 ° 0 min 0,000 mm 1,1 UV-I 144 W/m² 8,7 °C 9,6 °C 1,6 km/h (1 Bft)
06.09.2019 09:42 9,6 °C 94 % 1021,2 hPa 0,0 mm 2,8 km/h (1 Bft) NO 53 ° 0 min 0,000 mm 1,0 UV-I 137 W/m² 8,7 °C 9,6 °C 4,8 km/h (1 Bft)
06.09.2019 09:43 9,6 °C 93 % 1021,2 hPa 0,0 mm 2,4 km/h (1 Bft) NO 54 ° 0 min 0,000 mm 1,1 UV-I 142 W/m² 8,5 °C 9,6 °C 4,8 km/h (1 Bft)
06.09.2019 09:44 9,6 °C 93 % 1021,2 hPa 0,0 mm 3,9 km/h (1 Bft) NO 54 ° 0 min 0,000 mm 1,1 UV-I 148 W/m² 8,5 °C 9,6 °C 8,0 km/h (2 Bft)
06.09.2019 09:45 9,5 °C 93 % 1021,1 hPa 0,0 mm 3,5 km/h (1 Bft) O-NO 71 ° 0 min 0,000 mm 1,1 UV-I 146 W/m² 8,4 °C 9,5 °C 4,8 km/h (1 Bft)
06.09.2019 09:46 9,5 °C 93 % 1021,1 hPa 0,0 mm 5,7 km/h (1 Bft) O-NO 69 ° 0 min 0,000 mm 1,1 UV-I 149 W/m² 8,4 °C 9,0 °C 8,0 km/h (2 Bft)
06.09.2019 09:47 9,5 °C 93 % 1021,1 hPa 0,0 mm 0,8 km/h (0 Bft) O-NO 69 ° 0 min 0,000 mm 1,2 UV-I 156 W/m² 8,4 °C 9,5 °C 3,2 km/h (1 Bft)
06.09.2019 09:48 9,6 °C 93 % 1021,1 hPa 0,0 mm 0,6 km/h (0 Bft) O-NO 69 ° 0 min 0,000 mm 1,2 UV-I 155 W/m² 8,5 °C 9,6 °C 3,2 km/h (1 Bft)
06.09.2019 09:49 9,6 °C 93 % 1021,0 hPa 0,0 mm 0,0 km/h (0 Bft) O-NO 69 ° 0 min 0,000 mm 1,2 UV-I 155 W/m² 8,5 °C 9,6 °C 0,0 km/h (0 Bft)
06.09.2019 09:50 9,6 °C 93 % 1021,0 hPa 0,0 mm 1,4 km/h (1 Bft) O-SO 107 ° 0 min 0,000 mm 1,2 UV-I 158 W/m² 8,5 °C 9,6 °C 3,2 km/h (1 Bft)
06.09.2019 09:51 9,6 °C 93 % 1021,0 hPa 0,0 mm 5,8 km/h (2 Bft) O 82 ° 0 min 0,000 mm 1,3 UV-I 163 W/m² 8,5 °C 9,1 °C 8,0 km/h (2 Bft)
06.09.2019 09:52 9,6 °C 93 % 1020,9 hPa 0,0 mm 1,2 km/h (1 Bft) O 82 ° 0 min 0,000 mm 1,3 UV-I 172 W/m² 8,5 °C 9,6 °C 3,2 km/h (1 Bft)
06.09.2019 09:53 9,6 °C 93 % 1021,0 hPa 0,0 mm 3,3 km/h (1 Bft) O 82 ° 0 min 0,000 mm 1,3 UV-I 174 W/m² 8,5 °C 9,6 °C 4,8 km/h (1 Bft)
06.09.2019 09:54 9,6 °C 93 % 1021,0 hPa 0,0 mm 1,9 km/h (1 Bft) O 82 ° 0 min 0,000 mm 1,3 UV-I 174 W/m² 8,5 °C 9,6 °C 4,8 km/h (1 Bft)
06.09.2019 09:55 9,6 °C 93 % 1021,0 hPa 0,0 mm 3,2 km/h (1 Bft) NO 53 ° 0 min 0,000 mm 1,3 UV-I 171 W/m² 8,5 °C 9,6 °C 4,8 km/h (1 Bft)
06.09.2019 09:56 9,6 °C 93 % 1021,0 hPa 0,0 mm 6,0 km/h (2 Bft) SO 128 ° 0 min 0,000 mm 1,3 UV-I 167 W/m² 8,5 °C 9,0 °C 8,0 km/h (2 Bft)
06.09.2019 09:57 9,7 °C 93 % 1021,0 hPa 0,0 mm 3,6 km/h (1 Bft) NO 56 ° 0 min 0,000 mm 1,3 UV-I 165 W/m² 8,6 °C 9,7 °C 6,4 km/h (2 Bft)
06.09.2019 09:58 9,7 °C 93 % 1021,0 hPa 0,0 mm 2,2 km/h (1 Bft) O-NO 74 ° 0 min 0,000 mm 1,3 UV-I 174 W/m² 8,6 °C 9,7 °C 4,8 km/h (1 Bft)
06.09.2019 09:59 9,7 °C 93 % 1021,0 hPa 0,0 mm 2,3 km/h (1 Bft) O-NO 74 ° 0 min 0,000 mm 1,4 UV-I 190 W/m² 8,6 °C 9,7 °C 3,2 km/h (1 Bft)
06.09.2019 10:00 9,7 °C 93 % 1021,0 hPa 0,0 mm 0,5 km/h (0 Bft) O-NO 74 ° 0 min 0,051 mm 1,4 UV-I 192 W/m² 8,6 °C 9,7 °C 3,2 km/h (1 Bft)
06.09.2019 10:01 9,7 °C 93 % 1021,0 hPa 0,0 mm 0,5 km/h (0 Bft) O-NO 74 ° 0 min 0,000 mm 1,5 UV-I 195 W/m² 8,6 °C 9,7 °C 3,2 km/h (1 Bft)
06.09.2019 10:02 9,7 °C 93 % 1020,9 hPa 0,0 mm 3,7 km/h (1 Bft) O-NO 75 ° 0 min 0,000 mm 1,5 UV-I 197 W/m² 8,6 °C 9,7 °C 6,4 km/h (2 Bft)
06.09.2019 10:03 9,7 °C 93 % 1020,9 hPa 0,0 mm 7,3 km/h (2 Bft) O 92 ° 0 min 0,000 mm 1,5 UV-I 199 W/m² 8,6 °C 8,8 °C 12,9 km/h (3 Bft)
06.09.2019 10:04 9,8 °C 93 % 1020,9 hPa 0,0 mm 2,1 km/h (1 Bft) O 93 ° 0 min 0,000 mm 1,4 UV-I 195 W/m² 8,7 °C 9,8 °C 4,8 km/h (1 Bft)
06.09.2019 10:05 9,8 °C 93 % 1021,0 hPa 0,0 mm 1,4 km/h (1 Bft) O 95 ° 0 min 0,000 mm 1,4 UV-I 192 W/m² 8,7 °C 9,8 °C 3,2 km/h (1 Bft)
06.09.2019 10:06 9,8 °C 93 % 1020,9 hPa 0,0 mm 1,6 km/h (1 Bft) O-SO 105 ° 0 min 0,000 mm 1,3 UV-I 185 W/m² 8,7 °C 9,8 °C 4,8 km/h (1 Bft)
06.09.2019 10:07 9,8 °C 93 % 1020,9 hPa 0,0 mm 4,7 km/h (1 Bft) O-NO 60 ° 0 min 0,000 mm 1,3 UV-I 174 W/m² 8,7 °C 9,6 °C 11,3 km/h (2 Bft)
06.09.2019 10:08 9,8 °C 93 % 1021,0 hPa 0,0 mm 3,7 km/h (1 Bft) O-NO 62 ° 0 min 0,000 mm 1,3 UV-I 174 W/m² 8,7 °C 9,8 °C 6,4 km/h (2 Bft)
06.09.2019 10:09 9,8 °C 93 % 1021,0 hPa 0,0 mm 3,1 km/h (1 Bft) NO 53 ° 0 min 0,000 mm 1,3 UV-I 174 W/m² 8,7 °C 9,8 °C 4,8 km/h (1 Bft)
06.09.2019 10:10 9,8 °C 93 % 1021,0 hPa 0,0 mm 3,9 km/h (1 Bft) O-NO 57 ° 0 min 0,000 mm 1,2 UV-I 162 W/m² 8,7 °C 9,8 °C 6,4 km/h (2 Bft)
06.09.2019 10:11 9,9 °C 93 % 1020,9 hPa 0,0 mm 3,7 km/h (1 Bft) O-NO 57 ° 0 min 0,000 mm 1,3 UV-I 183 W/m² 8,8 °C 9,9 °C 4,8 km/h (1 Bft)
06.09.2019 10:12 9,8 °C 93 % 1020,9 hPa 0,0 mm 3,3 km/h (1 Bft) O-NO 70 ° 0 min 0,000 mm 1,5 UV-I 195 W/m² 8,7 °C 9,8 °C 6,4 km/h (2 Bft)
06.09.2019 10:13 9,8 °C 93 % 1020,9 hPa 0,0 mm 5,6 km/h (1 Bft) O-NO 71 ° 0 min 0,000 mm 1,5 UV-I 206 W/m² 8,7 °C 9,4 °C 8,0 km/h (2 Bft)
06.09.2019 10:14 9,8 °C 93 % 1021,0 hPa 0,0 mm 2,2 km/h (1 Bft) O-NO 71 ° 0 min 0,000 mm 1,4 UV-I 192 W/m² 8,7 °C 9,8 °C 4,8 km/h (1 Bft)
06.09.2019 10:15 9,8 °C 93 % 1021,0 hPa 0,0 mm 1,1 km/h (1 Bft) O-NO 71 ° 0 min 0,000 mm 1,4 UV-I 195 W/m² 8,7 °C 9,8 °C 3,2 km/h (1 Bft)
06.09.2019 10:16 9,9 °C 93 % 1021,0 hPa 0,0 mm 0,8 km/h (0 Bft) O-NO 74 ° 0 min 0,000 mm 1,6 UV-I 214 W/m² 8,8 °C 9,9 °C 1,6 km/h (1 Bft)
06.09.2019 10:17 9,9 °C 93 % 1021,0 hPa 0,0 mm 5,8 km/h (2 Bft) O 92 ° 0 min 0,000 mm 1,6 UV-I 207 W/m² 8,8 °C 9,4 °C 9,7 km/h (2 Bft)
06.09.2019 10:18 9,9 °C 93 % 1021,0 hPa 0,0 mm 4,8 km/h (1 Bft) O-NO 57 ° 0 min 0,000 mm 1,4 UV-I 197 W/m² 8,8 °C 9,7 °C 8,0 km/h (2 Bft)
06.09.2019 10:19 10,0 °C 93 % 1021,0 hPa 0,0 mm 1,1 km/h (1 Bft) O-NO 58 ° 0 min 0,000 mm 1,4 UV-I 204 W/m² 8,9 °C 10,0 °C 4,8 km/h (1 Bft)
06.09.2019 10:20 10,0 °C 93 % 1021,0 hPa 0,0 mm 1,4 km/h (1 Bft) O 84 ° 0 min 0,000 mm 1,7 UV-I 244 W/m² 8,9 °C 10,0 °C 4,8 km/h (1 Bft)
06.09.2019 10:21 10,1 °C 93 % 1021,0 hPa 0,2 mm 2,7 km/h (1 Bft) O-NO 76 ° 0 min 0,000 mm 1,8 UV-I 257 W/m² 9,0 °C 10,1 °C 4,8 km/h (1 Bft)
06.09.2019 10:22 10,3 °C 94 % 1021,1 hPa 0,0 mm 1,9 km/h (1 Bft) O-NO 76 ° 0 min 0,000 mm 2,0 UV-I 283 W/m² 9,4 °C 10,3 °C 4,8 km/h (1 Bft)
06.09.2019 10:23 10,3 °C 93 % 1021,1 hPa 0,0 mm 3,5 km/h (1 Bft) O-NO 69 ° 0 min 0,000 mm 2,0 UV-I 278 W/m² 9,2 °C 10,3 °C 4,8 km/h (1 Bft)
06.09.2019 10:24 10,3 °C 93 % 1021,1 hPa 0,0 mm 2,2 km/h (1 Bft) O-NO 63 ° 0 min 0,000 mm 1,9 UV-I 264 W/m² 9,2 °C 10,3 °C 4,8 km/h (1 Bft)
06.09.2019 10:25 10,3 °C 93 % 1021,1 hPa 0,0 mm 5,3 km/h (1 Bft) O 86 ° 0 min 0,000 mm 1,9 UV-I 264 W/m² 9,2 °C 10,3 °C 6,4 km/h (2 Bft)
06.09.2019 10:26 10,3 °C 93 % 1021,1 hPa 0,0 mm 2,8 km/h (1 Bft) N-NO 28 ° 0 min 0,000 mm 1,9 UV-I 251 W/m² 9,2 °C 10,3 °C 4,8 km/h (1 Bft)
06.09.2019 10:27 10,3 °C 93 % 1021,1 hPa 0,0 mm 1,9 km/h (1 Bft) O-NO 64 ° 0 min 0,000 mm 2,0 UV-I 267 W/m² 9,2 °C 10,3 °C 3,2 km/h (1 Bft)
06.09.2019 10:28 10,4 °C 93 % 1021,0 hPa 0,0 mm 4,8 km/h (1 Bft) SO 125 ° 0 min 0,000 mm 2,0 UV-I 237 W/m² 9,3 °C 10,4 °C 6,4 km/h (2 Bft)
06.09.2019 10:29 10,3 °C 93 % 1021,0 hPa 0,0 mm 2,5 km/h (1 Bft) O-SO 120 ° 0 min 0,000 mm 1,9 UV-I 243 W/m² 9,2 °C 10,3 °C 6,4 km/h (2 Bft)
06.09.2019 10:30 10,3 °C 93 % 1020,9 hPa 0,0 mm 5,1 km/h (1 Bft) O-SO 109 ° 0 min 0,000 mm 1,9 UV-I 239 W/m² 9,2 °C 10,3 °C 8,0 km/h (2 Bft)
06.09.2019 10:31 10,4 °C 93 % 1020,9 hPa 0,0 mm 9,0 km/h (2 Bft) N-NO 25 ° 0 min 0,000 mm 1,9 UV-I 232 W/m² 9,3 °C 10,4 °C 14,5 km/h (3 Bft)
06.09.2019 10:32 10,4 °C 93 % 1021,0 hPa 0,0 mm 3,6 km/h (1 Bft) NO 51 ° 0 min 0,000 mm 1,8 UV-I 225 W/m² 9,3 °C 10,4 °C 6,4 km/h (2 Bft)
06.09.2019 10:33 10,4 °C 93 % 1021,0 hPa 0,0 mm 2,7 km/h (1 Bft) O-NO 68 ° 0 min 0,000 mm 1,8 UV-I 213 W/m² 9,3 °C 10,4 °C 6,4 km/h (2 Bft)
06.09.2019 10:34 10,4 °C 92 % 1021,0 hPa 0,0 mm 5,6 km/h (1 Bft) O 92 ° 0 min 0,000 mm 1,6 UV-I 190 W/m² 9,2 °C 10,4 °C 9,7 km/h (2 Bft)
06.09.2019 10:35 10,3 °C 92 % 1020,9 hPa 0,0 mm 8,5 km/h (2 Bft) O-NO 67 ° 0 min 0,000 mm 1,7 UV-I 209 W/m² 9,1 °C 10,3 °C 19,3 km/h (3 Bft)
06.09.2019 10:36 10,3 °C 92 % 1020,9 hPa 0,0 mm 9,3 km/h (2 Bft) O-SO 115 ° 0 min 0,000 mm 1,8 UV-I 218 W/m² 9,1 °C 10,3 °C 16,1 km/h (3 Bft)
06.09.2019 10:37 10,3 °C 92 % 1021,0 hPa 0,0 mm 4,7 km/h (1 Bft) O-NO 76 ° 0 min 0,000 mm 1,7 UV-I 202 W/m² 9,1 °C 10,3 °C 11,3 km/h (2 Bft)
06.09.2019 10:38 10,3 °C 92 % 1021,0 hPa 0,0 mm 3,6 km/h (1 Bft) O 86 ° 0 min 0,000 mm 1,6 UV-I 193 W/m² 9,1 °C 10,3 °C 6,4 km/h (2 Bft)
06.09.2019 10:39 10,3 °C 92 % 1021,0 hPa 0,0 mm 4,2 km/h (1 Bft) O-NO 61 ° 0 min 0,000 mm 1,6 UV-I 193 W/m² 9,1 °C 10,3 °C 8,0 km/h (2 Bft)
06.09.2019 10:40 10,4 °C 92 % 1020,9 hPa 0,0 mm 2,2 km/h (1 Bft) O-NO 64 ° 0 min 0,000 mm 1,6 UV-I 186 W/m² 9,2 °C 10,4 °C 4,8 km/h (1 Bft)
06.09.2019 10:41 10,4 °C 92 % 1021,0 hPa 0,0 mm 6,7 km/h (2 Bft) O-NO 76 ° 0 min 0,000 mm 1,6 UV-I 188 W/m² 9,2 °C 10,4 °C 11,3 km/h (2 Bft)
06.09.2019 10:42 10,4 °C 92 % 1020,9 hPa 0,0 mm 7,8 km/h (2 Bft) SO 132 ° 0 min 0,000 mm 1,7 UV-I 199 W/m² 9,2 °C 10,4 °C 12,9 km/h (3 Bft)
06.09.2019 10:43 10,4 °C 92 % 1020,9 hPa 0,0 mm 4,7 km/h (1 Bft) O 82 ° 0 min 0,000 mm 1,7 UV-I 186 W/m² 9,2 °C 10,4 °C 9,7 km/h (2 Bft)
06.09.2019 10:44 10,4 °C 92 % 1020,9 hPa 0,0 mm 4,5 km/h (1 Bft) O-SO 103 ° 0 min 0,000 mm 1,7 UV-I 183 W/m² 9,2 °C 10,4 °C 8,0 km/h (2 Bft)
06.09.2019 10:45 10,4 °C 92 % 1020,9 hPa 0,0 mm 5,4 km/h (1 Bft) O 81 ° 0 min 0,000 mm 1,7 UV-I 179 W/m² 9,2 °C 10,4 °C 8,0 km/h (2 Bft)
06.09.2019 10:46 10,4 °C 92 % 1020,9 hPa 0,0 mm 6,7 km/h (2 Bft) O-NO 70 ° 0 min 0,000 mm 1,7 UV-I 172 W/m² 9,2 °C 10,4 °C 9,7 km/h (2 Bft)
06.09.2019 10:47 10,4 °C 92 % 1020,9 hPa 0,0 mm 10,9 km/h (2 Bft) NO 51 ° 0 min 0,000 mm 1,6 UV-I 165 W/m² 9,2 °C 10,4 °C 12,9 km/h (3 Bft)
06.09.2019 10:48 10,4 °C 92 % 1020,9 hPa 0,0 mm 5,9 km/h (2 Bft) O 101 ° 0 min 0,000 mm 1,6 UV-I 169 W/m² 9,2 °C 10,4 °C 9,7 km/h (2 Bft)
06.09.2019 10:49 10,4 °C 92 % 1020,9 hPa 0,0 mm 7,1 km/h (2 Bft) O 79 ° 0 min 0,000 mm 1,6 UV-I 172 W/m² 9,2 °C 10,4 °C 11,3 km/h (2 Bft)
06.09.2019 10:50 10,4 °C 92 % 1020,9 hPa 0,0 mm 7,2 km/h (2 Bft) O-NO 78 ° 0 min 0,000 mm 1,5 UV-I 174 W/m² 9,2 °C 10,4 °C 11,3 km/h (2 Bft)
06.09.2019 10:51 10,3 °C 91 % 1020,9 hPa 0,0 mm 4,2 km/h (1 Bft) NO 55 ° 0 min 0,000 mm 1,6 UV-I 193 W/m² 8,9 °C 10,3 °C 6,4 km/h (2 Bft)
06.09.2019 10:52 10,3 °C 92 % 1020,9 hPa 0,0 mm 6,0 km/h (2 Bft) O-NO 75 ° 0 min 0,000 mm 1,7 UV-I 220 W/m² 9,1 °C 10,3 °C 12,9 km/h (3 Bft)
06.09.2019 10:53 10,4 °C 92 % 1021,0 hPa 0,0 mm 5,9 km/h (2 Bft) O-NO 74 ° 0 min 0,000 mm 1,8 UV-I 214 W/m² 9,2 °C 10,4 °C 12,9 km/h (3 Bft)
06.09.2019 10:54 10,4 °C 92 % 1020,9 hPa 0,0 mm 2,7 km/h (1 Bft) O-NO 57 ° 0 min 0,000 mm 1,6 UV-I 199 W/m² 9,2 °C 10,4 °C 6,4 km/h (2 Bft)
06.09.2019 10:55 10,4 °C 92 % 1020,9 hPa 0,0 mm 8,0 km/h (2 Bft) O-SO 119 ° 0 min 0,000 mm 1,5 UV-I 176 W/m² 9,2 °C 10,4 °C 12,9 km/h (3 Bft)
06.09.2019 10:56 10,4 °C 92 % 1020,9 hPa 0,0 mm 4,5 km/h (1 Bft) O 94 ° 0 min 0,000 mm 1,4 UV-I 169 W/m² 9,2 °C 10,4 °C 8,0 km/h (2 Bft)
06.09.2019 10:57 10,4 °C 92 % 1020,9 hPa 0,0 mm 5,4 km/h (1 Bft) S-SO 154 ° 0 min 0,000 mm 1,5 UV-I 181 W/m² 9,2 °C 10,4 °C 11,3 km/h (2 Bft)
06.09.2019 10:58 10,4 °C 91 % 1021,0 hPa 0,0 mm 1,8 km/h (1 Bft) O-NO 76 ° 0 min 0,000 mm 1,6 UV-I 213 W/m² 9,0 °C 10,4 °C 6,4 km/h (2 Bft)
06.09.2019 10:59 10,5 °C 92 % 1021,0 hPa 0,0 mm 3,8 km/h (1 Bft) O 82 ° 0 min 0,000 mm 1,9 UV-I 227 W/m² 9,3 °C 10,5 °C 9,7 km/h (2 Bft)
06.09.2019 11:00 10,5 °C 92 % 1021,0 hPa 0,0 mm 6,5 km/h (2 Bft) NO 42 ° 0 min 0,102 mm 1,8 UV-I 220 W/m² 9,3 °C 10,5 °C 9,7 km/h (2 Bft)
06.09.2019 11:01 10,6 °C 92 % 1020,9 hPa 0,0 mm 8,4 km/h (2 Bft) O-NO 65 ° 0 min 0,000 mm 1,7 UV-I 204 W/m² 9,4 °C 10,6 °C 12,9 km/h (3 Bft)
06.09.2019 11:02 10,6 °C 92 % 1020,9 hPa 0,0 mm 7,0 km/h (2 Bft) O-NO 72 ° 0 min 0,000 mm 1,7 UV-I 197 W/m² 9,4 °C 10,6 °C 12,9 km/h (3 Bft)
06.09.2019 11:03 10,6 °C 91 % 1020,9 hPa 0,0 mm 5,7 km/h (1 Bft) O 94 ° 0 min 0,000 mm 1,7 UV-I 202 W/m² 9,2 °C 10,6 °C 14,5 km/h (3 Bft)
06.09.2019 11:04 10,6 °C 91 % 1020,9 hPa 0,0 mm 10,0 km/h (2 Bft) O-NO 61 ° 0 min 0,000 mm 1,6 UV-I 202 W/m² 9,2 °C 10,6 °C 14,5 km/h (3 Bft)
06.09.2019 11:05 10,6 °C 91 % 1020,9 hPa 0,0 mm 7,0 km/h (2 Bft) NO 55 ° 0 min 0,000 mm 1,8 UV-I 216 W/m² 9,2 °C 10,6 °C 12,9 km/h (3 Bft)
06.09.2019 11:06 10,6 °C 91 % 1020,9 hPa 0,2 mm 8,3 km/h (2 Bft) N-NO 26 ° 0 min 0,000 mm 2,0 UV-I 234 W/m² 9,2 °C 10,6 °C 12,9 km/h (3 Bft)
06.09.2019 11:07 10,6 °C 91 % 1020,9 hPa 0,0 mm 4,8 km/h (1 Bft) O-NO 63 ° 0 min 0,000 mm 2,0 UV-I 243 W/m² 9,2 °C 10,6 °C 9,7 km/h (2 Bft)
06.09.2019 11:08 10,6 °C 91 % 1020,9 hPa 0,0 mm 8,7 km/h (2 Bft) O-NO 78 ° 0 min 0,000 mm 2,1 UV-I 248 W/m² 9,2 °C 10,6 °C 12,9 km/h (3 Bft)
06.09.2019 11:09 10,7 °C 91 % 1020,9 hPa 0,0 mm 4,0 km/h (1 Bft) O-NO 72 ° 0 min 0,000 mm 2,0 UV-I 234 W/m² 9,3 °C 10,7 °C 6,4 km/h (2 Bft)
06.09.2019 11:10 10,7 °C 91 % 1020,9 hPa 0,0 mm 5,0 km/h (1 Bft) O 94 ° 0 min 0,000 mm 2,0 UV-I 223 W/m² 9,3 °C 10,7 °C 6,4 km/h (2 Bft)
06.09.2019 11:11 10,7 °C 91 % 1020,9 hPa 0,0 mm 7,6 km/h (2 Bft) O 80 ° 0 min 0,000 mm 2,0 UV-I 221 W/m² 9,3 °C 10,7 °C 12,9 km/h (3 Bft)
06.09.2019 11:12 10,7 °C 91 % 1020,9 hPa 0,0 mm 8,4 km/h (2 Bft) O 92 ° 0 min 0,000 mm 1,9 UV-I 216 W/m² 9,3 °C 10,7 °C 11,3 km/h (2 Bft)
06.09.2019 11:13 10,8 °C 91 % 1020,9 hPa 0,0 mm 6,1 km/h (2 Bft) O 93 ° 0 min 0,000 mm 1,9 UV-I 213 W/m² 9,4 °C 10,8 °C 9,7 km/h (2 Bft)
06.09.2019 11:14 10,8 °C 91 % 1020,9 hPa 0,0 mm 4,4 km/h (1 Bft) S-SO 156 ° 0 min 0,000 mm 1,9 UV-I 216 W/m² 9,4 °C 10,8 °C 6,4 km/h (2 Bft)
06.09.2019 11:15 10,8 °C 91 % 1020,9 hPa 0,0 mm 4,2 km/h (1 Bft) O-NO 63 ° 0 min 0,000 mm 1,9 UV-I 218 W/m² 9,4 °C 10,8 °C 8,0 km/h (2 Bft)
06.09.2019 11:16 10,8 °C 91 % 1020,9 hPa 0,0 mm 11,0 km/h (2 Bft) O 95 ° 0 min 0,000 mm 1,9 UV-I 229 W/m² 9,4 °C 10,8 °C 17,7 km/h (3 Bft)
06.09.2019 11:17 10,8 °C 91 % 1021,0 hPa 0,0 mm 9,2 km/h (2 Bft) O-NO 67 ° 0 min 0,000 mm 2,0 UV-I 239 W/m² 9,4 °C 10,8 °C 14,5 km/h (3 Bft)
06.09.2019 11:18 10,8 °C 91 % 1021,0 hPa 0,0 mm 9,1 km/h (2 Bft) O 84 ° 0 min 0,000 mm 2,0 UV-I 244 W/m² 9,4 °C 10,8 °C 12,9 km/h (3 Bft)
06.09.2019 11:19 10,8 °C 91 % 1021,0 hPa 0,0 mm 4,7 km/h (1 Bft) NO 53 ° 0 min 0,000 mm 2,0 UV-I 253 W/m² 9,4 °C 10,8 °C 11,3 km/h (2 Bft)
06.09.2019 11:20 10,8 °C 91 % 1021,0 hPa 0,0 mm 7,4 km/h (2 Bft) O-NO 74 ° 0 min 0,000 mm 2,1 UV-I 255 W/m² 9,4 °C 10,8 °C 14,5 km/h (3 Bft)
06.09.2019 11:21 10,8 °C 91 % 1021,0 hPa 0,0 mm 6,4 km/h (2 Bft) O-NO 71 ° 0 min 0,000 mm 2,1 UV-I 257 W/m² 9,4 °C 10,8 °C 12,9 km/h (3 Bft)
06.09.2019 11:22 10,9 °C 91 % 1021,0 hPa 0,0 mm 9,1 km/h (2 Bft) NO 53 ° 0 min 0,000 mm 1,9 UV-I 241 W/m² 9,5 °C 10,9 °C 14,5 km/h (3 Bft)
06.09.2019 11:23 10,9 °C 91 % 1020,9 hPa 0,0 mm 7,8 km/h (2 Bft) O-NO 72 ° 0 min 0,000 mm 1,9 UV-I 241 W/m² 9,5 °C 10,9 °C 11,3 km/h (2 Bft)
06.09.2019 11:24 10,9 °C 91 % 1021,0 hPa 0,0 mm 7,8 km/h (2 Bft) O-NO 59 ° 0 min 0,000 mm 2,0 UV-I 243 W/m² 9,5 °C 10,9 °C 12,9 km/h (3 Bft)
06.09.2019 11:25 10,8 °C 90 % 1020,9 hPa 0,0 mm 2,3 km/h (1 Bft) O-NO 78 ° 0 min 0,000 mm 2,0 UV-I 243 W/m² 9,2 °C 10,8 °C 3,2 km/h (1 Bft)
06.09.2019 11:26 10,8 °C 91 % 1020,9 hPa 0,0 mm 8,5 km/h (2 Bft) O-NO 76 ° 0 min 0,000 mm 2,0 UV-I 250 W/m² 9,4 °C 10,8 °C 14,5 km/h (3 Bft)
06.09.2019 11:27 10,8 °C 90 % 1020,9 hPa 0,0 mm 5,7 km/h (1 Bft) NO 51 ° 0 min 0,000 mm 2,0 UV-I 244 W/m² 9,2 °C 10,8 °C 9,7 km/h (2 Bft)
06.09.2019 11:28 10,8 °C 91 % 1020,9 hPa 0,0 mm 6,5 km/h (2 Bft) NO 53 ° 0 min 0,000 mm 1,8 UV-I 229 W/m² 9,4 °C 10,8 °C 9,7 km/h (2 Bft)
06.09.2019 11:29 10,8 °C 90 % 1020,9 hPa 0,0 mm 6,5 km/h (2 Bft) N-NO 32 ° 0 min 0,000 mm 1,7 UV-I 209 W/m² 9,2 °C 10,8 °C 9,7 km/h (2 Bft)
06.09.2019 11:30 10,9 °C 91 % 1020,9 hPa 0,0 mm 5,0 km/h (1 Bft) NO 50 ° 0 min 0,000 mm 1,6 UV-I 204 W/m² 9,5 °C 10,9 °C 8,0 km/h (2 Bft)
06.09.2019 11:31 10,9 °C 90 % 1020,9 hPa 0,0 mm 7,2 km/h (2 Bft) N-NO 26 ° 0 min 0,000 mm 1,7 UV-I 204 W/m² 9,3 °C 10,9 °C 11,3 km/h (2 Bft)
06.09.2019 11:32 10,9 °C 90 % 1020,8 hPa 0,0 mm 5,6 km/h (1 Bft) N-NO 22 ° 0 min 0,000 mm 1,8 UV-I 214 W/m² 9,3 °C 10,9 °C 8,0 km/h (2 Bft)
06.09.2019 11:33 10,9 °C 91 % 1020,8 hPa 0,0 mm 5,9 km/h (2 Bft) NO 54 ° 0 min 0,000 mm 1,7 UV-I 195 W/m² 9,5 °C 10,9 °C 9,7 km/h (2 Bft)
06.09.2019 11:34 10,9 °C 91 % 1020,8 hPa 0,0 mm 5,4 km/h (1 Bft) O 90 ° 0 min 0,000 mm 1,5 UV-I 185 W/m² 9,5 °C 10,9 °C 11,3 km/h (2 Bft)
06.09.2019 11:35 10,9 °C 91 % 1020,9 hPa 0,0 mm 7,8 km/h (2 Bft) O 79 ° 0 min 0,000 mm 1,5 UV-I 181 W/m² 9,5 °C 10,9 °C 11,3 km/h (2 Bft)
06.09.2019 11:36 10,9 °C 90 % 1020,8 hPa 0,0 mm 8,6 km/h (2 Bft) O-NO 63 ° 0 min 0,000 mm 1,5 UV-I 178 W/m² 9,3 °C 10,9 °C 12,9 km/h (3 Bft)
06.09.2019 11:37 10,9 °C 90 % 1020,8 hPa 0,0 mm 2,4 km/h (1 Bft) O 79 ° 0 min 0,000 mm 1,3 UV-I 160 W/m² 9,3 °C 10,9 °C 6,4 km/h (2 Bft)
06.09.2019 11:38 10,8 °C 90 % 1020,8 hPa 0,0 mm 3,0 km/h (1 Bft) O-NO 67 ° 0 min 0,000 mm 1,3 UV-I 151 W/m² 9,2 °C 10,8 °C 4,8 km/h (1 Bft)
06.09.2019 11:39 10,8 °C 91 % 1020,8 hPa 0,0 mm 1,4 km/h (1 Bft) O-NO 68 ° 0 min 0,000 mm 1,2 UV-I 142 W/m² 9,4 °C 10,8 °C 3,2 km/h (1 Bft)
06.09.2019 11:40 10,8 °C 91 % 1020,8 hPa 0,0 mm 0,7 km/h (0 Bft) NO 50 ° 0 min 0,000 mm 1,3 UV-I 148 W/m² 9,4 °C 10,8 °C 3,2 km/h (1 Bft)
06.09.2019 11:41 10,9 °C 91 % 1020,8 hPa 0,0 mm 3,4 km/h (1 Bft) O-NO 59 ° 0 min 0,000 mm 1,3 UV-I 153 W/m² 9,5 °C 10,9 °C 8,0 km/h (2 Bft)
06.09.2019 11:42 10,9 °C 91 % 1020,8 hPa 0,0 mm 5,6 km/h (1 Bft) O-NO 61 ° 0 min 0,000 mm 1,3 UV-I 146 W/m² 9,5 °C 10,9 °C 9,7 km/h (2 Bft)
06.09.2019 11:43 10,9 °C 91 % 1020,7 hPa 0,0 mm 6,4 km/h (2 Bft) NO 53 ° 0 min 0,000 mm 1,2 UV-I 139 W/m² 9,5 °C 10,9 °C 8,0 km/h (2 Bft)
06.09.2019 11:44 10,9 °C 90 % 1020,7 hPa 0,0 mm 6,5 km/h (2 Bft) O 81 ° 0 min 0,000 mm 1,2 UV-I 139 W/m² 9,3 °C 10,9 °C 8,0 km/h (2 Bft)
06.09.2019 11:45 10,9 °C 90 % 1020,8 hPa 0,0 mm 2,5 km/h (1 Bft) O-NO 71 ° 0 min 0,000 mm 1,3 UV-I 156 W/m² 9,3 °C 10,9 °C 4,8 km/h (1 Bft)
06.09.2019 11:46 10,9 °C 91 % 1020,7 hPa 0,0 mm 0,9 km/h (0 Bft) NO 46 ° 0 min 0,000 mm 1,5 UV-I 176 W/m² 9,5 °C 10,9 °C 4,8 km/h (1 Bft)
06.09.2019 11:47 10,9 °C 91 % 1020,7 hPa 0,0 mm 5,9 km/h (2 Bft) O-NO 65 ° 0 min 0,000 mm 1,6 UV-I 193 W/m² 9,5 °C 10,9 °C 8,0 km/h (2 Bft)
06.09.2019 11:48 10,9 °C 91 % 1020,7 hPa 0,0 mm 4,5 km/h (1 Bft) NO 53 ° 0 min 0,000 mm 1,7 UV-I 204 W/m² 9,5 °C 10,9 °C 8,0 km/h (2 Bft)
06.09.2019 11:49 10,9 °C 91 % 1020,7 hPa 0,0 mm 4,8 km/h (1 Bft) NO 50 ° 0 min 0,000 mm 1,7 UV-I 209 W/m² 9,5 °C 10,9 °C 6,4 km/h (2 Bft)
06.09.2019 11:50 10,9 °C 91 % 1020,7 hPa 0,0 mm 6,4 km/h (2 Bft) NO 53 ° 0 min 0,000 mm 1,8 UV-I 214 W/m² 9,5 °C 10,9 °C 8,0 km/h (2 Bft)
06.09.2019 11:51 10,9 °C 90 % 1020,6 hPa 0,0 mm 5,7 km/h (1 Bft) O-NO 65 ° 0 min 0,000 mm 1,8 UV-I 207 W/m² 9,3 °C 10,9 °C 8,0 km/h (2 Bft)
06.09.2019 11:52 10,9 °C 90 % 1020,6 hPa 0,0 mm 6,2 km/h (2 Bft) O-NO 67 ° 0 min 0,000 mm 1,7 UV-I 202 W/m² 9,3 °C 10,9 °C 11,3 km/h (2 Bft)
06.09.2019 11:53 10,9 °C 90 % 1020,7 hPa 0,2 mm 3,4 km/h (1 Bft) NO 51 ° 0 min 0,000 mm 1,7 UV-I 207 W/m² 9,3 °C 10,9 °C 6,4 km/h (2 Bft)
06.09.2019 11:54 10,9 °C 91 % 1020,6 hPa 0,0 mm 3,2 km/h (1 Bft) O-NO 63 ° 0 min 0,000 mm 1,5 UV-I 193 W/m² 9,5 °C 10,9 °C 4,8 km/h (1 Bft)
06.09.2019 11:55 10,9 °C 91 % 1020,6 hPa 0,0 mm 3,2 km/h (1 Bft) NO 49 ° 0 min 0,000 mm 1,4 UV-I 174 W/m² 9,5 °C 10,9 °C 9,7 km/h (2 Bft)
06.09.2019 11:56 10,9 °C 91 % 1020,6 hPa 0,0 mm 9,6 km/h (2 Bft) O 94 ° 0 min 0,000 mm 1,4 UV-I 200 W/m² 9,5 °C 10,9 °C 14,5 km/h (3 Bft)
06.09.2019 11:57 10,9 °C 91 % 1020,7 hPa 0,0 mm 6,7 km/h (2 Bft) N-NO 14 ° 0 min 0,000 mm 1,7 UV-I 214 W/m² 9,5 °C 10,9 °C 11,3 km/h (2 Bft)
06.09.2019 11:58 10,9 °C 91 % 1020,6 hPa 0,0 mm 4,0 km/h (1 Bft) NO 54 ° 0 min 0,000 mm 1,7 UV-I 214 W/m² 9,5 °C 10,9 °C 6,4 km/h (2 Bft)
06.09.2019 11:59 10,9 °C 91 % 1020,6 hPa 0,0 mm 4,4 km/h (1 Bft) O-NO 71 ° 0 min 0,000 mm 1,7 UV-I 214 W/m² 9,5 °C 10,9 °C 8,0 km/h (2 Bft)
06.09.2019 12:00 10,9 °C 91 % 1020,6 hPa 0,0 mm 5,8 km/h (2 Bft) O 98 ° 0 min 0,000 mm 1,6 UV-I 209 W/m² 9,5 °C 10,9 °C 11,3 km/h (2 Bft)
06.09.2019 12:01 11,0 °C 91 % 1020,6 hPa 0,0 mm 0,9 km/h (0 Bft) O 96 ° 0 min 0,101 mm 1,6 UV-I 204 W/m² 9,6 °C 11,0 °C 3,2 km/h (1 Bft)
06.09.2019 12:02 11,1 °C 91 % 1020,5 hPa 0,0 mm 3,6 km/h (1 Bft) N-NO 24 ° 0 min 0,000 mm 1,5 UV-I 183 W/m² 9,7 °C 11,1 °C 4,8 km/h (1 Bft)
06.09.2019 12:03 11,1 °C 91 % 1020,5 hPa 0,0 mm 5,0 km/h (1 Bft) NO 46 ° 0 min 0,000 mm 1,4 UV-I 176 W/m² 9,7 °C 11,1 °C 6,4 km/h (2 Bft)
06.09.2019 12:04 11,1 °C 91 % 1020,5 hPa 0,0 mm 5,9 km/h (2 Bft) NO 38 ° 0 min 0,000 mm 1,3 UV-I 178 W/m² 9,7 °C 11,1 °C 9,7 km/h (2 Bft)
06.09.2019 12:05 11,2 °C 91 % 1020,6 hPa 0,0 mm 5,8 km/h (2 Bft) NO 40 ° 0 min 0,000 mm 1,3 UV-I 176 W/m² 9,8 °C 11,2 °C 9,7 km/h (2 Bft)
06.09.2019 12:06 11,1 °C 91 % 1020,6 hPa 0,0 mm 6,7 km/h (2 Bft) NO 40 ° 0 min 0,000 mm 1,3 UV-I 176 W/m² 9,7 °C 11,1 °C 9,7 km/h (2 Bft)
06.09.2019 12:07 11,1 °C 90 % 1020,6 hPa 0,0 mm 5,4 km/h (1 Bft) N 5 ° 0 min 0,000 mm 1,3 UV-I 178 W/m² 9,5 °C 11,1 °C 8,0 km/h (2 Bft)
06.09.2019 12:08 11,1 °C 90 % 1020,6 hPa 0,0 mm 5,9 km/h (2 Bft) NO 35 ° 0 min 0,000 mm 1,3 UV-I 165 W/m² 9,5 °C 11,1 °C 9,7 km/h (2 Bft)
06.09.2019 12:09 11,0 °C 90 % 1020,6 hPa 0,0 mm 5,7 km/h (1 Bft) N 9 ° 0 min 0,000 mm 1,2 UV-I 149 W/m² 9,4 °C 11,0 °C 8,0 km/h (2 Bft)
06.09.2019 12:10 11,0 °C 90 % 1020,5 hPa 0,0 mm 4,6 km/h (1 Bft) NO 43 ° 0 min 0,000 mm 1,1 UV-I 141 W/m² 9,4 °C 11,0 °C 8,0 km/h (2 Bft)
06.09.2019 12:11 11,0 °C 90 % 1020,6 hPa 0,0 mm 7,1 km/h (2 Bft) NO 38 ° 0 min 0,000 mm 1,1 UV-I 144 W/m² 9,4 °C 11,0 °C 8,0 km/h (2 Bft)
06.09.2019 12:12 10,9 °C 90 % 1020,5 hPa 0,0 mm 5,4 km/h (1 Bft) N-NO 27 ° 0 min 0,000 mm 1,1 UV-I 142 W/m² 9,3 °C 10,9 °C 6,4 km/h (2 Bft)
06.09.2019 12:13 10,9 °C 90 % 1020,5 hPa 0,0 mm 5,2 km/h (1 Bft) NO 45 ° 0 min 0,000 mm 1,0 UV-I 135 W/m² 9,3 °C 10,9 °C 8,0 km/h (2 Bft)
06.09.2019 12:14 10,9 °C 90 % 1020,5 hPa 0,0 mm 4,2 km/h (1 Bft) O-NO 70 ° 0 min 0,000 mm 1,0 UV-I 128 W/m² 9,3 °C 10,9 °C 9,7 km/h (2 Bft)
06.09.2019 12:15 10,9 °C 90 % 1020,5 hPa 0,0 mm 3,6 km/h (1 Bft) N-NO 24 ° 0 min 0,000 mm 1,0 UV-I 127 W/m² 9,3 °C 10,9 °C 8,0 km/h (2 Bft)
06.09.2019 12:16 10,9 °C 90 % 1020,5 hPa 0,0 mm 6,1 km/h (2 Bft) O-NO 67 ° 0 min 0,000 mm 1,0 UV-I 125 W/m² 9,3 °C 10,9 °C 8,0 km/h (2 Bft)
06.09.2019 12:17 10,9 °C 90 % 1020,5 hPa 0,0 mm 1,7 km/h (1 Bft) NO 38 ° 0 min 0,000 mm 0,9 UV-I 120 W/m² 9,3 °C 10,9 °C 4,8 km/h (1 Bft)
06.09.2019 12:18 10,9 °C 90 % 1020,5 hPa 0,0 mm 0,3 km/h (0 Bft) NO 38 ° 0 min 0,000 mm 0,9 UV-I 114 W/m² 9,3 °C 10,9 °C 3,2 km/h (1 Bft)
06.09.2019 12:19 10,9 °C 90 % 1020,5 hPa 0,0 mm 5,1 km/h (1 Bft) O 92 ° 0 min 0,000 mm 0,8 UV-I 105 W/m² 9,3 °C 10,9 °C 6,4 km/h (2 Bft)
06.09.2019 12:20 10,9 °C 90 % 1020,5 hPa 0,0 mm 2,0 km/h (1 Bft) O 82 ° 0 min 0,000 mm 0,9 UV-I 111 W/m² 9,3 °C 10,9 °C 3,2 km/h (1 Bft)
06.09.2019 12:21 10,9 °C 90 % 1020,5 hPa 0,0 mm 5,3 km/h (1 Bft) NO 51 ° 0 min 0,000 mm 1,3 UV-I 151 W/m² 9,3 °C 10,9 °C 8,0 km/h (2 Bft)
06.09.2019 12:22 11,0 °C 90 % 1020,4 hPa 0,0 mm 2,1 km/h (1 Bft) O-NO 58 ° 0 min 0,000 mm 1,4 UV-I 167 W/m² 9,4 °C 11,0 °C 4,8 km/h (1 Bft)
06.09.2019 12:23 11,0 °C 91 % 1020,4 hPa 0,0 mm 0,1 km/h (0 Bft) O-NO 58 ° 0 min 0,000 mm 1,4 UV-I 169 W/m² 9,6 °C 11,0 °C 1,6 km/h (1 Bft)
06.09.2019 12:24 11,0 °C 91 % 1020,4 hPa 0,0 mm 0,0 km/h (0 Bft) O-NO 58 ° 0 min 0,000 mm 1,3 UV-I 156 W/m² 9,6 °C 11,0 °C 0,0 km/h (0 Bft)
06.09.2019 12:25 11,0 °C 91 % 1020,5 hPa 0,0 mm 0,0 km/h (0 Bft) O-NO 58 ° 0 min 0,000 mm 1,2 UV-I 141 W/m² 9,6 °C 11,0 °C 0,0 km/h (0 Bft)
06.09.2019 12:26 11,1 °C 91 % 1020,5 hPa 0,0 mm 0,7 km/h (0 Bft) O-NO 57 ° 0 min 0,000 mm 1,0 UV-I 109 W/m² 9,7 °C 11,1 °C 4,8 km/h (1 Bft)
06.09.2019 12:27 11,0 °C 91 % 1020,4 hPa 0,0 mm 3,6 km/h (1 Bft) O-NO 78 ° 0 min 0,000 mm 0,8 UV-I 100 W/m² 9,6 °C 11,0 °C 4,8 km/h (1 Bft)
06.09.2019 12:28 11,1 °C 91 % 1020,5 hPa 0,0 mm 4,6 km/h (1 Bft) O-NO 57 ° 0 min 0,000 mm 0,7 UV-I 91 W/m² 9,7 °C 11,1 °C 6,4 km/h (2 Bft)
06.09.2019 12:29 11,1 °C 90 % 1020,5 hPa 0,0 mm 5,0 km/h (1 Bft) NO 44 ° 0 min 0,000 mm 0,7 UV-I 83 W/m² 9,5 °C 11,1 °C 8,0 km/h (2 Bft)
06.09.2019 12:30 11,0 °C 90 % 1020,5 hPa 0,0 mm 4,4 km/h (1 Bft) NO 40 ° 0 min 0,000 mm 0,6 UV-I 70 W/m² 9,4 °C 11,0 °C 8,0 km/h (2 Bft)
06.09.2019 12:31 11,0 °C 90 % 1020,5 hPa 0,0 mm 1,3 km/h (1 Bft) NO 40 ° 0 min 0,000 mm 0,5 UV-I 63 W/m² 9,4 °C 11,0 °C 3,2 km/h (1 Bft)
06.09.2019 12:32 11,0 °C 91 % 1020,5 hPa 0,0 mm 0,8 km/h (0 Bft) NO 40 ° 0 min 0,000 mm 0,0 UV-I 51 W/m² 9,6 °C 11,0 °C 3,2 km/h (1 Bft)
06.09.2019 12:33 11,0 °C 91 % 1020,5 hPa 0,0 mm 2,3 km/h (1 Bft) O-NO 75 ° 0 min 0,000 mm 0,0 UV-I 47 W/m² 9,6 °C 11,0 °C 4,8 km/h (1 Bft)
06.09.2019 12:34 11,0 °C 91 % 1020,5 hPa 0,0 mm 1,1 km/h (1 Bft) O-NO 75 ° 0 min 0,000 mm 0,0 UV-I 44 W/m² 9,6 °C 11,0 °C 3,2 km/h (1 Bft)
06.09.2019 12:35 11,0 °C 90 % 1020,5 hPa 0,0 mm 1,7 km/h (1 Bft) O-NO 75 ° 0 min 0,000 mm 0,0 UV-I 42 W/m² 9,4 °C 11,0 °C 4,8 km/h (1 Bft)
06.09.2019 12:36 10,9 °C 90 % 1020,5 hPa 0,0 mm 1,6 km/h (1 Bft) O 88 ° 0 min 0,000 mm 0,0 UV-I 40 W/m² 9,3 °C 10,9 °C 3,2 km/h (1 Bft)
06.09.2019 12:37 10,9 °C 91 % 1020,5 hPa 0,0 mm 1,0 km/h (0 Bft) O 87 ° 0 min 0,000 mm 0,0 UV-I 39 W/m² 9,5 °C 10,9 °C 3,2 km/h (1 Bft)
06.09.2019 12:38 10,9 °C 91 % 1020,5 hPa 0,0 mm 0,0 km/h (0 Bft) O-NO 77 ° 0 min 0,000 mm 0,0 UV-I 39 W/m² 9,5 °C 10,9 °C 0,0 km/h (0 Bft)
06.09.2019 12:39 10,9 °C 91 % 1020,5 hPa 0,0 mm 0,0 km/h (0 Bft) O-NO 77 ° 0 min 0,000 mm 0,0 UV-I 37 W/m² 9,5 °C 10,9 °C 0,0 km/h (0 Bft)
06.09.2019 12:40 10,9 °C 90 % 1020,5 hPa 0,0 mm 0,0 km/h (0 Bft) O-NO 77 ° 0 min 0,000 mm 0,0 UV-I 35 W/m² 9,3 °C 10,9 °C 0,0 km/h (0 Bft)
06.09.2019 12:41 10,9 °C 91 % 1020,5 hPa 0,0 mm 0,0 km/h (0 Bft) O-NO 77 ° 0 min 0,000 mm 0,0 UV-I 35 W/m² 9,5 °C 10,9 °C 0,0 km/h (0 Bft)
06.09.2019 12:42 10,9 °C 91 % 1020,5 hPa 0,0 mm 0,0 km/h (0 Bft) O-NO 77 ° 0 min 0,000 mm 0,0 UV-I 33 W/m² 9,5 °C 10,9 °C 0,0 km/h (0 Bft)
06.09.2019 12:43 10,8 °C 91 % 1020,5 hPa 0,0 mm 0,0 km/h (0 Bft) O-NO 77 ° 0 min 0,000 mm 0,0 UV-I 33 W/m² 9,4 °C 10,8 °C 0,0 km/h (0 Bft)
06.09.2019 12:44 10,8 °C 91 % 1020,5 hPa 0,0 mm 0,0 km/h (0 Bft) O-NO 77 ° 0 min 0,000 mm 0,0 UV-I 32 W/m² 9,4 °C 10,8 °C 0,0 km/h (0 Bft)
06.09.2019 12:45 10,8 °C 91 % 1020,5 hPa 0,0 mm 0,0 km/h (0 Bft) O-NO 77 ° 0 min 0,000 mm 0,0 UV-I 33 W/m² 9,4 °C 10,8 °C 0,0 km/h (0 Bft)
06.09.2019 12:46 10,8 °C 91 % 1020,5 hPa 0,0 mm 0,0 km/h (0 Bft) O-NO 77 ° 0 min 0,000 mm 0,0 UV-I 37 W/m² 9,4 °C 10,8 °C 0,0 km/h (0 Bft)
06.09.2019 12:47 10,8 °C 92 % 1020,5 hPa 0,0 mm 0,0 km/h (0 Bft) O-NO 77 ° 0 min 0,000 mm 0,0 UV-I 46 W/m² 9,6 °C 10,8 °C 0,0 km/h (0 Bft)
06.09.2019 12:48 10,8 °C 92 % 1020,5 hPa 0,2 mm 0,0 km/h (0 Bft) O-NO 77 ° 0 min 0,000 mm 0,0 UV-I 51 W/m² 9,6 °C 10,8 °C 0,0 km/h (0 Bft)
06.09.2019 12:49 10,8 °C 92 % 1020,5 hPa 0,0 mm 0,0 km/h (0 Bft) O-NO 77 ° 0 min 0,000 mm 0,0 UV-I 58 W/m² 9,6 °C 10,8 °C 0,0 km/h (0 Bft)
06.09.2019 12:50 10,8 °C 92 % 1020,5 hPa 0,0 mm 1,1 km/h (1 Bft) NO 43 ° 0 min 0,000 mm 0,5 UV-I 60 W/m² 9,6 °C 10,8 °C 4,8 km/h (1 Bft)
06.09.2019 12:51 10,8 °C 92 % 1020,5 hPa 0,0 mm 0,7 km/h (0 Bft) NO 43 ° 0 min 0,000 mm 0,5 UV-I 62 W/m² 9,6 °C 10,8 °C 4,8 km/h (1 Bft)
06.09.2019 12:52 10,8 °C 92 % 1020,5 hPa 0,0 mm 0,0 km/h (0 Bft) NO 43 ° 0 min 0,000 mm 0,5 UV-I 60 W/m² 9,6 °C 10,8 °C 0,0 km/h (0 Bft)
06.09.2019 12:53 10,8 °C 92 % 1020,4 hPa 0,0 mm 0,2 km/h (0 Bft) NO 43 ° 0 min 0,000 mm 0,5 UV-I 56 W/m² 9,6 °C 10,8 °C 1,6 km/h (1 Bft)
06.09.2019 12:54 10,8 °C 92 % 1020,5 hPa 0,0 mm 3,8 km/h (1 Bft) O-NO 64 ° 0 min 0,000 mm 0,0 UV-I 54 W/m² 9,6 °C 10,8 °C 6,4 km/h (2 Bft)
06.09.2019 12:55 10,8 °C 92 % 1020,5 hPa 0,0 mm 1,2 km/h (1 Bft) O-NO 64 ° 0 min 0,000 mm 0,0 UV-I 47 W/m² 9,6 °C 10,8 °C 4,8 km/h (1 Bft)
06.09.2019 12:56 10,8 °C 92 % 1020,5 hPa 0,0 mm 0,0 km/h (0 Bft) O-NO 64 ° 0 min 0,000 mm 0,0 UV-I 46 W/m² 9,6 °C 10,8 °C 0,0 km/h (0 Bft)
06.09.2019 12:57 10,8 °C 92 % 1020,5 hPa 0,0 mm 0,0 km/h (0 Bft) O-SO 119 ° 0 min 0,000 mm 0,0 UV-I 49 W/m² 9,6 °C 10,8 °C 0,0 km/h (0 Bft)
06.09.2019 12:58 10,8 °C 92 % 1020,5 hPa 0,0 mm 2,1 km/h (1 Bft) NO 43 ° 0 min 0,000 mm 0,0 UV-I 53 W/m² 9,6 °C 10,8 °C 4,8 km/h (1 Bft)
06.09.2019 12:59 10,8 °C 92 % 1020,6 hPa 0,0 mm 2,3 km/h (1 Bft) N-NO 18 ° 0 min 0,000 mm 0,0 UV-I 54 W/m² 9,6 °C 10,8 °C 6,4 km/h (2 Bft)
06.09.2019 13:00 10,8 °C 92 % 1020,6 hPa 0,0 mm 4,1 km/h (1 Bft) O-NO 63 ° 0 min 0,051 mm 0,5 UV-I 60 W/m² 9,6 °C 10,8 °C 6,4 km/h (2 Bft)
06.09.2019 13:01 10,9 °C 92 % 1020,6 hPa 0,0 mm 1,0 km/h (0 Bft) O-NO 63 ° 0 min 0,000 mm 0,6 UV-I 77 W/m² 9,7 °C 10,9 °C 3,2 km/h (1 Bft)
06.09.2019 13:02 10,8 °C 92 % 1020,6 hPa 0,0 mm 0,0 km/h (0 Bft) O-NO 63 ° 0 min 0,000 mm 0,7 UV-I 84 W/m² 9,6 °C 10,8 °C 0,0 km/h (0 Bft)
06.09.2019 13:03 10,9 °C 92 % 1020,6 hPa 0,0 mm 0,0 km/h (0 Bft) O-NO 63 ° 0 min 0,000 mm 0,7 UV-I 83 W/m² 9,7 °C 10,9 °C 0,0 km/h (0 Bft)
06.09.2019 13:04 10,9 °C 92 % 1020,6 hPa 0,0 mm 0,0 km/h (0 Bft) O-NO 63 ° 0 min 0,000 mm 0,7 UV-I 81 W/m² 9,7 °C 10,9 °C 0,0 km/h (0 Bft)
06.09.2019 13:05 10,9 °C 92 % 1020,5 hPa 0,0 mm 0,5 km/h (0 Bft) O-NO 63 ° 0 min 0,000 mm 0,8 UV-I 84 W/m² 9,7 °C 10,9 °C 3,2 km/h (1 Bft)
06.09.2019 13:06 10,9 °C 92 % 1020,6 hPa 0,0 mm 0,4 km/h (0 Bft) O-NO 63 ° 0 min 0,000 mm 0,8 UV-I 95 W/m² 9,7 °C 10,9 °C 3,2 km/h (1 Bft)
06.09.2019 13:07 10,9 °C 92 % 1020,6 hPa 0,0 mm 0,0 km/h (0 Bft) O-NO 63 ° 0 min 0,000 mm 0,9 UV-I 105 W/m² 9,7 °C 10,9 °C 0,0 km/h (0 Bft)
06.09.2019 13:08 10,9 °C 92 % 1020,6 hPa 0,0 mm 0,0 km/h (0 Bft) NO 53 ° 0 min 0,000 mm 0,9 UV-I 105 W/m² 9,7 °C 10,9 °C 0,0 km/h (0 Bft)
06.09.2019 13:09 10,9 °C 92 % 1020,5 hPa 0,0 mm 0,0 km/h (0 Bft) NO 53 ° 0 min 0,000 mm 0,9 UV-I 102 W/m² 9,7 °C 10,9 °C 0,0 km/h (0 Bft)
06.09.2019 13:10 10,9 °C 92 % 1020,5 hPa 0,0 mm 2,6 km/h (1 Bft) NO 53 ° 0 min 0,000 mm 0,8 UV-I 97 W/m² 9,7 °C 10,9 °C 6,4 km/h (2 Bft)
06.09.2019 13:11 10,9 °C 92 % 1020,5 hPa 0,0 mm 1,9 km/h (1 Bft) NO 53 ° 0 min 0,000 mm 0,8 UV-I 91 W/m² 9,7 °C 10,9 °C 3,2 km/h (1 Bft)
06.09.2019 13:12 10,9 °C 92 % 1020,5 hPa 0,0 mm 2,4 km/h (1 Bft) NO 53 ° 0 min 0,000 mm 0,7 UV-I 77 W/m² 9,7 °C 10,9 °C 4,8 km/h (1 Bft)
06.09.2019 13:13 10,9 °C 92 % 1020,4 hPa 0,0 mm 0,8 km/h (0 Bft) NO 53 ° 0 min 0,000 mm 0,7 UV-I 72 W/m² 9,7 °C 10,9 °C 3,2 km/h (1 Bft)
06.09.2019 13:14 10,9 °C 92 % 1020,5 hPa 0,0 mm 2,7 km/h (1 Bft) NO 53 ° 0 min 0,000 mm 0,6 UV-I 67 W/m² 9,7 °C 10,9 °C 4,8 km/h (1 Bft)
06.09.2019 13:15 11,0 °C 92 % 1020,4 hPa 0,0 mm 2,6 km/h (1 Bft) S-SO 148 ° 0 min 0,000 mm 0,5 UV-I 62 W/m² 9,8 °C 11,0 °C 4,8 km/h (1 Bft)
06.09.2019 13:16 10,9 °C 92 % 1020,4 hPa 0,0 mm 0,8 km/h (0 Bft) S-SO 148 ° 0 min 0,000 mm 0,5 UV-I 58 W/m² 9,7 °C 10,9 °C 3,2 km/h (1 Bft)
06.09.2019 13:17 10,9 °C 91 % 1020,4 hPa 0,0 mm 0,0 km/h (0 Bft) S-SO 148 ° 0 min 0,000 mm 0,0 UV-I 54 W/m² 9,5 °C 10,9 °C 0,0 km/h (0 Bft)
06.09.2019 13:18 10,9 °C 92 % 1020,4 hPa 0,0 mm 0,0 km/h (0 Bft) O 98 ° 0 min 0,000 mm 0,0 UV-I 44 W/m² 9,7 °C 10,9 °C 0,0 km/h (0 Bft)
06.09.2019 13:19 10,9 °C 92 % 1020,4 hPa 0,0 mm 2,8 km/h (1 Bft) O 98 ° 0 min 0,000 mm 0,0 UV-I 39 W/m² 9,7 °C 10,9 °C 4,8 km/h (1 Bft)
06.09.2019 13:20 10,9 °C 91 % 1020,4 hPa 0,0 mm 0,7 km/h (0 Bft) O 98 ° 0 min 0,000 mm 0,0 UV-I 33 W/m² 9,5 °C 10,9 °C 3,2 km/h (1 Bft)
06.09.2019 13:21 10,9 °C 91 % 1020,4 hPa 0,0 mm 1,7 km/h (1 Bft) NO 48 ° 0 min 0,000 mm 0,0 UV-I 32 W/m² 9,5 °C 10,9 °C 4,8 km/h (1 Bft)
06.09.2019 13:22 10,9 °C 91 % 1020,4 hPa 0,0 mm 0,0 km/h (0 Bft) NO 48 ° 0 min 0,000 mm 0,0 UV-I 32 W/m² 9,5 °C 10,9 °C 0,0 km/h (0 Bft)
06.09.2019 13:23 10,9 °C 91 % 1020,4 hPa 0,0 mm 0,0 km/h (0 Bft) NO 48 ° 0 min 0,000 mm 0,0 UV-I 33 W/m² 9,5 °C 10,9 °C 0,0 km/h (0 Bft)
06.09.2019 13:24 10,9 °C 91 % 1020,4 hPa 0,0 mm 0,0 km/h (0 Bft) NO 48 ° 0 min 0,000 mm 0,0 UV-I 32 W/m² 9,5 °C 10,9 °C 0,0 km/h (0 Bft)
06.09.2019 13:25 10,9 °C 91 % 1020,4 hPa 0,0 mm 0,7 km/h (0 Bft) NO 48 ° 0 min 0,000 mm 0,0 UV-I 32 W/m² 9,5 °C 10,9 °C 3,2 km/h (1 Bft)
06.09.2019 13:26 10,9 °C 91 % 1020,4 hPa 0,0 mm 0,8 km/h (0 Bft) NO 48 ° 0 min 0,000 mm 0,0 UV-I 32 W/m² 9,5 °C 10,9 °C 3,2 km/h (1 Bft)
06.09.2019 13:27 10,9 °C 91 % 1020,4 hPa 0,0 mm 3,4 km/h (1 Bft) N 355 ° 0 min 0,000 mm 0,0 UV-I 35 W/m² 9,5 °C 10,9 °C 8,0 km/h (2 Bft)
06.09.2019 13:28 10,9 °C 91 % 1020,4 hPa 0,0 mm 5,2 km/h (1 Bft) N 355 ° 0 min 0,000 mm 0,0 UV-I 37 W/m² 9,5 °C 10,9 °C 8,0 km/h (2 Bft)
06.09.2019 13:29 10,9 °C 91 % 1020,4 hPa 0,0 mm 3,3 km/h (1 Bft) NW 313 ° 0 min 0,000 mm 0,0 UV-I 37 W/m² 9,5 °C 10,9 °C 6,4 km/h (2 Bft)
06.09.2019 13:30 10,9 °C 91 % 1020,4 hPa 0,0 mm 3,7 km/h (1 Bft) N-NO 18 ° 0 min 0,000 mm 0,0 UV-I 37 W/m² 9,5 °C 10,9 °C 4,8 km/h (1 Bft)
06.09.2019 13:31 10,9 °C 91 % 1020,3 hPa 0,0 mm 0,0 km/h (0 Bft) N-NO 18 ° 0 min 0,000 mm 0,0 UV-I 37 W/m² 9,5 °C 10,9 °C 0,0 km/h (0 Bft)
06.09.2019 13:32 10,9 °C 91 % 1020,4 hPa 0,0 mm 0,0 km/h (0 Bft) N-NO 18 ° 0 min 0,000 mm 0,0 UV-I 37 W/m² 9,5 °C 10,9 °C 0,0 km/h (0 Bft)
06.09.2019 13:33 10,9 °C 91 % 1020,4 hPa 0,0 mm 0,1 km/h (0 Bft) N-NO 18 ° 0 min 0,000 mm 0,0 UV-I 37 W/m² 9,5 °C 10,9 °C 1,6 km/h (1 Bft)
06.09.2019 13:34 10,9 °C 91 % 1020,3 hPa 0,0 mm 0,0 km/h (0 Bft) N-NO 18 ° 0 min 0,000 mm 0,0 UV-I 37 W/m² 9,5 °C 10,9 °C 0,0 km/h (0 Bft)
06.09.2019 13:35 10,8 °C 91 % 1020,3 hPa 0,0 mm 3,2 km/h (1 Bft) N-NO 26 ° 0 min 0,000 mm 0,0 UV-I 37 W/m² 9,4 °C 10,8 °C 8,0 km/h (2 Bft)
06.09.2019 13:36 10,8 °C 91 % 1020,3 hPa 0,0 mm 2,8 km/h (1 Bft) O-NO 75 ° 0 min 0,000 mm 0,0 UV-I 39 W/m² 9,4 °C 10,8 °C 3,2 km/h (1 Bft)
06.09.2019 13:37 10,8 °C 91 % 1020,3 hPa 0,0 mm 1,3 km/h (1 Bft) O-NO 76 ° 0 min 0,000 mm 0,0 UV-I 40 W/m² 9,4 °C 10,8 °C 4,8 km/h (1 Bft)
06.09.2019 13:38 10,8 °C 91 % 1020,3 hPa 0,0 mm 1,4 km/h (1 Bft) NO 55 ° 0 min 0,000 mm 0,0 UV-I 42 W/m² 9,4 °C 10,8 °C 4,8 km/h (1 Bft)
06.09.2019 13:39 10,8 °C 92 % 1020,3 hPa 0,0 mm 2,2 km/h (1 Bft) NO 54 ° 0 min 0,000 mm 0,0 UV-I 44 W/m² 9,6 °C 10,8 °C 3,2 km/h (1 Bft)
06.09.2019 13:40 10,8 °C 92 % 1020,2 hPa 0,0 mm 0,2 km/h (0 Bft) NO 54 ° 0 min 0,000 mm 0,0 UV-I 47 W/m² 9,6 °C 10,8 °C 1,6 km/h (1 Bft)
06.09.2019 13:41 10,8 °C 92 % 1020,2 hPa 0,0 mm 0,0 km/h (0 Bft) NO 54 ° 0 min 0,000 mm 0,0 UV-I 49 W/m² 9,6 °C 10,8 °C 0,0 km/h (0 Bft)
06.09.2019 13:42 10,8 °C 92 % 1020,2 hPa 0,0 mm 0,0 km/h (0 Bft) NO 54 ° 0 min 0,000 mm 0,0 UV-I 49 W/m² 9,6 °C 10,8 °C 0,0 km/h (0 Bft)
06.09.2019 13:43 10,8 °C 92 % 1020,2 hPa 0,0 mm 0,0 km/h (0 Bft) NO 54 ° 0 min 0,000 mm 0,0 UV-I 49 W/m² 9,6 °C 10,8 °C 0,0 km/h (0 Bft)
06.09.2019 13:44 10,8 °C 92 % 1020,1 hPa 0,0 mm 1,6 km/h (1 Bft) NO 54 ° 0 min 0,000 mm 0,0 UV-I 49 W/m² 9,6 °C 10,8 °C 3,2 km/h (1 Bft)
06.09.2019 13:45 10,8 °C 92 % 1020,2 hPa 0,0 mm 1,4 km/h (1 Bft) NO 55 ° 0 min 0,000 mm 0,0 UV-I 47 W/m² 9,6 °C 10,8 °C 3,2 km/h (1 Bft)
06.09.2019 13:46 10,8 °C 92 % 1020,2 hPa 0,0 mm 0,7 km/h (0 Bft) NO 55 ° 0 min 0,000 mm 0,0 UV-I 46 W/m² 9,6 °C 10,8 °C 1,6 km/h (1 Bft)
06.09.2019 13:47 10,7 °C 92 % 1020,2 hPa 0,0 mm 0,0 km/h (0 Bft) NO 54 ° 0 min 0,000 mm 0,0 UV-I 42 W/m² 9,5 °C 10,7 °C 0,0 km/h (0 Bft)
06.09.2019 13:48 10,7 °C 92 % 1020,2 hPa 0,0 mm 0,0 km/h (0 Bft) NO 55 ° 0 min 0,000 mm 0,0 UV-I 39 W/m² 9,5 °C 10,7 °C 0,0 km/h (0 Bft)
06.09.2019 13:49 10,7 °C 92 % 1020,3 hPa 0,0 mm 1,3 km/h (1 Bft) O-SO 123 ° 0 min 0,000 mm 0,0 UV-I 42 W/m² 9,5 °C 10,7 °C 3,2 km/h (1 Bft)
06.09.2019 13:50 10,7 °C 93 % 1020,3 hPa 0,0 mm 1,7 km/h (1 Bft) N-NO 26 ° 0 min 0,000 mm 0,0 UV-I 44 W/m² 9,6 °C 10,7 °C 3,2 km/h (1 Bft)
06.09.2019 13:51 10,7 °C 92 % 1020,2 hPa 0,0 mm 0,6 km/h (0 Bft) N-NO 33 ° 0 min 0,000 mm 0,0 UV-I 46 W/m² 9,5 °C 10,7 °C 3,2 km/h (1 Bft)
06.09.2019 13:52 10,7 °C 92 % 1020,2 hPa 0,0 mm 0,0 km/h (0 Bft) N-NO 33 ° 0 min 0,000 mm 0,0 UV-I 46 W/m² 9,5 °C 10,7 °C 0,0 km/h (0 Bft)
06.09.2019 13:53 10,7 °C 92 % 1020,2 hPa 0,0 mm 1,2 km/h (1 Bft) O-NO 76 ° 0 min 0,000 mm 0,0 UV-I 46 W/m² 9,5 °C 10,7 °C 3,2 km/h (1 Bft)
06.09.2019 13:54 10,7 °C 92 % 1020,2 hPa 0,0 mm 0,0 km/h (0 Bft) O-NO 76 ° 0 min 0,000 mm 0,0 UV-I 49 W/m² 9,5 °C 10,7 °C 0,0 km/h (0 Bft)
06.09.2019 13:55 10,7 °C 92 % 1020,2 hPa 0,0 mm 0,0 km/h (0 Bft) O-NO 76 ° 0 min 0,000 mm 0,0 UV-I 53 W/m² 9,5 °C 10,7 °C 0,0 km/h (0 Bft)
06.09.2019 13:56 10,7 °C 92 % 1020,2 hPa 0,0 mm 0,0 km/h (0 Bft) O-NO 76 ° 0 min 0,000 mm 0,0 UV-I 54 W/m² 9,5 °C 10,7 °C 0,0 km/h (0 Bft)
06.09.2019 13:57 10,7 °C 93 % 1020,2 hPa 0,0 mm 0,0 km/h (0 Bft) O-NO 76 ° 0 min 0,000 mm 0,5 UV-I 56 W/m² 9,6 °C 10,7 °C 0,0 km/h (0 Bft)
06.09.2019 13:58 10,7 °C 92 % 1020,2 hPa 0,0 mm 0,0 km/h (0 Bft) O-NO 76 ° 0 min 0,000 mm 0,5 UV-I 56 W/m² 9,5 °C 10,7 °C 0,0 km/h (0 Bft)
06.09.2019 13:59 10,7 °C 92 % 1020,2 hPa 0,0 mm 0,0 km/h (0 Bft) O-NO 76 ° 0 min 0,000 mm 0,5 UV-I 58 W/m² 9,5 °C 10,7 °C 0,0 km/h (0 Bft)
06.09.2019 14:00 10,7 °C 92 % 1020,2 hPa 0,0 mm 0,0 km/h (0 Bft) O-NO 76 ° 0 min 0,000 mm 0,5 UV-I 56 W/m² 9,5 °C 10,7 °C 0,0 km/h (0 Bft)
06.09.2019 14:01 10,7 °C 92 % 1020,1 hPa 0,0 mm 0,0 km/h (0 Bft) O-NO 76 ° 0 min 0,026 mm 0,5 UV-I 56 W/m² 9,5 °C 10,7 °C 0,0 km/h (0 Bft)
06.09.2019 14:02 10,7 °C 92 % 1020,1 hPa 0,0 mm 0,0 km/h (0 Bft) O-NO 76 ° 0 min 0,000 mm 0,5 UV-I 56 W/m² 9,5 °C 10,7 °C 0,0 km/h (0 Bft)
06.09.2019 14:03 10,7 °C 92 % 1020,1 hPa 0,0 mm 2,5 km/h (1 Bft) O-NO 77 ° 0 min 0,000 mm 0,0 UV-I 54 W/m² 9,5 °C 10,7 °C 4,8 km/h (1 Bft)
06.09.2019 14:04 10,7 °C 92 % 1020,0 hPa 0,0 mm 1,5 km/h (1 Bft) O-NO 77 ° 0 min 0,000 mm 0,0 UV-I 54 W/m² 9,5 °C 10,7 °C 3,2 km/h (1 Bft)
06.09.2019 14:05 10,7 °C 92 % 1020,0 hPa 0,0 mm 0,0 km/h (0 Bft) O-NO 77 ° 0 min 0,000 mm 0,0 UV-I 49 W/m² 9,5 °C 10,7 °C 0,0 km/h (0 Bft)
06.09.2019 14:06 10,7 °C 92 % 1020,0 hPa 0,0 mm 0,8 km/h (0 Bft) O 96 ° 0 min 0,000 mm 0,0 UV-I 47 W/m² 9,5 °C 10,7 °C 3,2 km/h (1 Bft)
06.09.2019 14:07 10,7 °C 92 % 1020,0 hPa 0,0 mm 1,7 km/h (1 Bft) O 96 ° 0 min 0,000 mm 0,0 UV-I 47 W/m² 9,5 °C 10,7 °C 3,2 km/h (1 Bft)
06.09.2019 14:08 10,7 °C 92 % 1020,0 hPa 0,0 mm 0,4 km/h (0 Bft) O 96 ° 0 min 0,000 mm 0,0 UV-I 47 W/m² 9,5 °C 10,7 °C 3,2 km/h (1 Bft)
06.09.2019 14:09 10,7 °C 92 % 1020,0 hPa 0,0 mm 0,0 km/h (0 Bft) O 96 ° 0 min 0,000 mm 0,0 UV-I 47 W/m² 9,5 °C 10,7 °C 0,0 km/h (0 Bft)
06.09.2019 14:10 10,7 °C 92 % 1020,0 hPa 0,0 mm 0,0 km/h (0 Bft) O 96 ° 0 min 0,000 mm 0,0 UV-I 46 W/m² 9,5 °C 10,7 °C 0,0 km/h (0 Bft)
06.09.2019 14:11 10,7 °C 92 % 1020,0 hPa 0,0 mm 1,6 km/h (1 Bft) O 96 ° 0 min 0,000 mm 0,0 UV-I 42 W/m² 9,5 °C 10,7 °C 3,2 km/h (1 Bft)
06.09.2019 14:12 10,7 °C 92 % 1019,9 hPa 0,0 mm 0,7 km/h (0 Bft) O 96 ° 0 min 0,000 mm 0,0 UV-I 39 W/m² 9,5 °C 10,7 °C 3,2 km/h (1 Bft)
06.09.2019 14:13 10,7 °C 92 % 1020,0 hPa 0,0 mm 0,0 km/h (0 Bft) O 96 ° 0 min 0,000 mm 0,0 UV-I 35 W/m² 9,5 °C 10,7 °C 0,0 km/h (0 Bft)
06.09.2019 14:14 10,7 °C 92 % 1020,0 hPa 0,2 mm 0,0 km/h (0 Bft) O 96 ° 0 min 0,000 mm 0,0 UV-I 32 W/m² 9,5 °C 10,7 °C 0,0 km/h (0 Bft)
06.09.2019 14:15 10,7 °C 92 % 1020,0 hPa 0,0 mm 0,0 km/h (0 Bft) O 96 ° 0 min 0,000 mm 0,0 UV-I 30 W/m² 9,5 °C 10,7 °C 0,0 km/h (0 Bft)
06.09.2019 14:16 10,7 °C 93 % 1019,9 hPa 0,0 mm 0,0 km/h (0 Bft) O 96 ° 0 min 0,000 mm 0,0 UV-I 28 W/m² 9,6 °C 10,7 °C 0,0 km/h (0 Bft)
06.09.2019 14:17 10,7 °C 93 % 1019,9 hPa 0,0 mm 0,0 km/h (0 Bft) O 96 ° 0 min 0,000 mm 0,0 UV-I 32 W/m² 9,6 °C 10,7 °C 0,0 km/h (0 Bft)
06.09.2019 14:18 10,7 °C 93 % 1019,9 hPa 0,0 mm 0,0 km/h (0 Bft) O 96 ° 0 min 0,000 mm 0,0 UV-I 33 W/m² 9,6 °C 10,7 °C 0,0 km/h (0 Bft)
06.09.2019 14:19 10,7 °C 93 % 1019,9 hPa 0,0 mm 0,0 km/h (0 Bft) O 96 ° 0 min 0,000 mm 0,0 UV-I 37 W/m² 9,6 °C 10,7 °C 0,0 km/h (0 Bft)
06.09.2019 14:20 10,7 °C 93 % 1019,9 hPa 0,0 mm 0,3 km/h (0 Bft) O 96 ° 0 min 0,000 mm 0,0 UV-I 39 W/m² 9,6 °C 10,7 °C 3,2 km/h (1 Bft)
06.09.2019 14:21 10,7 °C 93 % 1019,9 hPa 0,0 mm 1,0 km/h (0 Bft) O 96 ° 0 min 0,000 mm 0,0 UV-I 42 W/m² 9,6 °C 10,7 °C 3,2 km/h (1 Bft)
06.09.2019 14:22 10,7 °C 93 % 1019,9 hPa 0,0 mm 0,4 km/h (0 Bft) O 96 ° 0 min 0,000 mm 0,0 UV-I 44 W/m² 9,6 °C 10,7 °C 1,6 km/h (1 Bft)
06.09.2019 14:23 10,7 °C 93 % 1019,9 hPa 0,0 mm 3,1 km/h (1 Bft) O 97 ° 0 min 0,000 mm 0,0 UV-I 49 W/m² 9,6 °C 10,7 °C 4,8 km/h (1 Bft)
06.09.2019 14:24 10,7 °C 93 % 1019,9 hPa 0,0 mm 0,1 km/h (0 Bft) O 97 ° 0 min 0,000 mm 0,0 UV-I 51 W/m² 9,6 °C 10,7 °C 1,6 km/h (1 Bft)
06.09.2019 14:25 10,6 °C 93 % 1019,9 hPa 0,0 mm 0,0 km/h (0 Bft) O 97 ° 0 min 0,000 mm 0,0 UV-I 53 W/m² 9,5 °C 10,6 °C 0,0 km/h (0 Bft)
06.09.2019 14:26 10,7 °C 93 % 1019,9 hPa 0,0 mm 0,0 km/h (0 Bft) O 97 ° 0 min 0,000 mm 0,0 UV-I 54 W/m² 9,6 °C 10,7 °C 0,0 km/h (0 Bft)
06.09.2019 14:27 10,7 °C 93 % 1019,8 hPa 0,0 mm 0,0 km/h (0 Bft) O 97 ° 0 min 0,000 mm 0,5 UV-I 56 W/m² 9,6 °C 10,7 °C 0,0 km/h (0 Bft)
06.09.2019 14:28 10,7 °C 92 % 1019,8 hPa 0,0 mm 0,0 km/h (0 Bft) O 97 ° 0 min 0,000 mm 0,5 UV-I 58 W/m² 9,5 °C 10,7 °C 0,0 km/h (0 Bft)
06.09.2019 14:29 10,7 °C 92 % 1019,8 hPa 0,0 mm 0,0 km/h (0 Bft) O 97 ° 0 min 0,000 mm 0,5 UV-I 60 W/m² 9,5 °C 10,7 °C 0,0 km/h (0 Bft)
06.09.2019 14:30 10,7 °C 92 % 1019,8 hPa 0,0 mm 0,0 km/h (0 Bft) O 97 ° 0 min 0,000 mm 0,5 UV-I 60 W/m² 9,5 °C 10,7 °C 0,0 km/h (0 Bft)
06.09.2019 14:31 10,7 °C 93 % 1019,8 hPa 0,0 mm 0,0 km/h (0 Bft) O 97 ° 0 min 0,000 mm 0,5 UV-I 60 W/m² 9,6 °C 10,7 °C 0,0 km/h (0 Bft)
06.09.2019 14:32 10,7 °C 93 % 1019,8 hPa 0,0 mm 0,0 km/h (0 Bft) O 97 ° 0 min 0,000 mm 0,5 UV-I 60 W/m² 9,6 °C 10,7 °C 0,0 km/h (0 Bft)
06.09.2019 14:33 10,7 °C 93 % 1019,8 hPa 0,0 mm 0,0 km/h (0 Bft) O 97 ° 0 min 0,000 mm 0,5 UV-I 60 W/m² 9,6 °C 10,7 °C 0,0 km/h (0 Bft)
06.09.2019 14:34 10,7 °C 93 % 1019,8 hPa 0,0 mm 0,0 km/h (0 Bft) O 97 ° 0 min 0,000 mm 0,5 UV-I 60 W/m² 9,6 °C 10,7 °C 0,0 km/h (0 Bft)
06.09.2019 14:35 10,7 °C 93 % 1019,8 hPa 0,0 mm 0,0 km/h (0 Bft) O 97 ° 0 min 0,000 mm 0,5 UV-I 60 W/m² 9,6 °C 10,7 °C 0,0 km/h (0 Bft)
06.09.2019 14:36 10,7 °C 93 % 1019,8 hPa 0,0 mm 0,0 km/h (0 Bft) O 97 ° 0 min 0,000 mm 0,5 UV-I 62 W/m² 9,6 °C 10,7 °C 0,0 km/h (0 Bft)
06.09.2019 14:37 10,7 °C 92 % 1019,8 hPa 0,0 mm 0,0 km/h (0 Bft) O 97 ° 0 min 0,000 mm 0,5 UV-I 62 W/m² 9,5 °C 10,7 °C 0,0 km/h (0 Bft)
06.09.2019 14:38 10,7 °C 92 % 1019,8 hPa 0,0 mm 0,0 km/h (0 Bft) O 97 ° 0 min 0,000 mm 0,6 UV-I 63 W/m² 9,5 °C 10,7 °C 0,0 km/h (0 Bft)
06.09.2019 14:39 10,7 °C 92 % 1019,8 hPa 0,0 mm 0,0 km/h (0 Bft) O 97 ° 0 min 0,000 mm 0,6 UV-I 65 W/m² 9,5 °C 10,7 °C 0,0 km/h (0 Bft)
06.09.2019 14:40 10,7 °C 93 % 1019,7 hPa 0,0 mm 0,0 km/h (0 Bft) O 97 ° 0 min 0,000 mm 0,6 UV-I 69 W/m² 9,6 °C 10,7 °C 0,0 km/h (0 Bft)
06.09.2019 14:41 10,7 °C 93 % 1019,7 hPa 0,0 mm 0,0 km/h (0 Bft) O 97 ° 0 min 0,000 mm 0,6 UV-I 69 W/m² 9,6 °C 10,7 °C 0,0 km/h (0 Bft)
06.09.2019 14:42 10,8 °C 93 % 1019,7 hPa 0,0 mm 0,0 km/h (0 Bft) O 97 ° 0 min 0,000 mm 0,6 UV-I 70 W/m² 9,7 °C 10,8 °C 0,0 km/h (0 Bft)
06.09.2019 14:43 10,8 °C 92 % 1019,7 hPa 0,0 mm 0,0 km/h (0 Bft) O 97 ° 0 min 0,000 mm 0,6 UV-I 72 W/m² 9,6 °C 10,8 °C 0,0 km/h (0 Bft)
06.09.2019 14:44 10,8 °C 92 % 1019,7 hPa 0,0 mm 0,0 km/h (0 Bft) O 97 ° 0 min 0,000 mm 0,6 UV-I 74 W/m² 9,6 °C 10,8 °C 0,0 km/h (0 Bft)
06.09.2019 14:45 10,8 °C 92 % 1019,7 hPa 0,0 mm 0,0 km/h (0 Bft) O 97 ° 0 min 0,000 mm 0,7 UV-I 76 W/m² 9,6 °C 10,8 °C 0,0 km/h (0 Bft)
06.09.2019 14:46 10,8 °C 92 % 1019,8 hPa 0,0 mm 0,0 km/h (0 Bft) O 97 ° 0 min 0,000 mm 0,7 UV-I 77 W/m² 9,6 °C 10,8 °C 0,0 km/h (0 Bft)
06.09.2019 14:47 10,8 °C 92 % 1019,7 hPa 0,0 mm 0,0 km/h (0 Bft) O 97 ° 0 min 0,000 mm 0,7 UV-I 81 W/m² 9,6 °C 10,8 °C 0,0 km/h (0 Bft)
06.09.2019 14:48 10,9 °C 92 % 1019,6 hPa 0,0 mm 0,0 km/h (0 Bft) O 97 ° 0 min 0,000 mm 0,7 UV-I 83 W/m² 9,7 °C 10,9 °C 0,0 km/h (0 Bft)
06.09.2019 14:49 10,9 °C 92 % 1019,6 hPa 0,0 mm 0,0 km/h (0 Bft) O 97 ° 0 min 0,000 mm 0,7 UV-I 84 W/m² 9,7 °C 10,9 °C 0,0 km/h (0 Bft)
06.09.2019 14:50 10,9 °C 92 % 1019,6 hPa 0,0 mm 0,0 km/h (0 Bft) O 97 ° 0 min 0,000 mm 0,8 UV-I 86 W/m² 9,7 °C 10,9 °C 0,0 km/h (0 Bft)
06.09.2019 14:51 10,9 °C 92 % 1019,7 hPa 0,0 mm 0,0 km/h (0 Bft) O 97 ° 0 min 0,000 mm 0,8 UV-I 90 W/m² 9,7 °C 10,9 °C 0,0 km/h (0 Bft)
06.09.2019 14:52 10,9 °C 92 % 1019,6 hPa 0,0 mm 0,0 km/h (0 Bft) O 97 ° 0 min 0,000 mm 0,8 UV-I 95 W/m² 9,7 °C 10,9 °C 0,0 km/h (0 Bft)
06.09.2019 14:53 10,9 °C 92 % 1019,7 hPa 0,0 mm 0,0 km/h (0 Bft) O 97 ° 0 min 0,000 mm 0,9 UV-I 97 W/m² 9,7 °C 10,9 °C 0,0 km/h (0 Bft)
06.09.2019 14:54 10,9 °C 92 % 1019,6 hPa 0,0 mm 0,0 km/h (0 Bft) O 97 ° 0 min 0,000 mm 0,9 UV-I 98 W/m² 9,7 °C 10,9 °C 0,0 km/h (0 Bft)
06.09.2019 14:55 11,0 °C 92 % 1019,7 hPa 0,0 mm 0,0 km/h (0 Bft) O 96 ° 0 min 0,000 mm 0,9 UV-I 100 W/m² 9,8 °C 11,0 °C 0,0 km/h (0 Bft)
06.09.2019 14:56 11,0 °C 92 % 1019,6 hPa 0,0 mm 0,0 km/h (0 Bft) O-NO 65 ° 0 min 0,000 mm 0,9 UV-I 102 W/m² 9,8 °C 11,0 °C 0,0 km/h (0 Bft)
06.09.2019 14:57 11,1 °C 91 % 1019,6 hPa 0,0 mm 0,0 km/h (0 Bft) O-NO 65 ° 0 min 0,000 mm 0,9 UV-I 104 W/m² 9,7 °C 11,1 °C 0,0 km/h (0 Bft)
06.09.2019 14:58 11,1 °C 91 % 1019,6 hPa 0,0 mm 0,5 km/h (0 Bft) O-NO 65 ° 0 min 0,000 mm 0,9 UV-I 105 W/m² 9,7 °C 11,1 °C 3,2 km/h (1 Bft)
06.09.2019 14:59 11,1 °C 92 % 1019,6 hPa 0,0 mm 1,0 km/h (0 Bft) O-NO 65 ° 0 min 0,000 mm 0,9 UV-I 105 W/m² 9,8 °C 11,1 °C 3,2 km/h (1 Bft)
06.09.2019 15:00 11,1 °C 91 % 1019,6 hPa 0,0 mm 0,2 km/h (0 Bft) O-NO 65 ° 0 min 0,000 mm 0,9 UV-I 105 W/m² 9,7 °C 11,1 °C 1,6 km/h (1 Bft)
06.09.2019 15:01 11,2 °C 91 % 1019,6 hPa 0,0 mm 0,0 km/h (0 Bft) O-NO 65 ° 0 min 0,025 mm 0,9 UV-I 107 W/m² 9,8 °C 11,2 °C 0,0 km/h (0 Bft)
06.09.2019 15:02 11,2 °C 91 % 1019,6 hPa 0,0 mm 0,0 km/h (0 Bft) O-NO 65 ° 0 min 0,000 mm 0,9 UV-I 109 W/m² 9,8 °C 11,2 °C 0,0 km/h (0 Bft)
06.09.2019 15:03 11,2 °C 91 % 1019,6 hPa 0,0 mm 1,2 km/h (1 Bft) O 89 ° 0 min 0,000 mm 0,9 UV-I 111 W/m² 9,8 °C 11,2 °C 3,2 km/h (1 Bft)
06.09.2019 15:04 11,2 °C 91 % 1019,6 hPa 0,0 mm 0,0 km/h (0 Bft) O 89 ° 0 min 0,000 mm 0,9 UV-I 109 W/m² 9,8 °C 11,2 °C 0,0 km/h (0 Bft)
06.09.2019 15:05 11,2 °C 91 % 1019,6 hPa 0,0 mm 0,0 km/h (0 Bft) O 89 ° 0 min 0,000 mm 0,9 UV-I 107 W/m² 9,8 °C 11,2 °C 0,0 km/h (0 Bft)
06.09.2019 15:06 11,3 °C 91 % 1019,6 hPa 0,0 mm 0,0 km/h (0 Bft) O 89 ° 0 min 0,000 mm 0,9 UV-I 105 W/m² 9,9 °C 11,3 °C 0,0 km/h (0 Bft)
06.09.2019 15:07 11,3 °C 91 % 1019,6 hPa 0,0 mm 0,0 km/h (0 Bft) O 89 ° 0 min 0,000 mm 0,8 UV-I 102 W/m² 9,9 °C 11,3 °C 0,0 km/h (0 Bft)
06.09.2019 15:08 11,2 °C 91 % 1019,6 hPa 0,0 mm 0,0 km/h (0 Bft) O 80 ° 0 min 0,000 mm 0,8 UV-I 98 W/m² 9,8 °C 11,2 °C 0,0 km/h (0 Bft)
06.09.2019 15:09 11,3 °C 91 % 1019,6 hPa 0,0 mm 0,0 km/h (0 Bft) O-NO 78 ° 0 min 0,000 mm 0,8 UV-I 93 W/m² 9,9 °C 11,3 °C 0,0 km/h (0 Bft)
06.09.2019 15:10 11,3 °C 91 % 1019,6 hPa 0,0 mm 2,1 km/h (1 Bft) O-NO 78 ° 0 min 0,000 mm 0,7 UV-I 84 W/m² 9,9 °C 11,3 °C 4,8 km/h (1 Bft)
06.09.2019 15:11 11,3 °C 91 % 1019,6 hPa 0,0 mm 1,5 km/h (1 Bft) O-NO 78 ° 0 min 0,000 mm 0,7 UV-I 83 W/m² 9,9 °C 11,3 °C 4,8 km/h (1 Bft)
06.09.2019 15:12 11,3 °C 91 % 1019,6 hPa 0,0 mm 0,0 km/h (0 Bft) O 88 ° 0 min 0,000 mm 0,7 UV-I 81 W/m² 9,9 °C 11,3 °C 0,0 km/h (0 Bft)
06.09.2019 15:13 11,2 °C 91 % 1019,6 hPa 0,0 mm 0,4 km/h (0 Bft) O 88 ° 0 min 0,000 mm 0,7 UV-I 81 W/m² 9,8 °C 11,2 °C 3,2 km/h (1 Bft)
06.09.2019 15:14 11,3 °C 91 % 1019,5 hPa 0,0 mm 0,6 km/h (0 Bft) O 88 ° 0 min 0,000 mm 0,7 UV-I 83 W/m² 9,9 °C 11,3 °C 1,6 km/h (1 Bft)
06.09.2019 15:15 11,3 °C 91 % 1019,6 hPa 0,0 mm 0,1 km/h (0 Bft) O 88 ° 0 min 0,000 mm 0,7 UV-I 83 W/m² 9,9 °C 11,3 °C 1,6 km/h (1 Bft)
06.09.2019 15:16 11,3 °C 91 % 1019,5 hPa 0,0 mm 0,0 km/h (0 Bft) O 88 ° 0 min 0,000 mm 0,7 UV-I 88 W/m² 9,9 °C 11,3 °C 0,0 km/h (0 Bft)
06.09.2019 15:17 11,2 °C 91 % 1019,5 hPa 0,0 mm 0,3 km/h (0 Bft) O 88 ° 0 min 0,000 mm 0,8 UV-I 91 W/m² 9,8 °C 11,2 °C 1,6 km/h (1 Bft)
06.09.2019 15:18 11,2 °C 91 % 1019,5 hPa 0,0 mm 2,7 km/h (1 Bft) O 88 ° 0 min 0,000 mm 0,8 UV-I 91 W/m² 9,8 °C 11,2 °C 4,8 km/h (1 Bft)
06.09.2019 15:19 11,2 °C 91 % 1019,4 hPa 0,0 mm 0,0 km/h (0 Bft) O 88 ° 0 min 0,000 mm 0,8 UV-I 97 W/m² 9,8 °C 11,2 °C 0,0 km/h (0 Bft)
06.09.2019 15:20 11,2 °C 92 % 1019,4 hPa 0,0 mm 0,0 km/h (0 Bft) O 88 ° 0 min 0,000 mm 0,8 UV-I 98 W/m² 9,9 °C 11,2 °C 0,0 km/h (0 Bft)
06.09.2019 15:21 11,2 °C 92 % 1019,4 hPa 0,0 mm 0,0 km/h (0 Bft) O 88 ° 0 min 0,000 mm 0,8 UV-I 100 W/m² 9,9 °C 11,2 °C 0,0 km/h (0 Bft)
06.09.2019 15:22 11,2 °C 91 % 1019,4 hPa 0,0 mm 0,7 km/h (0 Bft) O 88 ° 0 min 0,000 mm 0,8 UV-I 104 W/m² 9,8 °C 11,2 °C 3,2 km/h (1 Bft)
06.09.2019 15:23 11,2 °C 91 % 1019,4 hPa 0,0 mm 0,9 km/h (0 Bft) O 88 ° 0 min 0,000 mm 0,9 UV-I 104 W/m² 9,8 °C 11,2 °C 3,2 km/h (1 Bft)
06.09.2019 15:24 11,2 °C 91 % 1019,4 hPa 0,0 mm 0,0 km/h (0 Bft) O 88 ° 0 min 0,000 mm 0,9 UV-I 105 W/m² 9,8 °C 11,2 °C 0,0 km/h (0 Bft)
06.09.2019 15:25 11,2 °C 91 % 1019,4 hPa 0,0 mm 0,0 km/h (0 Bft) O 88 ° 0 min 0,000 mm 0,9 UV-I 105 W/m² 9,8 °C 11,2 °C 0,0 km/h (0 Bft)
06.09.2019 15:26 11,2 °C 91 % 1019,4 hPa 0,0 mm 0,0 km/h (0 Bft) O 88 ° 0 min 0,000 mm 0,9 UV-I 104 W/m² 9,8 °C 11,2 °C 0,0 km/h (0 Bft)
06.09.2019 15:27 11,2 °C 91 % 1019,4 hPa 0,0 mm 0,0 km/h (0 Bft) O 88 ° 0 min 0,000 mm 0,9 UV-I 100 W/m² 9,8 °C 11,2 °C 0,0 km/h (0 Bft)
06.09.2019 15:28 11,2 °C 91 % 1019,4 hPa 0,0 mm 0,0 km/h (0 Bft) O 88 ° 0 min 0,000 mm 0,8 UV-I 98 W/m² 9,8 °C 11,2 °C 0,0 km/h (0 Bft)
06.09.2019 15:29 11,2 °C 91 % 1019,4 hPa 0,0 mm 0,0 km/h (0 Bft) O 88 ° 0 min 0,000 mm 0,8 UV-I 95 W/m² 9,8 °C 11,2 °C 0,0 km/h (0 Bft)
06.09.2019 15:30 11,2 °C 91 % 1019,4 hPa 0,0 mm 0,0 km/h (0 Bft) O 88 ° 0 min 0,000 mm 0,8 UV-I 91 W/m² 9,8 °C 11,2 °C 0,0 km/h (0 Bft)
06.09.2019 15:31 11,2 °C 91 % 1019,4 hPa 0,0 mm 0,0 km/h (0 Bft) O 88 ° 0 min 0,000 mm 0,7 UV-I 90 W/m² 9,8 °C 11,2 °C 0,0 km/h (0 Bft)
06.09.2019 15:32 11,3 °C 91 % 1019,4 hPa 0,0 mm 0,0 km/h (0 Bft) O 88 ° 0 min 0,000 mm 0,7 UV-I 88 W/m² 9,9 °C 11,3 °C 0,0 km/h (0 Bft)
06.09.2019 15:33 11,3 °C 92 % 1019,4 hPa 0,0 mm 0,0 km/h (0 Bft) O 88 ° 0 min 0,000 mm 0,7 UV-I 83 W/m² 10,0 °C 11,3 °C 0,0 km/h (0 Bft)
06.09.2019 15:34 11,3 °C 92 % 1019,4 hPa 0,0 mm 0,0 km/h (0 Bft) O 88 ° 0 min 0,000 mm 0,7 UV-I 83 W/m² 10,0 °C 11,3 °C 0,0 km/h (0 Bft)
06.09.2019 15:35 11,4 °C 92 % 1019,4 hPa 0,0 mm 0,0 km/h (0 Bft) O 88 ° 0 min 0,000 mm 0,7 UV-I 81 W/m² 10,1 °C 11,4 °C 0,0 km/h (0 Bft)
06.09.2019 15:36 11,4 °C 92 % 1019,4 hPa 0,0 mm 0,0 km/h (0 Bft) O 88 ° 0 min 0,000 mm 0,7 UV-I 81 W/m² 10,1 °C 11,4 °C 0,0 km/h (0 Bft)
06.09.2019 15:37 11,3 °C 91 % 1019,3 hPa 0,0 mm 0,0 km/h (0 Bft) O 88 ° 0 min 0,000 mm 0,7 UV-I 79 W/m² 9,9 °C 11,3 °C 0,0 km/h (0 Bft)
06.09.2019 15:38 11,3 °C 91 % 1019,4 hPa 0,0 mm 0,0 km/h (0 Bft) O 88 ° 0 min 0,000 mm 0,6 UV-I 79 W/m² 9,9 °C 11,3 °C 0,0 km/h (0 Bft)
06.09.2019 15:39 11,3 °C 91 % 1019,4 hPa 0,0 mm 0,0 km/h (0 Bft) O 88 ° 0 min 0,000 mm 0,6 UV-I 77 W/m² 9,9 °C 11,3 °C 0,0 km/h (0 Bft)
06.09.2019 15:40 11,3 °C 91 % 1019,3 hPa 0,0 mm 0,1 km/h (0 Bft) O 88 ° 0 min 0,000 mm 0,6 UV-I 77 W/m² 9,9 °C 11,3 °C 1,6 km/h (1 Bft)
06.09.2019 15:41 11,3 °C 91 % 1019,4 hPa 0,0 mm 0,0 km/h (0 Bft) O 88 ° 0 min 0,000 mm 0,6 UV-I 77 W/m² 9,9 °C 11,3 °C 0,0 km/h (0 Bft)
06.09.2019 15:42 11,3 °C 91 % 1019,3 hPa 0,0 mm 0,0 km/h (0 Bft) O-NO 76 ° 0 min 0,000 mm 0,6 UV-I 77 W/m² 9,9 °C 11,3 °C 0,0 km/h (0 Bft)
06.09.2019 15:43 11,3 °C 91 % 1019,3 hPa 0,0 mm 0,0 km/h (0 Bft) O-NO 76 ° 0 min 0,000 mm 0,6 UV-I 77 W/m² 9,9 °C 11,3 °C 0,0 km/h (0 Bft)
06.09.2019 15:44 11,3 °C 90 % 1019,3 hPa 0,0 mm 0,0 km/h (0 Bft) O-NO 76 ° 0 min 0,000 mm 0,6 UV-I 77 W/m² 9,7 °C 11,3 °C 0,0 km/h (0 Bft)
06.09.2019 15:45 11,3 °C 90 % 1019,3 hPa 0,0 mm 0,0 km/h (0 Bft) O-NO 76 ° 0 min 0,000 mm 0,6 UV-I 79 W/m² 9,7 °C 11,3 °C 0,0 km/h (0 Bft)
06.09.2019 15:46 11,3 °C 91 % 1019,3 hPa 0,0 mm 0,0 km/h (0 Bft) O-NO 75 ° 0 min 0,000 mm 0,6 UV-I 79 W/m² 9,9 °C 11,3 °C 0,0 km/h (0 Bft)
06.09.2019 15:47 11,3 °C 91 % 1019,2 hPa 0,0 mm 0,0 km/h (0 Bft) O-NO 75 ° 0 min 0,000 mm 0,6 UV-I 81 W/m² 9,9 °C 11,3 °C 0,0 km/h (0 Bft)
06.09.2019 15:48 11,3 °C 90 % 1019,2 hPa 0,0 mm 0,0 km/h (0 Bft) O-NO 75 ° 0 min 0,000 mm 0,6 UV-I 81 W/m² 9,7 °C 11,3 °C 0,0 km/h (0 Bft)
06.09.2019 15:49 11,3 °C 91 % 1019,2 hPa 0,0 mm 0,0 km/h (0 Bft) O-NO 75 ° 0 min 0,000 mm 0,6 UV-I 81 W/m² 9,9 °C 11,3 °C 0,0 km/h (0 Bft)
06.09.2019 15:50 11,3 °C 91 % 1019,2 hPa 0,0 mm 0,0 km/h (0 Bft) O-NO 75 ° 0 min 0,000 mm 0,6 UV-I 81 W/m² 9,9 °C 11,3 °C 0,0 km/h (0 Bft)
06.09.2019 15:51 11,3 °C 91 % 1019,2 hPa 0,0 mm 0,0 km/h (0 Bft) O-NO 75 ° 0 min 0,000 mm 0,6 UV-I 79 W/m² 9,9 °C 11,3 °C 0,0 km/h (0 Bft)
06.09.2019 15:52 11,3 °C 91 % 1019,2 hPa 0,0 mm 0,0 km/h (0 Bft) O-NO 76 ° 0 min 0,000 mm 0,6 UV-I 79 W/m² 9,9 °C 11,3 °C 0,0 km/h (0 Bft)
06.09.2019 15:53 11,3 °C 91 % 1019,2 hPa 0,0 mm 0,0 km/h (0 Bft) O-NO 76 ° 0 min 0,000 mm 0,6 UV-I 79 W/m² 9,9 °C 11,3 °C 0,0 km/h (0 Bft)
06.09.2019 15:54 11,3 °C 90 % 1019,2 hPa 0,0 mm 0,0 km/h (0 Bft) O-NO 76 ° 0 min 0,000 mm 0,6 UV-I 79 W/m² 9,7 °C 11,3 °C 0,0 km/h (0 Bft)
06.09.2019 15:55 11,3 °C 90 % 1019,2 hPa 0,0 mm 0,0 km/h (0 Bft) O-NO 75 ° 0 min 0,000 mm 0,6 UV-I 79 W/m² 9,7 °C 11,3 °C 0,0 km/h (0 Bft)
06.09.2019 15:56 11,3 °C 91 % 1019,2 hPa 0,0 mm 0,0 km/h (0 Bft) O-NO 75 ° 0 min 0,000 mm 0,6 UV-I 79 W/m² 9,9 °C 11,3 °C 0,0 km/h (0 Bft)
06.09.2019 15:57 11,3 °C 91 % 1019,2 hPa 0,0 mm 0,0 km/h (0 Bft) O-NO 76 ° 0 min 0,000 mm 0,6 UV-I 77 W/m² 9,9 °C 11,3 °C 0,0 km/h (0 Bft)
06.09.2019 15:58 11,4 °C 91 % 1019,2 hPa 0,0 mm 0,0 km/h (0 Bft) O-NO 76 ° 0 min 0,000 mm 0,6 UV-I 77 W/m² 10,0 °C 11,4 °C 0,0 km/h (0 Bft)
06.09.2019 15:59 11,4 °C 91 % 1019,2 hPa 0,0 mm 0,0 km/h (0 Bft) O-NO 75 ° 0 min 0,000 mm 0,6 UV-I 77 W/m² 10,0 °C 11,4 °C 0,0 km/h (0 Bft)
06.09.2019 16:00 11,4 °C 91 % 1019,3 hPa 0,0 mm 0,0 km/h (0 Bft) O-NO 75 ° 0 min 0,000 mm 0,6 UV-I 77 W/m² 10,0 °C 11,4 °C 0,0 km/h (0 Bft)
06.09.2019 16:01 11,4 °C 91 % 1019,2 hPa 0,0 mm 0,0 km/h (0 Bft) O-NO 75 ° 0 min 0,051 mm 0,6 UV-I 76 W/m² 10,0 °C 11,4 °C 0,0 km/h (0 Bft)
06.09.2019 16:02 11,4 °C 90 % 1019,2 hPa 0,0 mm 0,2 km/h (0 Bft) NO 51 ° 0 min 0,000 mm 0,6 UV-I 74 W/m² 9,8 °C 11,4 °C 3,2 km/h (1 Bft)
06.09.2019 16:03 11,4 °C 90 % 1019,2 hPa 0,0 mm 2,2 km/h (1 Bft) NO 51 ° 0 min 0,000 mm 0,6 UV-I 74 W/m² 9,8 °C 11,4 °C 4,8 km/h (1 Bft)
06.09.2019 16:04 11,4 °C 90 % 1019,2 hPa 0,0 mm 1,1 km/h (1 Bft) NO 51 ° 0 min 0,000 mm 0,6 UV-I 74 W/m² 9,8 °C 11,4 °C 3,2 km/h (1 Bft)
06.09.2019 16:05 11,4 °C 90 % 1019,2 hPa 0,0 mm 2,1 km/h (1 Bft) NO 51 ° 0 min 0,000 mm 0,6 UV-I 72 W/m² 9,8 °C 11,4 °C 3,2 km/h (1 Bft)
06.09.2019 16:06 11,4 °C 90 % 1019,2 hPa 0,0 mm 0,0 km/h (0 Bft) NO 51 ° 0 min 0,000 mm 0,6 UV-I 70 W/m² 9,8 °C 11,4 °C 0,0 km/h (0 Bft)
06.09.2019 16:07 11,4 °C 91 % 1019,2 hPa 0,0 mm 0,0 km/h (0 Bft) NO 51 ° 0 min 0,000 mm 0,5 UV-I 69 W/m² 10,0 °C 11,4 °C 0,0 km/h (0 Bft)
06.09.2019 16:08 11,4 °C 91 % 1019,2 hPa 0,0 mm 0,0 km/h (0 Bft) NO 51 ° 0 min 0,000 mm 0,5 UV-I 65 W/m² 10,0 °C 11,4 °C 0,0 km/h (0 Bft)
06.09.2019 16:09 11,4 °C 91 % 1019,2 hPa 0,0 mm 0,0 km/h (0 Bft) NO 51 ° 0 min 0,000 mm 0,5 UV-I 63 W/m² 10,0 °C 11,4 °C 0,0 km/h (0 Bft)
06.09.2019 16:10 11,3 °C 90 % 1019,2 hPa 0,0 mm 0,0 km/h (0 Bft) NO 51 ° 0 min 0,000 mm 0,5 UV-I 62 W/m² 9,7 °C 11,3 °C 0,0 km/h (0 Bft)
06.09.2019 16:11 11,3 °C 90 % 1019,2 hPa 0,0 mm 0,0 km/h (0 Bft) NO 51 ° 0 min 0,000 mm 0,5 UV-I 62 W/m² 9,7 °C 11,3 °C 0,0 km/h (0 Bft)
06.09.2019 16:12 11,3 °C 91 % 1019,2 hPa 0,0 mm 0,0 km/h (0 Bft) NO 51 ° 0 min 0,000 mm 0,5 UV-I 60 W/m² 9,9 °C 11,3 °C 0,0 km/h (0 Bft)
06.09.2019 16:13 11,3 °C 91 % 1019,1 hPa 0,0 mm 0,0 km/h (0 Bft) NO 51 ° 0 min 0,000 mm 0,5 UV-I 58 W/m² 9,9 °C 11,3 °C 0,0 km/h (0 Bft)
06.09.2019 16:14 11,3 °C 91 % 1019,1 hPa 0,0 mm 0,0 km/h (0 Bft) NO 51 ° 0 min 0,000 mm 0,0 UV-I 56 W/m² 9,9 °C 11,3 °C 0,0 km/h (0 Bft)
06.09.2019 16:15 11,3 °C 91 % 1019,1 hPa 0,0 mm 0,0 km/h (0 Bft) NO 51 ° 0 min 0,000 mm 0,0 UV-I 53 W/m² 9,9 °C 11,3 °C 0,0 km/h (0 Bft)
06.09.2019 16:16 11,3 °C 91 % 1019,1 hPa 0,0 mm 0,0 km/h (0 Bft) NO 51 ° 0 min 0,000 mm 0,0 UV-I 51 W/m² 9,9 °C 11,3 °C 0,0 km/h (0 Bft)
06.09.2019 16:17 11,3 °C 91 % 1019,1 hPa 0,0 mm 0,0 km/h (0 Bft) NO 51 ° 0 min 0,000 mm 0,0 UV-I 49 W/m² 9,9 °C 11,3 °C 0,0 km/h (0 Bft)
06.09.2019 16:18 11,3 °C 91 % 1019,1 hPa 0,0 mm 0,0 km/h (0 Bft) NO 51 ° 0 min 0,000 mm 0,0 UV-I 47 W/m² 9,9 °C 11,3 °C 0,0 km/h (0 Bft)
06.09.2019 16:19 11,3 °C 91 % 1019,1 hPa 0,0 mm 0,0 km/h (0 Bft) NO 51 ° 0 min 0,000 mm 0,0 UV-I 46 W/m² 9,9 °C 11,3 °C 0,0 km/h (0 Bft)
06.09.2019 16:20 11,3 °C 91 % 1019,1 hPa 0,0 mm 0,0 km/h (0 Bft) NO 51 ° 0 min 0,000 mm 0,0 UV-I 44 W/m² 9,9 °C 11,3 °C 0,0 km/h (0 Bft)
06.09.2019 16:21 11,3 °C 91 % 1019,2 hPa 0,0 mm 0,0 km/h (0 Bft) NO 51 ° 0 min 0,000 mm 0,0 UV-I 44 W/m² 9,9 °C 11,3 °C 0,0 km/h (0 Bft)
06.09.2019 16:22 11,3 °C 91 % 1019,2 hPa 0,0 mm 0,0 km/h (0 Bft) NO 51 ° 0 min 0,000 mm 0,0 UV-I 46 W/m² 9,9 °C 11,3 °C 0,0 km/h (0 Bft)
06.09.2019 16:23 11,3 °C 91 % 1019,1 hPa 0,0 mm 0,0 km/h (0 Bft) NO 51 ° 0 min 0,000 mm 0,0 UV-I 46 W/m² 9,9 °C 11,3 °C 0,0 km/h (0 Bft)
06.09.2019 16:24 11,3 °C 92 % 1019,1 hPa 0,0 mm 0,0 km/h (0 Bft) NO 51 ° 0 min 0,000 mm 0,0 UV-I 46 W/m² 10,0 °C 11,3 °C 0,0 km/h (0 Bft)
06.09.2019 16:25 11,3 °C 92 % 1019,1 hPa 0,0 mm 0,0 km/h (0 Bft) NO 51 ° 0 min 0,000 mm 0,0 UV-I 46 W/m² 10,0 °C 11,3 °C 0,0 km/h (0 Bft)
06.09.2019 16:26 11,3 °C 92 % 1019,1 hPa 0,0 mm 0,0 km/h (0 Bft) NO 51 ° 0 min 0,000 mm 0,0 UV-I 47 W/m² 10,0 °C 11,3 °C 0,0 km/h (0 Bft)
06.09.2019 16:27 11,3 °C 91 % 1019,0 hPa 0,0 mm 0,0 km/h (0 Bft) NO 51 ° 0 min 0,000 mm 0,0 UV-I 47 W/m² 9,9 °C 11,3 °C 0,0 km/h (0 Bft)
06.09.2019 16:28 11,3 °C 92 % 1019,1 hPa 0,0 mm 0,0 km/h (0 Bft) NO 51 ° 0 min 0,000 mm 0,0 UV-I 47 W/m² 10,0 °C 11,3 °C 0,0 km/h (0 Bft)
06.09.2019 16:29 11,3 °C 92 % 1019,1 hPa 0,0 mm 0,0 km/h (0 Bft) NO 51 ° 0 min 0,000 mm 0,0 UV-I 49 W/m² 10,0 °C 11,3 °C 0,0 km/h (0 Bft)
06.09.2019 16:30 11,3 °C 92 % 1019,1 hPa 0,0 mm 0,0 km/h (0 Bft) NO 51 ° 0 min 0,000 mm 0,0 UV-I 49 W/m² 10,0 °C 11,3 °C 0,0 km/h (0 Bft)
06.09.2019 16:31 11,3 °C 92 % 1019,1 hPa 0,0 mm 0,0 km/h (0 Bft) NO 51 ° 0 min 0,000 mm 0,0 UV-I 49 W/m² 10,0 °C 11,3 °C 0,0 km/h (0 Bft)
06.09.2019 16:32 11,3 °C 92 % 1019,1 hPa 0,0 mm 0,0 km/h (0 Bft) NO 51 ° 0 min 0,000 mm 0,0 UV-I 49 W/m² 10,0 °C 11,3 °C 0,0 km/h (0 Bft)
06.09.2019 16:33 11,3 °C 92 % 1019,1 hPa 0,0 mm 0,0 km/h (0 Bft) NO 51 ° 0 min 0,000 mm 0,0 UV-I 49 W/m² 10,0 °C 11,3 °C 0,0 km/h (0 Bft)
06.09.2019 16:34 11,3 °C 92 % 1019,1 hPa 0,0 mm 0,0 km/h (0 Bft) NO 51 ° 0 min 0,000 mm 0,0 UV-I 49 W/m² 10,0 °C 11,3 °C 0,0 km/h (0 Bft)
06.09.2019 16:35 11,3 °C 92 % 1019,1 hPa 0,0 mm 0,0 km/h (0 Bft) NO 51 ° 0 min 0,000 mm 0,0 UV-I 49 W/m² 10,0 °C 11,3 °C 0,0 km/h (0 Bft)
06.09.2019 16:36 11,3 °C 92 % 1019,0 hPa 0,0 mm 1,5 km/h (1 Bft) NO 51 ° 0 min 0,000 mm 0,0 UV-I 49 W/m² 10,0 °C 11,3 °C 4,8 km/h (1 Bft)
06.09.2019 16:37 11,3 °C 92 % 1019,1 hPa 0,0 mm 0,0 km/h (0 Bft) NO 51 ° 0 min 0,000 mm 0,0 UV-I 49 W/m² 10,0 °C 11,3 °C 0,0 km/h (0 Bft)
06.09.2019 16:38 11,2 °C 92 % 1019,1 hPa 0,0 mm 0,0 km/h (0 Bft) NO 51 ° 0 min 0,000 mm 0,0 UV-I 49 W/m² 9,9 °C 11,2 °C 0,0 km/h (0 Bft)
06.09.2019 16:39 11,3 °C 92 % 1019,1 hPa 0,0 mm 0,0 km/h (0 Bft) NO 51 ° 0 min 0,000 mm 0,0 UV-I 49 W/m² 10,0 °C 11,3 °C 0,0 km/h (0 Bft)
06.09.2019 16:40 11,3 °C 92 % 1019,1 hPa 0,0 mm 0,0 km/h (0 Bft) NO 51 ° 0 min 0,000 mm 0,0 UV-I 49 W/m² 10,0 °C 11,3 °C 0,0 km/h (0 Bft)
06.09.2019 16:41 11,3 °C 92 % 1019,0 hPa 0,0 mm 0,0 km/h (0 Bft) NO 51 ° 0 min 0,000 mm 0,0 UV-I 49 W/m² 10,0 °C 11,3 °C 0,0 km/h (0 Bft)
06.09.2019 16:42 11,3 °C 92 % 1019,0 hPa 0,0 mm 0,0 km/h (0 Bft) NO 51 ° 0 min 0,000 mm 0,0 UV-I 49 W/m² 10,0 °C 11,3 °C 0,0 km/h (0 Bft)
06.09.2019 16:43 11,3 °C 92 % 1019,1 hPa 0,0 mm 0,0 km/h (0 Bft) NO 51 ° 0 min 0,000 mm 0,0 UV-I 47 W/m² 10,0 °C 11,3 °C 0,0 km/h (0 Bft)
06.09.2019 16:44 11,3 °C 92 % 1019,0 hPa 0,0 mm 0,1 km/h (0 Bft) NO 51 ° 0 min 0,000 mm 0,0 UV-I 44 W/m² 10,0 °C 11,3 °C 1,6 km/h (1 Bft)
06.09.2019 16:45 11,3 °C 92 % 1019,1 hPa 0,0 mm 0,0 km/h (0 Bft) NO 51 ° 0 min 0,000 mm 0,0 UV-I 42 W/m² 10,0 °C 11,3 °C 0,0 km/h (0 Bft)
06.09.2019 16:46 11,3 °C 92 % 1019,1 hPa 0,0 mm 0,0 km/h (0 Bft) NO 51 ° 0 min 0,000 mm 0,0 UV-I 40 W/m² 10,0 °C 11,3 °C 0,0 km/h (0 Bft)
06.09.2019 16:47 11,3 °C 92 % 1019,1 hPa 0,0 mm 0,0 km/h (0 Bft) NO 51 ° 0 min 0,000 mm 0,0 UV-I 39 W/m² 10,0 °C 11,3 °C 0,0 km/h (0 Bft)
06.09.2019 16:48 11,3 °C 92 % 1019,1 hPa 0,0 mm 0,0 km/h (0 Bft) NO 51 ° 0 min 0,000 mm 0,0 UV-I 39 W/m² 10,0 °C 11,3 °C 0,0 km/h (0 Bft)
06.09.2019 16:49 11,3 °C 92 % 1019,1 hPa 0,0 mm 0,0 km/h (0 Bft) NO 51 ° 0 min 0,000 mm 0,0 UV-I 37 W/m² 10,0 °C 11,3 °C 0,0 km/h (0 Bft)
06.09.2019 16:50 11,3 °C 92 % 1019,0 hPa 0,0 mm 0,3 km/h (0 Bft) NO 51 ° 0 min 0,000 mm 0,0 UV-I 35 W/m² 10,0 °C 11,3 °C 3,2 km/h (1 Bft)
06.09.2019 16:51 11,3 °C 92 % 1019,0 hPa 0,0 mm 1,7 km/h (1 Bft) NO 51 ° 0 min 0,000 mm 0,0 UV-I 33 W/m² 10,0 °C 11,3 °C 3,2 km/h (1 Bft)
06.09.2019 16:52 11,2 °C 92 % 1019,0 hPa 0,0 mm 0,4 km/h (0 Bft) NW 307 ° 0 min 0,000 mm 0,0 UV-I 33 W/m² 9,9 °C 11,2 °C 1,6 km/h (1 Bft)
06.09.2019 16:53 11,2 °C 92 % 1019,0 hPa 0,0 mm 2,3 km/h (1 Bft) N-NO 20 ° 0 min 0,000 mm 0,0 UV-I 32 W/m² 9,9 °C 11,2 °C 3,2 km/h (1 Bft)
06.09.2019 16:54 11,2 °C 92 % 1019,0 hPa 0,0 mm 0,5 km/h (0 Bft) N-NO 20 ° 0 min 0,000 mm 0,0 UV-I 32 W/m² 9,9 °C 11,2 °C 1,6 km/h (1 Bft)
06.09.2019 16:55 11,2 °C 92 % 1019,0 hPa 0,0 mm 0,0 km/h (0 Bft) N-NO 20 ° 0 min 0,000 mm 0,0 UV-I 30 W/m² 9,9 °C 11,2 °C 0,0 km/h (0 Bft)
06.09.2019 16:56 11,2 °C 92 % 1019,0 hPa 0,0 mm 0,0 km/h (0 Bft) N-NO 20 ° 0 min 0,000 mm 0,0 UV-I 28 W/m² 9,9 °C 11,2 °C 0,0 km/h (0 Bft)
06.09.2019 16:57 11,2 °C 92 % 1019,0 hPa 0,0 mm 0,0 km/h (0 Bft) N-NO 20 ° 0 min 0,000 mm 0,0 UV-I 28 W/m² 9,9 °C 11,2 °C 0,0 km/h (0 Bft)
06.09.2019 16:58 11,2 °C 92 % 1019,0 hPa 0,0 mm 0,0 km/h (0 Bft) N-NO 20 ° 0 min 0,000 mm 0,0 UV-I 28 W/m² 9,9 °C 11,2 °C 0,0 km/h (0 Bft)
06.09.2019 16:59 11,2 °C 92 % 1019,0 hPa 0,0 mm 0,0 km/h (0 Bft) N-NO 20 ° 0 min 0,000 mm 0,0 UV-I 26 W/m² 9,9 °C 11,2 °C 0,0 km/h (0 Bft)
06.09.2019 17:00 11,3 °C 92 % 1019,0 hPa 0,0 mm 0,0 km/h (0 Bft) N-NO 20 ° 0 min 0,000 mm 0,0 UV-I 26 W/m² 10,0 °C 11,3 °C 0,0 km/h (0 Bft)
06.09.2019 17:01 11,2 °C 92 % 1019,0 hPa 0,0 mm 3,1 km/h (1 Bft) N-NO 20 ° 0 min 0,025 mm 0,0 UV-I 26 W/m² 9,9 °C 11,2 °C 4,8 km/h (1 Bft)
06.09.2019 17:02 11,2 °C 92 % 1019,0 hPa 0,0 mm 0,8 km/h (0 Bft) N-NO 20 ° 0 min 0,000 mm 0,0 UV-I 25 W/m² 9,9 °C 11,2 °C 3,2 km/h (1 Bft)
06.09.2019 17:03 11,2 °C 92 % 1019,0 hPa 0,0 mm 0,0 km/h (0 Bft) N-NO 20 ° 0 min 0,000 mm 0,0 UV-I 25 W/m² 9,9 °C 11,2 °C 0,0 km/h (0 Bft)
06.09.2019 17:04 11,2 °C 92 % 1019,0 hPa 0,0 mm 0,0 km/h (0 Bft) N-NO 20 ° 0 min 0,000 mm 0,0 UV-I 25 W/m² 9,9 °C 11,2 °C 0,0 km/h (0 Bft)
06.09.2019 17:05 11,2 °C 92 % 1019,0 hPa 0,0 mm 0,0 km/h (0 Bft) N-NO 20 ° 0 min 0,000 mm 0,0 UV-I 25 W/m² 9,9 °C 11,2 °C 0,0 km/h (0 Bft)
06.09.2019 17:06 11,3 °C 92 % 1019,0 hPa 0,0 mm 0,2 km/h (0 Bft) N-NO 20 ° 0 min 0,000 mm 0,0 UV-I 25 W/m² 10,0 °C 11,3 °C 1,6 km/h (1 Bft)
06.09.2019 17:07 11,2 °C 92 % 1019,0 hPa 0,0 mm 0,4 km/h (0 Bft) N-NO 20 ° 0 min 0,000 mm 0,0 UV-I 25 W/m² 9,9 °C 11,2 °C 1,6 km/h (1 Bft)
06.09.2019 17:08 11,2 °C 92 % 1019,0 hPa 0,0 mm 0,0 km/h (0 Bft) N-NO 20 ° 0 min 0,000 mm 0,0 UV-I 23 W/m² 9,9 °C 11,2 °C 0,0 km/h (0 Bft)
06.09.2019 17:09 11,2 °C 92 % 1019,0 hPa 0,0 mm 0,0 km/h (0 Bft) N-NO 20 ° 0 min 0,000 mm 0,0 UV-I 23 W/m² 9,9 °C 11,2 °C 0,0 km/h (0 Bft)
06.09.2019 17:10 11,2 °C 92 % 1019,0 hPa 0,0 mm 0,0 km/h (0 Bft) N-NO 20 ° 0 min 0,000 mm 0,0 UV-I 23 W/m² 9,9 °C 11,2 °C 0,0 km/h (0 Bft)
06.09.2019 17:11 11,2 °C 92 % 1019,0 hPa 0,0 mm 0,0 km/h (0 Bft) N-NO 20 ° 0 min 0,000 mm 0,0 UV-I 23 W/m² 9,9 °C 11,2 °C 0,0 km/h (0 Bft)
06.09.2019 17:12 11,2 °C 92 % 1019,0 hPa 0,0 mm 0,0 km/h (0 Bft) N-NO 20 ° 0 min 0,000 mm 0,0 UV-I 23 W/m² 9,9 °C 11,2 °C 0,0 km/h (0 Bft)
06.09.2019 17:13 11,2 °C 92 % 1019,0 hPa 0,0 mm 0,0 km/h (0 Bft) N-NO 20 ° 0 min 0,000 mm 0,0 UV-I 21 W/m² 9,9 °C 11,2 °C 0,0 km/h (0 Bft)
06.09.2019 17:14 11,2 °C 91 % 1019,0 hPa 0,0 mm 0,0 km/h (0 Bft) N-NO 20 ° 0 min 0,000 mm 0,0 UV-I 21 W/m² 9,8 °C 11,2 °C 0,0 km/h (0 Bft)
06.09.2019 17:15 11,2 °C 91 % 1019,0 hPa 0,0 mm 0,0 km/h (0 Bft) N-NO 20 ° 0 min 0,000 mm 0,0 UV-I 21 W/m² 9,8 °C 11,2 °C 0,0 km/h (0 Bft)
06.09.2019 17:16 11,2 °C 92 % 1019,0 hPa 0,0 mm 0,0 km/h (0 Bft) N-NO 20 ° 0 min 0,000 mm 0,0 UV-I 21 W/m² 9,9 °C 11,2 °C 0,0 km/h (0 Bft)
06.09.2019 17:17 11,2 °C 92 % 1019,0 hPa 0,0 mm 0,0 km/h (0 Bft) N-NO 20 ° 0 min 0,000 mm 0,0 UV-I 21 W/m² 9,9 °C 11,2 °C 0,0 km/h (0 Bft)
06.09.2019 17:18 11,2 °C 92 % 1019,0 hPa 0,0 mm 0,0 km/h (0 Bft) N-NO 20 ° 0 min 0,000 mm 0,0 UV-I 19 W/m² 9,9 °C 11,2 °C 0,0 km/h (0 Bft)
06.09.2019 17:19 11,2 °C 92 % 1019,1 hPa 0,0 mm 0,0 km/h (0 Bft) N-NO 20 ° 0 min 0,000 mm 0,0 UV-I 19 W/m² 9,9 °C 11,2 °C 0,0 km/h (0 Bft)
06.09.2019 17:20 11,2 °C 92 % 1019,1 hPa 0,0 mm 0,0 km/h (0 Bft) N-NO 20 ° 0 min 0,000 mm 0,0 UV-I 18 W/m² 9,9 °C 11,2 °C 0,0 km/h (0 Bft)
06.09.2019 17:21 11,2 °C 92 % 1019,1 hPa 0,0 mm 0,0 km/h (0 Bft) N-NO 20 ° 0 min 0,000 mm 0,0 UV-I 18 W/m² 9,9 °C 11,2 °C 0,0 km/h (0 Bft)
06.09.2019 17:22 11,2 °C 92 % 1019,1 hPa 0,0 mm 0,0 km/h (0 Bft) N-NO 20 ° 0 min 0,000 mm 0,0 UV-I 18 W/m² 9,9 °C 11,2 °C 0,0 km/h (0 Bft)
06.09.2019 17:23 11,2 °C 92 % 1019,1 hPa 0,0 mm 0,0 km/h (0 Bft) N-NO 20 ° 0 min 0,000 mm 0,0 UV-I 18 W/m² 9,9 °C 11,2 °C 0,0 km/h (0 Bft)
06.09.2019 17:24 11,2 °C 92 % 1019,1 hPa 0,0 mm 0,0 km/h (0 Bft) N-NO 20 ° 0 min 0,000 mm 0,0 UV-I 16 W/m² 9,9 °C 11,2 °C 0,0 km/h (0 Bft)
06.09.2019 17:25 11,2 °C 92 % 1019,2 hPa 0,0 mm 0,0 km/h (0 Bft) N-NO 20 ° 0 min 0,000 mm 0,0 UV-I 16 W/m² 9,9 °C 11,2 °C 0,0 km/h (0 Bft)
06.09.2019 17:26 11,2 °C 92 % 1019,1 hPa 0,0 mm 0,0 km/h (0 Bft) N-NO 20 ° 0 min 0,000 mm 0,0 UV-I 16 W/m² 9,9 °C 11,2 °C 0,0 km/h (0 Bft)
06.09.2019 17:27 11,2 °C 92 % 1019,2 hPa 0,0 mm 0,0 km/h (0 Bft) N-NO 20 ° 0 min 0,000 mm 0,0 UV-I 16 W/m² 9,9 °C 11,2 °C 0,0 km/h (0 Bft)
06.09.2019 17:28 11,1 °C 92 % 1019,2 hPa 0,0 mm 0,0 km/h (0 Bft) N-NO 20 ° 0 min 0,000 mm 0,0 UV-I 16 W/m² 9,8 °C 11,1 °C 0,0 km/h (0 Bft)
06.09.2019 17:29 11,2 °C 92 % 1019,2 hPa 0,0 mm 0,0 km/h (0 Bft) N-NO 20 ° 0 min 0,000 mm 0,0 UV-I 16 W/m² 9,9 °C 11,2 °C 0,0 km/h (0 Bft)
06.09.2019 17:30 11,1 °C 92 % 1019,2 hPa 0,0 mm 0,0 km/h (0 Bft) N-NO 20 ° 0 min 0,000 mm 0,0 UV-I 16 W/m² 9,8 °C 11,1 °C 0,0 km/h (0 Bft)
06.09.2019 17:31 11,2 °C 92 % 1019,2 hPa 0,0 mm 0,0 km/h (0 Bft) N-NO 20 ° 0 min 0,000 mm 0,0 UV-I 16 W/m² 9,9 °C 11,2 °C 0,0 km/h (0 Bft)
06.09.2019 17:32 11,1 °C 92 % 1019,2 hPa 0,0 mm 0,0 km/h (0 Bft) N-NO 20 ° 0 min 0,000 mm 0,0 UV-I 16 W/m² 9,8 °C 11,1 °C 0,0 km/h (0 Bft)
06.09.2019 17:33 11,1 °C 92 % 1019,2 hPa 0,0 mm 0,0 km/h (0 Bft) N-NO 20 ° 0 min 0,000 mm 0,0 UV-I 16 W/m² 9,8 °C 11,1 °C 0,0 km/h (0 Bft)
06.09.2019 17:34 11,1 °C 92 % 1019,2 hPa 0,0 mm 0,0 km/h (0 Bft) N-NO 20 ° 0 min 0,000 mm 0,0 UV-I 16 W/m² 9,8 °C 11,1 °C 0,0 km/h (0 Bft)
06.09.2019 17:35 11,1 °C 92 % 1019,2 hPa 0,0 mm 0,0 km/h (0 Bft) N-NO 20 ° 0 min 0,000 mm 0,0 UV-I 16 W/m² 9,8 °C 11,1 °C 0,0 km/h (0 Bft)
06.09.2019 17:36 11,1 °C 92 % 1019,2 hPa 0,0 mm 0,0 km/h (0 Bft) N-NO 20 ° 0 min 0,000 mm 0,0 UV-I 16 W/m² 9,8 °C 11,1 °C 0,0 km/h (0 Bft)
06.09.2019 17:37 11,1 °C 92 % 1019,2 hPa 0,0 mm 0,0 km/h (0 Bft) N-NO 20 ° 0 min 0,000 mm 0,0 UV-I 14 W/m² 9,8 °C 11,1 °C 0,0 km/h (0 Bft)
06.09.2019 17:38 11,1 °C 93 % 1019,2 hPa 0,0 mm 0,0 km/h (0 Bft) N-NO 20 ° 0 min 0,000 mm 0,0 UV-I 14 W/m² 10,0 °C 11,1 °C 0,0 km/h (0 Bft)
06.09.2019 17:39 11,1 °C 93 % 1019,2 hPa 0,0 mm 0,0 km/h (0 Bft) N-NO 20 ° 0 min 0,000 mm 0,0 UV-I 14 W/m² 10,0 °C 11,1 °C 0,0 km/h (0 Bft)
06.09.2019 17:40 11,1 °C 93 % 1019,3 hPa 0,0 mm 0,0 km/h (0 Bft) N-NO 20 ° 0 min 0,000 mm 0,0 UV-I 14 W/m² 10,0 °C 11,1 °C 0,0 km/h (0 Bft)
06.09.2019 17:41 11,1 °C 93 % 1019,3 hPa 0,0 mm 0,0 km/h (0 Bft) N-NO 20 ° 0 min 0,000 mm 0,0 UV-I 14 W/m² 10,0 °C 11,1 °C 0,0 km/h (0 Bft)
06.09.2019 17:42 11,0 °C 93 % 1019,2 hPa 0,0 mm 0,0 km/h (0 Bft) N-NO 20 ° 0 min 0,000 mm 0,0 UV-I 12 W/m² 9,9 °C 11,0 °C 0,0 km/h (0 Bft)
06.09.2019 17:43 11,0 °C 93 % 1019,2 hPa 0,0 mm 0,0 km/h (0 Bft) N-NO 20 ° 0 min 0,000 mm 0,0 UV-I 12 W/m² 9,9 °C 11,0 °C 0,0 km/h (0 Bft)
06.09.2019 17:44 11,0 °C 93 % 1019,2 hPa 0,0 mm 0,0 km/h (0 Bft) N-NO 20 ° 0 min 0,000 mm 0,0 UV-I 12 W/m² 9,9 °C 11,0 °C 0,0 km/h (0 Bft)
06.09.2019 17:45 11,0 °C 93 % 1019,2 hPa 0,0 mm 0,0 km/h (0 Bft) N-NO 20 ° 0 min 0,000 mm 0,0 UV-I 12 W/m² 9,9 °C 11,0 °C 0,0 km/h (0 Bft)
06.09.2019 17:46 10,9 °C 93 % 1019,2 hPa 0,0 mm 0,0 km/h (0 Bft) N-NO 20 ° 0 min 0,000 mm 0,0 UV-I 12 W/m² 9,8 °C 10,9 °C 0,0 km/h (0 Bft)
06.09.2019 17:47 11,0 °C 93 % 1019,2 hPa 0,0 mm 0,0 km/h (0 Bft) N-NO 20 ° 0 min 0,000 mm 0,0 UV-I 12 W/m² 9,9 °C 11,0 °C 0,0 km/h (0 Bft)
06.09.2019 17:48 10,9 °C 93 % 1019,2 hPa 0,0 mm 0,0 km/h (0 Bft) N-NO 20 ° 0 min 0,000 mm 0,0 UV-I 11 W/m² 9,8 °C 10,9 °C 0,0 km/h (0 Bft)
06.09.2019 17:49 10,9 °C 93 % 1019,2 hPa 0,0 mm 0,0 km/h (0 Bft) N-NO 20 ° 0 min 0,000 mm 0,0 UV-I 11 W/m² 9,8 °C 10,9 °C 0,0 km/h (0 Bft)
06.09.2019 17:50 10,9 °C 93 % 1019,2 hPa 0,0 mm 0,0 km/h (0 Bft) N-NO 20 ° 0 min 0,000 mm 0,0 UV-I 11 W/m² 9,8 °C 10,9 °C 0,0 km/h (0 Bft)
06.09.2019 17:51 10,9 °C 93 % 1019,1 hPa 0,0 mm 0,0 km/h (0 Bft) N-NO 20 ° 0 min 0,000 mm 0,0 UV-I 11 W/m² 9,8 °C 10,9 °C 0,0 km/h (0 Bft)
06.09.2019 17:52 10,9 °C 93 % 1019,2 hPa 0,0 mm 0,0 km/h (0 Bft) N-NO 20 ° 0 min 0,000 mm 0,0 UV-I 12 W/m² 9,8 °C 10,9 °C 0,0 km/h (0 Bft)
06.09.2019 17:53 10,9 °C 93 % 1019,2 hPa 0,0 mm 0,0 km/h (0 Bft) N-NO 20 ° 0 min 0,000 mm 0,0 UV-I 12 W/m² 9,8 °C 10,9 °C 0,0 km/h (0 Bft)
06.09.2019 17:54 10,9 °C 93 % 1019,2 hPa 0,0 mm 0,0 km/h (0 Bft) N-NO 20 ° 0 min 0,000 mm 0,0 UV-I 12 W/m² 9,8 °C 10,9 °C 0,0 km/h (0 Bft)
06.09.2019 17:55 10,9 °C 93 % 1019,2 hPa 0,0 mm 0,0 km/h (0 Bft) N-NO 20 ° 0 min 0,000 mm 0,0 UV-I 12 W/m² 9,8 °C 10,9 °C 0,0 km/h (0 Bft)
06.09.2019 17:56 10,8 °C 93 % 1019,1 hPa 0,0 mm 0,0 km/h (0 Bft) N-NO 20 ° 0 min 0,000 mm 0,0 UV-I 12 W/m² 9,7 °C 10,8 °C 0,0 km/h (0 Bft)
06.09.2019 17:57 10,8 °C 93 % 1019,1 hPa 0,0 mm 0,0 km/h (0 Bft) N-NO 20 ° 0 min 0,000 mm 0,0 UV-I 12 W/m² 9,7 °C 10,8 °C 0,0 km/h (0 Bft)
06.09.2019 17:58 10,8 °C 94 % 1019,1 hPa 0,0 mm 0,0 km/h (0 Bft) N-NO 20 ° 0 min 0,000 mm 0,0 UV-I 12 W/m² 9,9 °C 10,8 °C 0,0 km/h (0 Bft)
06.09.2019 17:59 10,8 °C 94 % 1019,1 hPa 0,0 mm 0,0 km/h (0 Bft) N-NO 20 ° 0 min 0,000 mm 0,0 UV-I 12 W/m² 9,9 °C 10,8 °C 0,0 km/h (0 Bft)
06.09.2019 18:00 10,8 °C 93 % 1019,1 hPa 0,0 mm 0,0 km/h (0 Bft) N-NO 20 ° 0 min 0,000 mm 0,0 UV-I 11 W/m² 9,7 °C 10,8 °C 0,0 km/h (0 Bft)
06.09.2019 18:01 10,8 °C 93 % 1019,1 hPa 0,0 mm 0,0 km/h (0 Bft) N-NO 20 ° 0 min 0,000 mm 0,0 UV-I 11 W/m² 9,7 °C 10,8 °C 0,0 km/h (0 Bft)
06.09.2019 18:02 10,8 °C 93 % 1019,2 hPa 0,0 mm 0,0 km/h (0 Bft) N-NO 20 ° 0 min 0,000 mm 0,0 UV-I 11 W/m² 9,7 °C 10,8 °C 0,0 km/h (0 Bft)
06.09.2019 18:03 10,8 °C 94 % 1019,1 hPa 0,0 mm 0,0 km/h (0 Bft) N-NO 20 ° 0 min 0,000 mm 0,0 UV-I 11 W/m² 9,9 °C 10,8 °C 0,0 km/h (0 Bft)
06.09.2019 18:04 10,8 °C 94 % 1019,1 hPa 0,0 mm 0,0 km/h (0 Bft) N-NO 20 ° 0 min 0,000 mm 0,0 UV-I 11 W/m² 9,9 °C 10,8 °C 0,0 km/h (0 Bft)
06.09.2019 18:05 10,7 °C 94 % 1019,1 hPa 0,0 mm 0,0 km/h (0 Bft) N-NO 20 ° 0 min 0,000 mm 0,0 UV-I 9 W/m² 9,8 °C 10,7 °C 0,0 km/h (0 Bft)
06.09.2019 18:06 10,7 °C 94 % 1019,1 hPa 0,0 mm 0,0 km/h (0 Bft) N-NO 20 ° 0 min 0,000 mm 0,0 UV-I 9 W/m² 9,8 °C 10,7 °C 0,0 km/h (0 Bft)
06.09.2019 18:07 10,7 °C 94 % 1019,2 hPa 0,0 mm 0,0 km/h (0 Bft) N-NO 20 ° 0 min 0,000 mm 0,0 UV-I 9 W/m² 9,8 °C 10,7 °C 0,0 km/h (0 Bft)
06.09.2019 18:08 10,7 °C 94 % 1019,2 hPa 0,0 mm 0,0 km/h (0 Bft) N-NO 20 ° 0 min 0,000 mm 0,0 UV-I 9 W/m² 9,8 °C 10,7 °C 0,0 km/h (0 Bft)
06.09.2019 18:09 10,6 °C 94 % 1019,1 hPa 0,0 mm 0,0 km/h (0 Bft) N-NO 20 ° 0 min 0,000 mm 0,0 UV-I 9 W/m² 9,7 °C 10,6 °C 0,0 km/h (0 Bft)
06.09.2019 18:10 10,7 °C 94 % 1019,2 hPa 0,0 mm 0,0 km/h (0 Bft) N-NO 20 ° 0 min 0,000 mm 0,0 UV-I 9 W/m² 9,8 °C 10,7 °C 0,0 km/h (0 Bft)
06.09.2019 18:11 10,7 °C 94 % 1019,2 hPa 0,0 mm 0,0 km/h (0 Bft) N-NO 20 ° 0 min 0,000 mm 0,0 UV-I 9 W/m² 9,8 °C 10,7 °C 0,0 km/h (0 Bft)
06.09.2019 18:12 10,6 °C 94 % 1019,2 hPa 0,0 mm 0,0 km/h (0 Bft) N-NO 20 ° 0 min 0,000 mm 0,0 UV-I 9 W/m² 9,7 °C 10,6 °C 0,0 km/h (0 Bft)
06.09.2019 18:13 10,6 °C 94 % 1019,2 hPa 0,0 mm 0,0 km/h (0 Bft) N-NO 20 ° 0 min 0,000 mm 0,0 UV-I 7 W/m² 9,7 °C 10,6 °C 0,0 km/h (0 Bft)
06.09.2019 18:14 10,6 °C 94 % 1019,2 hPa 0,0 mm 0,0 km/h (0 Bft) N-NO 20 ° 0 min 0,000 mm 0,0 UV-I 7 W/m² 9,7 °C 10,6 °C 0,0 km/h (0 Bft)
06.09.2019 18:15 10,6 °C 94 % 1019,2 hPa 0,0 mm 0,0 km/h (0 Bft) N-NO 20 ° 0 min 0,000 mm 0,0 UV-I 7 W/m² 9,7 °C 10,6 °C 0,0 km/h (0 Bft)
06.09.2019 18:16 10,7 °C 94 % 1019,1 hPa 0,0 mm 0,0 km/h (0 Bft) N-NO 20 ° 0 min 0,000 mm 0,0 UV-I 9 W/m² 9,8 °C 10,7 °C 0,0 km/h (0 Bft)
06.09.2019 18:17 10,7 °C 94 % 1019,2 hPa 0,0 mm 0,0 km/h (0 Bft) N-NO 20 ° 0 min 0,000 mm 0,0 UV-I 7 W/m² 9,8 °C 10,7 °C 0,0 km/h (0 Bft)
06.09.2019 18:18 10,7 °C 94 % 1019,2 hPa 0,0 mm 0,0 km/h (0 Bft) N-NO 20 ° 0 min 0,000 mm 0,0 UV-I 7 W/m² 9,8 °C 10,7 °C 0,0 km/h (0 Bft)
06.09.2019 18:19 10,7 °C 94 % 1019,2 hPa 0,0 mm 0,0 km/h (0 Bft) N-NO 20 ° 0 min 0,000 mm 0,0 UV-I 7 W/m² 9,8 °C 10,7 °C 0,0 km/h (0 Bft)
06.09.2019 18:20 10,7 °C 94 % 1019,2 hPa 0,0 mm 0,0 km/h (0 Bft) N-NO 20 ° 0 min 0,000 mm 0,0 UV-I 7 W/m² 9,8 °C 10,7 °C 0,0 km/h (0 Bft)
06.09.2019 18:21 10,7 °C 94 % 1019,2 hPa 0,0 mm 0,0 km/h (0 Bft) N-NO 20 ° 0 min 0,000 mm 0,0 UV-I 7 W/m² 9,8 °C 10,7 °C 0,0 km/h (0 Bft)
06.09.2019 18:22 10,7 °C 94 % 1019,2 hPa 0,0 mm 0,0 km/h (0 Bft) N-NO 20 ° 0 min 0,000 mm 0,0 UV-I 7 W/m² 9,8 °C 10,7 °C 0,0 km/h (0 Bft)
06.09.2019 18:23 10,7 °C 94 % 1019,2 hPa 0,0 mm 0,0 km/h (0 Bft) N-NO 20 ° 0 min 0,000 mm 0,0 UV-I 7 W/m² 9,8 °C 10,7 °C 0,0 km/h (0 Bft)
06.09.2019 18:24 10,7 °C 94 % 1019,3 hPa 0,0 mm 0,0 km/h (0 Bft) N-NO 20 ° 0 min 0,000 mm 0,0 UV-I 7 W/m² 9,8 °C 10,7 °C 0,0 km/h (0 Bft)
06.09.2019 18:25 10,6 °C 94 % 1019,2 hPa 0,0 mm 0,0 km/h (0 Bft) N-NO 20 ° 0 min 0,000 mm 0,0 UV-I 7 W/m² 9,7 °C 10,6 °C 0,0 km/h (0 Bft)
06.09.2019 18:26 10,6 °C 94 % 1019,2 hPa 0,0 mm 0,0 km/h (0 Bft) N-NO 20 ° 0 min 0,000 mm 0,0 UV-I 7 W/m² 9,7 °C 10,6 °C 0,0 km/h (0 Bft)
06.09.2019 18:27 10,6 °C 94 % 1019,2 hPa 0,0 mm 0,0 km/h (0 Bft) N-NO 20 ° 0 min 0,000 mm 0,0 UV-I 7 W/m² 9,7 °C 10,6 °C 0,0 km/h (0 Bft)
06.09.2019 18:28 10,6 °C 94 % 1019,2 hPa 0,0 mm 0,0 km/h (0 Bft) N-NO 20 ° 0 min 0,000 mm 0,0 UV-I 7 W/m² 9,7 °C 10,6 °C 0,0 km/h (0 Bft)
06.09.2019 18:29 10,6 °C 94 % 1019,3 hPa 0,0 mm 0,0 km/h (0 Bft) N-NO 20 ° 0 min 0,000 mm 0,0 UV-I 7 W/m² 9,7 °C 10,6 °C 0,0 km/h (0 Bft)
06.09.2019 18:30 10,6 °C 94 % 1019,2 hPa 0,0 mm 0,0 km/h (0 Bft) N-NO 20 ° 0 min 0,000 mm 0,0 UV-I 7 W/m² 9,7 °C 10,6 °C 0,0 km/h (0 Bft)
06.09.2019 18:31 10,6 °C 94 % 1019,2 hPa 0,0 mm 0,0 km/h (0 Bft) N-NO 20 ° 0 min 0,000 mm 0,0 UV-I 7 W/m² 9,7 °C 10,6 °C 0,0 km/h (0 Bft)
06.09.2019 18:32 10,6 °C 94 % 1019,2 hPa 0,0 mm 0,0 km/h (0 Bft) N-NO 20 ° 0 min 0,000 mm 0,0 UV-I 7 W/m² 9,7 °C 10,6 °C 0,0 km/h (0 Bft)
06.09.2019 18:33 10,5 °C 94 % 1019,2 hPa 0,0 mm 0,0 km/h (0 Bft) N-NO 20 ° 0 min 0,000 mm 0,0 UV-I 7 W/m² 9,6 °C 10,5 °C 0,0 km/h (0 Bft)
06.09.2019 18:34 10,4 °C 94 % 1019,2 hPa 0,0 mm 0,0 km/h (0 Bft) N-NO 20 ° 0 min 0,000 mm 0,0 UV-I 7 W/m² 9,5 °C 10,4 °C 0,0 km/h (0 Bft)
06.09.2019 18:35 10,4 °C 94 % 1019,2 hPa 0,0 mm 0,0 km/h (0 Bft) N-NO 20 ° 0 min 0,000 mm 0,0 UV-I 7 W/m² 9,5 °C 10,4 °C 0,0 km/h (0 Bft)
06.09.2019 18:36 10,4 °C 94 % 1019,1 hPa 0,0 mm 0,0 km/h (0 Bft) N-NO 20 ° 0 min 0,000 mm 0,0 UV-I 7 W/m² 9,5 °C 10,4 °C 0,0 km/h (0 Bft)
06.09.2019 18:37 10,5 °C 94 % 1019,1 hPa 0,0 mm 0,0 km/h (0 Bft) N-NO 20 ° 0 min 0,000 mm 0,0 UV-I 7 W/m² 9,6 °C 10,5 °C 0,0 km/h (0 Bft)
06.09.2019 18:38 10,5 °C 94 % 1019,1 hPa 0,0 mm 0,0 km/h (0 Bft) N-NO 20 ° 0 min 0,000 mm 0,0 UV-I 7 W/m² 9,6 °C 10,5 °C 0,0 km/h (0 Bft)
06.09.2019 18:39 10,4 °C 94 % 1019,1 hPa 0,0 mm 0,0 km/h (0 Bft) N-NO 20 ° 0 min 0,000 mm 0,0 UV-I 7 W/m² 9,5 °C 10,4 °C 0,0 km/h (0 Bft)
06.09.2019 18:40 10,4 °C 94 % 1019,1 hPa 0,0 mm 0,0 km/h (0 Bft) N-NO 20 ° 0 min 0,000 mm 0,0 UV-I 7 W/m² 9,5 °C 10,4 °C 0,0 km/h (0 Bft)
06.09.2019 18:41 10,4 °C 94 % 1019,1 hPa 0,2 mm 0,0 km/h (0 Bft) N-NO 20 ° 0 min 0,000 mm 0,0 UV-I 5 W/m² 9,5 °C 10,4 °C 0,0 km/h (0 Bft)
06.09.2019 18:42 10,4 °C 94 % 1019,1 hPa 0,0 mm 0,0 km/h (0 Bft) N-NO 20 ° 0 min 0,000 mm 0,0 UV-I 5 W/m² 9,5 °C 10,4 °C 0,0 km/h (0 Bft)
06.09.2019 18:43 10,4 °C 94 % 1019,1 hPa 0,0 mm 0,0 km/h (0 Bft) N-NO 20 ° 0 min 0,000 mm 0,0 UV-I 5 W/m² 9,5 °C 10,4 °C 0,0 km/h (0 Bft)
06.09.2019 18:44 10,4 °C 94 % 1019,1 hPa 0,0 mm 0,0 km/h (0 Bft) N-NO 20 ° 0 min 0,000 mm 0,0 UV-I 5 W/m² 9,5 °C 10,4 °C 0,0 km/h (0 Bft)
06.09.2019 18:45 10,4 °C 94 % 1019,1 hPa 0,0 mm 0,0 km/h (0 Bft) N-NO 20 ° 0 min 0,000 mm 0,0 UV-I 5 W/m² 9,5 °C 10,4 °C 0,0 km/h (0 Bft)
06.09.2019 18:46 10,5 °C 94 % 1019,1 hPa 0,0 mm 0,0 km/h (0 Bft) N-NO 20 ° 0 min 0,000 mm 0,0 UV-I 5 W/m² 9,6 °C 10,5 °C 0,0 km/h (0 Bft)
06.09.2019 18:47 10,4 °C 94 % 1019,1 hPa 0,0 mm 0,0 km/h (0 Bft) N-NO 20 ° 0 min 0,000 mm 0,0 UV-I 5 W/m² 9,5 °C 10,4 °C 0,0 km/h (0 Bft)
06.09.2019 18:48 10,4 °C 94 % 1019,1 hPa 0,0 mm 0,0 km/h (0 Bft) N-NO 20 ° 0 min 0,000 mm 0,0 UV-I 5 W/m² 9,5 °C 10,4 °C 0,0 km/h (0 Bft)
06.09.2019 18:49 10,4 °C 94 % 1019,1 hPa 0,0 mm 0,0 km/h (0 Bft) N-NO 20 ° 0 min 0,000 mm 0,0 UV-I 7 W/m² 9,5 °C 10,4 °C 0,0 km/h (0 Bft)
06.09.2019 18:50 10,4 °C 94 % 1019,1 hPa 0,0 mm 0,0 km/h (0 Bft) N-NO 20 ° 0 min 0,000 mm 0,0 UV-I 7 W/m² 9,5 °C 10,4 °C 0,0 km/h (0 Bft)
06.09.2019 18:51 10,4 °C 94 % 1019,1 hPa 0,0 mm 0,0 km/h (0 Bft) N-NO 20 ° 0 min 0,000 mm 0,0 UV-I 7 W/m² 9,5 °C 10,4 °C 0,0 km/h (0 Bft)
06.09.2019 18:52 10,4 °C 94 % 1019,1 hPa 0,0 mm 0,0 km/h (0 Bft) N-NO 20 ° 0 min 0,000 mm 0,0 UV-I 7 W/m² 9,5 °C 10,4 °C 0,0 km/h (0 Bft)
06.09.2019 18:53 10,4 °C 94 % 1019,1 hPa 0,0 mm 0,0 km/h (0 Bft) N-NO 20 ° 0 min 0,000 mm 0,0 UV-I 7 W/m² 9,5 °C 10,4 °C 0,0 km/h (0 Bft)
06.09.2019 18:54 10,4 °C 94 % 1019,1 hPa 0,0 mm 0,0 km/h (0 Bft) N-NO 20 ° 0 min 0,000 mm 0,0 UV-I 7 W/m² 9,5 °C 10,4 °C 0,0 km/h (0 Bft)
06.09.2019 18:55 10,4 °C 94 % 1019,1 hPa 0,0 mm 0,0 km/h (0 Bft) N-NO 20 ° 0 min 0,000 mm 0,0 UV-I 7 W/m² 9,5 °C 10,4 °C 0,0 km/h (0 Bft)
06.09.2019 18:56 10,4 °C 94 % 1019,1 hPa 0,0 mm 0,0 km/h (0 Bft) N-NO 20 ° 0 min 0,000 mm 0,0 UV-I 7 W/m² 9,5 °C 10,4 °C 0,0 km/h (0 Bft)
06.09.2019 18:57 10,4 °C 94 % 1019,1 hPa 0,0 mm 0,0 km/h (0 Bft) N-NO 20 ° 0 min 0,000 mm 0,0 UV-I 7 W/m² 9,5 °C 10,4 °C 0,0 km/h (0 Bft)
06.09.2019 18:58 10,3 °C 94 % 1019,1 hPa 0,0 mm 0,0 km/h (0 Bft) N-NO 20 ° 0 min 0,000 mm 0,0 UV-I 7 W/m² 9,4 °C 10,3 °C 0,0 km/h (0 Bft)
06.09.2019 18:59 10,3 °C 94 % 1019,1 hPa 0,0 mm 0,0 km/h (0 Bft) N-NO 20 ° 0 min 0,000 mm 0,0 UV-I 7 W/m² 9,4 °C 10,3 °C 0,0 km/h (0 Bft)
06.09.2019 19:00 10,3 °C 94 % 1019,1 hPa 0,0 mm 0,0 km/h (0 Bft) N-NO 20 ° 0 min 0,000 mm 0,0 UV-I 7 W/m² 9,4 °C 10,3 °C 0,0 km/h (0 Bft)
06.09.2019 19:01 10,3 °C 94 % 1019,1 hPa 0,0 mm 0,0 km/h (0 Bft) N-NO 20 ° 0 min 0,000 mm 0,0 UV-I 7 W/m² 9,4 °C 10,3 °C 0,0 km/h (0 Bft)
06.09.2019 19:02 10,2 °C 94 % 1019,1 hPa 0,0 mm 0,0 km/h (0 Bft) N-NO 20 ° 0 min 0,000 mm 0,0 UV-I 7 W/m² 9,3 °C 10,2 °C 0,0 km/h (0 Bft)
06.09.2019 19:03 10,2 °C 94 % 1019,1 hPa 0,0 mm 0,0 km/h (0 Bft) N-NO 20 ° 0 min 0,000 mm 0,0 UV-I 7 W/m² 9,3 °C 10,2 °C 0,0 km/h (0 Bft)
06.09.2019 19:04 10,2 °C 94 % 1019,1 hPa 0,0 mm 0,0 km/h (0 Bft) N-NO 20 ° 0 min 0,000 mm 0,0 UV-I 5 W/m² 9,3 °C 10,2 °C 0,0 km/h (0 Bft)
06.09.2019 19:05 10,2 °C 94 % 1019,1 hPa 0,0 mm 0,0 km/h (0 Bft) N-NO 20 ° 0 min 0,000 mm 0,0 UV-I 5 W/m² 9,3 °C 10,2 °C 0,0 km/h (0 Bft)
06.09.2019 19:06 10,2 °C 94 % 1019,1 hPa 0,0 mm 0,0 km/h (0 Bft) N-NO 20 ° 0 min 0,000 mm 0,0 UV-I 5 W/m² 9,3 °C 10,2 °C 0,0 km/h (0 Bft)
06.09.2019 19:07 10,1 °C 94 % 1019,1 hPa 0,0 mm 0,0 km/h (0 Bft) N-NO 20 ° 0 min 0,000 mm 0,0 UV-I 5 W/m² 9,2 °C 10,1 °C 0,0 km/h (0 Bft)
06.09.2019 19:08 10,1 °C 94 % 1019,1 hPa 0,0 mm 0,0 km/h (0 Bft) N-NO 20 ° 0 min 0,000 mm 0,0 UV-I 5 W/m² 9,2 °C 10,1 °C 0,0 km/h (0 Bft)
06.09.2019 19:09 10,1 °C 94 % 1019,1 hPa 0,0 mm 0,0 km/h (0 Bft) N-NO 20 ° 0 min 0,000 mm 0,0 UV-I 5 W/m² 9,2 °C 10,1 °C 0,0 km/h (0 Bft)
06.09.2019 19:10 10,1 °C 94 % 1019,1 hPa 0,0 mm 0,0 km/h (0 Bft) N-NO 20 ° 0 min 0,000 mm 0,0 UV-I 5 W/m² 9,2 °C 10,1 °C 0,0 km/h (0 Bft)
06.09.2019 19:11 10,1 °C 94 % 1019,1 hPa 0,0 mm 0,0 km/h (0 Bft) N-NO 20 ° 0 min 0,000 mm 0,0 UV-I 5 W/m² 9,2 °C 10,1 °C 0,0 km/h (0 Bft)
06.09.2019 19:12 10,1 °C 94 % 1019,0 hPa 0,0 mm 0,0 km/h (0 Bft) N-NO 20 ° 0 min 0,000 mm 0,0 UV-I 5 W/m² 9,2 °C 10,1 °C 0,0 km/h (0 Bft)
06.09.2019 19:13 10,1 °C 94 % 1019,0 hPa 0,0 mm 0,0 km/h (0 Bft) N-NO 20 ° 0 min 0,000 mm 0,0 UV-I 5 W/m² 9,2 °C 10,1 °C 0,0 km/h (0 Bft)
06.09.2019 19:14 10,1 °C 94 % 1019,0 hPa 0,0 mm 0,0 km/h (0 Bft) N-NO 20 ° 0 min 0,000 mm 0,0 UV-I 5 W/m² 9,2 °C 10,1 °C 0,0 km/h (0 Bft)
06.09.2019 19:15 10,1 °C 94 % 1019,0 hPa 0,0 mm 0,0 km/h (0 Bft) N-NO 20 ° 0 min 0,000 mm 0,0 UV-I 5 W/m² 9,2 °C 10,1 °C 0,0 km/h (0 Bft)
06.09.2019 19:16 10,1 °C 94 % 1019,0 hPa 0,0 mm 0,0 km/h (0 Bft) N-NO 20 ° 0 min 0,000 mm 0,0 UV-I 5 W/m² 9,2 °C 10,1 °C 0,0 km/h (0 Bft)
06.09.2019 19:17 10,1 °C 94 % 1019,0 hPa 0,0 mm 0,0 km/h (0 Bft) N-NO 20 ° 0 min 0,000 mm 0,0 UV-I 5 W/m² 9,2 °C 10,1 °C 0,0 km/h (0 Bft)
06.09.2019 19:18 10,1 °C 94 % 1019,0 hPa 0,0 mm 0,0 km/h (0 Bft) N-NO 20 ° 0 min 0,000 mm 0,0 UV-I 5 W/m² 9,2 °C 10,1 °C 0,0 km/h (0 Bft)
06.09.2019 19:19 10,0 °C 94 % 1019,0 hPa 0,0 mm 0,0 km/h (0 Bft) N-NO 20 ° 0 min 0,000 mm 0,0 UV-I 5 W/m² 9,1 °C 10,0 °C 0,0 km/h (0 Bft)
06.09.2019 19:20 10,0 °C 94 % 1019,0 hPa 0,0 mm 0,0 km/h (0 Bft) N-NO 20 ° 0 min 0,000 mm 0,0 UV-I 5 W/m² 9,1 °C 10,0 °C 0,0 km/h (0 Bft)
06.09.2019 19:21 10,0 °C 94 % 1019,0 hPa 0,0 mm 0,0 km/h (0 Bft) N-NO 20 ° 0 min 0,000 mm 0,0 UV-I 5 W/m² 9,1 °C 10,0 °C 0,0 km/h (0 Bft)
06.09.2019 19:22 10,0 °C 94 % 1019,0 hPa 0,0 mm 0,0 km/h (0 Bft) N-NO 20 ° 0 min 0,000 mm 0,0 UV-I 5 W/m² 9,1 °C 10,0 °C 0,0 km/h (0 Bft)
06.09.2019 19:23 9,9 °C 94 % 1019,0 hPa 0,0 mm 0,0 km/h (0 Bft) N-NO 20 ° 0 min 0,000 mm 0,0 UV-I 0 W/m² 9,0 °C 9,9 °C 0,0 km/h (0 Bft)
06.09.2019 19:24 9,9 °C 94 % 1019,0 hPa 0,0 mm 0,0 km/h (0 Bft) N-NO 20 ° 0 min 0,000 mm 0,0 UV-I 0 W/m² 9,0 °C 9,9 °C 0,0 km/h (0 Bft)
06.09.2019 19:25 9,9 °C 94 % 1019,0 hPa 0,0 mm 0,0 km/h (0 Bft) N-NO 20 ° 0 min 0,000 mm 0,0 UV-I 0 W/m² 9,0 °C 9,9 °C 0,0 km/h (0 Bft)
06.09.2019 19:26 9,9 °C 94 % 1019,0 hPa 0,0 mm 0,0 km/h (0 Bft) N-NO 20 ° 0 min 0,000 mm 0,0 UV-I 0 W/m² 9,0 °C 9,9 °C 0,0 km/h (0 Bft)
06.09.2019 19:27 9,9 °C 94 % 1019,0 hPa 0,0 mm 0,0 km/h (0 Bft) N-NO 20 ° 0 min 0,000 mm 0,0 UV-I 0 W/m² 9,0 °C 9,9 °C 0,0 km/h (0 Bft)
06.09.2019 19:28 9,9 °C 94 % 1019,1 hPa 0,0 mm 0,0 km/h (0 Bft) N-NO 20 ° 0 min 0,000 mm 0,0 UV-I 0 W/m² 9,0 °C 9,9 °C 0,0 km/h (0 Bft)
06.09.2019 19:29 9,9 °C 94 % 1019,0 hPa 0,0 mm 0,0 km/h (0 Bft) N-NO 20 ° 0 min 0,000 mm 0,0 UV-I 0 W/m² 9,0 °C 9,9 °C 0,0 km/h (0 Bft)
06.09.2019 19:30 10,0 °C 94 % 1019,0 hPa 0,0 mm 0,0 km/h (0 Bft) N-NO 20 ° 0 min 0,000 mm 0,0 UV-I 0 W/m² 9,1 °C 10,0 °C 0,0 km/h (0 Bft)
06.09.2019 19:31 9,9 °C 94 % 1019,0 hPa 0,0 mm 0,0 km/h (0 Bft) N-NO 20 ° 0 min 0,000 mm 0,0 UV-I 0 W/m² 9,0 °C 9,9 °C 0,0 km/h (0 Bft)
06.09.2019 19:32 9,9 °C 94 % 1019,0 hPa 0,0 mm 0,0 km/h (0 Bft) N-NO 20 ° 0 min 0,000 mm 0,0 UV-I 0 W/m² 9,0 °C 9,9 °C 0,0 km/h (0 Bft)
06.09.2019 19:33 9,9 °C 95 % 1019,0 hPa 0,0 mm 0,0 km/h (0 Bft) N-NO 20 ° 0 min 0,000 mm 0,0 UV-I 0 W/m² 9,1 °C 9,9 °C 0,0 km/h (0 Bft)
06.09.2019 19:34 9,9 °C 95 % 1019,0 hPa 0,0 mm 0,0 km/h (0 Bft) N-NO 20 ° 0 min 0,000 mm 0,0 UV-I 0 W/m² 9,1 °C 9,9 °C 0,0 km/h (0 Bft)
06.09.2019 19:35 9,9 °C 95 % 1019,0 hPa 0,0 mm 0,0 km/h (0 Bft) N-NO 20 ° 0 min 0,000 mm 0,0 UV-I 0 W/m² 9,1 °C 9,9 °C 0,0 km/h (0 Bft)
06.09.2019 19:36 10,0 °C 95 % 1019,0 hPa 0,0 mm 0,0 km/h (0 Bft) N-NO 20 ° 0 min 0,000 mm 0,0 UV-I 0 W/m² 9,2 °C 10,0 °C 0,0 km/h (0 Bft)
06.09.2019 19:37 10,0 °C 95 % 1019,0 hPa 0,0 mm 0,0 km/h (0 Bft) N-NO 20 ° 0 min 0,000 mm 0,0 UV-I 0 W/m² 9,2 °C 10,0 °C 0,0 km/h (0 Bft)
06.09.2019 19:38 10,0 °C 95 % 1019,0 hPa 0,0 mm 0,0 km/h (0 Bft) N-NO 20 ° 0 min 0,000 mm 0,0 UV-I 0 W/m² 9,2 °C 10,0 °C 0,0 km/h (0 Bft)
06.09.2019 19:39 10,0 °C 95 % 1019,0 hPa 0,0 mm 0,0 km/h (0 Bft) N-NO 20 ° 0 min 0,000 mm 0,0 UV-I 0 W/m² 9,2 °C 10,0 °C 0,0 km/h (0 Bft)
06.09.2019 19:40 10,0 °C 95 % 1019,0 hPa 0,0 mm 0,0 km/h (0 Bft) N-NO 20 ° 0 min 0,000 mm 0,0 UV-I 0 W/m² 9,2 °C 10,0 °C 0,0 km/h (0 Bft)
06.09.2019 19:41 10,0 °C 95 % 1019,0 hPa 0,0 mm 0,0 km/h (0 Bft) N-NO 20 ° 0 min 0,000 mm 0,0 UV-I 0 W/m² 9,2 °C 10,0 °C 0,0 km/h (0 Bft)
06.09.2019 19:42 10,0 °C 95 % 1019,0 hPa 0,0 mm 0,0 km/h (0 Bft) N-NO 20 ° 0 min 0,000 mm 0,0 UV-I 0 W/m² 9,2 °C 10,0 °C 0,0 km/h (0 Bft)
06.09.2019 19:43 9,9 °C 94 % 1019,0 hPa 0,0 mm 0,0 km/h (0 Bft) N-NO 20 ° 0 min 0,000 mm 0,0 UV-I 0 W/m² 9,0 °C 9,9 °C 0,0 km/h (0 Bft)
06.09.2019 19:44 9,9 °C 95 % 1019,0 hPa 0,0 mm 0,0 km/h (0 Bft) N-NO 20 ° 0 min 0,000 mm 0,0 UV-I 0 W/m² 9,1 °C 9,9 °C 0,0 km/h (0 Bft)
06.09.2019 19:45 9,9 °C 94 % 1019,0 hPa 0,0 mm 0,0 km/h (0 Bft) N-NO 20 ° 0 min 0,000 mm 0,0 UV-I 0 W/m² 9,0 °C 9,9 °C 0,0 km/h (0 Bft)
06.09.2019 19:46 9,9 °C 94 % 1019,0 hPa 0,0 mm 0,0 km/h (0 Bft) N-NO 20 ° 0 min 0,000 mm 0,0 UV-I 0 W/m² 9,0 °C 9,9 °C 0,0 km/h (0 Bft)
06.09.2019 19:47 9,9 °C 94 % 1019,0 hPa 0,2 mm 0,0 km/h (0 Bft) N-NO 20 ° 0 min 0,000 mm 0,0 UV-I 0 W/m² 9,0 °C 9,9 °C 0,0 km/h (0 Bft)
06.09.2019 19:48 9,9 °C 95 % 1019,0 hPa 0,0 mm 0,0 km/h (0 Bft) N-NO 20 ° 0 min 0,000 mm 0,0 UV-I 0 W/m² 9,1 °C 9,9 °C 0,0 km/h (0 Bft)
06.09.2019 19:49 9,9 °C 95 % 1019,0 hPa 0,0 mm 0,0 km/h (0 Bft) N-NO 20 ° 0 min 0,000 mm 0,0 UV-I 0 W/m² 9,1 °C 9,9 °C 0,0 km/h (0 Bft)
06.09.2019 19:50 9,9 °C 95 % 1019,0 hPa 0,0 mm 0,0 km/h (0 Bft) N-NO 20 ° 0 min 0,000 mm 0,0 UV-I 0 W/m² 9,1 °C 9,9 °C 0,0 km/h (0 Bft)
06.09.2019 19:51 9,9 °C 95 % 1018,9 hPa 0,0 mm 0,0 km/h (0 Bft) N-NO 20 ° 0 min 0,000 mm 0,0 UV-I 0 W/m² 9,1 °C 9,9 °C 0,0 km/h (0 Bft)
06.09.2019 19:52 9,9 °C 95 % 1019,0 hPa 0,0 mm 0,0 km/h (0 Bft) N-NO 20 ° 0 min 0,000 mm 0,0 UV-I 0 W/m² 9,1 °C 9,9 °C 0,0 km/h (0 Bft)
06.09.2019 19:53 9,9 °C 95 % 1018,9 hPa 0,0 mm 0,0 km/h (0 Bft) N-NO 20 ° 0 min 0,000 mm 0,0 UV-I 0 W/m² 9,1 °C 9,9 °C 0,0 km/h (0 Bft)
06.09.2019 19:54 9,9 °C 95 % 1019,0 hPa 0,0 mm 0,0 km/h (0 Bft) N-NO 20 ° 0 min 0,000 mm 0,0 UV-I 0 W/m² 9,1 °C 9,9 °C 0,0 km/h (0 Bft)
06.09.2019 19:55 9,9 °C 95 % 1019,0 hPa 0,0 mm 0,0 km/h (0 Bft) N-NO 20 ° 0 min 0,000 mm 0,0 UV-I 0 W/m² 9,1 °C 9,9 °C 0,0 km/h (0 Bft)
06.09.2019 19:56 9,9 °C 95 % 1019,0 hPa 0,0 mm 0,0 km/h (0 Bft) N-NO 20 ° 0 min 0,000 mm 0,0 UV-I 0 W/m² 9,1 °C 9,9 °C 0,0 km/h (0 Bft)
06.09.2019 19:57 9,9 °C 95 % 1019,0 hPa 0,0 mm 0,0 km/h (0 Bft) N-NO 20 ° 0 min 0,000 mm 0,0 UV-I 0 W/m² 9,1 °C 9,9 °C 0,0 km/h (0 Bft)
06.09.2019 19:58 9,9 °C 95 % 1019,0 hPa 0,0 mm 0,0 km/h (0 Bft) N-NO 20 ° 0 min 0,000 mm 0,0 UV-I 0 W/m² 9,1 °C 9,9 °C 0,0 km/h (0 Bft)
06.09.2019 19:59 9,9 °C 95 % 1019,0 hPa 0,0 mm 0,0 km/h (0 Bft) N-NO 20 ° 0 min 0,000 mm 0,0 UV-I 0 W/m² 9,1 °C 9,9 °C 0,0 km/h (0 Bft)
06.09.2019 20:00 9,9 °C 95 % 1018,9 hPa 0,0 mm 0,0 km/h (0 Bft) N-NO 20 ° 0 min 0,000 mm 0,0 UV-I 0 W/m² 9,1 °C 9,9 °C 0,0 km/h (0 Bft)
06.09.2019 20:01 9,9 °C 95 % 1019,0 hPa 0,0 mm 0,0 km/h (0 Bft) N-NO 20 ° 0 min 0,000 mm 0,0 UV-I 0 W/m² 9,1 °C 9,9 °C 0,0 km/h (0 Bft)
06.09.2019 20:02 9,8 °C 95 % 1019,0 hPa 0,0 mm 0,0 km/h (0 Bft) N-NO 20 ° 0 min 0,000 mm 0,0 UV-I 0 W/m² 9,0 °C 9,8 °C 0,0 km/h (0 Bft)
06.09.2019 20:03 9,9 °C 95 % 1019,0 hPa 0,0 mm 0,0 km/h (0 Bft) N-NO 20 ° 0 min 0,000 mm 0,0 UV-I 0 W/m² 9,1 °C 9,9 °C 0,0 km/h (0 Bft)
06.09.2019 20:04 9,9 °C 95 % 1019,0 hPa 0,0 mm 0,0 km/h (0 Bft) N-NO 20 ° 0 min 0,000 mm 0,0 UV-I 0 W/m² 9,1 °C 9,9 °C 0,0 km/h (0 Bft)
06.09.2019 20:05 9,9 °C 95 % 1019,0 hPa 0,0 mm 0,0 km/h (0 Bft) N-NO 20 ° 0 min 0,000 mm 0,0 UV-I 0 W/m² 9,1 °C 9,9 °C 0,0 km/h (0 Bft)
06.09.2019 20:06 9,8 °C 95 % 1019,0 hPa 0,0 mm 0,0 km/h (0 Bft) N-NO 20 ° 0 min 0,000 mm 0,0 UV-I 0 W/m² 9,0 °C 9,8 °C 0,0 km/h (0 Bft)
06.09.2019 20:07 9,9 °C 95 % 1019,0 hPa 0,0 mm 0,0 km/h (0 Bft) N-NO 20 ° 0 min 0,000 mm 0,0 UV-I 0 W/m² 9,1 °C 9,9 °C 0,0 km/h (0 Bft)
06.09.2019 20:08 9,9 °C 95 % 1019,0 hPa 0,0 mm 0,0 km/h (0 Bft) N-NO 20 ° 0 min 0,000 mm 0,0 UV-I 0 W/m² 9,1 °C 9,9 °C 0,0 km/h (0 Bft)
06.09.2019 20:09 9,9 °C 95 % 1019,0 hPa 0,0 mm 0,0 km/h (0 Bft) N-NO 20 ° 0 min 0,000 mm 0,0 UV-I 0 W/m² 9,1 °C 9,9 °C 0,0 km/h (0 Bft)
06.09.2019 20:10 9,9 °C 95 % 1019,1 hPa 0,0 mm 0,0 km/h (0 Bft) N-NO 20 ° 0 min 0,000 mm 0,0 UV-I 0 W/m² 9,1 °C 9,9 °C 0,0 km/h (0 Bft)
06.09.2019 20:11 9,9 °C 95 % 1019,0 hPa 0,0 mm 0,0 km/h (0 Bft) N-NO 20 ° 0 min 0,000 mm 0,0 UV-I 0 W/m² 9,1 °C 9,9 °C 0,0 km/h (0 Bft)
06.09.2019 20:12 9,8 °C 95 % 1019,0 hPa 0,0 mm 0,0 km/h (0 Bft) N-NO 20 ° 0 min 0,000 mm 0,0 UV-I 0 W/m² 9,0 °C 9,8 °C 0,0 km/h (0 Bft)
06.09.2019 20:13 9,8 °C 95 % 1019,0 hPa 0,0 mm 0,0 km/h (0 Bft) N-NO 20 ° 0 min 0,000 mm 0,0 UV-I 0 W/m² 9,0 °C 9,8 °C 0,0 km/h (0 Bft)
06.09.2019 20:14 9,8 °C 95 % 1019,0 hPa 0,0 mm 0,0 km/h (0 Bft) N-NO 20 ° 0 min 0,000 mm 0,0 UV-I 0 W/m² 9,0 °C 9,8 °C 0,0 km/h (0 Bft)
06.09.2019 20:15 9,8 °C 95 % 1019,1 hPa 0,0 mm 0,0 km/h (0 Bft) N-NO 20 ° 0 min 0,000 mm 0,0 UV-I 0 W/m² 9,0 °C 9,8 °C 0,0 km/h (0 Bft)
06.09.2019 20:16 9,8 °C 95 % 1019,1 hPa 0,0 mm 0,0 km/h (0 Bft) N-NO 20 ° 0 min 0,000 mm 0,0 UV-I 0 W/m² 9,0 °C 9,8 °C 0,0 km/h (0 Bft)
06.09.2019 20:17 9,8 °C 95 % 1019,1 hPa 0,0 mm 0,0 km/h (0 Bft) N-NO 20 ° 0 min 0,000 mm 0,0 UV-I 0 W/m² 9,0 °C 9,8 °C 0,0 km/h (0 Bft)
06.09.2019 20:18 9,8 °C 95 % 1019,0 hPa 0,0 mm 0,0 km/h (0 Bft) N-NO 20 ° 0 min 0,000 mm 0,0 UV-I 0 W/m² 9,0 °C 9,8 °C 0,0 km/h (0 Bft)
06.09.2019 20:19 9,8 °C 95 % 1019,0 hPa 0,0 mm 0,0 km/h (0 Bft) N-NO 20 ° 0 min 0,000 mm 0,0 UV-I 0 W/m² 9,0 °C 9,8 °C 0,0 km/h (0 Bft)
06.09.2019 20:20 9,8 °C 95 % 1019,1 hPa 0,0 mm 0,0 km/h (0 Bft) N-NO 20 ° 0 min 0,000 mm 0,0 UV-I 0 W/m² 9,0 °C 9,8 °C 0,0 km/h (0 Bft)
06.09.2019 20:21 9,7 °C 95 % 1019,1 hPa 0,0 mm 0,0 km/h (0 Bft) N-NO 20 ° 0 min 0,000 mm 0,0 UV-I 0 W/m² 8,9 °C 9,7 °C 0,0 km/h (0 Bft)
06.09.2019 20:22 9,7 °C 95 % 1019,1 hPa 0,0 mm 0,0 km/h (0 Bft) N-NO 20 ° 0 min 0,000 mm 0,0 UV-I 0 W/m² 8,9 °C 9,7 °C 0,0 km/h (0 Bft)
06.09.2019 20:23 9,7 °C 95 % 1019,1 hPa 0,0 mm 0,0 km/h (0 Bft) N-NO 20 ° 0 min 0,000 mm 0,0 UV-I 0 W/m² 8,9 °C 9,7 °C 0,0 km/h (0 Bft)
06.09.2019 20:24 9,7 °C 95 % 1019,1 hPa 0,0 mm 0,0 km/h (0 Bft) N-NO 20 ° 0 min 0,000 mm 0,0 UV-I 0 W/m² 8,9 °C 9,7 °C 0,0 km/h (0 Bft)
06.09.2019 20:25 9,7 °C 95 % 1019,1 hPa 0,0 mm 0,0 km/h (0 Bft) N-NO 20 ° 0 min 0,000 mm 0,0 UV-I 0 W/m² 8,9 °C 9,7 °C 0,0 km/h (0 Bft)
06.09.2019 20:26 9,7 °C 95 % 1019,1 hPa 0,0 mm 0,0 km/h (0 Bft) N-NO 20 ° 0 min 0,000 mm 0,0 UV-I 0 W/m² 8,9 °C 9,7 °C 0,0 km/h (0 Bft)
06.09.2019 20:27 9,7 °C 95 % 1019,2 hPa 0,0 mm 0,0 km/h (0 Bft) N-NO 20 ° 0 min 0,000 mm 0,0 UV-I 0 W/m² 8,9 °C 9,7 °C 0,0 km/h (0 Bft)
06.09.2019 20:28 9,7 °C 95 % 1019,2 hPa 0,0 mm 0,0 km/h (0 Bft) N-NO 20 ° 0 min 0,000 mm 0,0 UV-I 0 W/m² 8,9 °C 9,7 °C 0,0 km/h (0 Bft)
06.09.2019 20:29 9,7 °C 95 % 1019,2 hPa 0,0 mm 0,0 km/h (0 Bft) N-NO 20 ° 0 min 0,000 mm 0,0 UV-I 0 W/m² 8,9 °C 9,7 °C 0,0 km/h (0 Bft)
06.09.2019 20:30 9,6 °C 95 % 1019,2 hPa 0,0 mm 0,0 km/h (0 Bft) N-NO 20 ° 0 min 0,000 mm 0,0 UV-I 0 W/m² 8,8 °C 9,6 °C 0,0 km/h (0 Bft)
06.09.2019 20:31 9,6 °C 95 % 1019,2 hPa 0,0 mm 0,0 km/h (0 Bft) N-NO 20 ° 0 min 0,000 mm 0,0 UV-I 0 W/m² 8,8 °C 9,6 °C 0,0 km/h (0 Bft)
06.09.2019 20:32 9,6 °C 95 % 1019,2 hPa 0,0 mm 0,0 km/h (0 Bft) N-NO 20 ° 0 min 0,000 mm 0,0 UV-I 0 W/m² 8,8 °C 9,6 °C 0,0 km/h (0 Bft)
06.09.2019 20:33 9,7 °C 95 % 1019,2 hPa 0,0 mm 0,0 km/h (0 Bft) N-NO 20 ° 0 min 0,000 mm 0,0 UV-I 0 W/m² 8,9 °C 9,7 °C 0,0 km/h (0 Bft)
06.09.2019 20:34 9,7 °C 95 % 1019,2 hPa 0,0 mm 0,0 km/h (0 Bft) N-NO 20 ° 0 min 0,000 mm 0,0 UV-I 0 W/m² 8,9 °C 9,7 °C 0,0 km/h (0 Bft)
06.09.2019 20:35 9,7 °C 95 % 1019,2 hPa 0,0 mm 0,0 km/h (0 Bft) N-NO 20 ° 0 min 0,000 mm 0,0 UV-I 0 W/m² 8,9 °C 9,7 °C 0,0 km/h (0 Bft)
06.09.2019 20:36 9,6 °C 95 % 1019,2 hPa 0,0 mm 0,0 km/h (0 Bft) N-NO 20 ° 0 min 0,000 mm 0,0 UV-I 0 W/m² 8,8 °C 9,6 °C 0,0 km/h (0 Bft)
06.09.2019 20:37 9,7 °C 95 % 1019,2 hPa 0,0 mm 0,0 km/h (0 Bft) N-NO 20 ° 0 min 0,000 mm 0,0 UV-I 0 W/m² 8,9 °C 9,7 °C 0,0 km/h (0 Bft)
06.09.2019 20:38 9,6 °C 95 % 1019,2 hPa 0,0 mm 0,0 km/h (0 Bft) N-NO 20 ° 0 min 0,000 mm 0,0 UV-I 0 W/m² 8,8 °C 9,6 °C 0,0 km/h (0 Bft)
06.09.2019 20:39 9,7 °C 95 % 1019,2 hPa 0,0 mm 0,0 km/h (0 Bft) N-NO 20 ° 0 min 0,000 mm 0,0 UV-I 0 W/m² 8,9 °C 9,7 °C 0,0 km/h (0 Bft)
06.09.2019 20:40 9,7 °C 95 % 1019,3 hPa 0,0 mm 0,0 km/h (0 Bft) N-NO 20 ° 0 min 0,000 mm 0,0 UV-I 0 W/m² 8,9 °C 9,7 °C 0,0 km/h (0 Bft)
06.09.2019 20:41 9,7 °C 95 % 1019,2 hPa 0,0 mm 0,0 km/h (0 Bft) N-NO 20 ° 0 min 0,000 mm 0,0 UV-I 0 W/m² 8,9 °C 9,7 °C 0,0 km/h (0 Bft)
06.09.2019 20:42 9,7 °C 95 % 1019,3 hPa 0,0 mm 0,0 km/h (0 Bft) N-NO 20 ° 0 min 0,000 mm 0,0 UV-I 0 W/m² 8,9 °C 9,7 °C 0,0 km/h (0 Bft)
06.09.2019 20:43 9,7 °C 95 % 1019,3 hPa 0,0 mm 0,0 km/h (0 Bft) N-NO 20 ° 0 min 0,000 mm 0,0 UV-I 0 W/m² 8,9 °C 9,7 °C 0,0 km/h (0 Bft)
06.09.2019 20:44 9,7 °C 95 % 1019,3 hPa 0,0 mm 0,0 km/h (0 Bft) N-NO 20 ° 0 min 0,000 mm 0,0 UV-I 0 W/m² 8,9 °C 9,7 °C 0,0 km/h (0 Bft)
06.09.2019 20:45 9,7 °C 95 % 1019,3 hPa 0,0 mm 0,0 km/h (0 Bft) N-NO 20 ° 0 min 0,000 mm 0,0 UV-I 0 W/m² 8,9 °C 9,7 °C 0,0 km/h (0 Bft)
06.09.2019 20:46 9,7 °C 95 % 1019,3 hPa 0,0 mm 0,0 km/h (0 Bft) N-NO 20 ° 0 min 0,000 mm 0,0 UV-I 0 W/m² 8,9 °C 9,7 °C 0,0 km/h (0 Bft)
06.09.2019 20:47 9,7 °C 95 % 1019,3 hPa 0,0 mm 0,0 km/h (0 Bft) N-NO 20 ° 0 min 0,000 mm 0,0 UV-I 0 W/m² 8,9 °C 9,7 °C 0,0 km/h (0 Bft)
06.09.2019 20:48 9,7 °C 95 % 1019,3 hPa 0,0 mm 0,0 km/h (0 Bft) N-NO 20 ° 0 min 0,000 mm 0,0 UV-I 0 W/m² 8,9 °C 9,7 °C 0,0 km/h (0 Bft)
06.09.2019 20:49 9,6 °C 95 % 1019,3 hPa 0,0 mm 0,0 km/h (0 Bft) N-NO 20 ° 0 min 0,000 mm 0,0 UV-I 0 W/m² 8,8 °C 9,6 °C 0,0 km/h (0 Bft)
06.09.2019 20:50 9,7 °C 95 % 1019,3 hPa 0,0 mm 0,0 km/h (0 Bft) N-NO 20 ° 0 min 0,000 mm 0,0 UV-I 0 W/m² 8,9 °C 9,7 °C 0,0 km/h (0 Bft)
06.09.2019 20:51 9,7 °C 95 % 1019,3 hPa 0,0 mm 0,0 km/h (0 Bft) N-NO 20 ° 0 min 0,000 mm 0,0 UV-I 0 W/m² 8,9 °C 9,7 °C 0,0 km/h (0 Bft)
06.09.2019 20:52 9,7 °C 95 % 1019,3 hPa 0,0 mm 0,0 km/h (0 Bft) N-NO 20 ° 0 min 0,000 mm 0,0 UV-I 0 W/m² 8,9 °C 9,7 °C 0,0 km/h (0 Bft)
06.09.2019 20:53 9,7 °C 95 % 1019,3 hPa 0,2 mm 0,0 km/h (0 Bft) N-NO 20 ° 0 min 0,000 mm 0,0 UV-I 0 W/m² 8,9 °C 9,7 °C 0,0 km/h (0 Bft)
06.09.2019 20:54 9,7 °C 95 % 1019,4 hPa 0,0 mm 0,0 km/h (0 Bft) N-NO 20 ° 0 min 0,000 mm 0,0 UV-I 0 W/m² 8,9 °C 9,7 °C 0,0 km/h (0 Bft)
06.09.2019 20:55 9,7 °C 95 % 1019,3 hPa 0,0 mm 0,0 km/h (0 Bft) N-NO 20 ° 0 min 0,000 mm 0,0 UV-I 0 W/m² 8,9 °C 9,7 °C 0,0 km/h (0 Bft)
06.09.2019 20:56 9,7 °C 95 % 1019,3 hPa 0,0 mm 0,0 km/h (0 Bft) N-NO 20 ° 0 min 0,000 mm 0,0 UV-I 0 W/m² 8,9 °C 9,7 °C 0,0 km/h (0 Bft)
06.09.2019 20:57 9,7 °C 95 % 1019,4 hPa 0,0 mm 0,0 km/h (0 Bft) N-NO 20 ° 0 min 0,000 mm 0,0 UV-I 0 W/m² 8,9 °C 9,7 °C 0,0 km/h (0 Bft)
06.09.2019 20:58 9,7 °C 95 % 1019,3 hPa 0,0 mm 0,0 km/h (0 Bft) N-NO 20 ° 0 min 0,000 mm 0,0 UV-I 0 W/m² 8,9 °C 9,7 °C 0,0 km/h (0 Bft)
06.09.2019 20:59 9,7 °C 95 % 1019,4 hPa 0,0 mm 0,0 km/h (0 Bft) N-NO 20 ° 0 min 0,000 mm 0,0 UV-I 0 W/m² 8,9 °C 9,7 °C 0,0 km/h (0 Bft)
06.09.2019 21:00 9,7 °C 95 % 1019,3 hPa 0,0 mm 0,0 km/h (0 Bft) N-NO 20 ° 0 min 0,000 mm 0,0 UV-I 0 W/m² 8,9 °C 9,7 °C 0,0 km/h (0 Bft)
06.09.2019 21:01 9,7 °C 95 % 1019,3 hPa 0,0 mm 0,0 km/h (0 Bft) N-NO 20 ° 0 min 0,000 mm 0,0 UV-I 0 W/m² 8,9 °C 9,7 °C 0,0 km/h (0 Bft)
06.09.2019 21:02 9,7 °C 95 % 1019,3 hPa 0,0 mm 0,0 km/h (0 Bft) N-NO 20 ° 0 min 0,000 mm 0,0 UV-I 0 W/m² 8,9 °C 9,7 °C 0,0 km/h (0 Bft)
06.09.2019 21:03 9,7 °C 95 % 1019,3 hPa 0,0 mm 0,0 km/h (0 Bft) N-NO 20 ° 0 min 0,000 mm 0,0 UV-I 0 W/m² 8,9 °C 9,7 °C 0,0 km/h (0 Bft)
06.09.2019 21:04 9,7 °C 95 % 1019,3 hPa 0,0 mm 0,0 km/h (0 Bft) N-NO 20 ° 0 min 0,000 mm 0,0 UV-I 0 W/m² 8,9 °C 9,7 °C 0,0 km/h (0 Bft)
06.09.2019 21:05 9,7 °C 95 % 1019,4 hPa 0,0 mm 0,0 km/h (0 Bft) N-NO 20 ° 0 min 0,000 mm 0,0 UV-I 0 W/m² 8,9 °C 9,7 °C 0,0 km/h (0 Bft)
06.09.2019 21:06 9,7 °C 95 % 1019,4 hPa 0,0 mm 0,0 km/h (0 Bft) N-NO 20 ° 0 min 0,000 mm 0,0 UV-I 0 W/m² 8,9 °C 9,7 °C 0,0 km/h (0 Bft)
06.09.2019 21:07 9,7 °C 95 % 1019,4 hPa 0,0 mm 0,0 km/h (0 Bft) N-NO 20 ° 0 min 0,000 mm 0,0 UV-I 0 W/m² 8,9 °C 9,7 °C 0,0 km/h (0 Bft)
06.09.2019 21:08 9,7 °C 95 % 1019,4 hPa 0,0 mm 0,0 km/h (0 Bft) N-NO 20 ° 0 min 0,000 mm 0,0 UV-I 0 W/m² 8,9 °C 9,7 °C 0,0 km/h (0 Bft)
06.09.2019 21:09 9,7 °C 95 % 1019,4 hPa 0,0 mm 0,0 km/h (0 Bft) N-NO 20 ° 0 min 0,000 mm 0,0 UV-I 0 W/m² 8,9 °C 9,7 °C 0,0 km/h (0 Bft)
06.09.2019 21:10 9,7 °C 95 % 1019,4 hPa 0,0 mm 0,0 km/h (0 Bft) N-NO 20 ° 0 min 0,000 mm 0,0 UV-I 0 W/m² 8,9 °C 9,7 °C 0,0 km/h (0 Bft)
06.09.2019 21:11 9,7 °C 95 % 1019,4 hPa 0,0 mm 0,0 km/h (0 Bft) N-NO 20 ° 0 min 0,000 mm 0,0 UV-I 0 W/m² 8,9 °C 9,7 °C 0,0 km/h (0 Bft)
06.09.2019 21:12 9,7 °C 95 % 1019,4 hPa 0,0 mm 0,0 km/h (0 Bft) N-NO 20 ° 0 min 0,000 mm 0,0 UV-I 0 W/m² 8,9 °C 9,7 °C 0,0 km/h (0 Bft)
06.09.2019 21:13 9,7 °C 95 % 1019,3 hPa 0,0 mm 0,0 km/h (0 Bft) N-NO 20 ° 0 min 0,000 mm 0,0 UV-I 0 W/m² 8,9 °C 9,7 °C 0,0 km/h (0 Bft)
06.09.2019 21:14 9,7 °C 95 % 1019,4 hPa 0,0 mm 0,0 km/h (0 Bft) N-NO 20 ° 0 min 0,000 mm 0,0 UV-I 0 W/m² 8,9 °C 9,7 °C 0,0 km/h (0 Bft)
06.09.2019 21:15 9,7 °C 95 % 1019,4 hPa 0,0 mm 0,0 km/h (0 Bft) N-NO 20 ° 0 min 0,000 mm 0,0 UV-I 0 W/m² 8,9 °C 9,7 °C 0,0 km/h (0 Bft)
06.09.2019 21:16 9,8 °C 95 % 1019,4 hPa 0,0 mm 0,0 km/h (0 Bft) N-NO 20 ° 0 min 0,000 mm 0,0 UV-I 0 W/m² 9,0 °C 9,8 °C 0,0 km/h (0 Bft)
06.09.2019 21:17 9,7 °C 95 % 1019,4 hPa 0,0 mm 0,0 km/h (0 Bft) N-NO 20 ° 0 min 0,000 mm 0,0 UV-I 0 W/m² 8,9 °C 9,7 °C 0,0 km/h (0 Bft)
06.09.2019 21:18 9,7 °C 95 % 1019,4 hPa 0,0 mm 0,0 km/h (0 Bft) N-NO 20 ° 0 min 0,000 mm 0,0 UV-I 0 W/m² 8,9 °C 9,7 °C 0,0 km/h (0 Bft)
06.09.2019 21:19 9,7 °C 95 % 1019,3 hPa 0,0 mm 0,0 km/h (0 Bft) N-NO 20 ° 0 min 0,000 mm 0,0 UV-I 0 W/m² 8,9 °C 9,7 °C 0,0 km/h (0 Bft)
06.09.2019 21:20 9,7 °C 95 % 1019,3 hPa 0,0 mm 0,0 km/h (0 Bft) N-NO 20 ° 0 min 0,000 mm 0,0 UV-I 0 W/m² 8,9 °C 9,7 °C 0,0 km/h (0 Bft)
06.09.2019 21:21 9,7 °C 95 % 1019,4 hPa 0,0 mm 0,0 km/h (0 Bft) N-NO 20 ° 0 min 0,000 mm 0,0 UV-I 0 W/m² 8,9 °C 9,7 °C 0,0 km/h (0 Bft)
06.09.2019 21:22 9,7 °C 95 % 1019,3 hPa 0,0 mm 0,0 km/h (0 Bft) N-NO 20 ° 0 min 0,000 mm 0,0 UV-I 0 W/m² 8,9 °C 9,7 °C 0,0 km/h (0 Bft)
06.09.2019 21:23 9,7 °C 95 % 1019,4 hPa 0,0 mm 0,0 km/h (0 Bft) N-NO 20 ° 0 min 0,000 mm 0,0 UV-I 0 W/m² 8,9 °C 9,7 °C 0,0 km/h (0 Bft)
06.09.2019 21:24 9,7 °C 95 % 1019,3 hPa 0,0 mm 0,0 km/h (0 Bft) N-NO 20 ° 0 min 0,000 mm 0,0 UV-I 0 W/m² 8,9 °C 9,7 °C 0,0 km/h (0 Bft)
06.09.2019 21:25 9,7 °C 95 % 1019,3 hPa 0,0 mm 0,0 km/h (0 Bft) N-NO 20 ° 0 min 0,000 mm 0,0 UV-I 0 W/m² 8,9 °C 9,7 °C 0,0 km/h (0 Bft)
06.09.2019 21:26 9,8 °C 95 % 1019,3 hPa 0,0 mm 0,0 km/h (0 Bft) N-NO 20 ° 0 min 0,000 mm 0,0 UV-I 0 W/m² 9,0 °C 9,8 °C 0,0 km/h (0 Bft)
06.09.2019 21:27 9,7 °C 95 % 1019,3 hPa 0,0 mm 0,0 km/h (0 Bft) N-NO 20 ° 0 min 0,000 mm 0,0 UV-I 0 W/m² 8,9 °C 9,7 °C 0,0 km/h (0 Bft)
06.09.2019 21:28 9,7 °C 95 % 1019,3 hPa 0,0 mm 0,0 km/h (0 Bft) N-NO 20 ° 0 min 0,000 mm 0,0 UV-I 0 W/m² 8,9 °C 9,7 °C 0,0 km/h (0 Bft)
06.09.2019 21:29 9,7 °C 95 % 1019,3 hPa 0,0 mm 0,0 km/h (0 Bft) N-NO 20 ° 0 min 0,000 mm 0,0 UV-I 0 W/m² 8,9 °C 9,7 °C 0,0 km/h (0 Bft)
06.09.2019 21:30 9,8 °C 95 % 1019,3 hPa 0,0 mm 0,0 km/h (0 Bft) N-NO 20 ° 0 min 0,000 mm 0,0 UV-I 0 W/m² 9,0 °C 9,8 °C 0,0 km/h (0 Bft)
06.09.2019 21:31 9,8 °C 95 % 1019,3 hPa 0,0 mm 0,0 km/h (0 Bft) N-NO 20 ° 0 min 0,000 mm 0,0 UV-I 0 W/m² 9,0 °C 9,8 °C 0,0 km/h (0 Bft)
06.09.2019 21:32 9,8 °C 95 % 1019,3 hPa 0,0 mm 0,0 km/h (0 Bft) N-NO 20 ° 0 min 0,000 mm 0,0 UV-I 0 W/m² 9,0 °C 9,8 °C 0,0 km/h (0 Bft)
06.09.2019 21:33 9,8 °C 95 % 1019,3 hPa 0,0 mm 0,0 km/h (0 Bft) N-NO 20 ° 0 min 0,000 mm 0,0 UV-I 0 W/m² 9,0 °C 9,8 °C 0,0 km/h (0 Bft)
06.09.2019 21:34 9,8 °C 95 % 1019,3 hPa 0,0 mm 0,0 km/h (0 Bft) N-NO 20 ° 0 min 0,000 mm 0,0 UV-I 0 W/m² 9,0 °C 9,8 °C 0,0 km/h (0 Bft)
06.09.2019 21:35 9,8 °C 95 % 1019,3 hPa 0,0 mm 0,0 km/h (0 Bft) N-NO 20 ° 0 min 0,000 mm 0,0 UV-I 0 W/m² 9,0 °C 9,8 °C 0,0 km/h (0 Bft)
06.09.2019 21:36 9,8 °C 95 % 1019,3 hPa 0,0 mm 0,0 km/h (0 Bft) N-NO 20 ° 0 min 0,000 mm 0,0 UV-I 0 W/m² 9,0 °C 9,8 °C 0,0 km/h (0 Bft)
06.09.2019 21:37 9,8 °C 95 % 1019,3 hPa 0,0 mm 0,0 km/h (0 Bft) N-NO 20 ° 0 min 0,000 mm 0,0 UV-I 0 W/m² 9,0 °C 9,8 °C 0,0 km/h (0 Bft)
06.09.2019 21:38 9,8 °C 95 % 1019,3 hPa 0,0 mm 0,0 km/h (0 Bft) N-NO 20 ° 0 min 0,000 mm 0,0 UV-I 0 W/m² 9,0 °C 9,8 °C 0,0 km/h (0 Bft)
06.09.2019 21:39 9,8 °C 95 % 1019,4 hPa 0,0 mm 0,0 km/h (0 Bft) N-NO 20 ° 0 min 0,000 mm 0,0 UV-I 0 W/m² 9,0 °C 9,8 °C 0,0 km/h (0 Bft)
06.09.2019 21:40 9,8 °C 95 % 1019,4 hPa 0,0 mm 0,0 km/h (0 Bft) N-NO 20 ° 0 min 0,000 mm 0,0 UV-I 0 W/m² 9,0 °C 9,8 °C 0,0 km/h (0 Bft)
06.09.2019 21:41 9,8 °C 95 % 1019,4 hPa 0,0 mm 0,0 km/h (0 Bft) N-NO 20 ° 0 min 0,000 mm 0,0 UV-I 0 W/m² 9,0 °C 9,8 °C 0,0 km/h (0 Bft)
06.09.2019 21:42 9,8 °C 95 % 1019,4 hPa 0,0 mm 0,0 km/h (0 Bft) N-NO 20 ° 0 min 0,000 mm 0,0 UV-I 0 W/m² 9,0 °C 9,8 °C 0,0 km/h (0 Bft)
06.09.2019 21:43 9,8 °C 95 % 1019,4 hPa 0,0 mm 0,0 km/h (0 Bft) N-NO 20 ° 0 min 0,000 mm 0,0 UV-I 0 W/m² 9,0 °C 9,8 °C 0,0 km/h (0 Bft)
06.09.2019 21:44 9,8 °C 95 % 1019,4 hPa 0,0 mm 0,0 km/h (0 Bft) N-NO 20 ° 0 min 0,000 mm 0,0 UV-I 0 W/m² 9,0 °C 9,8 °C 0,0 km/h (0 Bft)
06.09.2019 21:45 9,8 °C 95 % 1019,4 hPa 0,0 mm 0,0 km/h (0 Bft) N-NO 20 ° 0 min 0,000 mm 0,0 UV-I 0 W/m² 9,0 °C 9,8 °C 0,0 km/h (0 Bft)
06.09.2019 21:46 9,7 °C 95 % 1019,4 hPa 0,0 mm 0,0 km/h (0 Bft) N-NO 20 ° 0 min 0,000 mm 0,0 UV-I 0 W/m² 8,9 °C 9,7 °C 0,0 km/h (0 Bft)
06.09.2019 21:47 9,7 °C 95 % 1019,4 hPa 0,0 mm 0,0 km/h (0 Bft) N-NO 20 ° 0 min 0,000 mm 0,0 UV-I 0 W/m² 8,9 °C 9,7 °C 0,0 km/h (0 Bft)
06.09.2019 21:48 9,8 °C 95 % 1019,4 hPa 0,2 mm 0,0 km/h (0 Bft) N-NO 20 ° 0 min 0,000 mm 0,0 UV-I 0 W/m² 9,0 °C 9,8 °C 0,0 km/h (0 Bft)
06.09.2019 21:49 9,7 °C 95 % 1019,4 hPa 0,0 mm 0,0 km/h (0 Bft) N-NO 20 ° 0 min 0,000 mm 0,0 UV-I 0 W/m² 8,9 °C 9,7 °C 0,0 km/h (0 Bft)
06.09.2019 21:50 9,7 °C 95 % 1019,4 hPa 0,0 mm 0,0 km/h (0 Bft) N-NO 20 ° 0 min 0,000 mm 0,0 UV-I 0 W/m² 8,9 °C 9,7 °C 0,0 km/h (0 Bft)
06.09.2019 21:51 9,7 °C 95 % 1019,4 hPa 0,0 mm 0,0 km/h (0 Bft) N-NO 20 ° 0 min 0,000 mm 0,0 UV-I 0 W/m² 8,9 °C 9,7 °C 0,0 km/h (0 Bft)
06.09.2019 21:52 9,7 °C 95 % 1019,4 hPa 0,0 mm 0,0 km/h (0 Bft) N-NO 20 ° 0 min 0,000 mm 0,0 UV-I 0 W/m² 8,9 °C 9,7 °C 0,0 km/h (0 Bft)
06.09.2019 21:53 9,7 °C 95 % 1019,4 hPa 0,0 mm 0,0 km/h (0 Bft) N-NO 20 ° 0 min 0,000 mm 0,0 UV-I 0 W/m² 8,9 °C 9,7 °C 0,0 km/h (0 Bft)
06.09.2019 21:54 9,7 °C 95 % 1019,4 hPa 0,0 mm 0,0 km/h (0 Bft) N-NO 20 ° 0 min 0,000 mm 0,0 UV-I 0 W/m² 8,9 °C 9,7 °C 0,0 km/h (0 Bft)
06.09.2019 21:55 9,7 °C 95 % 1019,4 hPa 0,0 mm 0,0 km/h (0 Bft) N-NO 20 ° 0 min 0,000 mm 0,0 UV-I 0 W/m² 8,9 °C 9,7 °C 0,0 km/h (0 Bft)
06.09.2019 21:56 9,7 °C 95 % 1019,4 hPa 0,0 mm 0,0 km/h (0 Bft) N-NO 20 ° 0 min 0,000 mm 0,0 UV-I 0 W/m² 8,9 °C 9,7 °C 0,0 km/h (0 Bft)
06.09.2019 21:57 9,8 °C 95 % 1019,4 hPa 0,0 mm 0,0 km/h (0 Bft) N-NO 20 ° 0 min 0,000 mm 0,0 UV-I 0 W/m² 9,0 °C 9,8 °C 0,0 km/h (0 Bft)
06.09.2019 21:58 9,8 °C 95 % 1019,4 hPa 0,0 mm 0,0 km/h (0 Bft) N-NO 20 ° 0 min 0,000 mm 0,0 UV-I 0 W/m² 9,0 °C 9,8 °C 0,0 km/h (0 Bft)
06.09.2019 21:59 9,7 °C 95 % 1019,4 hPa 0,0 mm 0,0 km/h (0 Bft) N-NO 20 ° 0 min 0,000 mm 0,0 UV-I 0 W/m² 8,9 °C 9,7 °C 0,0 km/h (0 Bft)
06.09.2019 22:00 9,8 °C 95 % 1019,4 hPa 0,0 mm 0,0 km/h (0 Bft) N-NO 20 ° 0 min 0,000 mm 0,0 UV-I 0 W/m² 9,0 °C 9,8 °C 0,0 km/h (0 Bft)
06.09.2019 22:01 9,7 °C 95 % 1019,4 hPa 0,0 mm 0,0 km/h (0 Bft) N-NO 20 ° 0 min 0,000 mm 0,0 UV-I 0 W/m² 8,9 °C 9,7 °C 0,0 km/h (0 Bft)
06.09.2019 22:02 9,8 °C 95 % 1019,4 hPa 0,0 mm 0,0 km/h (0 Bft) N-NO 20 ° 0 min 0,000 mm 0,0 UV-I 0 W/m² 9,0 °C 9,8 °C 0,0 km/h (0 Bft)
06.09.2019 22:03 9,7 °C 95 % 1019,4 hPa 0,0 mm 0,0 km/h (0 Bft) N-NO 20 ° 0 min 0,000 mm 0,0 UV-I 0 W/m² 8,9 °C 9,7 °C 0,0 km/h (0 Bft)
06.09.2019 22:04 9,7 °C 95 % 1019,4 hPa 0,0 mm 0,0 km/h (0 Bft) N-NO 20 ° 0 min 0,000 mm 0,0 UV-I 0 W/m² 8,9 °C 9,7 °C 0,0 km/h (0 Bft)
06.09.2019 22:05 9,7 °C 95 % 1019,4 hPa 0,0 mm 0,0 km/h (0 Bft) N-NO 20 ° 0 min 0,000 mm 0,0 UV-I 0 W/m² 8,9 °C 9,7 °C 0,0 km/h (0 Bft)
06.09.2019 22:06 9,8 °C 95 % 1019,4 hPa 0,0 mm 0,0 km/h (0 Bft) SW 221 ° 0 min 0,000 mm 0,0 UV-I 0 W/m² 9,0 °C 9,8 °C 0,0 km/h (0 Bft)
06.09.2019 22:07 9,7 °C 95 % 1019,4 hPa 0,0 mm 0,0 km/h (0 Bft) SW 221 ° 0 min 0,000 mm 0,0 UV-I 0 W/m² 8,9 °C 9,7 °C 0,0 km/h (0 Bft)
06.09.2019 22:08 9,7 °C 95 % 1019,4 hPa 0,0 mm 0,0 km/h (0 Bft) SW 221 ° 0 min 0,000 mm 0,0 UV-I 0 W/m² 8,9 °C 9,7 °C 0,0 km/h (0 Bft)
06.09.2019 22:09 9,7 °C 95 % 1019,4 hPa 0,0 mm 0,0 km/h (0 Bft) SW 221 ° 0 min 0,000 mm 0,0 UV-I 0 W/m² 8,9 °C 9,7 °C 0,0 km/h (0 Bft)
06.09.2019 22:10 9,7 °C 95 % 1019,4 hPa 0,0 mm 0,0 km/h (0 Bft) SW 221 ° 0 min 0,000 mm 0,0 UV-I 0 W/m² 8,9 °C 9,7 °C 0,0 km/h (0 Bft)
06.09.2019 22:11 9,7 °C 95 % 1019,4 hPa 0,0 mm 0,0 km/h (0 Bft) SW 221 ° 0 min 0,000 mm 0,0 UV-I 0 W/m² 8,9 °C 9,7 °C 0,0 km/h (0 Bft)
06.09.2019 22:12 9,7 °C 95 % 1019,4 hPa 0,0 mm 0,0 km/h (0 Bft) SW 221 ° 0 min 0,000 mm 0,0 UV-I 0 W/m² 8,9 °C 9,7 °C 0,0 km/h (0 Bft)
06.09.2019 22:13 9,7 °C 95 % 1019,4 hPa 0,0 mm 0,0 km/h (0 Bft) SW 221 ° 0 min 0,000 mm 0,0 UV-I 0 W/m² 8,9 °C 9,7 °C 0,0 km/h (0 Bft)
06.09.2019 22:14 9,7 °C 95 % 1019,4 hPa 0,0 mm 0,0 km/h (0 Bft) SW 221 ° 0 min 0,000 mm 0,0 UV-I 0 W/m² 8,9 °C 9,7 °C 0,0 km/h (0 Bft)
06.09.2019 22:15 9,7 °C 95 % 1019,4 hPa 0,0 mm 0,0 km/h (0 Bft) SW 221 ° 0 min 0,000 mm 0,0 UV-I 0 W/m² 8,9 °C 9,7 °C 0,0 km/h (0 Bft)
06.09.2019 22:16 9,7 °C 95 % 1019,4 hPa 0,0 mm 0,0 km/h (0 Bft) SW 221 ° 0 min 0,000 mm 0,0 UV-I 0 W/m² 8,9 °C 9,7 °C 0,0 km/h (0 Bft)
06.09.2019 22:17 9,7 °C 95 % 1019,4 hPa 0,0 mm 0,0 km/h (0 Bft) SW 221 ° 0 min 0,000 mm 0,0 UV-I 0 W/m² 8,9 °C 9,7 °C 0,0 km/h (0 Bft)
06.09.2019 22:18 9,7 °C 95 % 1019,4 hPa 0,0 mm 0,0 km/h (0 Bft) SW 221 ° 0 min 0,000 mm 0,0 UV-I 0 W/m² 8,9 °C 9,7 °C 0,0 km/h (0 Bft)
06.09.2019 22:19 9,7 °C 95 % 1019,4 hPa 0,0 mm 0,0 km/h (0 Bft) SW 231 ° 0 min 0,000 mm 0,0 UV-I 0 W/m² 8,9 °C 9,7 °C 0,0 km/h (0 Bft)
06.09.2019 22:20 9,7 °C 95 % 1019,4 hPa 0,0 mm 0,0 km/h (0 Bft) SW 231 ° 0 min 0,000 mm 0,0 UV-I 0 W/m² 8,9 °C 9,7 °C 0,0 km/h (0 Bft)
06.09.2019 22:21 9,7 °C 95 % 1019,4 hPa 0,0 mm 0,0 km/h (0 Bft) SW 231 ° 0 min 0,000 mm 0,0 UV-I 0 W/m² 8,9 °C 9,7 °C 0,0 km/h (0 Bft)
06.09.2019 22:22 9,7 °C 95 % 1019,4 hPa 0,0 mm 0,0 km/h (0 Bft) SW 231 ° 0 min 0,000 mm 0,0 UV-I 0 W/m² 8,9 °C 9,7 °C 0,0 km/h (0 Bft)
06.09.2019 22:23 9,7 °C 95 % 1019,4 hPa 0,0 mm 0,0 km/h (0 Bft) SW 231 ° 0 min 0,000 mm 0,0 UV-I 0 W/m² 8,9 °C 9,7 °C 0,0 km/h (0 Bft)
06.09.2019 22:24 9,7 °C 95 % 1019,4 hPa 0,0 mm 0,0 km/h (0 Bft) SW 231 ° 0 min 0,000 mm 0,0 UV-I 0 W/m² 8,9 °C 9,7 °C 0,0 km/h (0 Bft)
06.09.2019 22:25 9,7 °C 95 % 1019,4 hPa 0,0 mm 0,0 km/h (0 Bft) SW 231 ° 0 min 0,000 mm 0,0 UV-I 0 W/m² 8,9 °C 9,7 °C 0,0 km/h (0 Bft)
06.09.2019 22:26 9,7 °C 95 % 1019,4 hPa 0,0 mm 0,0 km/h (0 Bft) SW 231 ° 0 min 0,000 mm 0,0 UV-I 0 W/m² 8,9 °C 9,7 °C 0,0 km/h (0 Bft)
06.09.2019 22:27 9,7 °C 95 % 1019,4 hPa 0,2 mm 0,0 km/h (0 Bft) SW 231 ° 0 min 0,000 mm 0,0 UV-I 0 W/m² 8,9 °C 9,7 °C 0,0 km/h (0 Bft)
06.09.2019 22:28 9,7 °C 95 % 1019,3 hPa 0,0 mm 0,0 km/h (0 Bft) SW 231 ° 0 min 0,000 mm 0,0 UV-I 0 W/m² 8,9 °C 9,7 °C 0,0 km/h (0 Bft)
06.09.2019 22:29 9,7 °C 95 % 1019,4 hPa 0,0 mm 0,0 km/h (0 Bft) SW 231 ° 0 min 0,000 mm 0,0 UV-I 0 W/m² 8,9 °C 9,7 °C 0,0 km/h (0 Bft)
06.09.2019 22:30 9,7 °C 95 % 1019,4 hPa 0,0 mm 0,0 km/h (0 Bft) SW 231 ° 0 min 0,000 mm 0,0 UV-I 0 W/m² 8,9 °C 9,7 °C 0,0 km/h (0 Bft)
06.09.2019 22:31 9,7 °C 95 % 1019,4 hPa 0,0 mm 0,0 km/h (0 Bft) SW 231 ° 0 min 0,000 mm 0,0 UV-I 0 W/m² 8,9 °C 9,7 °C 0,0 km/h (0 Bft)
06.09.2019 22:32 9,7 °C 95 % 1019,4 hPa 0,0 mm 0,0 km/h (0 Bft) SW 231 ° 0 min 0,000 mm 0,0 UV-I 0 W/m² 8,9 °C 9,7 °C 0,0 km/h (0 Bft)
06.09.2019 22:33 9,8 °C 95 % 1019,4 hPa 0,0 mm 0,0 km/h (0 Bft) SW 231 ° 0 min 0,000 mm 0,0 UV-I 0 W/m² 9,0 °C 9,8 °C 0,0 km/h (0 Bft)
06.09.2019 22:34 9,8 °C 95 % 1019,4 hPa 0,0 mm 0,0 km/h (0 Bft) SW 231 ° 0 min 0,000 mm 0,0 UV-I 0 W/m² 9,0 °C 9,8 °C 0,0 km/h (0 Bft)
06.09.2019 22:35 9,8 °C 95 % 1019,4 hPa 0,0 mm 0,0 km/h (0 Bft) SW 231 ° 0 min 0,000 mm 0,0 UV-I 0 W/m² 9,0 °C 9,8 °C 0,0 km/h (0 Bft)
06.09.2019 22:36 9,7 °C 95 % 1019,4 hPa 0,0 mm 0,0 km/h (0 Bft) SW 231 ° 0 min 0,000 mm 0,0 UV-I 0 W/m² 8,9 °C 9,7 °C 0,0 km/h (0 Bft)
06.09.2019 22:37 9,8 °C 95 % 1019,4 hPa 0,0 mm 0,0 km/h (0 Bft) SW 231 ° 0 min 0,000 mm 0,0 UV-I 0 W/m² 9,0 °C 9,8 °C 0,0 km/h (0 Bft)
06.09.2019 22:38 9,8 °C 95 % 1019,4 hPa 0,0 mm 0,0 km/h (0 Bft) SW 231 ° 0 min 0,000 mm 0,0 UV-I 0 W/m² 9,0 °C 9,8 °C 0,0 km/h (0 Bft)
06.09.2019 22:39 9,7 °C 95 % 1019,4 hPa 0,0 mm 0,0 km/h (0 Bft) SW 231 ° 0 min 0,000 mm 0,0 UV-I 0 W/m² 8,9 °C 9,7 °C 0,0 km/h (0 Bft)
06.09.2019 22:40 9,8 °C 95 % 1019,4 hPa 0,0 mm 0,0 km/h (0 Bft) SW 231 ° 0 min 0,000 mm 0,0 UV-I 0 W/m² 9,0 °C 9,8 °C 0,0 km/h (0 Bft)
06.09.2019 22:41 9,8 °C 95 % 1019,3 hPa 0,0 mm 0,0 km/h (0 Bft) SW 231 ° 0 min 0,000 mm 0,0 UV-I 0 W/m² 9,0 °C 9,8 °C 0,0 km/h (0 Bft)
06.09.2019 22:42 9,8 °C 95 % 1019,3 hPa 0,0 mm 0,0 km/h (0 Bft) SW 231 ° 0 min 0,000 mm 0,0 UV-I 0 W/m² 9,0 °C 9,8 °C 0,0 km/h (0 Bft)
06.09.2019 22:43 9,7 °C 95 % 1019,4 hPa 0,0 mm 0,0 km/h (0 Bft) SW 231 ° 0 min 0,000 mm 0,0 UV-I 0 W/m² 8,9 °C 9,7 °C 0,0 km/h (0 Bft)
06.09.2019 22:44 9,7 °C 95 % 1019,4 hPa 0,0 mm 0,0 km/h (0 Bft) SW 231 ° 0 min 0,000 mm 0,0 UV-I 0 W/m² 8,9 °C 9,7 °C 0,0 km/h (0 Bft)
06.09.2019 22:45 9,7 °C 95 % 1019,3 hPa 0,0 mm 0,0 km/h (0 Bft) SW 231 ° 0 min 0,000 mm 0,0 UV-I 0 W/m² 8,9 °C 9,7 °C 0,0 km/h (0 Bft)
06.09.2019 22:46 9,8 °C 95 % 1019,3 hPa 0,0 mm 0,0 km/h (0 Bft) SW 231 ° 0 min 0,000 mm 0,0 UV-I 0 W/m² 9,0 °C 9,8 °C 0,0 km/h (0 Bft)
06.09.2019 22:47 9,8 °C 95 % 1019,3 hPa 0,0 mm 0,0 km/h (0 Bft) SW 231 ° 0 min 0,000 mm 0,0 UV-I 0 W/m² 9,0 °C 9,8 °C 0,0 km/h (0 Bft)
06.09.2019 22:48 9,8 °C 95 % 1019,3 hPa 0,0 mm 0,0 km/h (0 Bft) SW 231 ° 0 min 0,000 mm 0,0 UV-I 0 W/m² 9,0 °C 9,8 °C 0,0 km/h (0 Bft)
06.09.2019 22:49 9,8 °C 95 % 1019,3 hPa 0,0 mm 0,0 km/h (0 Bft) SW 231 ° 0 min 0,000 mm 0,0 UV-I 0 W/m² 9,0 °C 9,8 °C 0,0 km/h (0 Bft)
06.09.2019 22:50 9,8 °C 95 % 1019,3 hPa 0,0 mm 0,0 km/h (0 Bft) SW 231 ° 0 min 0,000 mm 0,0 UV-I 0 W/m² 9,0 °C 9,8 °C 0,0 km/h (0 Bft)
06.09.2019 22:51 9,8 °C 95 % 1019,3 hPa 0,0 mm 0,0 km/h (0 Bft) SW 231 ° 0 min 0,000 mm 0,0 UV-I 0 W/m² 9,0 °C 9,8 °C 0,0 km/h (0 Bft)
06.09.2019 22:52 9,7 °C 95 % 1019,3 hPa 0,0 mm 0,0 km/h (0 Bft) SW 231 ° 0 min 0,000 mm 0,0 UV-I 0 W/m² 8,9 °C 9,7 °C 0,0 km/h (0 Bft)
06.09.2019 22:53 9,8 °C 95 % 1019,3 hPa 0,0 mm 0,0 km/h (0 Bft) SW 231 ° 0 min 0,000 mm 0,0 UV-I 0 W/m² 9,0 °C 9,8 °C 0,0 km/h (0 Bft)
06.09.2019 22:54 9,7 °C 95 % 1019,3 hPa 0,0 mm 0,0 km/h (0 Bft) SW 231 ° 0 min 0,000 mm 0,0 UV-I 0 W/m² 8,9 °C 9,7 °C 0,0 km/h (0 Bft)
06.09.2019 22:55 9,7 °C 95 % 1019,3 hPa 0,0 mm 0,0 km/h (0 Bft) SW 231 ° 0 min 0,000 mm 0,0 UV-I 0 W/m² 8,9 °C 9,7 °C 0,0 km/h (0 Bft)
06.09.2019 22:56 9,7 °C 95 % 1019,3 hPa 0,0 mm 0,0 km/h (0 Bft) SW 231 ° 0 min 0,000 mm 0,0 UV-I 0 W/m² 8,9 °C 9,7 °C 0,0 km/h (0 Bft)
06.09.2019 22:57 9,7 °C 95 % 1019,3 hPa 0,0 mm 0,0 km/h (0 Bft) SW 231 ° 0 min 0,000 mm 0,0 UV-I 0 W/m² 8,9 °C 9,7 °C 0,0 km/h (0 Bft)
06.09.2019 22:58 9,7 °C 95 % 1019,3 hPa 0,0 mm 0,0 km/h (0 Bft) SW 231 ° 0 min 0,000 mm 0,0 UV-I 0 W/m² 8,9 °C 9,7 °C 0,0 km/h (0 Bft)
06.09.2019 22:59 9,7 °C 95 % 1019,3 hPa 0,0 mm 0,0 km/h (0 Bft) SW 231 ° 0 min 0,000 mm 0,0 UV-I 0 W/m² 8,9 °C 9,7 °C 0,0 km/h (0 Bft)
06.09.2019 23:00 9,7 °C 95 % 1019,3 hPa 0,0 mm 0,0 km/h (0 Bft) SW 231 ° 0 min 0,000 mm 0,0 UV-I 0 W/m² 8,9 °C 9,7 °C 0,0 km/h (0 Bft)
06.09.2019 23:01 9,7 °C 95 % 1019,3 hPa 0,0 mm 0,0 km/h (0 Bft) SW 231 ° 0 min 0,000 mm 0,0 UV-I 0 W/m² 8,9 °C 9,7 °C 0,0 km/h (0 Bft)
06.09.2019 23:02 9,7 °C 95 % 1019,3 hPa 0,0 mm 0,0 km/h (0 Bft) SW 231 ° 0 min 0,000 mm 0,0 UV-I 0 W/m² 8,9 °C 9,7 °C 0,0 km/h (0 Bft)
06.09.2019 23:03 9,7 °C 95 % 1019,3 hPa 0,0 mm 0,0 km/h (0 Bft) SW 231 ° 0 min 0,000 mm 0,0 UV-I 0 W/m² 8,9 °C 9,7 °C 0,0 km/h (0 Bft)
06.09.2019 23:04 9,7 °C 95 % 1019,3 hPa 0,0 mm 0,0 km/h (0 Bft) SW 231 ° 0 min 0,000 mm 0,0 UV-I 0 W/m² 8,9 °C 9,7 °C 0,0 km/h (0 Bft)
06.09.2019 23:05 9,7 °C 95 % 1019,3 hPa 0,0 mm 0,0 km/h (0 Bft) SW 231 ° 0 min 0,000 mm 0,0 UV-I 0 W/m² 8,9 °C 9,7 °C 0,0 km/h (0 Bft)
06.09.2019 23:06 9,7 °C 95 % 1019,3 hPa 0,0 mm 0,0 km/h (0 Bft) SW 231 ° 0 min 0,000 mm 0,0 UV-I 0 W/m² 8,9 °C 9,7 °C 0,0 km/h (0 Bft)
06.09.2019 23:07 9,7 °C 95 % 1019,3 hPa 0,0 mm 0,0 km/h (0 Bft) SW 231 ° 0 min 0,000 mm 0,0 UV-I 0 W/m² 8,9 °C 9,7 °C 0,0 km/h (0 Bft)
06.09.2019 23:08 9,7 °C 95 % 1019,3 hPa 0,0 mm 0,0 km/h (0 Bft) SW 231 ° 0 min 0,000 mm 0,0 UV-I 0 W/m² 8,9 °C 9,7 °C 0,0 km/h (0 Bft)
06.09.2019 23:09 9,7 °C 95 % 1019,3 hPa 0,0 mm 0,0 km/h (0 Bft) SW 231 ° 0 min 0,000 mm 0,0 UV-I 0 W/m² 8,9 °C 9,7 °C 0,0 km/h (0 Bft)
06.09.2019 23:10 9,7 °C 95 % 1019,3 hPa 0,0 mm 0,0 km/h (0 Bft) SW 231 ° 0 min 0,000 mm 0,0 UV-I 0 W/m² 8,9 °C 9,7 °C 0,0 km/h (0 Bft)
06.09.2019 23:11 9,7 °C 95 % 1019,3 hPa 0,2 mm 0,0 km/h (0 Bft) SW 231 ° 0 min 0,000 mm 0,0 UV-I 0 W/m² 8,9 °C 9,7 °C 0,0 km/h (0 Bft)
06.09.2019 23:12 9,7 °C 95 % 1019,3 hPa 0,0 mm 0,0 km/h (0 Bft) SW 231 ° 0 min 0,000 mm 0,0 UV-I 0 W/m² 8,9 °C 9,7 °C 0,0 km/h (0 Bft)
06.09.2019 23:13 9,7 °C 95 % 1019,3 hPa 0,0 mm 0,0 km/h (0 Bft) SW 231 ° 0 min 0,000 mm 0,0 UV-I 0 W/m² 8,9 °C 9,7 °C 0,0 km/h (0 Bft)
06.09.2019 23:14 9,7 °C 95 % 1019,3 hPa 0,0 mm 0,0 km/h (0 Bft) SW 231 ° 0 min 0,000 mm 0,0 UV-I 0 W/m² 8,9 °C 9,7 °C 0,0 km/h (0 Bft)
06.09.2019 23:15 9,7 °C 95 % 1019,3 hPa 0,0 mm 0,0 km/h (0 Bft) SW 231 ° 0 min 0,000 mm 0,0 UV-I 0 W/m² 8,9 °C 9,7 °C 0,0 km/h (0 Bft)
06.09.2019 23:16 9,7 °C 95 % 1019,3 hPa 0,0 mm 0,0 km/h (0 Bft) SW 231 ° 0 min 0,000 mm 0,0 UV-I 0 W/m² 8,9 °C 9,7 °C 0,0 km/h (0 Bft)
06.09.2019 23:17 9,7 °C 95 % 1019,3 hPa 0,0 mm 0,0 km/h (0 Bft) SW 231 ° 0 min 0,000 mm 0,0 UV-I 0 W/m² 8,9 °C 9,7 °C 0,0 km/h (0 Bft)
06.09.2019 23:18 9,7 °C 95 % 1019,3 hPa 0,0 mm 0,0 km/h (0 Bft) SW 231 ° 0 min 0,000 mm 0,0 UV-I 0 W/m² 8,9 °C 9,7 °C 0,0 km/h (0 Bft)
06.09.2019 23:19 9,7 °C 95 % 1019,3 hPa 0,0 mm 0,0 km/h (0 Bft) SW 231 ° 0 min 0,000 mm 0,0 UV-I 0 W/m² 8,9 °C 9,7 °C 0,0 km/h (0 Bft)
06.09.2019 23:20 9,7 °C 95 % 1019,1 hPa 0,0 mm 0,0 km/h (0 Bft) SW 231 ° 0 min 0,000 mm 0,0 UV-I 0 W/m² 8,9 °C 9,7 °C 0,0 km/h (0 Bft)
06.09.2019 23:21 9,7 °C 95 % 1019,2 hPa 0,0 mm 0,0 km/h (0 Bft) SW 231 ° 0 min 0,000 mm 0,0 UV-I 0 W/m² 8,9 °C 9,7 °C 0,0 km/h (0 Bft)
06.09.2019 23:22 9,7 °C 95 % 1019,1 hPa 0,0 mm 0,0 km/h (0 Bft) SW 231 ° 0 min 0,000 mm 0,0 UV-I 0 W/m² 8,9 °C 9,7 °C 0,0 km/h (0 Bft)
06.09.2019 23:23 9,7 °C 95 % 1019,2 hPa 0,0 mm 0,0 km/h (0 Bft) SW 231 ° 0 min 0,000 mm 0,0 UV-I 0 W/m² 8,9 °C 9,7 °C 0,0 km/h (0 Bft)
06.09.2019 23:24 9,7 °C 95 % 1019,1 hPa 0,0 mm 0,0 km/h (0 Bft) SW 231 ° 0 min 0,000 mm 0,0 UV-I 0 W/m² 8,9 °C 9,7 °C 0,0 km/h (0 Bft)
06.09.2019 23:25 9,7 °C 95 % 1019,2 hPa 0,0 mm 0,0 km/h (0 Bft) SW 231 ° 0 min 0,000 mm 0,0 UV-I 0 W/m² 8,9 °C 9,7 °C 0,0 km/h (0 Bft)
06.09.2019 23:26 9,7 °C 95 % 1019,1 hPa 0,0 mm 0,0 km/h (0 Bft) SW 231 ° 0 min 0,000 mm 0,0 UV-I 0 W/m² 8,9 °C 9,7 °C 0,0 km/h (0 Bft)
06.09.2019 23:27 9,7 °C 95 % 1019,1 hPa 0,0 mm 0,0 km/h (0 Bft) SW 231 ° 0 min 0,000 mm 0,0 UV-I 0 W/m² 8,9 °C 9,7 °C 0,0 km/h (0 Bft)
06.09.2019 23:28 9,7 °C 95 % 1019,1 hPa 0,0 mm 0,0 km/h (0 Bft) SW 231 ° 0 min 0,000 mm 0,0 UV-I 0 W/m² 8,9 °C 9,7 °C 0,0 km/h (0 Bft)
06.09.2019 23:29 9,7 °C 95 % 1019,2 hPa 0,0 mm 0,0 km/h (0 Bft) SW 231 ° 0 min 0,000 mm 0,0 UV-I 0 W/m² 8,9 °C 9,7 °C 0,0 km/h (0 Bft)
06.09.2019 23:30 9,7 °C 95 % 1019,1 hPa 0,0 mm 0,0 km/h (0 Bft) SW 231 ° 0 min 0,000 mm 0,0 UV-I 0 W/m² 8,9 °C 9,7 °C 0,0 km/h (0 Bft)
06.09.2019 23:31 9,7 °C 95 % 1019,1 hPa 0,0 mm 0,0 km/h (0 Bft) SW 231 ° 0 min 0,000 mm 0,0 UV-I 0 W/m² 8,9 °C 9,7 °C 0,0 km/h (0 Bft)
06.09.2019 23:32 9,7 °C 95 % 1019,1 hPa 0,0 mm 0,0 km/h (0 Bft) SW 231 ° 0 min 0,000 mm 0,0 UV-I 0 W/m² 8,9 °C 9,7 °C 0,0 km/h (0 Bft)
06.09.2019 23:33 9,7 °C 95 % 1019,1 hPa 0,0 mm 0,0 km/h (0 Bft) SW 231 ° 0 min 0,000 mm 0,0 UV-I 0 W/m² 8,9 °C 9,7 °C 0,0 km/h (0 Bft)
06.09.2019 23:34 9,7 °C 95 % 1019,1 hPa 0,0 mm 0,0 km/h (0 Bft) SW 231 ° 0 min 0,000 mm 0,0 UV-I 0 W/m² 8,9 °C 9,7 °C 0,0 km/h (0 Bft)
06.09.2019 23:35 9,7 °C 95 % 1019,1 hPa 0,0 mm 0,0 km/h (0 Bft) SW 231 ° 0 min 0,000 mm 0,0 UV-I 0 W/m² 8,9 °C 9,7 °C 0,0 km/h (0 Bft)
06.09.2019 23:36 9,7 °C 95 % 1019,1 hPa 0,0 mm 0,0 km/h (0 Bft) SW 231 ° 0 min 0,000 mm 0,0 UV-I 0 W/m² 8,9 °C 9,7 °C 0,0 km/h (0 Bft)
06.09.2019 23:37 9,7 °C 95 % 1019,1 hPa 0,0 mm 0,0 km/h (0 Bft) SW 231 ° 0 min 0,000 mm 0,0 UV-I 0 W/m² 8,9 °C 9,7 °C 0,0 km/h (0 Bft)
06.09.2019 23:38 9,7 °C 95 % 1019,1 hPa 0,0 mm 0,0 km/h (0 Bft) SW 231 ° 0 min 0,000 mm 0,0 UV-I 0 W/m² 8,9 °C 9,7 °C 0,0 km/h (0 Bft)
06.09.2019 23:39 9,7 °C 96 % 1019,1 hPa 0,0 mm 0,0 km/h (0 Bft) SW 231 ° 0 min 0,000 mm 0,0 UV-I 0 W/m² 9,1 °C 9,7 °C 0,0 km/h (0 Bft)
06.09.2019 23:40 9,7 °C 96 % 1019,1 hPa 0,0 mm 0,0 km/h (0 Bft) SW 231 ° 0 min 0,000 mm 0,0 UV-I 0 W/m² 9,1 °C 9,7 °C 0,0 km/h (0 Bft)
06.09.2019 23:41 9,7 °C 96 % 1019,1 hPa 0,0 mm 0,0 km/h (0 Bft) SW 231 ° 0 min 0,000 mm 0,0 UV-I 0 W/m² 9,1 °C 9,7 °C 0,0 km/h (0 Bft)
06.09.2019 23:42 9,7 °C 96 % 1019,1 hPa 0,0 mm 0,0 km/h (0 Bft) SW 231 ° 0 min 0,000 mm 0,0 UV-I 0 W/m² 9,1 °C 9,7 °C 0,0 km/h (0 Bft)
06.09.2019 23:43 9,7 °C 96 % 1019,1 hPa 0,0 mm 0,0 km/h (0 Bft) SW 231 ° 0 min 0,000 mm 0,0 UV-I 0 W/m² 9,1 °C 9,7 °C 0,0 km/h (0 Bft)
06.09.2019 23:44 9,7 °C 95 % 1019,1 hPa 0,0 mm 0,0 km/h (0 Bft) SW 231 ° 0 min 0,000 mm 0,0 UV-I 0 W/m² 8,9 °C 9,7 °C 0,0 km/h (0 Bft)
06.09.2019 23:45 9,7 °C 95 % 1019,1 hPa 0,0 mm 0,0 km/h (0 Bft) SW 231 ° 0 min 0,000 mm 0,0 UV-I 0 W/m² 8,9 °C 9,7 °C 0,0 km/h (0 Bft)
06.09.2019 23:46 9,7 °C 95 % 1019,1 hPa 0,0 mm 0,0 km/h (0 Bft) SW 231 ° 0 min 0,000 mm 0,0 UV-I 0 W/m² 8,9 °C 9,7 °C 0,0 km/h (0 Bft)
06.09.2019 23:47 9,8 °C 96 % 1019,1 hPa 0,0 mm 0,0 km/h (0 Bft) SW 231 ° 0 min 0,000 mm 0,0 UV-I 0 W/m² 9,2 °C 9,8 °C 0,0 km/h (0 Bft)
06.09.2019 23:48 9,7 °C 95 % 1019,1 hPa 0,0 mm 0,0 km/h (0 Bft) SW 231 ° 0 min 0,000 mm 0,0 UV-I 0 W/m² 8,9 °C 9,7 °C 0,0 km/h (0 Bft)
06.09.2019 23:49 9,7 °C 95 % 1019,1 hPa 0,0 mm 0,0 km/h (0 Bft) SW 231 ° 0 min 0,000 mm 0,0 UV-I 0 W/m² 8,9 °C 9,7 °C 0,0 km/h (0 Bft)
06.09.2019 23:50 9,8 °C 95 % 1019,1 hPa 0,0 mm 0,0 km/h (0 Bft) SW 231 ° 0 min 0,000 mm 0,0 UV-I 0 W/m² 9,0 °C 9,8 °C 0,0 km/h (0 Bft)
06.09.2019 23:51 9,7 °C 96 % 1019,1 hPa 0,2 mm 0,0 km/h (0 Bft) SW 231 ° 0 min 0,000 mm 0,0 UV-I 0 W/m² 9,1 °C 9,7 °C 0,0 km/h (0 Bft)
06.09.2019 23:52 9,8 °C 96 % 1019,1 hPa 0,0 mm 0,0 km/h (0 Bft) SW 231 ° 0 min 0,000 mm 0,0 UV-I 0 W/m² 9,2 °C 9,8 °C 0,0 km/h (0 Bft)
06.09.2019 23:53 9,8 °C 96 % 1019,1 hPa 0,0 mm 0,0 km/h (0 Bft) SW 231 ° 0 min 0,000 mm 0,0 UV-I 0 W/m² 9,2 °C 9,8 °C 0,0 km/h (0 Bft)
06.09.2019 23:54 9,8 °C 95 % 1019,1 hPa 0,0 mm 0,0 km/h (0 Bft) SW 231 ° 0 min 0,000 mm 0,0 UV-I 0 W/m² 9,0 °C 9,8 °C 0,0 km/h (0 Bft)
06.09.2019 23:55 9,8 °C 96 % 1019,1 hPa 0,0 mm 0,0 km/h (0 Bft) SW 231 ° 0 min 0,000 mm 0,0 UV-I 0 W/m² 9,2 °C 9,8 °C 0,0 km/h (0 Bft)
06.09.2019 23:56 9,8 °C 95 % 1019,1 hPa 0,0 mm 0,0 km/h (0 Bft) SW 231 ° 0 min 0,000 mm 0,0 UV-I 0 W/m² 9,0 °C 9,8 °C 0,0 km/h (0 Bft)
06.09.2019 23:57 9,8 °C 96 % 1019,1 hPa 0,0 mm 0,0 km/h (0 Bft) SW 231 ° 0 min 0,000 mm 0,0 UV-I 0 W/m² 9,2 °C 9,8 °C 0,0 km/h (0 Bft)
06.09.2019 23:58 9,8 °C 96 % 1019,1 hPa 0,0 mm 0,0 km/h (0 Bft) SW 231 ° 0 min 0,000 mm 0,0 UV-I 0 W/m² 9,2 °C 9,8 °C 0,0 km/h (0 Bft)
06.09.2019 23:59 9,8 °C 95 % 1019,1 hPa 0,0 mm 0,0 km/h (0 Bft) SW 231 ° 0 min 0,000 mm 0,0 UV-I 0 W/m² 9,0 °C 9,8 °C 0,0 km/h (0 Bft)
_ Min-Zeit 02:18 16:11 20:00 - 23:59 - - - - - - 02:18 02:18 23:59
Minimum _ 7,6 °C 90 % 1018,9 hPa - 0,0 km/h (0 Bft) - - - - - - 6,9 °C 7,6 °C 0,0 km/h (0 Bft)
_ Max-Zeit 16:09 23:58 00:56 23:51 11:16 - - 23:59 11:00 11:21 10:22 15:36 16:09 10:35
Maximum _ 11,4 °C 96 % 1022,5 hPa 0,2 mm 11,0 km/h
O (2 Bft)
- - 0 min 0,102 mm 2,1 UV-I 283 W/m² 10,1 °C 11,4 °C 19,3 km/h
NO (3 Bft)
Durchschnitt _ 9,5 °C 94 % 1020,4 hPa #7,4 mm 0,7 km/h (0 Bft) O-NO - #0 min. #0,457 mm 1,1 UV-I 41 W/m² 8,6 °C 9,5 °C 1,3 km/h (1 Bft)